<?xml version="1.0" encoding="UTF-8"?>
<gpx creator="Garmin Connect" version="1.1"
  xsi:schemaLocation="http://www.topografix.com/GPX/1/1 http://www.topografix.com/GPX/11.xsd"
  xmlns:ns3="http://www.garmin.com/xmlschemas/TrackPointExtension/v1"
  xmlns="http://www.topografix.com/GPX/1/1"
  xmlns:xsi="http://www.w3.org/2001/XMLSchema-instance" xmlns:ns2="http://www.garmin.com/xmlschemas/GpxExtensions/v3">
  <metadata>
    <name>Bucles plus</name>
    <link href="connect.garmin.com">
      <text>Garmin Connect</text>
    </link>
    <time>2022-01-27T16:43:37.000Z</time>
  </metadata>
  <trk>
    <name>Bucles plus</name>
    <desc></desc>
    <trkseg>
      <trkpt lat="41.92745" lon="2.81561">
        <ele>85.59</ele>
        <time>2022-01-27T16:43:37.000Z</time>
      </trkpt>
      <trkpt lat="41.9275" lon="2.81574">
        <ele>85.63341061028</ele>
        <time>2022-01-27T16:43:37.002Z</time>
      </trkpt>
      <trkpt lat="41.9275" lon="2.81574">
        <ele>85.63341061028</ele>
        <time>2022-01-27T16:43:37.004Z</time>
      </trkpt>
      <trkpt lat="41.92752061295" lon="2.81589459709">
        <ele>85.68</ele>
        <time>2022-01-27T16:43:37.008Z</time>
      </trkpt>
      <trkpt lat="41.92752061295" lon="2.81589459709">
        <ele>85.68</ele>
        <time>2022-01-27T16:43:37.012Z</time>
      </trkpt>
      <trkpt lat="41.92754" lon="2.81604">
        <ele>85.86</ele>
        <time>2022-01-27T16:43:37.017Z</time>
      </trkpt>
      <trkpt lat="41.92754" lon="2.81604">
        <ele>85.86</ele>
        <time>2022-01-27T16:43:37.022Z</time>
      </trkpt>
      <trkpt lat="41.92753705992" lon="2.81618112394">
        <ele>86.11</ele>
        <time>2022-01-27T16:43:37.029Z</time>
      </trkpt>
      <trkpt lat="41.92753705992" lon="2.81618112394">
        <ele>86.11</ele>
        <time>2022-01-27T16:43:37.036Z</time>
      </trkpt>
      <trkpt lat="41.92753373707" lon="2.81634062056">
        <ele>86.56</ele>
        <time>2022-01-27T16:43:37.045Z</time>
      </trkpt>
      <trkpt lat="41.92753373707" lon="2.81634062056">
        <ele>86.56</ele>
        <time>2022-01-27T16:43:37.054Z</time>
      </trkpt>
      <trkpt lat="41.92753" lon="2.81652">
        <ele>87.03</ele>
        <time>2022-01-27T16:43:37.065Z</time>
      </trkpt>
      <trkpt lat="41.92753" lon="2.81652">
        <ele>87.03</ele>
        <time>2022-01-27T16:43:37.076Z</time>
      </trkpt>
      <trkpt lat="41.92752932197" lon="2.81652293814">
        <ele>87.03</ele>
        <time>2022-01-27T16:43:37.087Z</time>
      </trkpt>
      <trkpt lat="41.92752932197" lon="2.81652293814">
        <ele>87.03</ele>
        <time>2022-01-27T16:43:37.098Z</time>
      </trkpt>
      <trkpt lat="41.92750214639" lon="2.81664069896">
        <ele>87.34</ele>
        <time>2022-01-27T16:43:37.111Z</time>
      </trkpt>
      <trkpt lat="41.92750214639" lon="2.81664069896">
        <ele>87.34</ele>
        <time>2022-01-27T16:43:37.124Z</time>
      </trkpt>
      <trkpt lat="41.92747" lon="2.81678">
        <ele>87.62</ele>
        <time>2022-01-27T16:43:37.138Z</time>
      </trkpt>
      <trkpt lat="41.92747" lon="2.81678">
        <ele>87.62</ele>
        <time>2022-01-27T16:43:37.152Z</time>
      </trkpt>
      <trkpt lat="41.92746579592" lon="2.8169229386">
        <ele>87.71</ele>
        <time>2022-01-27T16:43:37.168Z</time>
      </trkpt>
      <trkpt lat="41.92746579592" lon="2.8169229386">
        <ele>87.71</ele>
        <time>2022-01-27T16:43:37.184Z</time>
      </trkpt>
      <trkpt lat="41.92746" lon="2.81712">
        <ele>87.64</ele>
        <time>2022-01-27T16:43:37.202Z</time>
      </trkpt>
      <trkpt lat="41.92746" lon="2.81712">
        <ele>87.64</ele>
        <time>2022-01-27T16:43:37.220Z</time>
      </trkpt>
      <trkpt lat="41.92757581319" lon="2.81712510941">
        <ele>87.47</ele>
        <time>2022-01-27T16:43:37.240Z</time>
      </trkpt>
      <trkpt lat="41.92757581319" lon="2.81712510941">
        <ele>87.47</ele>
        <time>2022-01-27T16:43:37.260Z</time>
      </trkpt>
      <trkpt lat="41.92775468201" lon="2.81713300068">
        <ele>87.38</ele>
        <time>2022-01-27T16:43:37.283Z</time>
      </trkpt>
      <trkpt lat="41.92775468201" lon="2.81713300068">
        <ele>87.38</ele>
        <time>2022-01-27T16:43:37.306Z</time>
      </trkpt>
      <trkpt lat="41.92811152083" lon="2.81714874357">
        <ele>87.15</ele>
        <time>2022-01-27T16:43:37.335Z</time>
      </trkpt>
      <trkpt lat="41.92811152083" lon="2.81714874357">
        <ele>87.15</ele>
        <time>2022-01-27T16:43:37.364Z</time>
      </trkpt>
      <trkpt lat="41.92814" lon="2.81715">
        <ele>87.12660881436</ele>
        <time>2022-01-27T16:43:37.393Z</time>
      </trkpt>
      <trkpt lat="41.92814" lon="2.81715">
        <ele>87.12660881436</ele>
        <time>2022-01-27T16:43:37.422Z</time>
      </trkpt>
      <trkpt lat="41.92824452745" lon="2.81716925506">
        <ele>87.04</ele>
        <time>2022-01-27T16:43:37.453Z</time>
      </trkpt>
      <trkpt lat="41.92824452745" lon="2.81716925506">
        <ele>87.04</ele>
        <time>2022-01-27T16:43:37.484Z</time>
      </trkpt>
      <trkpt lat="41.92846549391" lon="2.8172099594">
        <ele>86.79</ele>
        <time>2022-01-27T16:43:37.519Z</time>
      </trkpt>
      <trkpt lat="41.92846549391" lon="2.8172099594">
        <ele>86.79</ele>
        <time>2022-01-27T16:43:37.554Z</time>
      </trkpt>
      <trkpt lat="41.92868735137" lon="2.81725082788">
        <ele>86.66</ele>
        <time>2022-01-27T16:43:37.592Z</time>
      </trkpt>
      <trkpt lat="41.92868735137" lon="2.81725082788">
        <ele>86.66</ele>
        <time>2022-01-27T16:43:37.630Z</time>
      </trkpt>
      <trkpt lat="41.92877555975" lon="2.8172670768">
        <ele>86.64</ele>
        <time>2022-01-27T16:43:37.670Z</time>
      </trkpt>
      <trkpt lat="41.92877555975" lon="2.8172670768">
        <ele>86.64</ele>
        <time>2022-01-27T16:43:37.710Z</time>
      </trkpt>
      <trkpt lat="41.9289" lon="2.81729">
        <ele>86.66105495716</ele>
        <time>2022-01-27T16:43:37.752Z</time>
      </trkpt>
      <trkpt lat="41.9289" lon="2.81729">
        <ele>86.66105495716</ele>
        <time>2022-01-27T16:43:37.794Z</time>
      </trkpt>
      <trkpt lat="41.92895319535" lon="2.81729565908">
        <ele>86.67</ele>
        <time>2022-01-27T16:43:37.836Z</time>
      </trkpt>
      <trkpt lat="41.92895319535" lon="2.81729565908">
        <ele>86.67</ele>
        <time>2022-01-27T16:43:37.878Z</time>
      </trkpt>
      <trkpt lat="41.92908677665" lon="2.81730986986">
        <ele>86.67</ele>
        <time>2022-01-27T16:43:37.923Z</time>
      </trkpt>
      <trkpt lat="41.92908677665" lon="2.81730986986">
        <ele>86.67</ele>
        <time>2022-01-27T16:43:37.968Z</time>
      </trkpt>
      <trkpt lat="41.92917553201" lon="2.81731931192">
        <ele>86.71</ele>
        <time>2022-01-27T16:43:38.014Z</time>
      </trkpt>
      <trkpt lat="41.92917553201" lon="2.81731931192">
        <ele>86.71</ele>
        <time>2022-01-27T16:43:38.060Z</time>
      </trkpt>
      <trkpt lat="41.92926518389" lon="2.81732884935">
        <ele>86.84</ele>
        <time>2022-01-27T16:43:38.107Z</time>
      </trkpt>
      <trkpt lat="41.92926518389" lon="2.81732884935">
        <ele>86.84</ele>
        <time>2022-01-27T16:43:38.154Z</time>
      </trkpt>
      <trkpt lat="41.92930911332" lon="2.81733352269">
        <ele>86.94</ele>
        <time>2022-01-27T16:43:38.202Z</time>
      </trkpt>
      <trkpt lat="41.92930911332" lon="2.81733352269">
        <ele>86.94</ele>
        <time>2022-01-27T16:43:38.250Z</time>
      </trkpt>
      <trkpt lat="41.92935393926" lon="2.81733829141">
        <ele>87.07</ele>
        <time>2022-01-27T16:43:38.299Z</time>
      </trkpt>
      <trkpt lat="41.92935393926" lon="2.81733829141">
        <ele>87.07</ele>
        <time>2022-01-27T16:43:38.348Z</time>
      </trkpt>
      <trkpt lat="41.92937" lon="2.81734">
        <ele>87.12732660095</ele>
        <time>2022-01-27T16:43:38.397Z</time>
      </trkpt>
      <trkpt lat="41.92937" lon="2.81734">
        <ele>87.12732660095</ele>
        <time>2022-01-27T16:43:38.446Z</time>
      </trkpt>
      <trkpt lat="41.92939879318" lon="2.81733745943">
        <ele>87.23</ele>
        <time>2022-01-27T16:43:38.496Z</time>
      </trkpt>
      <trkpt lat="41.92939879318" lon="2.81733745943">
        <ele>87.23</ele>
        <time>2022-01-27T16:43:38.546Z</time>
      </trkpt>
      <trkpt lat="41.92944276534" lon="2.81733357953">
        <ele>87.44</ele>
        <time>2022-01-27T16:43:38.596Z</time>
      </trkpt>
      <trkpt lat="41.92944276534" lon="2.81733357953">
        <ele>87.44</ele>
        <time>2022-01-27T16:43:38.646Z</time>
      </trkpt>
      <trkpt lat="41.92962134613" lon="2.8173178224">
        <ele>88.41</ele>
        <time>2022-01-27T16:43:38.699Z</time>
      </trkpt>
      <trkpt lat="41.92962134613" lon="2.8173178224">
        <ele>88.41</ele>
        <time>2022-01-27T16:43:38.752Z</time>
      </trkpt>
      <trkpt lat="41.92971" lon="2.81731">
        <ele>88.84</ele>
        <time>2022-01-27T16:43:38.807Z</time>
      </trkpt>
      <trkpt lat="41.92971" lon="2.81731">
        <ele>88.84</ele>
        <time>2022-01-27T16:43:38.862Z</time>
      </trkpt>
      <trkpt lat="41.92970997492" lon="2.81731025077">
        <ele>88.84</ele>
        <time>2022-01-27T16:43:38.917Z</time>
      </trkpt>
      <trkpt lat="41.92970997492" lon="2.81731025077">
        <ele>88.84</ele>
        <time>2022-01-27T16:43:38.972Z</time>
      </trkpt>
      <trkpt lat="41.9297" lon="2.81741">
        <ele>88.84</ele>
        <time>2022-01-27T16:43:39.028Z</time>
      </trkpt>
      <trkpt lat="41.9297" lon="2.81741">
        <ele>88.84</ele>
        <time>2022-01-27T16:43:39.084Z</time>
      </trkpt>
      <trkpt lat="41.92925" lon="2.81899">
        <ele>88.84</ele>
        <time>2022-01-27T16:43:39.160Z</time>
      </trkpt>
      <trkpt lat="41.92925" lon="2.81899">
        <ele>88.84</ele>
        <time>2022-01-27T16:43:39.236Z</time>
      </trkpt>
      <trkpt lat="41.92919" lon="2.81932">
        <ele>88.84</ele>
        <time>2022-01-27T16:43:39.316Z</time>
      </trkpt>
      <trkpt lat="41.92919" lon="2.81932">
        <ele>88.84</ele>
        <time>2022-01-27T16:43:39.396Z</time>
      </trkpt>
      <trkpt lat="41.92914" lon="2.81983">
        <ele>88.84</ele>
        <time>2022-01-27T16:43:39.482Z</time>
      </trkpt>
      <trkpt lat="41.92914" lon="2.81983">
        <ele>88.84</ele>
        <time>2022-01-27T16:43:39.568Z</time>
      </trkpt>
      <trkpt lat="41.92916" lon="2.82007">
        <ele>88.84</ele>
        <time>2022-01-27T16:43:39.657Z</time>
      </trkpt>
      <trkpt lat="41.92916" lon="2.82007">
        <ele>88.84</ele>
        <time>2022-01-27T16:43:39.746Z</time>
      </trkpt>
      <trkpt lat="41.92918390468" lon="2.82021741221">
        <ele>88.84</ele>
        <time>2022-01-27T16:43:39.837Z</time>
      </trkpt>
      <trkpt lat="41.92918390468" lon="2.82021741221">
        <ele>88.84</ele>
        <time>2022-01-27T16:43:39.928Z</time>
      </trkpt>
      <trkpt lat="41.9291998014" lon="2.82031544198">
        <ele>88.85</ele>
        <time>2022-01-27T16:43:40.020Z</time>
      </trkpt>
      <trkpt lat="41.9291998014" lon="2.82031544198">
        <ele>88.85</ele>
        <time>2022-01-27T16:43:40.112Z</time>
      </trkpt>
      <trkpt lat="41.92922" lon="2.82044">
        <ele>88.81214221289</ele>
        <time>2022-01-27T16:43:40.206Z</time>
      </trkpt>
      <trkpt lat="41.92922" lon="2.82044">
        <ele>88.81214221289</ele>
        <time>2022-01-27T16:43:40.300Z</time>
      </trkpt>
      <trkpt lat="41.92922" lon="2.82054823596">
        <ele>88.78</ele>
        <time>2022-01-27T16:43:40.395Z</time>
      </trkpt>
      <trkpt lat="41.92922" lon="2.82054823596">
        <ele>88.78</ele>
        <time>2022-01-27T16:43:40.490Z</time>
      </trkpt>
      <trkpt lat="41.92922" lon="2.82063">
        <ele>88.76806354251</ele>
        <time>2022-01-27T16:43:40.586Z</time>
      </trkpt>
      <trkpt lat="41.92922" lon="2.82063">
        <ele>88.76806354251</ele>
        <time>2022-01-27T16:43:40.682Z</time>
      </trkpt>
      <trkpt lat="41.92922" lon="2.82064">
        <ele>88.76660367613</ele>
        <time>2022-01-27T16:43:40.778Z</time>
      </trkpt>
      <trkpt lat="41.92922" lon="2.82064">
        <ele>88.76660367613</ele>
        <time>2022-01-27T16:43:40.874Z</time>
      </trkpt>
      <trkpt lat="41.92917" lon="2.82079">
        <ele>88.74260816875</ele>
        <time>2022-01-27T16:43:40.972Z</time>
      </trkpt>
      <trkpt lat="41.92917" lon="2.82079">
        <ele>88.74260816875</ele>
        <time>2022-01-27T16:43:41.070Z</time>
      </trkpt>
      <trkpt lat="41.92909981849" lon="2.82091281764">
        <ele>88.72</ele>
        <time>2022-01-27T16:43:41.170Z</time>
      </trkpt>
      <trkpt lat="41.92909981849" lon="2.82091281764">
        <ele>88.72</ele>
        <time>2022-01-27T16:43:41.270Z</time>
      </trkpt>
      <trkpt lat="41.92908228858" lon="2.82094349498">
        <ele>88.7</ele>
        <time>2022-01-27T16:43:41.370Z</time>
      </trkpt>
      <trkpt lat="41.92908228858" lon="2.82094349498">
        <ele>88.7</ele>
        <time>2022-01-27T16:43:41.470Z</time>
      </trkpt>
      <trkpt lat="41.92905" lon="2.821">
        <ele>88.57794993487</ele>
        <time>2022-01-27T16:43:41.571Z</time>
      </trkpt>
      <trkpt lat="41.92905" lon="2.821">
        <ele>88.57794993487</ele>
        <time>2022-01-27T16:43:41.672Z</time>
      </trkpt>
      <trkpt lat="41.9289504237" lon="2.82110169495">
        <ele>88.29</ele>
        <time>2022-01-27T16:43:41.775Z</time>
      </trkpt>
      <trkpt lat="41.9289504237" lon="2.82110169495">
        <ele>88.29</ele>
        <time>2022-01-27T16:43:41.878Z</time>
      </trkpt>
      <trkpt lat="41.9287384659" lon="2.82131816248">
        <ele>87.56</ele>
        <time>2022-01-27T16:43:41.985Z</time>
      </trkpt>
      <trkpt lat="41.9287384659" lon="2.82131816248">
        <ele>87.56</ele>
        <time>2022-01-27T16:43:42.092Z</time>
      </trkpt>
      <trkpt lat="41.92866757461" lon="2.8213905621">
        <ele>87.37</ele>
        <time>2022-01-27T16:43:42.201Z</time>
      </trkpt>
      <trkpt lat="41.92866757461" lon="2.8213905621">
        <ele>87.37</ele>
        <time>2022-01-27T16:43:42.310Z</time>
      </trkpt>
      <trkpt lat="41.92858" lon="2.82148">
        <ele>87.18942528288</ele>
        <time>2022-01-27T16:43:42.421Z</time>
      </trkpt>
      <trkpt lat="41.92858" lon="2.82148">
        <ele>87.18942528288</ele>
        <time>2022-01-27T16:43:42.532Z</time>
      </trkpt>
      <trkpt lat="41.92855780752" lon="2.82149232916">
        <ele>87.15</ele>
        <time>2022-01-27T16:43:42.643Z</time>
      </trkpt>
      <trkpt lat="41.92855780752" lon="2.82149232916">
        <ele>87.15</ele>
        <time>2022-01-27T16:43:42.754Z</time>
      </trkpt>
      <trkpt lat="41.92843480068" lon="2.82156066629">
        <ele>86.97</ele>
        <time>2022-01-27T16:43:42.867Z</time>
      </trkpt>
      <trkpt lat="41.92843480068" lon="2.82156066629">
        <ele>86.97</ele>
        <time>2022-01-27T16:43:42.980Z</time>
      </trkpt>
      <trkpt lat="41.9284" lon="2.82158">
        <ele>86.93604999832</ele>
        <time>2022-01-27T16:43:43.094Z</time>
      </trkpt>
      <trkpt lat="41.9284" lon="2.82158">
        <ele>86.93604999832</ele>
        <time>2022-01-27T16:43:43.208Z</time>
      </trkpt>
      <trkpt lat="41.92830456213" lon="2.8215814035">
        <ele>86.85</ele>
        <time>2022-01-27T16:43:43.323Z</time>
      </trkpt>
      <trkpt lat="41.92830456213" lon="2.8215814035">
        <ele>86.85</ele>
        <time>2022-01-27T16:43:43.438Z</time>
      </trkpt>
      <trkpt lat="41.92821553454" lon="2.82158271273">
        <ele>86.81</ele>
        <time>2022-01-27T16:43:43.555Z</time>
      </trkpt>
      <trkpt lat="41.92821553454" lon="2.82158271273">
        <ele>86.81</ele>
        <time>2022-01-27T16:43:43.672Z</time>
      </trkpt>
      <trkpt lat="41.92794845179" lon="2.82158664041">
        <ele>86.76</ele>
        <time>2022-01-27T16:43:43.793Z</time>
      </trkpt>
      <trkpt lat="41.92794845179" lon="2.82158664041">
        <ele>86.76</ele>
        <time>2022-01-27T16:43:43.914Z</time>
      </trkpt>
      <trkpt lat="41.92786032347" lon="2.82158793642">
        <ele>86.76</ele>
        <time>2022-01-27T16:43:44.036Z</time>
      </trkpt>
      <trkpt lat="41.92786032347" lon="2.82158793642">
        <ele>86.76</ele>
        <time>2022-01-27T16:43:44.158Z</time>
      </trkpt>
      <trkpt lat="41.92772" lon="2.82159">
        <ele>86.82304718612</ele>
        <time>2022-01-27T16:43:44.283Z</time>
      </trkpt>
      <trkpt lat="41.92772" lon="2.82159">
        <ele>86.82304718612</ele>
        <time>2022-01-27T16:43:44.408Z</time>
      </trkpt>
      <trkpt lat="41.92768272055" lon="2.8215978483">
        <ele>86.84</ele>
        <time>2022-01-27T16:43:44.533Z</time>
      </trkpt>
      <trkpt lat="41.92768272055" lon="2.8215978483">
        <ele>86.84</ele>
        <time>2022-01-27T16:43:44.658Z</time>
      </trkpt>
      <trkpt lat="41.92746326357" lon="2.82164404977">
        <ele>87.0</ele>
        <time>2022-01-27T16:43:44.787Z</time>
      </trkpt>
      <trkpt lat="41.92746326357" lon="2.82164404977">
        <ele>87.0</ele>
        <time>2022-01-27T16:43:44.916Z</time>
      </trkpt>
      <trkpt lat="41.92737530308" lon="2.82166256777">
        <ele>87.1</ele>
        <time>2022-01-27T16:43:45.046Z</time>
      </trkpt>
      <trkpt lat="41.92737530308" lon="2.82166256777">
        <ele>87.1</ele>
        <time>2022-01-27T16:43:45.176Z</time>
      </trkpt>
      <trkpt lat="41.92734" lon="2.82167">
        <ele>87.15220500115</ele>
        <time>2022-01-27T16:43:45.307Z</time>
      </trkpt>
      <trkpt lat="41.92734" lon="2.82167">
        <ele>87.15220500115</ele>
        <time>2022-01-27T16:43:45.438Z</time>
      </trkpt>
      <trkpt lat="41.92725479882" lon="2.82169662537">
        <ele>87.28</ele>
        <time>2022-01-27T16:43:45.570Z</time>
      </trkpt>
      <trkpt lat="41.92725479882" lon="2.82169662537">
        <ele>87.28</ele>
        <time>2022-01-27T16:43:45.702Z</time>
      </trkpt>
      <trkpt lat="41.92718" lon="2.82172">
        <ele>87.42749320122</ele>
        <time>2022-01-27T16:43:45.835Z</time>
      </trkpt>
      <trkpt lat="41.92718" lon="2.82172">
        <ele>87.42749320122</ele>
        <time>2022-01-27T16:43:45.968Z</time>
      </trkpt>
      <trkpt lat="41.92715891433" lon="2.82172903671">
        <ele>87.47</ele>
        <time>2022-01-27T16:43:46.102Z</time>
      </trkpt>
      <trkpt lat="41.92715891433" lon="2.82172903671">
        <ele>87.47</ele>
        <time>2022-01-27T16:43:46.236Z</time>
      </trkpt>
      <trkpt lat="41.92704" lon="2.82178">
        <ele>87.73408590801</ele>
        <time>2022-01-27T16:43:46.372Z</time>
      </trkpt>
      <trkpt lat="41.92704" lon="2.82178">
        <ele>87.73408590801</ele>
        <time>2022-01-27T16:43:46.508Z</time>
      </trkpt>
      <trkpt lat="41.92695637246" lon="2.82184690203">
        <ele>87.94</ele>
        <time>2022-01-27T16:43:46.645Z</time>
      </trkpt>
      <trkpt lat="41.92695637246" lon="2.82184690203">
        <ele>87.94</ele>
        <time>2022-01-27T16:43:46.782Z</time>
      </trkpt>
      <trkpt lat="41.92679" lon="2.82198">
        <ele>88.19982881934</ele>
        <time>2022-01-27T16:43:46.922Z</time>
      </trkpt>
      <trkpt lat="41.92679" lon="2.82198">
        <ele>88.19982881934</ele>
        <time>2022-01-27T16:43:47.062Z</time>
      </trkpt>
      <trkpt lat="41.92673847526" lon="2.82203796534">
        <ele>88.29</ele>
        <time>2022-01-27T16:43:47.203Z</time>
      </trkpt>
      <trkpt lat="41.92673847526" lon="2.82203796534">
        <ele>88.29</ele>
        <time>2022-01-27T16:43:47.344Z</time>
      </trkpt>
      <trkpt lat="41.92663" lon="2.82216">
        <ele>88.52733731596</ele>
        <time>2022-01-27T16:43:47.488Z</time>
      </trkpt>
      <trkpt lat="41.92663" lon="2.82216">
        <ele>88.52733731596</ele>
        <time>2022-01-27T16:43:47.632Z</time>
      </trkpt>
      <trkpt lat="41.92654" lon="2.82231">
        <ele>88.76788040509</ele>
        <time>2022-01-27T16:43:47.778Z</time>
      </trkpt>
      <trkpt lat="41.92654" lon="2.82231">
        <ele>88.76788040509</ele>
        <time>2022-01-27T16:43:47.924Z</time>
      </trkpt>
      <trkpt lat="41.926530695" lon="2.82233248709">
        <ele>88.8</ele>
        <time>2022-01-27T16:43:48.070Z</time>
      </trkpt>
      <trkpt lat="41.926530695" lon="2.82233248709">
        <ele>88.8</ele>
        <time>2022-01-27T16:43:48.216Z</time>
      </trkpt>
      <trkpt lat="41.92646731272" lon="2.82248566094">
        <ele>88.97</ele>
        <time>2022-01-27T16:43:48.364Z</time>
      </trkpt>
      <trkpt lat="41.92646731272" lon="2.82248566094">
        <ele>88.97</ele>
        <time>2022-01-27T16:43:48.512Z</time>
      </trkpt>
      <trkpt lat="41.92642534927" lon="2.82258707259">
        <ele>89.06</ele>
        <time>2022-01-27T16:43:48.662Z</time>
      </trkpt>
      <trkpt lat="41.92642534927" lon="2.82258707259">
        <ele>89.06</ele>
        <time>2022-01-27T16:43:48.812Z</time>
      </trkpt>
      <trkpt lat="41.92642" lon="2.8226">
        <ele>89.06185887021</ele>
        <time>2022-01-27T16:43:48.962Z</time>
      </trkpt>
      <trkpt lat="41.92642" lon="2.8226">
        <ele>89.06185887021</ele>
        <time>2022-01-27T16:43:49.112Z</time>
      </trkpt>
      <trkpt lat="41.92627457916" lon="2.82301935311">
        <ele>89.12</ele>
        <time>2022-01-27T16:43:49.267Z</time>
      </trkpt>
      <trkpt lat="41.92627457916" lon="2.82301935311">
        <ele>89.12</ele>
        <time>2022-01-27T16:43:49.422Z</time>
      </trkpt>
      <trkpt lat="41.92619935411" lon="2.82323628118">
        <ele>89.2</ele>
        <time>2022-01-27T16:43:49.580Z</time>
      </trkpt>
      <trkpt lat="41.92619935411" lon="2.82323628118">
        <ele>89.2</ele>
        <time>2022-01-27T16:43:49.738Z</time>
      </trkpt>
      <trkpt lat="41.92604890399" lon="2.82367013732">
        <ele>89.39</ele>
        <time>2022-01-27T16:43:49.902Z</time>
      </trkpt>
      <trkpt lat="41.92604890399" lon="2.82367013732">
        <ele>89.39</ele>
        <time>2022-01-27T16:43:50.066Z</time>
      </trkpt>
      <trkpt lat="41.92599" lon="2.82384">
        <ele>89.48444140265</ele>
        <time>2022-01-27T16:43:50.232Z</time>
      </trkpt>
      <trkpt lat="41.92599" lon="2.82384">
        <ele>89.48444140265</ele>
        <time>2022-01-27T16:43:50.398Z</time>
      </trkpt>
      <trkpt lat="41.92597141496" lon="2.82388413948">
        <ele>89.51</ele>
        <time>2022-01-27T16:43:50.565Z</time>
      </trkpt>
      <trkpt lat="41.92597141496" lon="2.82388413948">
        <ele>89.51</ele>
        <time>2022-01-27T16:43:50.732Z</time>
      </trkpt>
      <trkpt lat="41.92581815888" lon="2.82424812266">
        <ele>89.79</ele>
        <time>2022-01-27T16:43:50.904Z</time>
      </trkpt>
      <trkpt lat="41.92581815888" lon="2.82424812266">
        <ele>89.79</ele>
        <time>2022-01-27T16:43:51.076Z</time>
      </trkpt>
      <trkpt lat="41.92575" lon="2.82441">
        <ele>89.79</ele>
        <time>2022-01-27T16:43:51.250Z</time>
      </trkpt>
      <trkpt lat="41.92575" lon="2.82441">
        <ele>89.79</ele>
        <time>2022-01-27T16:43:51.424Z</time>
      </trkpt>
      <trkpt lat="41.92568100121" lon="2.82455746799">
        <ele>89.79</ele>
        <time>2022-01-27T16:43:51.600Z</time>
      </trkpt>
      <trkpt lat="41.92568100121" lon="2.82455746799">
        <ele>89.79</ele>
        <time>2022-01-27T16:43:51.776Z</time>
      </trkpt>
      <trkpt lat="41.92563312544" lon="2.82465979072">
        <ele>89.82</ele>
        <time>2022-01-27T16:43:51.954Z</time>
      </trkpt>
      <trkpt lat="41.92563312544" lon="2.82465979072">
        <ele>89.82</ele>
        <time>2022-01-27T16:43:52.132Z</time>
      </trkpt>
      <trkpt lat="41.92546651777" lon="2.82501587379">
        <ele>89.99</ele>
        <time>2022-01-27T16:43:52.315Z</time>
      </trkpt>
      <trkpt lat="41.92546651777" lon="2.82501587379">
        <ele>89.99</ele>
        <time>2022-01-27T16:43:52.498Z</time>
      </trkpt>
      <trkpt lat="41.925418642" lon="2.82511819652">
        <ele>90.0</ele>
        <time>2022-01-27T16:43:52.682Z</time>
      </trkpt>
      <trkpt lat="41.925418642" lon="2.82511819652">
        <ele>90.0</ele>
        <time>2022-01-27T16:43:52.866Z</time>
      </trkpt>
      <trkpt lat="41.9252759722" lon="2.82542311823">
        <ele>89.99</ele>
        <time>2022-01-27T16:43:53.054Z</time>
      </trkpt>
      <trkpt lat="41.9252759722" lon="2.82542311823">
        <ele>89.99</ele>
        <time>2022-01-27T16:43:53.242Z</time>
      </trkpt>
      <trkpt lat="41.92524" lon="2.8255">
        <ele>90.00517910182</ele>
        <time>2022-01-27T16:43:53.431Z</time>
      </trkpt>
      <trkpt lat="41.92524" lon="2.8255">
        <ele>90.00517910182</ele>
        <time>2022-01-27T16:43:53.620Z</time>
      </trkpt>
      <trkpt lat="41.92522619618" lon="2.82552208611">
        <ele>90.01</ele>
        <time>2022-01-27T16:43:53.810Z</time>
      </trkpt>
      <trkpt lat="41.92522619618" lon="2.82552208611">
        <ele>90.01</ele>
        <time>2022-01-27T16:43:54.000Z</time>
      </trkpt>
      <trkpt lat="41.92514" lon="2.82566">
        <ele>90.06980423629</ele>
        <time>2022-01-27T16:43:54.192Z</time>
      </trkpt>
      <trkpt lat="41.92514" lon="2.82566">
        <ele>90.06980423629</ele>
        <time>2022-01-27T16:43:54.384Z</time>
      </trkpt>
      <trkpt lat="41.92502221041" lon="2.82574834219">
        <ele>90.13</ele>
        <time>2022-01-27T16:43:54.578Z</time>
      </trkpt>
      <trkpt lat="41.92502221041" lon="2.82574834219">
        <ele>90.13</ele>
        <time>2022-01-27T16:43:54.772Z</time>
      </trkpt>
      <trkpt lat="41.92498" lon="2.82578">
        <ele>90.15885840426</ele>
        <time>2022-01-27T16:43:54.967Z</time>
      </trkpt>
      <trkpt lat="41.92498" lon="2.82578">
        <ele>90.15885840426</ele>
        <time>2022-01-27T16:43:55.162Z</time>
      </trkpt>
      <trkpt lat="41.92489820609" lon="2.82581420473">
        <ele>90.21</ele>
        <time>2022-01-27T16:43:55.358Z</time>
      </trkpt>
      <trkpt lat="41.92489820609" lon="2.82581420473">
        <ele>90.21</ele>
        <time>2022-01-27T16:43:55.554Z</time>
      </trkpt>
      <trkpt lat="41.92481319304" lon="2.82584975564">
        <ele>90.29</ele>
        <time>2022-01-27T16:43:55.752Z</time>
      </trkpt>
      <trkpt lat="41.92481319304" lon="2.82584975564">
        <ele>90.29</ele>
        <time>2022-01-27T16:43:55.950Z</time>
      </trkpt>
      <trkpt lat="41.9244714234" lon="2.82599267749">
        <ele>90.71</ele>
        <time>2022-01-27T16:43:56.153Z</time>
      </trkpt>
      <trkpt lat="41.9244714234" lon="2.82599267749">
        <ele>90.71</ele>
        <time>2022-01-27T16:43:56.356Z</time>
      </trkpt>
      <trkpt lat="41.92443" lon="2.82601">
        <ele>90.78122489162</ele>
        <time>2022-01-27T16:43:56.560Z</time>
      </trkpt>
      <trkpt lat="41.92443" lon="2.82601">
        <ele>90.78122489162</ele>
        <time>2022-01-27T16:43:56.764Z</time>
      </trkpt>
      <trkpt lat="41.92443" lon="2.82613179248">
        <ele>90.93</ele>
        <time>2022-01-27T16:43:56.970Z</time>
      </trkpt>
      <trkpt lat="41.92443" lon="2.82613179248">
        <ele>90.93</ele>
        <time>2022-01-27T16:43:57.176Z</time>
      </trkpt>
      <trkpt lat="41.92443" lon="2.82641">
        <ele>91.36108120023</ele>
        <time>2022-01-27T16:43:57.385Z</time>
      </trkpt>
      <trkpt lat="41.92443" lon="2.82641">
        <ele>91.36108120023</ele>
        <time>2022-01-27T16:43:57.594Z</time>
      </trkpt>
      <trkpt lat="41.92443876202" lon="2.82649236296">
        <ele>91.49</ele>
        <time>2022-01-27T16:43:57.804Z</time>
      </trkpt>
      <trkpt lat="41.92443876202" lon="2.82649236296">
        <ele>91.49</ele>
        <time>2022-01-27T16:43:58.014Z</time>
      </trkpt>
      <trkpt lat="41.92445136403" lon="2.82661082186">
        <ele>91.7</ele>
        <time>2022-01-27T16:43:58.225Z</time>
      </trkpt>
      <trkpt lat="41.92445136403" lon="2.82661082186">
        <ele>91.7</ele>
        <time>2022-01-27T16:43:58.436Z</time>
      </trkpt>
      <trkpt lat="41.92448306" lon="2.82690876396">
        <ele>92.27</ele>
        <time>2022-01-27T16:43:58.651Z</time>
      </trkpt>
      <trkpt lat="41.92448306" lon="2.82690876396">
        <ele>92.27</ele>
        <time>2022-01-27T16:43:58.866Z</time>
      </trkpt>
      <trkpt lat="41.92450202666" lon="2.82708705059">
        <ele>92.63</ele>
        <time>2022-01-27T16:43:59.083Z</time>
      </trkpt>
      <trkpt lat="41.92450202666" lon="2.82708705059">
        <ele>92.63</ele>
        <time>2022-01-27T16:43:59.300Z</time>
      </trkpt>
      <trkpt lat="41.92452099332" lon="2.82726533723">
        <ele>93.02</ele>
        <time>2022-01-27T16:43:59.519Z</time>
      </trkpt>
      <trkpt lat="41.92452099332" lon="2.82726533723">
        <ele>93.02</ele>
        <time>2022-01-27T16:43:59.738Z</time>
      </trkpt>
      <trkpt lat="41.92455892665" lon="2.8276219105">
        <ele>93.9</ele>
        <time>2022-01-27T16:43:59.961Z</time>
      </trkpt>
      <trkpt lat="41.92455892665" lon="2.8276219105">
        <ele>93.9</ele>
        <time>2022-01-27T16:44:00.184Z</time>
      </trkpt>
      <trkpt lat="41.92457789331" lon="2.82780019714">
        <ele>94.37</ele>
        <time>2022-01-27T16:44:00.410Z</time>
      </trkpt>
      <trkpt lat="41.92457789331" lon="2.82780019714">
        <ele>94.37</ele>
        <time>2022-01-27T16:44:00.636Z</time>
      </trkpt>
      <trkpt lat="41.92458" lon="2.82782">
        <ele>94.41408785952</ele>
        <time>2022-01-27T16:44:00.862Z</time>
      </trkpt>
      <trkpt lat="41.92458" lon="2.82782">
        <ele>94.41408785952</ele>
        <time>2022-01-27T16:44:01.088Z</time>
      </trkpt>
      <trkpt lat="41.92475907803" lon="2.82795286434">
        <ele>95.02</ele>
        <time>2022-01-27T16:44:01.317Z</time>
      </trkpt>
      <trkpt lat="41.92475907803" lon="2.82795286434">
        <ele>95.02</ele>
        <time>2022-01-27T16:44:01.546Z</time>
      </trkpt>
      <trkpt lat="41.92489" lon="2.82805">
        <ele>95.42815717032</ele>
        <time>2022-01-27T16:44:01.778Z</time>
      </trkpt>
      <trkpt lat="41.92489" lon="2.82805">
        <ele>95.42815717032</ele>
        <time>2022-01-27T16:44:02.010Z</time>
      </trkpt>
      <trkpt lat="41.92509843273" lon="2.82822600986">
        <ele>96.1</ele>
        <time>2022-01-27T16:44:02.245Z</time>
      </trkpt>
      <trkpt lat="41.92509843273" lon="2.82822600986">
        <ele>96.1</ele>
        <time>2022-01-27T16:44:02.480Z</time>
      </trkpt>
      <trkpt lat="41.92535886537" lon="2.82844593075">
        <ele>97.04</ele>
        <time>2022-01-27T16:44:02.720Z</time>
      </trkpt>
      <trkpt lat="41.92535886537" lon="2.82844593075">
        <ele>97.04</ele>
        <time>2022-01-27T16:44:02.960Z</time>
      </trkpt>
      <trkpt lat="41.92560482952" lon="2.82865363382">
        <ele>97.7</ele>
        <time>2022-01-27T16:44:03.205Z</time>
      </trkpt>
      <trkpt lat="41.92560482952" lon="2.82865363382">
        <ele>97.7</ele>
        <time>2022-01-27T16:44:03.450Z</time>
      </trkpt>
      <trkpt lat="41.92569087891" lon="2.82872629774">
        <ele>97.97</ele>
        <time>2022-01-27T16:44:03.697Z</time>
      </trkpt>
      <trkpt lat="41.92569087891" lon="2.82872629774">
        <ele>97.97</ele>
        <time>2022-01-27T16:44:03.944Z</time>
      </trkpt>
      <trkpt lat="41.92579" lon="2.82881">
        <ele>98.30211019071</ele>
        <time>2022-01-27T16:44:04.193Z</time>
      </trkpt>
      <trkpt lat="41.92579" lon="2.82881">
        <ele>98.30211019071</ele>
        <time>2022-01-27T16:44:04.442Z</time>
      </trkpt>
      <trkpt lat="41.92587881227" lon="2.82887597483">
        <ele>98.59</ele>
        <time>2022-01-27T16:44:04.692Z</time>
      </trkpt>
      <trkpt lat="41.92587881227" lon="2.82887597483">
        <ele>98.59</ele>
        <time>2022-01-27T16:44:04.942Z</time>
      </trkpt>
      <trkpt lat="41.92595516136" lon="2.82893269129">
        <ele>98.87</ele>
        <time>2022-01-27T16:44:05.194Z</time>
      </trkpt>
      <trkpt lat="41.92595516136" lon="2.82893269129">
        <ele>98.87</ele>
        <time>2022-01-27T16:44:05.446Z</time>
      </trkpt>
      <trkpt lat="41.92603229754" lon="2.82898999246">
        <ele>99.21</ele>
        <time>2022-01-27T16:44:05.699Z</time>
      </trkpt>
      <trkpt lat="41.92603229754" lon="2.82898999246">
        <ele>99.21</ele>
        <time>2022-01-27T16:44:05.952Z</time>
      </trkpt>
      <trkpt lat="41.92610864663" lon="2.82904670892">
        <ele>99.6</ele>
        <time>2022-01-27T16:44:06.206Z</time>
      </trkpt>
      <trkpt lat="41.92610864663" lon="2.82904670892">
        <ele>99.6</ele>
        <time>2022-01-27T16:44:06.460Z</time>
      </trkpt>
      <trkpt lat="41.92614" lon="2.82907">
        <ele>99.79098415854</ele>
        <time>2022-01-27T16:44:06.715Z</time>
      </trkpt>
      <trkpt lat="41.92614" lon="2.82907">
        <ele>99.79098415854</ele>
        <time>2022-01-27T16:44:06.970Z</time>
      </trkpt>
      <trkpt lat="41.92623119606" lon="2.82910799836">
        <ele>100.3</ele>
        <time>2022-01-27T16:44:07.226Z</time>
      </trkpt>
      <trkpt lat="41.92623119606" lon="2.82910799836">
        <ele>100.3</ele>
        <time>2022-01-27T16:44:07.482Z</time>
      </trkpt>
      <trkpt lat="41.92626" lon="2.82912">
        <ele>100.48321710812</ele>
        <time>2022-01-27T16:44:07.739Z</time>
      </trkpt>
      <trkpt lat="41.92626" lon="2.82912">
        <ele>100.48321710812</ele>
        <time>2022-01-27T16:44:07.996Z</time>
      </trkpt>
      <trkpt lat="41.92629346455" lon="2.82905785155">
        <ele>100.83</ele>
        <time>2022-01-27T16:44:08.254Z</time>
      </trkpt>
      <trkpt lat="41.92629346455" lon="2.82905785155">
        <ele>100.83</ele>
        <time>2022-01-27T16:44:08.512Z</time>
      </trkpt>
      <trkpt lat="41.92633" lon="2.82899">
        <ele>101.26575375915</ele>
        <time>2022-01-27T16:44:08.771Z</time>
      </trkpt>
      <trkpt lat="41.92633" lon="2.82899">
        <ele>101.26575375915</ele>
        <time>2022-01-27T16:44:09.030Z</time>
      </trkpt>
      <trkpt lat="41.92635457223" lon="2.82899556352">
        <ele>101.44</ele>
        <time>2022-01-27T16:44:09.289Z</time>
      </trkpt>
      <trkpt lat="41.92635457223" lon="2.82899556352">
        <ele>101.44</ele>
        <time>2022-01-27T16:44:09.548Z</time>
      </trkpt>
      <trkpt lat="41.9263980268" lon="2.82900540229">
        <ele>101.77</ele>
        <time>2022-01-27T16:44:09.808Z</time>
      </trkpt>
      <trkpt lat="41.9263980268" lon="2.82900540229">
        <ele>101.77</ele>
        <time>2022-01-27T16:44:10.068Z</time>
      </trkpt>
      <trkpt lat="41.92652661684" lon="2.82903451702">
        <ele>102.86</ele>
        <time>2022-01-27T16:44:10.330Z</time>
      </trkpt>
      <trkpt lat="41.92652661684" lon="2.82903451702">
        <ele>102.86</ele>
        <time>2022-01-27T16:44:10.592Z</time>
      </trkpt>
      <trkpt lat="41.9265700714" lon="2.82904435579">
        <ele>102.99</ele>
        <time>2022-01-27T16:44:10.855Z</time>
      </trkpt>
      <trkpt lat="41.9265700714" lon="2.82904435579">
        <ele>102.99</ele>
        <time>2022-01-27T16:44:11.118Z</time>
      </trkpt>
      <trkpt lat="41.92661441279" lon="2.82905439535">
        <ele>103.08</ele>
        <time>2022-01-27T16:44:11.382Z</time>
      </trkpt>
      <trkpt lat="41.92661441279" lon="2.82905439535">
        <ele>103.08</ele>
        <time>2022-01-27T16:44:11.646Z</time>
      </trkpt>
      <trkpt lat="41.92665875419" lon="2.82906443491">
        <ele>103.09</ele>
        <time>2022-01-27T16:44:11.910Z</time>
      </trkpt>
      <trkpt lat="41.92665875419" lon="2.82906443491">
        <ele>103.09</ele>
        <time>2022-01-27T16:44:12.174Z</time>
      </trkpt>
      <trkpt lat="41.92670309558" lon="2.82907447447">
        <ele>103.03</ele>
        <time>2022-01-27T16:44:12.439Z</time>
      </trkpt>
      <trkpt lat="41.92670309558" lon="2.82907447447">
        <ele>103.03</ele>
        <time>2022-01-27T16:44:12.704Z</time>
      </trkpt>
      <trkpt lat="41.92674655014" lon="2.82908431324">
        <ele>102.93</ele>
        <time>2022-01-27T16:44:12.970Z</time>
      </trkpt>
      <trkpt lat="41.92674655014" lon="2.82908431324">
        <ele>102.93</ele>
        <time>2022-01-27T16:44:13.236Z</time>
      </trkpt>
      <trkpt lat="41.92686" lon="2.82911">
        <ele>102.57036386205</ele>
        <time>2022-01-27T16:44:13.503Z</time>
      </trkpt>
      <trkpt lat="41.92686" lon="2.82911">
        <ele>102.57036386205</ele>
        <time>2022-01-27T16:44:13.770Z</time>
      </trkpt>
      <trkpt lat="41.92696589705" lon="2.82914403834">
        <ele>102.23</ele>
        <time>2022-01-27T16:44:14.039Z</time>
      </trkpt>
      <trkpt lat="41.92696589705" lon="2.82914403834">
        <ele>102.23</ele>
        <time>2022-01-27T16:44:14.308Z</time>
      </trkpt>
      <trkpt lat="41.92705336301" lon="2.8291721524">
        <ele>102.01</ele>
        <time>2022-01-27T16:44:14.579Z</time>
      </trkpt>
      <trkpt lat="41.92705336301" lon="2.8291721524">
        <ele>102.01</ele>
        <time>2022-01-27T16:44:14.850Z</time>
      </trkpt>
      <trkpt lat="41.92714" lon="2.8292">
        <ele>101.83</ele>
        <time>2022-01-27T16:44:15.122Z</time>
      </trkpt>
      <trkpt lat="41.92714" lon="2.8292">
        <ele>101.83</ele>
        <time>2022-01-27T16:44:15.394Z</time>
      </trkpt>
      <trkpt lat="41.92722552221" lon="2.82923718357">
        <ele>101.72</ele>
        <time>2022-01-27T16:44:15.668Z</time>
      </trkpt>
      <trkpt lat="41.92722552221" lon="2.82923718357">
        <ele>101.72</ele>
        <time>2022-01-27T16:44:15.942Z</time>
      </trkpt>
      <trkpt lat="41.92726830565" lon="2.82925578507">
        <ele>101.7</ele>
        <time>2022-01-27T16:44:16.216Z</time>
      </trkpt>
      <trkpt lat="41.92726830565" lon="2.82925578507">
        <ele>101.7</ele>
        <time>2022-01-27T16:44:16.490Z</time>
      </trkpt>
      <trkpt lat="41.92735301688" lon="2.82929261603">
        <ele>101.71</ele>
        <time>2022-01-27T16:44:16.766Z</time>
      </trkpt>
      <trkpt lat="41.92735301688" lon="2.82929261603">
        <ele>101.71</ele>
        <time>2022-01-27T16:44:17.042Z</time>
      </trkpt>
      <trkpt lat="41.92743858377" lon="2.82932981903">
        <ele>101.79</ele>
        <time>2022-01-27T16:44:17.319Z</time>
      </trkpt>
      <trkpt lat="41.92743858377" lon="2.82932981903">
        <ele>101.79</ele>
        <time>2022-01-27T16:44:17.596Z</time>
      </trkpt>
      <trkpt lat="41.92748136722" lon="2.82934842053">
        <ele>101.87</ele>
        <time>2022-01-27T16:44:17.874Z</time>
      </trkpt>
      <trkpt lat="41.92748136722" lon="2.82934842053">
        <ele>101.87</ele>
        <time>2022-01-27T16:44:18.152Z</time>
      </trkpt>
      <trkpt lat="41.92756607844" lon="2.8293852515">
        <ele>102.09</ele>
        <time>2022-01-27T16:44:18.431Z</time>
      </trkpt>
      <trkpt lat="41.92756607844" lon="2.8293852515">
        <ele>102.09</ele>
        <time>2022-01-27T16:44:18.710Z</time>
      </trkpt>
      <trkpt lat="41.9276" lon="2.8294">
        <ele>102.2168586266</ele>
        <time>2022-01-27T16:44:18.990Z</time>
      </trkpt>
      <trkpt lat="41.9276" lon="2.8294">
        <ele>102.2168586266</ele>
        <time>2022-01-27T16:44:19.270Z</time>
      </trkpt>
      <trkpt lat="41.92760906711" lon="2.8294028633">
        <ele>102.25</ele>
        <time>2022-01-27T16:44:19.550Z</time>
      </trkpt>
      <trkpt lat="41.92760906711" lon="2.8294028633">
        <ele>102.25</ele>
        <time>2022-01-27T16:44:19.830Z</time>
      </trkpt>
      <trkpt lat="41.92765284132" lon="2.82941668673">
        <ele>102.44</ele>
        <time>2022-01-27T16:44:20.111Z</time>
      </trkpt>
      <trkpt lat="41.92765284132" lon="2.82941668673">
        <ele>102.44</ele>
        <time>2022-01-27T16:44:20.392Z</time>
      </trkpt>
      <trkpt lat="41.92769574004" lon="2.8294302337">
        <ele>102.66</ele>
        <time>2022-01-27T16:44:20.673Z</time>
      </trkpt>
      <trkpt lat="41.92769574004" lon="2.8294302337">
        <ele>102.66</ele>
        <time>2022-01-27T16:44:20.954Z</time>
      </trkpt>
      <trkpt lat="41.92779" lon="2.82946">
        <ele>103.18</ele>
        <time>2022-01-27T16:44:21.237Z</time>
      </trkpt>
      <trkpt lat="41.92779" lon="2.82946">
        <ele>103.18</ele>
        <time>2022-01-27T16:44:21.520Z</time>
      </trkpt>
      <trkpt lat="41.92783" lon="2.8295">
        <ele>103.58386227159</ele>
        <time>2022-01-27T16:44:21.804Z</time>
      </trkpt>
      <trkpt lat="41.92783" lon="2.8295">
        <ele>103.58386227159</ele>
        <time>2022-01-27T16:44:22.088Z</time>
      </trkpt>
      <trkpt lat="41.92784" lon="2.82951">
        <ele>103.67256206868</ele>
        <time>2022-01-27T16:44:22.372Z</time>
      </trkpt>
      <trkpt lat="41.92784" lon="2.82951">
        <ele>103.67256206868</ele>
        <time>2022-01-27T16:44:22.656Z</time>
      </trkpt>
      <trkpt lat="41.92784452893" lon="2.82953717355">
        <ele>103.82</ele>
        <time>2022-01-27T16:44:22.940Z</time>
      </trkpt>
      <trkpt lat="41.92784452893" lon="2.82953717355">
        <ele>103.82</ele>
        <time>2022-01-27T16:44:23.224Z</time>
      </trkpt>
      <trkpt lat="41.92785416194" lon="2.82959497161">
        <ele>104.19</ele>
        <time>2022-01-27T16:44:23.509Z</time>
      </trkpt>
      <trkpt lat="41.92785416194" lon="2.82959497161">
        <ele>104.19</ele>
        <time>2022-01-27T16:44:23.794Z</time>
      </trkpt>
      <trkpt lat="41.92786" lon="2.82963">
        <ele>104.43351002319</ele>
        <time>2022-01-27T16:44:24.079Z</time>
      </trkpt>
      <trkpt lat="41.92786" lon="2.82963">
        <ele>104.43351002319</ele>
        <time>2022-01-27T16:44:24.364Z</time>
      </trkpt>
      <trkpt lat="41.92785209801" lon="2.82965212556">
        <ele>104.6</ele>
        <time>2022-01-27T16:44:24.650Z</time>
      </trkpt>
      <trkpt lat="41.92785209801" lon="2.82965212556">
        <ele>104.6</ele>
        <time>2022-01-27T16:44:24.936Z</time>
      </trkpt>
      <trkpt lat="41.9278326385" lon="2.82970661221">
        <ele>105.04</ele>
        <time>2022-01-27T16:44:25.222Z</time>
      </trkpt>
      <trkpt lat="41.9278326385" lon="2.82970661221">
        <ele>105.04</ele>
        <time>2022-01-27T16:44:25.508Z</time>
      </trkpt>
      <trkpt lat="41.92781" lon="2.82977">
        <ele>105.51</ele>
        <time>2022-01-27T16:44:25.795Z</time>
      </trkpt>
      <trkpt lat="41.92781" lon="2.82977">
        <ele>105.51</ele>
        <time>2022-01-27T16:44:26.082Z</time>
      </trkpt>
      <trkpt lat="41.92775097052" lon="2.82984589505">
        <ele>106.53</ele>
        <time>2022-01-27T16:44:26.371Z</time>
      </trkpt>
      <trkpt lat="41.92775097052" lon="2.82984589505">
        <ele>106.53</ele>
        <time>2022-01-27T16:44:26.660Z</time>
      </trkpt>
      <trkpt lat="41.92774" lon="2.82986">
        <ele>106.70893771934</ele>
        <time>2022-01-27T16:44:26.949Z</time>
      </trkpt>
      <trkpt lat="41.92774" lon="2.82986">
        <ele>106.70893771934</ele>
        <time>2022-01-27T16:44:27.238Z</time>
      </trkpt>
      <trkpt lat="41.92767" lon="2.82986">
        <ele>107.59</ele>
        <time>2022-01-27T16:44:27.528Z</time>
      </trkpt>
      <trkpt lat="41.92767" lon="2.82986">
        <ele>107.59</ele>
        <time>2022-01-27T16:44:27.818Z</time>
      </trkpt>
      <trkpt lat="41.92766609122" lon="2.82985637042">
        <ele>107.59</ele>
        <time>2022-01-27T16:44:28.108Z</time>
      </trkpt>
      <trkpt lat="41.92766609122" lon="2.82985637042">
        <ele>107.59</ele>
        <time>2022-01-27T16:44:28.398Z</time>
      </trkpt>
      <trkpt lat="41.92759283905" lon="2.82978835054">
        <ele>108.69</ele>
        <time>2022-01-27T16:44:28.689Z</time>
      </trkpt>
      <trkpt lat="41.92759283905" lon="2.82978835054">
        <ele>108.69</ele>
        <time>2022-01-27T16:44:28.980Z</time>
      </trkpt>
      <trkpt lat="41.92753" lon="2.82973">
        <ele>109.70912048325</ele>
        <time>2022-01-27T16:44:29.273Z</time>
      </trkpt>
      <trkpt lat="41.92753" lon="2.82973">
        <ele>109.70912048325</ele>
        <time>2022-01-27T16:44:29.566Z</time>
      </trkpt>
      <trkpt lat="41.92751684281" lon="2.82972561427">
        <ele>109.89</ele>
        <time>2022-01-27T16:44:29.859Z</time>
      </trkpt>
      <trkpt lat="41.92751684281" lon="2.82972561427">
        <ele>109.89</ele>
        <time>2022-01-27T16:44:30.152Z</time>
      </trkpt>
      <trkpt lat="41.92747" lon="2.82971">
        <ele>110.58151732902</ele>
        <time>2022-01-27T16:44:30.446Z</time>
      </trkpt>
      <trkpt lat="41.92747" lon="2.82971">
        <ele>110.58151732902</ele>
        <time>2022-01-27T16:44:30.740Z</time>
      </trkpt>
      <trkpt lat="41.9274" lon="2.82972">
        <ele>111.59015884427</ele>
        <time>2022-01-27T16:44:31.035Z</time>
      </trkpt>
      <trkpt lat="41.9274" lon="2.82972">
        <ele>111.59015884427</ele>
        <time>2022-01-27T16:44:31.330Z</time>
      </trkpt>
      <trkpt lat="41.92738625488" lon="2.82972916341">
        <ele>111.81</ele>
        <time>2022-01-27T16:44:31.625Z</time>
      </trkpt>
      <trkpt lat="41.92738625488" lon="2.82972916341">
        <ele>111.81</ele>
        <time>2022-01-27T16:44:31.920Z</time>
      </trkpt>
      <trkpt lat="41.9273081054" lon="2.82978126307">
        <ele>112.64</ele>
        <time>2022-01-27T16:44:32.216Z</time>
      </trkpt>
      <trkpt lat="41.9273081054" lon="2.82978126307">
        <ele>112.64</ele>
        <time>2022-01-27T16:44:32.512Z</time>
      </trkpt>
      <trkpt lat="41.92728" lon="2.8298">
        <ele>112.90890317238</ele>
        <time>2022-01-27T16:44:32.809Z</time>
      </trkpt>
      <trkpt lat="41.92728" lon="2.8298">
        <ele>112.90890317238</ele>
        <time>2022-01-27T16:44:33.106Z</time>
      </trkpt>
      <trkpt lat="41.92727482066" lon="2.82981424317">
        <ele>113.01</ele>
        <time>2022-01-27T16:44:33.403Z</time>
      </trkpt>
      <trkpt lat="41.92727482066" lon="2.82981424317">
        <ele>113.01</ele>
        <time>2022-01-27T16:44:33.700Z</time>
      </trkpt>
      <trkpt lat="41.92725547012" lon="2.82986745716">
        <ele>113.33</ele>
        <time>2022-01-27T16:44:33.998Z</time>
      </trkpt>
      <trkpt lat="41.92725547012" lon="2.82986745716">
        <ele>113.33</ele>
        <time>2022-01-27T16:44:34.296Z</time>
      </trkpt>
      <trkpt lat="41.92724" lon="2.82991">
        <ele>113.6</ele>
        <time>2022-01-27T16:44:34.594Z</time>
      </trkpt>
      <trkpt lat="41.92724" lon="2.82991">
        <ele>113.6</ele>
        <time>2022-01-27T16:44:34.892Z</time>
      </trkpt>
      <trkpt lat="41.92724123975" lon="2.82992053785">
        <ele>113.6</ele>
        <time>2022-01-27T16:44:35.191Z</time>
      </trkpt>
      <trkpt lat="41.92724123975" lon="2.82992053785">
        <ele>113.6</ele>
        <time>2022-01-27T16:44:35.490Z</time>
      </trkpt>
      <trkpt lat="41.927247982" lon="2.82997784702">
        <ele>113.83</ele>
        <time>2022-01-27T16:44:35.789Z</time>
      </trkpt>
      <trkpt lat="41.927247982" lon="2.82997784702">
        <ele>113.83</ele>
        <time>2022-01-27T16:44:36.088Z</time>
      </trkpt>
      <trkpt lat="41.92725486472" lon="2.83003635013">
        <ele>114.03</ele>
        <time>2022-01-27T16:44:36.388Z</time>
      </trkpt>
      <trkpt lat="41.92725486472" lon="2.83003635013">
        <ele>114.03</ele>
        <time>2022-01-27T16:44:36.688Z</time>
      </trkpt>
      <trkpt lat="41.92726" lon="2.83008">
        <ele>114.15948150965</ele>
        <time>2022-01-27T16:44:36.988Z</time>
      </trkpt>
      <trkpt lat="41.92726" lon="2.83008">
        <ele>114.15948150965</ele>
        <time>2022-01-27T16:44:37.288Z</time>
      </trkpt>
      <trkpt lat="41.92726573893" lon="2.83009147787">
        <ele>114.2</ele>
        <time>2022-01-27T16:44:37.589Z</time>
      </trkpt>
      <trkpt lat="41.92726573893" lon="2.83009147787">
        <ele>114.2</ele>
        <time>2022-01-27T16:44:37.890Z</time>
      </trkpt>
      <trkpt lat="41.92728981729" lon="2.83013963459">
        <ele>114.34</ele>
        <time>2022-01-27T16:44:38.191Z</time>
      </trkpt>
      <trkpt lat="41.92728981729" lon="2.83013963459">
        <ele>114.34</ele>
        <time>2022-01-27T16:44:38.492Z</time>
      </trkpt>
      <trkpt lat="41.92731439728" lon="2.83018879457">
        <ele>114.46</ele>
        <time>2022-01-27T16:44:38.794Z</time>
      </trkpt>
      <trkpt lat="41.92731439728" lon="2.83018879457">
        <ele>114.46</ele>
        <time>2022-01-27T16:44:39.096Z</time>
      </trkpt>
      <trkpt lat="41.927362554" lon="2.83028510801">
        <ele>114.65</ele>
        <time>2022-01-27T16:44:39.399Z</time>
      </trkpt>
      <trkpt lat="41.927362554" lon="2.83028510801">
        <ele>114.65</ele>
        <time>2022-01-27T16:44:39.702Z</time>
      </trkpt>
      <trkpt lat="41.92743529071" lon="2.83043058143">
        <ele>114.86</ele>
        <time>2022-01-27T16:44:40.007Z</time>
      </trkpt>
      <trkpt lat="41.92743529071" lon="2.83043058143">
        <ele>114.86</ele>
        <time>2022-01-27T16:44:40.312Z</time>
      </trkpt>
      <trkpt lat="41.9275" lon="2.83056">
        <ele>115.00035986858</ele>
        <time>2022-01-27T16:44:40.619Z</time>
      </trkpt>
      <trkpt lat="41.9275" lon="2.83056">
        <ele>115.00035986858</ele>
        <time>2022-01-27T16:44:40.926Z</time>
      </trkpt>
      <trkpt lat="41.92752865566" lon="2.83062709618">
        <ele>115.07</ele>
        <time>2022-01-27T16:44:41.234Z</time>
      </trkpt>
      <trkpt lat="41.92752865566" lon="2.83062709618">
        <ele>115.07</ele>
        <time>2022-01-27T16:44:41.542Z</time>
      </trkpt>
      <trkpt lat="41.92757298058" lon="2.83073088136">
        <ele>115.01</ele>
        <time>2022-01-27T16:44:41.852Z</time>
      </trkpt>
      <trkpt lat="41.92757298058" lon="2.83073088136">
        <ele>115.01</ele>
        <time>2022-01-27T16:44:42.162Z</time>
      </trkpt>
      <trkpt lat="41.9276173055" lon="2.83083466655">
        <ele>114.89</ele>
        <time>2022-01-27T16:44:42.473Z</time>
      </trkpt>
      <trkpt lat="41.9276173055" lon="2.83083466655">
        <ele>114.89</ele>
        <time>2022-01-27T16:44:42.784Z</time>
      </trkpt>
      <trkpt lat="41.9276392441" lon="2.83088603497">
        <ele>114.79</ele>
        <time>2022-01-27T16:44:43.096Z</time>
      </trkpt>
      <trkpt lat="41.9276392441" lon="2.83088603497">
        <ele>114.79</ele>
        <time>2022-01-27T16:44:43.408Z</time>
      </trkpt>
      <trkpt lat="41.92766163043" lon="2.83093845173">
        <ele>114.64</ele>
        <time>2022-01-27T16:44:43.721Z</time>
      </trkpt>
      <trkpt lat="41.92766163043" lon="2.83093845173">
        <ele>114.64</ele>
        <time>2022-01-27T16:44:44.034Z</time>
      </trkpt>
      <trkpt lat="41.92768356903" lon="2.83098982016">
        <ele>114.43</ele>
        <time>2022-01-27T16:44:44.347Z</time>
      </trkpt>
      <trkpt lat="41.92768356903" lon="2.83098982016">
        <ele>114.43</ele>
        <time>2022-01-27T16:44:44.660Z</time>
      </trkpt>
      <trkpt lat="41.92770595535" lon="2.83104223692">
        <ele>114.15</ele>
        <time>2022-01-27T16:44:44.974Z</time>
      </trkpt>
      <trkpt lat="41.92770595535" lon="2.83104223692">
        <ele>114.15</ele>
        <time>2022-01-27T16:44:45.288Z</time>
      </trkpt>
      <trkpt lat="41.92772789395" lon="2.83109360534">
        <ele>113.84</ele>
        <time>2022-01-27T16:44:45.603Z</time>
      </trkpt>
      <trkpt lat="41.92772789395" lon="2.83109360534">
        <ele>113.84</ele>
        <time>2022-01-27T16:44:45.918Z</time>
      </trkpt>
      <trkpt lat="41.92777221887" lon="2.83119739053">
        <ele>113.14</ele>
        <time>2022-01-27T16:44:46.234Z</time>
      </trkpt>
      <trkpt lat="41.92777221887" lon="2.83119739053">
        <ele>113.14</ele>
        <time>2022-01-27T16:44:46.550Z</time>
      </trkpt>
      <trkpt lat="41.9277946052" lon="2.83124980729">
        <ele>112.74</ele>
        <time>2022-01-27T16:44:46.867Z</time>
      </trkpt>
      <trkpt lat="41.9277946052" lon="2.83124980729">
        <ele>112.74</ele>
        <time>2022-01-27T16:44:47.184Z</time>
      </trkpt>
      <trkpt lat="41.9278165438" lon="2.83130117572">
        <ele>112.27</ele>
        <time>2022-01-27T16:44:47.502Z</time>
      </trkpt>
      <trkpt lat="41.9278165438" lon="2.83130117572">
        <ele>112.27</ele>
        <time>2022-01-27T16:44:47.820Z</time>
      </trkpt>
      <trkpt lat="41.92783893012" lon="2.83135359248">
        <ele>111.71</ele>
        <time>2022-01-27T16:44:48.138Z</time>
      </trkpt>
      <trkpt lat="41.92783893012" lon="2.83135359248">
        <ele>111.71</ele>
        <time>2022-01-27T16:44:48.456Z</time>
      </trkpt>
      <trkpt lat="41.92786086872" lon="2.8314049609">
        <ele>111.07</ele>
        <time>2022-01-27T16:44:48.775Z</time>
      </trkpt>
      <trkpt lat="41.92786086872" lon="2.8314049609">
        <ele>111.07</ele>
        <time>2022-01-27T16:44:49.094Z</time>
      </trkpt>
      <trkpt lat="41.92789579138" lon="2.83148673105">
        <ele>110.0</ele>
        <time>2022-01-27T16:44:49.414Z</time>
      </trkpt>
      <trkpt lat="41.92789579138" lon="2.83148673105">
        <ele>110.0</ele>
        <time>2022-01-27T16:44:49.734Z</time>
      </trkpt>
      <trkpt lat="41.92790474591" lon="2.83150769775">
        <ele>109.72</ele>
        <time>2022-01-27T16:44:50.054Z</time>
      </trkpt>
      <trkpt lat="41.92790474591" lon="2.83150769775">
        <ele>109.72</ele>
        <time>2022-01-27T16:44:50.374Z</time>
      </trkpt>
      <trkpt lat="41.92791" lon="2.83152">
        <ele>109.57683259639</ele>
        <time>2022-01-27T16:44:50.695Z</time>
      </trkpt>
      <trkpt lat="41.92791" lon="2.83152">
        <ele>109.57683259639</ele>
        <time>2022-01-27T16:44:51.016Z</time>
      </trkpt>
      <trkpt lat="41.92793255869" lon="2.83155492959">
        <ele>109.11</ele>
        <time>2022-01-27T16:44:51.337Z</time>
      </trkpt>
      <trkpt lat="41.92793255869" lon="2.83155492959">
        <ele>109.11</ele>
        <time>2022-01-27T16:44:51.658Z</time>
      </trkpt>
      <trkpt lat="41.92796144611" lon="2.83159965849">
        <ele>108.62</ele>
        <time>2022-01-27T16:44:51.980Z</time>
      </trkpt>
      <trkpt lat="41.92796144611" lon="2.83159965849">
        <ele>108.62</ele>
        <time>2022-01-27T16:44:52.302Z</time>
      </trkpt>
      <trkpt lat="41.92799092306" lon="2.83164530022">
        <ele>108.3</ele>
        <time>2022-01-27T16:44:52.625Z</time>
      </trkpt>
      <trkpt lat="41.92799092306" lon="2.83164530022">
        <ele>108.3</ele>
        <time>2022-01-27T16:44:52.948Z</time>
      </trkpt>
      <trkpt lat="41.92801981047" lon="2.83169002912">
        <ele>108.23</ele>
        <time>2022-01-27T16:44:53.271Z</time>
      </trkpt>
      <trkpt lat="41.92801981047" lon="2.83169002912">
        <ele>108.23</ele>
        <time>2022-01-27T16:44:53.594Z</time>
      </trkpt>
      <trkpt lat="41.92804928742" lon="2.83173567085">
        <ele>108.41</ele>
        <time>2022-01-27T16:44:53.918Z</time>
      </trkpt>
      <trkpt lat="41.92804928742" lon="2.83173567085">
        <ele>108.41</ele>
        <time>2022-01-27T16:44:54.242Z</time>
      </trkpt>
      <trkpt lat="41.92807817484" lon="2.83178039975">
        <ele>108.81</ele>
        <time>2022-01-27T16:44:54.567Z</time>
      </trkpt>
      <trkpt lat="41.92807817484" lon="2.83178039975">
        <ele>108.81</ele>
        <time>2022-01-27T16:44:54.892Z</time>
      </trkpt>
      <trkpt lat="41.92810765179" lon="2.83182604148">
        <ele>109.38</ele>
        <time>2022-01-27T16:44:55.217Z</time>
      </trkpt>
      <trkpt lat="41.92810765179" lon="2.83182604148">
        <ele>109.38</ele>
        <time>2022-01-27T16:44:55.542Z</time>
      </trkpt>
      <trkpt lat="41.92819490357" lon="2.83196114101">
        <ele>111.32</ele>
        <time>2022-01-27T16:44:55.870Z</time>
      </trkpt>
      <trkpt lat="41.92819490357" lon="2.83196114101">
        <ele>111.32</ele>
        <time>2022-01-27T16:44:56.198Z</time>
      </trkpt>
      <trkpt lat="41.92822" lon="2.832">
        <ele>111.84459487163</ele>
        <time>2022-01-27T16:44:56.526Z</time>
      </trkpt>
      <trkpt lat="41.92822" lon="2.832">
        <ele>111.84459487163</ele>
        <time>2022-01-27T16:44:56.854Z</time>
      </trkpt>
      <trkpt lat="41.92824956769" lon="2.83205543942">
        <ele>112.54</ele>
        <time>2022-01-27T16:44:57.183Z</time>
      </trkpt>
      <trkpt lat="41.92824956769" lon="2.83205543942">
        <ele>112.54</ele>
        <time>2022-01-27T16:44:57.512Z</time>
      </trkpt>
      <trkpt lat="41.92830144044" lon="2.83215270083">
        <ele>113.7</ele>
        <time>2022-01-27T16:44:57.842Z</time>
      </trkpt>
      <trkpt lat="41.92830144044" lon="2.83215270083">
        <ele>113.7</ele>
        <time>2022-01-27T16:44:58.172Z</time>
      </trkpt>
      <trkpt lat="41.9283276388" lon="2.83220182276">
        <ele>114.2</ele>
        <time>2022-01-27T16:44:58.503Z</time>
      </trkpt>
      <trkpt lat="41.9283276388" lon="2.83220182276">
        <ele>114.2</ele>
        <time>2022-01-27T16:44:58.834Z</time>
      </trkpt>
      <trkpt lat="41.9283533132" lon="2.83224996225">
        <ele>114.61</ele>
        <time>2022-01-27T16:44:59.166Z</time>
      </trkpt>
      <trkpt lat="41.9283533132" lon="2.83224996225">
        <ele>114.61</ele>
        <time>2022-01-27T16:44:59.498Z</time>
      </trkpt>
      <trkpt lat="41.92838" lon="2.8323">
        <ele>114.92</ele>
        <time>2022-01-27T16:44:59.831Z</time>
      </trkpt>
      <trkpt lat="41.92838" lon="2.8323">
        <ele>114.92</ele>
        <time>2022-01-27T16:45:00.164Z</time>
      </trkpt>
      <trkpt lat="41.92841198298" lon="2.83233909031">
        <ele>115.15</ele>
        <time>2022-01-27T16:45:00.497Z</time>
      </trkpt>
      <trkpt lat="41.92841198298" lon="2.83233909031">
        <ele>115.15</ele>
        <time>2022-01-27T16:45:00.830Z</time>
      </trkpt>
      <trkpt lat="41.92844525159" lon="2.83237975195">
        <ele>115.33</ele>
        <time>2022-01-27T16:45:01.164Z</time>
      </trkpt>
      <trkpt lat="41.92844525159" lon="2.83237975195">
        <ele>115.33</ele>
        <time>2022-01-27T16:45:01.498Z</time>
      </trkpt>
      <trkpt lat="41.92847" lon="2.83241">
        <ele>115.42868015936</ele>
        <time>2022-01-27T16:45:01.832Z</time>
      </trkpt>
      <trkpt lat="41.92847" lon="2.83241">
        <ele>115.42868015936</ele>
        <time>2022-01-27T16:45:02.166Z</time>
      </trkpt>
      <trkpt lat="41.92847632398" lon="2.83242146221">
        <ele>115.46</ele>
        <time>2022-01-27T16:45:02.501Z</time>
      </trkpt>
      <trkpt lat="41.92847632398" lon="2.83242146221">
        <ele>115.46</ele>
        <time>2022-01-27T16:45:02.836Z</time>
      </trkpt>
      <trkpt lat="41.92852935782" lon="2.83251758605">
        <ele>115.58</ele>
        <time>2022-01-27T16:45:03.172Z</time>
      </trkpt>
      <trkpt lat="41.92852935782" lon="2.83251758605">
        <ele>115.58</ele>
        <time>2022-01-27T16:45:03.508Z</time>
      </trkpt>
      <trkpt lat="41.92863" lon="2.8327">
        <ele>115.68384885409</ele>
        <time>2022-01-27T16:45:03.847Z</time>
      </trkpt>
      <trkpt lat="41.92863" lon="2.8327">
        <ele>115.68384885409</ele>
        <time>2022-01-27T16:45:04.186Z</time>
      </trkpt>
      <trkpt lat="41.92863473908" lon="2.8327118477">
        <ele>115.69</ele>
        <time>2022-01-27T16:45:04.525Z</time>
      </trkpt>
      <trkpt lat="41.92863473908" lon="2.8327118477">
        <ele>115.69</ele>
        <time>2022-01-27T16:45:04.864Z</time>
      </trkpt>
      <trkpt lat="41.92867" lon="2.8328">
        <ele>115.75690691712</ele>
        <time>2022-01-27T16:45:05.204Z</time>
      </trkpt>
      <trkpt lat="41.92867" lon="2.8328">
        <ele>115.75690691712</ele>
        <time>2022-01-27T16:45:05.544Z</time>
      </trkpt>
      <trkpt lat="41.9286716916" lon="2.83281945343">
        <ele>115.77</ele>
        <time>2022-01-27T16:45:05.884Z</time>
      </trkpt>
      <trkpt lat="41.9286716916" lon="2.83281945343">
        <ele>115.77</ele>
        <time>2022-01-27T16:45:06.224Z</time>
      </trkpt>
      <trkpt lat="41.92868213186" lon="2.83293951643">
        <ele>115.87</ele>
        <time>2022-01-27T16:45:06.566Z</time>
      </trkpt>
      <trkpt lat="41.92868213186" lon="2.83293951643">
        <ele>115.87</ele>
        <time>2022-01-27T16:45:06.908Z</time>
      </trkpt>
      <trkpt lat="41.92869" lon="2.83303">
        <ele>115.96610099974</ele>
        <time>2022-01-27T16:45:07.251Z</time>
      </trkpt>
      <trkpt lat="41.92869" lon="2.83303">
        <ele>115.96610099974</ele>
        <time>2022-01-27T16:45:07.594Z</time>
      </trkpt>
      <trkpt lat="41.92869" lon="2.83312">
        <ele>116.06</ele>
        <time>2022-01-27T16:45:07.938Z</time>
      </trkpt>
      <trkpt lat="41.92869" lon="2.83312">
        <ele>116.06</ele>
        <time>2022-01-27T16:45:08.282Z</time>
      </trkpt>
      <trkpt lat="41.92864" lon="2.83329">
        <ele>116.28539059521</ele>
        <time>2022-01-27T16:45:08.628Z</time>
      </trkpt>
      <trkpt lat="41.92864" lon="2.83329">
        <ele>116.28539059521</ele>
        <time>2022-01-27T16:45:08.974Z</time>
      </trkpt>
      <trkpt lat="41.92864" lon="2.83338">
        <ele>116.39576189897</ele>
        <time>2022-01-27T16:45:09.321Z</time>
      </trkpt>
      <trkpt lat="41.92864" lon="2.83338">
        <ele>116.39576189897</ele>
        <time>2022-01-27T16:45:09.668Z</time>
      </trkpt>
      <trkpt lat="41.92873529696" lon="2.83354300796">
        <ele>116.65</ele>
        <time>2022-01-27T16:45:10.018Z</time>
      </trkpt>
      <trkpt lat="41.92873529696" lon="2.83354300796">
        <ele>116.65</ele>
        <time>2022-01-27T16:45:10.368Z</time>
      </trkpt>
      <trkpt lat="41.92892866585" lon="2.83387377054">
        <ele>117.27</ele>
        <time>2022-01-27T16:45:10.723Z</time>
      </trkpt>
      <trkpt lat="41.92892866585" lon="2.83387377054">
        <ele>117.27</ele>
        <time>2022-01-27T16:45:11.078Z</time>
      </trkpt>
      <trkpt lat="41.92898367597" lon="2.83396786679">
        <ele>117.48</ele>
        <time>2022-01-27T16:45:11.434Z</time>
      </trkpt>
      <trkpt lat="41.92898367597" lon="2.83396786679">
        <ele>117.48</ele>
        <time>2022-01-27T16:45:11.790Z</time>
      </trkpt>
      <trkpt lat="41.92902" lon="2.83403">
        <ele>117.6714914895</ele>
        <time>2022-01-27T16:45:12.147Z</time>
      </trkpt>
      <trkpt lat="41.92902" lon="2.83403">
        <ele>117.6714914895</ele>
        <time>2022-01-27T16:45:12.504Z</time>
      </trkpt>
      <trkpt lat="41.92904167694" lon="2.83405834677">
        <ele>117.77</ele>
        <time>2022-01-27T16:45:12.862Z</time>
      </trkpt>
      <trkpt lat="41.92904167694" lon="2.83405834677">
        <ele>117.77</ele>
        <time>2022-01-27T16:45:13.220Z</time>
      </trkpt>
      <trkpt lat="41.92915" lon="2.8342">
        <ele>118.30393241067</ele>
        <time>2022-01-27T16:45:13.580Z</time>
      </trkpt>
      <trkpt lat="41.92915" lon="2.8342">
        <ele>118.30393241067</ele>
        <time>2022-01-27T16:45:13.940Z</time>
      </trkpt>
      <trkpt lat="41.92919815306" lon="2.83434445917">
        <ele>118.72</ele>
        <time>2022-01-27T16:45:14.302Z</time>
      </trkpt>
      <trkpt lat="41.92919815306" lon="2.83434445917">
        <ele>118.72</ele>
        <time>2022-01-27T16:45:14.664Z</time>
      </trkpt>
      <trkpt lat="41.92923455693" lon="2.83445367079">
        <ele>119.08</ele>
        <time>2022-01-27T16:45:15.027Z</time>
      </trkpt>
      <trkpt lat="41.92923455693" lon="2.83445367079">
        <ele>119.08</ele>
        <time>2022-01-27T16:45:15.390Z</time>
      </trkpt>
      <trkpt lat="41.92924" lon="2.83447">
        <ele>119.14216997944</ele>
        <time>2022-01-27T16:45:15.754Z</time>
      </trkpt>
      <trkpt lat="41.92924" lon="2.83447">
        <ele>119.14216997944</ele>
        <time>2022-01-27T16:45:16.118Z</time>
      </trkpt>
      <trkpt lat="41.92926390521" lon="2.83449788942">
        <ele>119.29</ele>
        <time>2022-01-27T16:45:16.482Z</time>
      </trkpt>
      <trkpt lat="41.92926390521" lon="2.83449788942">
        <ele>119.29</ele>
        <time>2022-01-27T16:45:16.846Z</time>
      </trkpt>
      <trkpt lat="41.9293" lon="2.83454">
        <ele>119.54230617241</ele>
        <time>2022-01-27T16:45:17.211Z</time>
      </trkpt>
      <trkpt lat="41.9293" lon="2.83454">
        <ele>119.54230617241</ele>
        <time>2022-01-27T16:45:17.576Z</time>
      </trkpt>
      <trkpt lat="41.92933754035" lon="2.83456294133">
        <ele>119.76</ele>
        <time>2022-01-27T16:45:17.941Z</time>
      </trkpt>
      <trkpt lat="41.92933754035" lon="2.83456294133">
        <ele>119.76</ele>
        <time>2022-01-27T16:45:18.306Z</time>
      </trkpt>
      <trkpt lat="41.92948" lon="2.83465">
        <ele>120.68945693313</ele>
        <time>2022-01-27T16:45:18.674Z</time>
      </trkpt>
      <trkpt lat="41.92948" lon="2.83465">
        <ele>120.68945693313</ele>
        <time>2022-01-27T16:45:19.042Z</time>
      </trkpt>
      <trkpt lat="41.92954714945" lon="2.83465839368">
        <ele>121.09</ele>
        <time>2022-01-27T16:45:19.411Z</time>
      </trkpt>
      <trkpt lat="41.92954714945" lon="2.83465839368">
        <ele>121.09</ele>
        <time>2022-01-27T16:45:19.780Z</time>
      </trkpt>
      <trkpt lat="41.92956" lon="2.83466">
        <ele>121.1544321833</ele>
        <time>2022-01-27T16:45:20.149Z</time>
      </trkpt>
      <trkpt lat="41.92956" lon="2.83466">
        <ele>121.1544321833</ele>
        <time>2022-01-27T16:45:20.518Z</time>
      </trkpt>
      <trkpt lat="41.92958986639" lon="2.83464805344">
        <ele>121.31</ele>
        <time>2022-01-27T16:45:20.888Z</time>
      </trkpt>
      <trkpt lat="41.92958986639" lon="2.83464805344">
        <ele>121.31</ele>
        <time>2022-01-27T16:45:21.258Z</time>
      </trkpt>
      <trkpt lat="41.92961" lon="2.83464">
        <ele>121.39875964356</ele>
        <time>2022-01-27T16:45:21.628Z</time>
      </trkpt>
      <trkpt lat="41.92961" lon="2.83464">
        <ele>121.39875964356</ele>
        <time>2022-01-27T16:45:21.998Z</time>
      </trkpt>
      <trkpt lat="41.92962100334" lon="2.83466860869">
        <ele>121.5</ele>
        <time>2022-01-27T16:45:22.368Z</time>
      </trkpt>
      <trkpt lat="41.92962100334" lon="2.83466860869">
        <ele>121.5</ele>
        <time>2022-01-27T16:45:22.738Z</time>
      </trkpt>
      <trkpt lat="41.92964165355" lon="2.83472229924">
        <ele>121.65</ele>
        <time>2022-01-27T16:45:23.109Z</time>
      </trkpt>
      <trkpt lat="41.92964165355" lon="2.83472229924">
        <ele>121.65</ele>
        <time>2022-01-27T16:45:23.480Z</time>
      </trkpt>
      <trkpt lat="41.92966" lon="2.83477">
        <ele>121.75747242317</ele>
        <time>2022-01-27T16:45:23.852Z</time>
      </trkpt>
      <trkpt lat="41.92966" lon="2.83477">
        <ele>121.75747242317</ele>
        <time>2022-01-27T16:45:24.224Z</time>
      </trkpt>
      <trkpt lat="41.92976" lon="2.83483">
        <ele>122.0520772487</ele>
        <time>2022-01-27T16:45:24.598Z</time>
      </trkpt>
      <trkpt lat="41.92976" lon="2.83483">
        <ele>122.0520772487</ele>
        <time>2022-01-27T16:45:24.972Z</time>
      </trkpt>
      <trkpt lat="41.9298335257" lon="2.83482649878">
        <ele>122.25</ele>
        <time>2022-01-27T16:45:25.347Z</time>
      </trkpt>
      <trkpt lat="41.9298335257" lon="2.83482649878">
        <ele>122.25</ele>
        <time>2022-01-27T16:45:25.722Z</time>
      </trkpt>
      <trkpt lat="41.92987846363" lon="2.83482435887">
        <ele>122.36</ele>
        <time>2022-01-27T16:45:26.097Z</time>
      </trkpt>
      <trkpt lat="41.92987846363" lon="2.83482435887">
        <ele>122.36</ele>
        <time>2022-01-27T16:45:26.472Z</time>
      </trkpt>
      <trkpt lat="41.92992340156" lon="2.83482221897">
        <ele>122.44</ele>
        <time>2022-01-27T16:45:26.848Z</time>
      </trkpt>
      <trkpt lat="41.92992340156" lon="2.83482221897">
        <ele>122.44</ele>
        <time>2022-01-27T16:45:27.224Z</time>
      </trkpt>
      <trkpt lat="41.92997" lon="2.83482">
        <ele>122.5</ele>
        <time>2022-01-27T16:45:27.601Z</time>
      </trkpt>
      <trkpt lat="41.92997" lon="2.83482">
        <ele>122.5</ele>
        <time>2022-01-27T16:45:27.978Z</time>
      </trkpt>
      <trkpt lat="41.93000974457" lon="2.83483987229">
        <ele>122.52</ele>
        <time>2022-01-27T16:45:28.356Z</time>
      </trkpt>
      <trkpt lat="41.93000974457" lon="2.83483987229">
        <ele>122.52</ele>
        <time>2022-01-27T16:45:28.734Z</time>
      </trkpt>
      <trkpt lat="41.93005188934" lon="2.83486094467">
        <ele>122.52</ele>
        <time>2022-01-27T16:45:29.112Z</time>
      </trkpt>
      <trkpt lat="41.93005188934" lon="2.83486094467">
        <ele>122.52</ele>
        <time>2022-01-27T16:45:29.490Z</time>
      </trkpt>
      <trkpt lat="41.93007" lon="2.83487">
        <ele>122.50710825359</ele>
        <time>2022-01-27T16:45:29.869Z</time>
      </trkpt>
      <trkpt lat="41.93007" lon="2.83487">
        <ele>122.50710825359</ele>
        <time>2022-01-27T16:45:30.248Z</time>
      </trkpt>
      <trkpt lat="41.93007919342" lon="2.83483782302">
        <ele>122.49</ele>
        <time>2022-01-27T16:45:30.627Z</time>
      </trkpt>
      <trkpt lat="41.93007919342" lon="2.83483782302">
        <ele>122.49</ele>
        <time>2022-01-27T16:45:31.006Z</time>
      </trkpt>
      <trkpt lat="41.93009499203" lon="2.83478252789">
        <ele>122.41</ele>
        <time>2022-01-27T16:45:31.386Z</time>
      </trkpt>
      <trkpt lat="41.93009499203" lon="2.83478252789">
        <ele>122.41</ele>
        <time>2022-01-27T16:45:31.766Z</time>
      </trkpt>
      <trkpt lat="41.93011111306" lon="2.83472610429">
        <ele>122.28</ele>
        <time>2022-01-27T16:45:32.147Z</time>
      </trkpt>
      <trkpt lat="41.93011111306" lon="2.83472610429">
        <ele>122.28</ele>
        <time>2022-01-27T16:45:32.528Z</time>
      </trkpt>
      <trkpt lat="41.93012723409" lon="2.83466968068">
        <ele>122.09</ele>
        <time>2022-01-27T16:45:32.909Z</time>
      </trkpt>
      <trkpt lat="41.93012723409" lon="2.83466968068">
        <ele>122.09</ele>
        <time>2022-01-27T16:45:33.290Z</time>
      </trkpt>
      <trkpt lat="41.93017" lon="2.83452">
        <ele>121.4434626815</ele>
        <time>2022-01-27T16:45:33.673Z</time>
      </trkpt>
      <trkpt lat="41.93017" lon="2.83452">
        <ele>121.4434626815</ele>
        <time>2022-01-27T16:45:34.056Z</time>
      </trkpt>
      <trkpt lat="41.9301777597" lon="2.83444046307">
        <ele>121.12</ele>
        <time>2022-01-27T16:45:34.440Z</time>
      </trkpt>
      <trkpt lat="41.9301777597" lon="2.83444046307">
        <ele>121.12</ele>
        <time>2022-01-27T16:45:34.824Z</time>
      </trkpt>
      <trkpt lat="41.93018348945" lon="2.83438173316">
        <ele>120.92</ele>
        <time>2022-01-27T16:45:35.209Z</time>
      </trkpt>
      <trkpt lat="41.93018348945" lon="2.83438173316">
        <ele>120.92</ele>
        <time>2022-01-27T16:45:35.594Z</time>
      </trkpt>
      <trkpt lat="41.93018933613" lon="2.83432180467">
        <ele>120.76</ele>
        <time>2022-01-27T16:45:35.980Z</time>
      </trkpt>
      <trkpt lat="41.93018933613" lon="2.83432180467">
        <ele>120.76</ele>
        <time>2022-01-27T16:45:36.366Z</time>
      </trkpt>
      <trkpt lat="41.93019518281" lon="2.83426187619">
        <ele>120.66</ele>
        <time>2022-01-27T16:45:36.752Z</time>
      </trkpt>
      <trkpt lat="41.93019518281" lon="2.83426187619">
        <ele>120.66</ele>
        <time>2022-01-27T16:45:37.138Z</time>
      </trkpt>
      <trkpt lat="41.93020091256" lon="2.83420314627">
        <ele>120.61</ele>
        <time>2022-01-27T16:45:37.525Z</time>
      </trkpt>
      <trkpt lat="41.93020091256" lon="2.83420314627">
        <ele>120.61</ele>
        <time>2022-01-27T16:45:37.912Z</time>
      </trkpt>
      <trkpt lat="41.93020675924" lon="2.83414321779">
        <ele>120.61</ele>
        <time>2022-01-27T16:45:38.300Z</time>
      </trkpt>
      <trkpt lat="41.93020675924" lon="2.83414321779">
        <ele>120.61</ele>
        <time>2022-01-27T16:45:38.688Z</time>
      </trkpt>
      <trkpt lat="41.93021" lon="2.83411">
        <ele>120.64325742986</ele>
        <time>2022-01-27T16:45:39.076Z</time>
      </trkpt>
      <trkpt lat="41.93021" lon="2.83411">
        <ele>120.64325742986</ele>
        <time>2022-01-27T16:45:39.464Z</time>
      </trkpt>
      <trkpt lat="41.93022769816" lon="2.83409735846">
        <ele>120.67</ele>
        <time>2022-01-27T16:45:39.852Z</time>
      </trkpt>
      <trkpt lat="41.93022769816" lon="2.83409735846">
        <ele>120.67</ele>
        <time>2022-01-27T16:45:40.240Z</time>
      </trkpt>
      <trkpt lat="41.93026740598" lon="2.83406899573">
        <ele>120.78</ele>
        <time>2022-01-27T16:45:40.629Z</time>
      </trkpt>
      <trkpt lat="41.93026740598" lon="2.83406899573">
        <ele>120.78</ele>
        <time>2022-01-27T16:45:41.018Z</time>
      </trkpt>
      <trkpt lat="41.93028" lon="2.83406">
        <ele>120.82530959627</ele>
        <time>2022-01-27T16:45:41.407Z</time>
      </trkpt>
      <trkpt lat="41.93028" lon="2.83406">
        <ele>120.82530959627</ele>
        <time>2022-01-27T16:45:41.796Z</time>
      </trkpt>
      <trkpt lat="41.93029411433" lon="2.83409528582">
        <ele>120.92</ele>
        <time>2022-01-27T16:45:42.186Z</time>
      </trkpt>
      <trkpt lat="41.93029411433" lon="2.83409528582">
        <ele>120.92</ele>
        <time>2022-01-27T16:45:42.576Z</time>
      </trkpt>
      <trkpt lat="41.93031540828" lon="2.83414852069">
        <ele>121.1</ele>
        <time>2022-01-27T16:45:42.967Z</time>
      </trkpt>
      <trkpt lat="41.93031540828" lon="2.83414852069">
        <ele>121.1</ele>
        <time>2022-01-27T16:45:43.358Z</time>
      </trkpt>
      <trkpt lat="41.93034" lon="2.83421">
        <ele>121.35080489583</ele>
        <time>2022-01-27T16:45:43.749Z</time>
      </trkpt>
      <trkpt lat="41.93034" lon="2.83421">
        <ele>121.35080489583</ele>
        <time>2022-01-27T16:45:44.140Z</time>
      </trkpt>
      <trkpt lat="41.93036634163" lon="2.83424512217">
        <ele>121.53</ele>
        <time>2022-01-27T16:45:44.532Z</time>
      </trkpt>
      <trkpt lat="41.93036634163" lon="2.83424512217">
        <ele>121.53</ele>
        <time>2022-01-27T16:45:44.924Z</time>
      </trkpt>
      <trkpt lat="41.9304" lon="2.83429">
        <ele>121.8041237592</ele>
        <time>2022-01-27T16:45:45.317Z</time>
      </trkpt>
      <trkpt lat="41.9304" lon="2.83429">
        <ele>121.8041237592</ele>
        <time>2022-01-27T16:45:45.710Z</time>
      </trkpt>
      <trkpt lat="41.93043755084" lon="2.83431682203">
        <ele>122.05</ele>
        <time>2022-01-27T16:45:46.103Z</time>
      </trkpt>
      <trkpt lat="41.93043755084" lon="2.83431682203">
        <ele>122.05</ele>
        <time>2022-01-27T16:45:46.496Z</time>
      </trkpt>
      <trkpt lat="41.93047" lon="2.83434">
        <ele>122.30460429942</ele>
        <time>2022-01-27T16:45:46.890Z</time>
      </trkpt>
      <trkpt lat="41.93047" lon="2.83434">
        <ele>122.30460429942</ele>
        <time>2022-01-27T16:45:47.284Z</time>
      </trkpt>
      <trkpt lat="41.93055" lon="2.83436">
        <ele>122.86840776983</ele>
        <time>2022-01-27T16:45:47.679Z</time>
      </trkpt>
      <trkpt lat="41.93055" lon="2.83436">
        <ele>122.86840776983</ele>
        <time>2022-01-27T16:45:48.074Z</time>
      </trkpt>
      <trkpt lat="41.93061083059" lon="2.83435809904">
        <ele>123.29</ele>
        <time>2022-01-27T16:45:48.470Z</time>
      </trkpt>
      <trkpt lat="41.93061083059" lon="2.83435809904">
        <ele>123.29</ele>
        <time>2022-01-27T16:45:48.866Z</time>
      </trkpt>
      <trkpt lat="41.93065488548" lon="2.83435672233">
        <ele>123.55</ele>
        <time>2022-01-27T16:45:49.263Z</time>
      </trkpt>
      <trkpt lat="41.93065488548" lon="2.83435672233">
        <ele>123.55</ele>
        <time>2022-01-27T16:45:49.660Z</time>
      </trkpt>
      <trkpt lat="41.93069983946" lon="2.83435531752">
        <ele>123.78</ele>
        <time>2022-01-27T16:45:50.058Z</time>
      </trkpt>
      <trkpt lat="41.93069983946" lon="2.83435531752">
        <ele>123.78</ele>
        <time>2022-01-27T16:45:50.456Z</time>
      </trkpt>
      <trkpt lat="41.93078884832" lon="2.83435253599">
        <ele>124.19</ele>
        <time>2022-01-27T16:45:50.855Z</time>
      </trkpt>
      <trkpt lat="41.93078884832" lon="2.83435253599">
        <ele>124.19</ele>
        <time>2022-01-27T16:45:51.254Z</time>
      </trkpt>
      <trkpt lat="41.93083380229" lon="2.83435113118">
        <ele>124.42</ele>
        <time>2022-01-27T16:45:51.654Z</time>
      </trkpt>
      <trkpt lat="41.93083380229" lon="2.83435113118">
        <ele>124.42</ele>
        <time>2022-01-27T16:45:52.054Z</time>
      </trkpt>
      <trkpt lat="41.93087" lon="2.83435">
        <ele>124.7</ele>
        <time>2022-01-27T16:45:52.454Z</time>
      </trkpt>
      <trkpt lat="41.93087" lon="2.83435">
        <ele>124.7</ele>
        <time>2022-01-27T16:45:52.854Z</time>
      </trkpt>
      <trkpt lat="41.93087856723" lon="2.83434755222">
        <ele>124.7</ele>
        <time>2022-01-27T16:45:53.255Z</time>
      </trkpt>
      <trkpt lat="41.93087856723" lon="2.83434755222">
        <ele>124.7</ele>
        <time>2022-01-27T16:45:53.656Z</time>
      </trkpt>
      <trkpt lat="41.93090319798" lon="2.83434051486">
        <ele>124.89</ele>
        <time>2022-01-27T16:45:54.057Z</time>
      </trkpt>
      <trkpt lat="41.93090319798" lon="2.83434051486">
        <ele>124.89</ele>
        <time>2022-01-27T16:45:54.458Z</time>
      </trkpt>
      <trkpt lat="41.93092255072" lon="2.83433498551">
        <ele>125.05</ele>
        <time>2022-01-27T16:45:54.859Z</time>
      </trkpt>
      <trkpt lat="41.93092255072" lon="2.83433498551">
        <ele>125.05</ele>
        <time>2022-01-27T16:45:55.260Z</time>
      </trkpt>
      <trkpt lat="41.93094" lon="2.83433">
        <ele>125.21192791899</ele>
        <time>2022-01-27T16:45:55.662Z</time>
      </trkpt>
      <trkpt lat="41.93094" lon="2.83433">
        <ele>125.21192791899</ele>
        <time>2022-01-27T16:45:56.064Z</time>
      </trkpt>
      <trkpt lat="41.93095345114" lon="2.83429973493">
        <ele>125.45</ele>
        <time>2022-01-27T16:45:56.466Z</time>
      </trkpt>
      <trkpt lat="41.93095345114" lon="2.83429973493">
        <ele>125.45</ele>
        <time>2022-01-27T16:45:56.868Z</time>
      </trkpt>
      <trkpt lat="41.93098" lon="2.83424">
        <ele>125.9</ele>
        <time>2022-01-27T16:45:57.271Z</time>
      </trkpt>
      <trkpt lat="41.93098" lon="2.83424">
        <ele>125.9</ele>
        <time>2022-01-27T16:45:57.674Z</time>
      </trkpt>
      <trkpt lat="41.93097611596" lon="2.83406910213">
        <ele>127.35</ele>
        <time>2022-01-27T16:45:58.079Z</time>
      </trkpt>
      <trkpt lat="41.93097611596" lon="2.83406910213">
        <ele>127.35</ele>
        <time>2022-01-27T16:45:58.484Z</time>
      </trkpt>
      <trkpt lat="41.93097339732" lon="2.83394948213">
        <ele>128.24</ele>
        <time>2022-01-27T16:45:58.890Z</time>
      </trkpt>
      <trkpt lat="41.93097339732" lon="2.83394948213">
        <ele>128.24</ele>
        <time>2022-01-27T16:45:59.296Z</time>
      </trkpt>
      <trkpt lat="41.93097" lon="2.8338">
        <ele>128.51</ele>
        <time>2022-01-27T16:45:59.704Z</time>
      </trkpt>
      <trkpt lat="41.93097" lon="2.8338">
        <ele>128.51</ele>
        <time>2022-01-27T16:46:00.112Z</time>
      </trkpt>
      <trkpt lat="41.93099" lon="2.83369">
        <ele>128.77</ele>
        <time>2022-01-27T16:46:00.521Z</time>
      </trkpt>
      <trkpt lat="41.93099" lon="2.83369">
        <ele>128.77</ele>
        <time>2022-01-27T16:46:00.930Z</time>
      </trkpt>
      <trkpt lat="41.9309911122" lon="2.8336872195">
        <ele>128.77</ele>
        <time>2022-01-27T16:46:01.339Z</time>
      </trkpt>
      <trkpt lat="41.9309911122" lon="2.8336872195">
        <ele>128.77</ele>
        <time>2022-01-27T16:46:01.748Z</time>
      </trkpt>
      <trkpt lat="41.93103" lon="2.83359">
        <ele>128.97</ele>
        <time>2022-01-27T16:46:02.159Z</time>
      </trkpt>
      <trkpt lat="41.93103" lon="2.83359">
        <ele>128.97</ele>
        <time>2022-01-27T16:46:02.570Z</time>
      </trkpt>
      <trkpt lat="41.93103554792" lon="2.83358445208">
        <ele>128.97</ele>
        <time>2022-01-27T16:46:02.981Z</time>
      </trkpt>
      <trkpt lat="41.93103554792" lon="2.83358445208">
        <ele>128.97</ele>
        <time>2022-01-27T16:46:03.392Z</time>
      </trkpt>
      <trkpt lat="41.93107090377" lon="2.83354909623">
        <ele>129.04</ele>
        <time>2022-01-27T16:46:03.804Z</time>
      </trkpt>
      <trkpt lat="41.93107090377" lon="2.83354909623">
        <ele>129.04</ele>
        <time>2022-01-27T16:46:04.216Z</time>
      </trkpt>
      <trkpt lat="41.93111" lon="2.83351">
        <ele>129.08</ele>
        <time>2022-01-27T16:46:04.628Z</time>
      </trkpt>
      <trkpt lat="41.93111" lon="2.83351">
        <ele>129.08</ele>
        <time>2022-01-27T16:46:05.040Z</time>
      </trkpt>
      <trkpt lat="41.93115007848" lon="2.8335042745">
        <ele>129.08</ele>
        <time>2022-01-27T16:46:05.453Z</time>
      </trkpt>
      <trkpt lat="41.93115007848" lon="2.8335042745">
        <ele>129.08</ele>
        <time>2022-01-27T16:46:05.866Z</time>
      </trkpt>
      <trkpt lat="41.93118" lon="2.8335">
        <ele>129.05951516761</ele>
        <time>2022-01-27T16:46:06.280Z</time>
      </trkpt>
      <trkpt lat="41.93118" lon="2.8335">
        <ele>129.05951516761</ele>
        <time>2022-01-27T16:46:06.694Z</time>
      </trkpt>
      <trkpt lat="41.93119309984" lon="2.83350654992">
        <ele>129.05</ele>
        <time>2022-01-27T16:46:07.108Z</time>
      </trkpt>
      <trkpt lat="41.93119309984" lon="2.83350654992">
        <ele>129.05</ele>
        <time>2022-01-27T16:46:07.522Z</time>
      </trkpt>
      <trkpt lat="41.93123524471" lon="2.83352762235">
        <ele>128.97</ele>
        <time>2022-01-27T16:46:07.936Z</time>
      </trkpt>
      <trkpt lat="41.93123524471" lon="2.83352762235">
        <ele>128.97</ele>
        <time>2022-01-27T16:46:08.350Z</time>
      </trkpt>
      <trkpt lat="41.93126" lon="2.83354">
        <ele>128.88</ele>
        <time>2022-01-27T16:46:08.765Z</time>
      </trkpt>
      <trkpt lat="41.93126" lon="2.83354">
        <ele>128.88</ele>
        <time>2022-01-27T16:46:09.180Z</time>
      </trkpt>
      <trkpt lat="41.93126261439" lon="2.83354435732">
        <ele>128.88</ele>
        <time>2022-01-27T16:46:09.595Z</time>
      </trkpt>
      <trkpt lat="41.93126261439" lon="2.83354435732">
        <ele>128.88</ele>
        <time>2022-01-27T16:46:10.010Z</time>
      </trkpt>
      <trkpt lat="41.93132" lon="2.83364">
        <ele>131.07589073986</ele>
        <time>2022-01-27T16:46:10.426Z</time>
      </trkpt>
      <trkpt lat="41.93132" lon="2.83364">
        <ele>131.07589073986</ele>
        <time>2022-01-27T16:46:10.842Z</time>
      </trkpt>
      <trkpt lat="41.93133" lon="2.83372">
        <ele>130.90812552227</ele>
        <time>2022-01-27T16:46:11.259Z</time>
      </trkpt>
      <trkpt lat="41.93133" lon="2.83372">
        <ele>130.90812552227</ele>
        <time>2022-01-27T16:46:11.676Z</time>
      </trkpt>
      <trkpt lat="41.93132321689" lon="2.83375165451">
        <ele>130.84</ele>
        <time>2022-01-27T16:46:12.094Z</time>
      </trkpt>
      <trkpt lat="41.93132321689" lon="2.83375165451">
        <ele>130.84</ele>
        <time>2022-01-27T16:46:12.512Z</time>
      </trkpt>
      <trkpt lat="41.93129633359" lon="2.83387710993">
        <ele>130.48</ele>
        <time>2022-01-27T16:46:12.931Z</time>
      </trkpt>
      <trkpt lat="41.93129633359" lon="2.83387710993">
        <ele>130.48</ele>
        <time>2022-01-27T16:46:13.350Z</time>
      </trkpt>
      <trkpt lat="41.93126248053" lon="2.83403509084">
        <ele>129.89</ele>
        <time>2022-01-27T16:46:13.771Z</time>
      </trkpt>
      <trkpt lat="41.93126248053" lon="2.83403509084">
        <ele>129.89</ele>
        <time>2022-01-27T16:46:14.192Z</time>
      </trkpt>
      <trkpt lat="41.93123609507" lon="2.83415822302">
        <ele>129.53</ele>
        <time>2022-01-27T16:46:14.615Z</time>
      </trkpt>
      <trkpt lat="41.93123609507" lon="2.83415822302">
        <ele>129.53</ele>
        <time>2022-01-27T16:46:15.038Z</time>
      </trkpt>
      <trkpt lat="41.93121" lon="2.83428">
        <ele>129.11</ele>
        <time>2022-01-27T16:46:15.462Z</time>
      </trkpt>
      <trkpt lat="41.93121" lon="2.83428">
        <ele>129.11</ele>
        <time>2022-01-27T16:46:15.886Z</time>
      </trkpt>
      <trkpt lat="41.93122810521" lon="2.83437505235">
        <ele>128.53</ele>
        <time>2022-01-27T16:46:16.312Z</time>
      </trkpt>
      <trkpt lat="41.93122810521" lon="2.83437505235">
        <ele>128.53</ele>
        <time>2022-01-27T16:46:16.738Z</time>
      </trkpt>
      <trkpt lat="41.93123412789" lon="2.83440667141">
        <ele>126.25</ele>
        <time>2022-01-27T16:46:17.164Z</time>
      </trkpt>
      <trkpt lat="41.93123412789" lon="2.83440667141">
        <ele>126.25</ele>
        <time>2022-01-27T16:46:17.590Z</time>
      </trkpt>
      <trkpt lat="41.93124483487" lon="2.83446288308">
        <ele>126.29</ele>
        <time>2022-01-27T16:46:18.017Z</time>
      </trkpt>
      <trkpt lat="41.93124483487" lon="2.83446288308">
        <ele>126.29</ele>
        <time>2022-01-27T16:46:18.444Z</time>
      </trkpt>
      <trkpt lat="41.93125" lon="2.83449">
        <ele>126.28527437819</ele>
        <time>2022-01-27T16:46:18.871Z</time>
      </trkpt>
      <trkpt lat="41.93125" lon="2.83449">
        <ele>126.28527437819</ele>
        <time>2022-01-27T16:46:19.298Z</time>
      </trkpt>
      <trkpt lat="41.93126650138" lon="2.83451200184">
        <ele>126.28</ele>
        <time>2022-01-27T16:46:19.725Z</time>
      </trkpt>
      <trkpt lat="41.93126650138" lon="2.83451200184">
        <ele>126.28</ele>
        <time>2022-01-27T16:46:20.152Z</time>
      </trkpt>
      <trkpt lat="41.93129778729" lon="2.83455371639">
        <ele>126.22</ele>
        <time>2022-01-27T16:46:20.580Z</time>
      </trkpt>
      <trkpt lat="41.93129778729" lon="2.83455371639">
        <ele>126.22</ele>
        <time>2022-01-27T16:46:21.008Z</time>
      </trkpt>
      <trkpt lat="41.93131" lon="2.83457">
        <ele>126.16144631603</ele>
        <time>2022-01-27T16:46:21.436Z</time>
      </trkpt>
      <trkpt lat="41.93131" lon="2.83457">
        <ele>126.16144631603</ele>
        <time>2022-01-27T16:46:21.864Z</time>
      </trkpt>
      <trkpt lat="41.93133658823" lon="2.83457516993">
        <ele>126.07</ele>
        <time>2022-01-27T16:46:22.293Z</time>
      </trkpt>
      <trkpt lat="41.93133658823" lon="2.83457516993">
        <ele>126.07</ele>
        <time>2022-01-27T16:46:22.722Z</time>
      </trkpt>
      <trkpt lat="41.93138020108" lon="2.83458365021">
        <ele>125.82</ele>
        <time>2022-01-27T16:46:23.151Z</time>
      </trkpt>
      <trkpt lat="41.93138020108" lon="2.83458365021">
        <ele>125.82</ele>
        <time>2022-01-27T16:46:23.580Z</time>
      </trkpt>
      <trkpt lat="41.93142470399" lon="2.83459230355">
        <ele>125.45</ele>
        <time>2022-01-27T16:46:24.010Z</time>
      </trkpt>
      <trkpt lat="41.93142470399" lon="2.83459230355">
        <ele>125.45</ele>
        <time>2022-01-27T16:46:24.440Z</time>
      </trkpt>
      <trkpt lat="41.93146831684" lon="2.83460078383">
        <ele>124.94</ele>
        <time>2022-01-27T16:46:24.871Z</time>
      </trkpt>
      <trkpt lat="41.93146831684" lon="2.83460078383">
        <ele>124.94</ele>
        <time>2022-01-27T16:46:25.302Z</time>
      </trkpt>
      <trkpt lat="41.93151192969" lon="2.83460926411">
        <ele>124.3</ele>
        <time>2022-01-27T16:46:25.734Z</time>
      </trkpt>
      <trkpt lat="41.93151192969" lon="2.83460926411">
        <ele>124.3</ele>
        <time>2022-01-27T16:46:26.166Z</time>
      </trkpt>
      <trkpt lat="41.93155554255" lon="2.83461774438">
        <ele>123.54</ele>
        <time>2022-01-27T16:46:26.598Z</time>
      </trkpt>
      <trkpt lat="41.93155554255" lon="2.83461774438">
        <ele>123.54</ele>
        <time>2022-01-27T16:46:27.030Z</time>
      </trkpt>
      <trkpt lat="41.9315991554" lon="2.83462622466">
        <ele>122.69</ele>
        <time>2022-01-27T16:46:27.463Z</time>
      </trkpt>
      <trkpt lat="41.9315991554" lon="2.83462622466">
        <ele>122.69</ele>
        <time>2022-01-27T16:46:27.896Z</time>
      </trkpt>
      <trkpt lat="41.93167" lon="2.83464">
        <ele>121.16306645302</ele>
        <time>2022-01-27T16:46:28.330Z</time>
      </trkpt>
      <trkpt lat="41.93167" lon="2.83464">
        <ele>121.16306645302</ele>
        <time>2022-01-27T16:46:28.764Z</time>
      </trkpt>
      <trkpt lat="41.93172748278" lon="2.83466586725">
        <ele>119.87</ele>
        <time>2022-01-27T16:46:29.199Z</time>
      </trkpt>
      <trkpt lat="41.93172748278" lon="2.83466586725">
        <ele>119.87</ele>
        <time>2022-01-27T16:46:29.634Z</time>
      </trkpt>
      <trkpt lat="41.93181105746" lon="2.83470347586">
        <ele>118.11</ele>
        <time>2022-01-27T16:46:30.070Z</time>
      </trkpt>
      <trkpt lat="41.93181105746" lon="2.83470347586">
        <ele>118.11</ele>
        <time>2022-01-27T16:46:30.506Z</time>
      </trkpt>
      <trkpt lat="41.93187" lon="2.83473">
        <ele>117.81170879999</ele>
        <time>2022-01-27T16:46:30.943Z</time>
      </trkpt>
      <trkpt lat="41.93187" lon="2.83473">
        <ele>117.81170879999</ele>
        <time>2022-01-27T16:46:31.380Z</time>
      </trkpt>
      <trkpt lat="41.93189314748" lon="2.83473330678">
        <ele>117.7</ele>
        <time>2022-01-27T16:46:31.818Z</time>
      </trkpt>
      <trkpt lat="41.93189314748" lon="2.83473330678">
        <ele>117.7</ele>
        <time>2022-01-27T16:46:32.256Z</time>
      </trkpt>
      <trkpt lat="41.93194" lon="2.83474">
        <ele>117.45987469034</ele>
        <time>2022-01-27T16:46:32.695Z</time>
      </trkpt>
      <trkpt lat="41.93194" lon="2.83474">
        <ele>117.45987469034</ele>
        <time>2022-01-27T16:46:33.134Z</time>
      </trkpt>
      <trkpt lat="41.93197" lon="2.83469">
        <ele>117.21633068424</ele>
        <time>2022-01-27T16:46:33.573Z</time>
      </trkpt>
      <trkpt lat="41.93197" lon="2.83469">
        <ele>117.21633068424</ele>
        <time>2022-01-27T16:46:34.012Z</time>
      </trkpt>
      <trkpt lat="41.93198" lon="2.83469">
        <ele>117.16536638593</ele>
        <time>2022-01-27T16:46:34.452Z</time>
      </trkpt>
      <trkpt lat="41.93198" lon="2.83469">
        <ele>117.16536638593</ele>
        <time>2022-01-27T16:46:34.892Z</time>
      </trkpt>
      <trkpt lat="41.93198" lon="2.8346569343">
        <ele>117.04</ele>
        <time>2022-01-27T16:46:35.332Z</time>
      </trkpt>
      <trkpt lat="41.93198" lon="2.8346569343">
        <ele>117.04</ele>
        <time>2022-01-27T16:46:35.772Z</time>
      </trkpt>
      <trkpt lat="41.93198" lon="2.83463">
        <ele>116.94618676431</ele>
        <time>2022-01-27T16:46:36.212Z</time>
      </trkpt>
      <trkpt lat="41.93198" lon="2.83463">
        <ele>116.94618676431</ele>
        <time>2022-01-27T16:46:36.652Z</time>
      </trkpt>
      <trkpt lat="41.93194645949" lon="2.83455453384">
        <ele>116.64</ele>
        <time>2022-01-27T16:46:37.093Z</time>
      </trkpt>
      <trkpt lat="41.93194645949" lon="2.83455453384">
        <ele>116.64</ele>
        <time>2022-01-27T16:46:37.534Z</time>
      </trkpt>
      <trkpt lat="41.93194" lon="2.83454">
        <ele>116.59039950619</ele>
        <time>2022-01-27T16:46:37.975Z</time>
      </trkpt>
      <trkpt lat="41.93194" lon="2.83454">
        <ele>116.59039950619</ele>
        <time>2022-01-27T16:46:38.416Z</time>
      </trkpt>
      <trkpt lat="41.93189118172" lon="2.83446571131">
        <ele>116.3</ele>
        <time>2022-01-27T16:46:38.859Z</time>
      </trkpt>
      <trkpt lat="41.93189118172" lon="2.83446571131">
        <ele>116.3</ele>
        <time>2022-01-27T16:46:39.302Z</time>
      </trkpt>
      <trkpt lat="41.93186260348" lon="2.83442222268">
        <ele>116.15</ele>
        <time>2022-01-27T16:46:39.745Z</time>
      </trkpt>
      <trkpt lat="41.93186260348" lon="2.83442222268">
        <ele>116.15</ele>
        <time>2022-01-27T16:46:40.188Z</time>
      </trkpt>
      <trkpt lat="41.93183462061" lon="2.83437964006">
        <ele>116.03</ele>
        <time>2022-01-27T16:46:40.632Z</time>
      </trkpt>
      <trkpt lat="41.93183462061" lon="2.83437964006">
        <ele>116.03</ele>
        <time>2022-01-27T16:46:41.076Z</time>
      </trkpt>
      <trkpt lat="41.93180604237" lon="2.83433615143">
        <ele>115.93</ele>
        <time>2022-01-27T16:46:41.521Z</time>
      </trkpt>
      <trkpt lat="41.93180604237" lon="2.83433615143">
        <ele>115.93</ele>
        <time>2022-01-27T16:46:41.966Z</time>
      </trkpt>
      <trkpt lat="41.93177746412" lon="2.8342926628">
        <ele>115.87</ele>
        <time>2022-01-27T16:46:42.411Z</time>
      </trkpt>
      <trkpt lat="41.93177746412" lon="2.8342926628">
        <ele>115.87</ele>
        <time>2022-01-27T16:46:42.856Z</time>
      </trkpt>
      <trkpt lat="41.93174888588" lon="2.83424917417">
        <ele>115.87</ele>
        <time>2022-01-27T16:46:43.302Z</time>
      </trkpt>
      <trkpt lat="41.93174888588" lon="2.83424917417">
        <ele>115.87</ele>
        <time>2022-01-27T16:46:43.748Z</time>
      </trkpt>
      <trkpt lat="41.93172090302" lon="2.83420659155">
        <ele>115.93</ele>
        <time>2022-01-27T16:46:44.195Z</time>
      </trkpt>
      <trkpt lat="41.93172090302" lon="2.83420659155">
        <ele>115.93</ele>
        <time>2022-01-27T16:46:44.642Z</time>
      </trkpt>
      <trkpt lat="41.93171" lon="2.83419">
        <ele>115.97959689884</ele>
        <time>2022-01-27T16:46:45.089Z</time>
      </trkpt>
      <trkpt lat="41.93171" lon="2.83419">
        <ele>115.97959689884</ele>
        <time>2022-01-27T16:46:45.536Z</time>
      </trkpt>
      <trkpt lat="41.93169735659" lon="2.83415839148">
        <ele>116.06</ele>
        <time>2022-01-27T16:46:45.983Z</time>
      </trkpt>
      <trkpt lat="41.93169735659" lon="2.83415839148">
        <ele>116.06</ele>
        <time>2022-01-27T16:46:46.430Z</time>
      </trkpt>
      <trkpt lat="41.93167" lon="2.83409">
        <ele>116.30256392504</ele>
        <time>2022-01-27T16:46:46.878Z</time>
      </trkpt>
      <trkpt lat="41.93167" lon="2.83409">
        <ele>116.30256392504</ele>
        <time>2022-01-27T16:46:47.326Z</time>
      </trkpt>
      <trkpt lat="41.9316602439" lon="2.83399569102">
        <ele>116.6</ele>
        <time>2022-01-27T16:46:47.776Z</time>
      </trkpt>
      <trkpt lat="41.9316602439" lon="2.83399569102">
        <ele>116.6</ele>
        <time>2022-01-27T16:46:48.226Z</time>
      </trkpt>
      <trkpt lat="41.9316479815" lon="2.83387715447">
        <ele>117.31</ele>
        <time>2022-01-27T16:46:48.677Z</time>
      </trkpt>
      <trkpt lat="41.9316479815" lon="2.83387715447">
        <ele>117.31</ele>
        <time>2022-01-27T16:46:49.128Z</time>
      </trkpt>
      <trkpt lat="41.93164178836" lon="2.83381728752">
        <ele>117.7</ele>
        <time>2022-01-27T16:46:49.580Z</time>
      </trkpt>
      <trkpt lat="41.93164178836" lon="2.83381728752">
        <ele>117.7</ele>
        <time>2022-01-27T16:46:50.032Z</time>
      </trkpt>
      <trkpt lat="41.93164" lon="2.8338">
        <ele>117.81983773938</ele>
        <time>2022-01-27T16:46:50.484Z</time>
      </trkpt>
      <trkpt lat="41.93164" lon="2.8338">
        <ele>117.81983773938</ele>
        <time>2022-01-27T16:46:50.936Z</time>
      </trkpt>
      <trkpt lat="41.931617401" lon="2.83370112939">
        <ele>118.53</ele>
        <time>2022-01-27T16:46:51.389Z</time>
      </trkpt>
      <trkpt lat="41.931617401" lon="2.83370112939">
        <ele>118.53</ele>
        <time>2022-01-27T16:46:51.842Z</time>
      </trkpt>
      <trkpt lat="41.93160445887" lon="2.83364450757">
        <ele>118.89</ele>
        <time>2022-01-27T16:46:52.296Z</time>
      </trkpt>
      <trkpt lat="41.93160445887" lon="2.83364450757">
        <ele>118.89</ele>
        <time>2022-01-27T16:46:52.750Z</time>
      </trkpt>
      <trkpt lat="41.93159125262" lon="2.8335867302">
        <ele>119.15</ele>
        <time>2022-01-27T16:46:53.205Z</time>
      </trkpt>
      <trkpt lat="41.93159125262" lon="2.8335867302">
        <ele>119.15</ele>
        <time>2022-01-27T16:46:53.660Z</time>
      </trkpt>
      <trkpt lat="41.93157804636" lon="2.83352895284">
        <ele>119.3</ele>
        <time>2022-01-27T16:46:54.115Z</time>
      </trkpt>
      <trkpt lat="41.93157804636" lon="2.83352895284">
        <ele>119.3</ele>
        <time>2022-01-27T16:46:54.570Z</time>
      </trkpt>
      <trkpt lat="41.93156484011" lon="2.83347117547">
        <ele>119.34</ele>
        <time>2022-01-27T16:46:55.026Z</time>
      </trkpt>
      <trkpt lat="41.93156484011" lon="2.83347117547">
        <ele>119.34</ele>
        <time>2022-01-27T16:46:55.482Z</time>
      </trkpt>
      <trkpt lat="41.93156" lon="2.83345">
        <ele>119.32878057741</ele>
        <time>2022-01-27T16:46:55.938Z</time>
      </trkpt>
      <trkpt lat="41.93156" lon="2.83345">
        <ele>119.32878057741</ele>
        <time>2022-01-27T16:46:56.394Z</time>
      </trkpt>
      <trkpt lat="41.93156" lon="2.83341291836">
        <ele>119.31</ele>
        <time>2022-01-27T16:46:56.851Z</time>
      </trkpt>
      <trkpt lat="41.93156" lon="2.83341291836">
        <ele>119.31</ele>
        <time>2022-01-27T16:46:57.308Z</time>
      </trkpt>
      <trkpt lat="41.93156" lon="2.83335247548">
        <ele>119.24</ele>
        <time>2022-01-27T16:46:57.765Z</time>
      </trkpt>
      <trkpt lat="41.93156" lon="2.83335247548">
        <ele>119.24</ele>
        <time>2022-01-27T16:46:58.222Z</time>
      </trkpt>
      <trkpt lat="41.93156" lon="2.83322">
        <ele>119.02082534115</ele>
        <time>2022-01-27T16:46:58.681Z</time>
      </trkpt>
      <trkpt lat="41.93156" lon="2.83322">
        <ele>119.02082534115</ele>
        <time>2022-01-27T16:46:59.140Z</time>
      </trkpt>
      <trkpt lat="41.93153972679" lon="2.83317945358">
        <ele>118.94</ele>
        <time>2022-01-27T16:46:59.600Z</time>
      </trkpt>
      <trkpt lat="41.93153972679" lon="2.83317945358">
        <ele>118.94</ele>
        <time>2022-01-27T16:47:00.060Z</time>
      </trkpt>
      <trkpt lat="41.93151514571" lon="2.83313029142">
        <ele>118.86</ele>
        <time>2022-01-27T16:47:00.520Z</time>
      </trkpt>
      <trkpt lat="41.93151514571" lon="2.83313029142">
        <ele>118.86</ele>
        <time>2022-01-27T16:47:00.980Z</time>
      </trkpt>
      <trkpt lat="41.93146498023" lon="2.83302996047">
        <ele>118.82</ele>
        <time>2022-01-27T16:47:01.442Z</time>
      </trkpt>
      <trkpt lat="41.93146498023" lon="2.83302996047">
        <ele>118.82</ele>
        <time>2022-01-27T16:47:01.904Z</time>
      </trkpt>
      <trkpt lat="41.9314398975" lon="2.832979795">
        <ele>118.86</ele>
        <time>2022-01-27T16:47:02.366Z</time>
      </trkpt>
      <trkpt lat="41.9314398975" lon="2.832979795">
        <ele>118.86</ele>
        <time>2022-01-27T16:47:02.828Z</time>
      </trkpt>
      <trkpt lat="41.93142" lon="2.83294">
        <ele>118.94</ele>
        <time>2022-01-27T16:47:03.291Z</time>
      </trkpt>
      <trkpt lat="41.93142" lon="2.83294">
        <ele>118.94</ele>
        <time>2022-01-27T16:47:03.754Z</time>
      </trkpt>
      <trkpt lat="41.93141751242" lon="2.83292922051">
        <ele>118.94</ele>
        <time>2022-01-27T16:47:04.217Z</time>
      </trkpt>
      <trkpt lat="41.93141751242" lon="2.83292922051">
        <ele>118.94</ele>
        <time>2022-01-27T16:47:04.680Z</time>
      </trkpt>
      <trkpt lat="41.93140419032" lon="2.83287149139">
        <ele>119.06</ele>
        <time>2022-01-27T16:47:05.144Z</time>
      </trkpt>
      <trkpt lat="41.93140419032" lon="2.83287149139">
        <ele>119.06</ele>
        <time>2022-01-27T16:47:05.608Z</time>
      </trkpt>
      <trkpt lat="41.93139" lon="2.83281">
        <ele>119.22</ele>
        <time>2022-01-27T16:47:06.073Z</time>
      </trkpt>
      <trkpt lat="41.93139" lon="2.83281">
        <ele>119.22</ele>
        <time>2022-01-27T16:47:06.538Z</time>
      </trkpt>
      <trkpt lat="41.93140718807" lon="2.8327584358">
        <ele>119.41</ele>
        <time>2022-01-27T16:47:07.003Z</time>
      </trkpt>
      <trkpt lat="41.93140718807" lon="2.8327584358">
        <ele>119.41</ele>
        <time>2022-01-27T16:47:07.468Z</time>
      </trkpt>
      <trkpt lat="41.93142" lon="2.83272">
        <ele>119.57026828594</ele>
        <time>2022-01-27T16:47:07.934Z</time>
      </trkpt>
      <trkpt lat="41.93142" lon="2.83272">
        <ele>119.57026828594</ele>
        <time>2022-01-27T16:47:08.400Z</time>
      </trkpt>
      <trkpt lat="41.93143123817" lon="2.8327096263">
        <ele>119.64</ele>
        <time>2022-01-27T16:47:08.866Z</time>
      </trkpt>
      <trkpt lat="41.93143123817" lon="2.8327096263">
        <ele>119.64</ele>
        <time>2022-01-27T16:47:09.332Z</time>
      </trkpt>
      <trkpt lat="41.93146756431" lon="2.83267609448">
        <ele>119.9</ele>
        <time>2022-01-27T16:47:09.799Z</time>
      </trkpt>
      <trkpt lat="41.93146756431" lon="2.83267609448">
        <ele>119.9</ele>
        <time>2022-01-27T16:47:10.266Z</time>
      </trkpt>
      <trkpt lat="41.9315046318" lon="2.83264187834">
        <ele>120.2</ele>
        <time>2022-01-27T16:47:10.733Z</time>
      </trkpt>
      <trkpt lat="41.9315046318" lon="2.83264187834">
        <ele>120.2</ele>
        <time>2022-01-27T16:47:11.200Z</time>
      </trkpt>
      <trkpt lat="41.93154169929" lon="2.8326076622">
        <ele>120.53</ele>
        <time>2022-01-27T16:47:11.668Z</time>
      </trkpt>
      <trkpt lat="41.93154169929" lon="2.8326076622">
        <ele>120.53</ele>
        <time>2022-01-27T16:47:12.136Z</time>
      </trkpt>
      <trkpt lat="41.93155" lon="2.8326">
        <ele>120.61509536664</ele>
        <time>2022-01-27T16:47:12.604Z</time>
      </trkpt>
      <trkpt lat="41.93155" lon="2.8326">
        <ele>120.61509536664</ele>
        <time>2022-01-27T16:47:13.072Z</time>
      </trkpt>
      <trkpt lat="41.9315712573" lon="2.83256279972">
        <ele>120.91</ele>
        <time>2022-01-27T16:47:13.541Z</time>
      </trkpt>
      <trkpt lat="41.9315712573" lon="2.83256279972">
        <ele>120.91</ele>
        <time>2022-01-27T16:47:14.010Z</time>
      </trkpt>
      <trkpt lat="41.93159" lon="2.83253">
        <ele>121.21023702921</ele>
        <time>2022-01-27T16:47:14.479Z</time>
      </trkpt>
      <trkpt lat="41.93159" lon="2.83253">
        <ele>121.21023702921</ele>
        <time>2022-01-27T16:47:14.948Z</time>
      </trkpt>
      <trkpt lat="41.93159" lon="2.83251212468">
        <ele>121.34</ele>
        <time>2022-01-27T16:47:15.418Z</time>
      </trkpt>
      <trkpt lat="41.93159" lon="2.83251212468">
        <ele>121.34</ele>
        <time>2022-01-27T16:47:15.888Z</time>
      </trkpt>
      <trkpt lat="41.93159" lon="2.83245">
        <ele>121.81</ele>
        <time>2022-01-27T16:47:16.358Z</time>
      </trkpt>
      <trkpt lat="41.93159" lon="2.83245">
        <ele>121.81</ele>
        <time>2022-01-27T16:47:16.828Z</time>
      </trkpt>
      <trkpt lat="41.93154" lon="2.83234">
        <ele>122.83</ele>
        <time>2022-01-27T16:47:17.300Z</time>
      </trkpt>
      <trkpt lat="41.93154" lon="2.83234">
        <ele>122.83</ele>
        <time>2022-01-27T16:47:17.772Z</time>
      </trkpt>
      <trkpt lat="41.9314267841" lon="2.83216640228">
        <ele>125.0</ele>
        <time>2022-01-27T16:47:18.247Z</time>
      </trkpt>
      <trkpt lat="41.9314267841" lon="2.83216640228">
        <ele>125.0</ele>
        <time>2022-01-27T16:47:18.722Z</time>
      </trkpt>
      <trkpt lat="41.93139" lon="2.83211">
        <ele>125.53</ele>
        <time>2022-01-27T16:47:19.198Z</time>
      </trkpt>
      <trkpt lat="41.93139" lon="2.83211">
        <ele>125.53</ele>
        <time>2022-01-27T16:47:19.674Z</time>
      </trkpt>
      <trkpt lat="41.93137640298" lon="2.83207056865">
        <ele>125.92</ele>
        <time>2022-01-27T16:47:20.150Z</time>
      </trkpt>
      <trkpt lat="41.93137640298" lon="2.83207056865">
        <ele>125.92</ele>
        <time>2022-01-27T16:47:20.626Z</time>
      </trkpt>
      <trkpt lat="41.93135749324" lon="2.8320157304">
        <ele>125.98</ele>
        <time>2022-01-27T16:47:21.103Z</time>
      </trkpt>
      <trkpt lat="41.93135749324" lon="2.8320157304">
        <ele>125.98</ele>
        <time>2022-01-27T16:47:21.580Z</time>
      </trkpt>
      <trkpt lat="41.93133896169" lon="2.83196198891">
        <ele>126.0</ele>
        <time>2022-01-27T16:47:22.058Z</time>
      </trkpt>
      <trkpt lat="41.93133896169" lon="2.83196198891">
        <ele>126.0</ele>
        <time>2022-01-27T16:47:22.536Z</time>
      </trkpt>
      <trkpt lat="41.93132043014" lon="2.83190824741">
        <ele>125.96</ele>
        <time>2022-01-27T16:47:23.014Z</time>
      </trkpt>
      <trkpt lat="41.93132043014" lon="2.83190824741">
        <ele>125.96</ele>
        <time>2022-01-27T16:47:23.492Z</time>
      </trkpt>
      <trkpt lat="41.93130189859" lon="2.83185450592">
        <ele>125.85</ele>
        <time>2022-01-27T16:47:23.971Z</time>
      </trkpt>
      <trkpt lat="41.93130189859" lon="2.83185450592">
        <ele>125.85</ele>
        <time>2022-01-27T16:47:24.450Z</time>
      </trkpt>
      <trkpt lat="41.93129" lon="2.83182">
        <ele>125.75368916087</ele>
        <time>2022-01-27T16:47:24.929Z</time>
      </trkpt>
      <trkpt lat="41.93129" lon="2.83182">
        <ele>125.75368916087</ele>
        <time>2022-01-27T16:47:25.408Z</time>
      </trkpt>
      <trkpt lat="41.93128" lon="2.83182">
        <ele>125.7</ele>
        <time>2022-01-27T16:47:25.888Z</time>
      </trkpt>
      <trkpt lat="41.93128" lon="2.83182">
        <ele>125.7</ele>
        <time>2022-01-27T16:47:26.368Z</time>
      </trkpt>
      <trkpt lat="41.9312856754" lon="2.83181858115">
        <ele>125.7</ele>
        <time>2022-01-27T16:47:26.848Z</time>
      </trkpt>
      <trkpt lat="41.9312856754" lon="2.83181858115">
        <ele>125.7</ele>
        <time>2022-01-27T16:47:27.328Z</time>
      </trkpt>
      <trkpt lat="41.93136" lon="2.8318">
        <ele>125.37404395267</ele>
        <time>2022-01-27T16:47:27.809Z</time>
      </trkpt>
      <trkpt lat="41.93136" lon="2.8318">
        <ele>125.37404395267</ele>
        <time>2022-01-27T16:47:28.290Z</time>
      </trkpt>
      <trkpt lat="41.93137253316" lon="2.83179975898">
        <ele>125.32</ele>
        <time>2022-01-27T16:47:28.771Z</time>
      </trkpt>
      <trkpt lat="41.93137253316" lon="2.83179975898">
        <ele>125.32</ele>
        <time>2022-01-27T16:47:29.252Z</time>
      </trkpt>
      <trkpt lat="41.93159374382" lon="2.83179550493">
        <ele>124.3</ele>
        <time>2022-01-27T16:47:29.737Z</time>
      </trkpt>
      <trkpt lat="41.93159374382" lon="2.83179550493">
        <ele>124.3</ele>
        <time>2022-01-27T16:47:30.222Z</time>
      </trkpt>
      <trkpt lat="41.9316818684" lon="2.83179381022">
        <ele>123.84</ele>
        <time>2022-01-27T16:47:30.708Z</time>
      </trkpt>
      <trkpt lat="41.9316818684" lon="2.83179381022">
        <ele>123.84</ele>
        <time>2022-01-27T16:47:31.194Z</time>
      </trkpt>
      <trkpt lat="41.93172593068" lon="2.83179296287">
        <ele>123.57</ele>
        <time>2022-01-27T16:47:31.681Z</time>
      </trkpt>
      <trkpt lat="41.93172593068" lon="2.83179296287">
        <ele>123.57</ele>
        <time>2022-01-27T16:47:32.168Z</time>
      </trkpt>
      <trkpt lat="41.93177179143" lon="2.83179208093">
        <ele>123.27</ele>
        <time>2022-01-27T16:47:32.655Z</time>
      </trkpt>
      <trkpt lat="41.93177179143" lon="2.83179208093">
        <ele>123.27</ele>
        <time>2022-01-27T16:47:33.142Z</time>
      </trkpt>
      <trkpt lat="41.93181495449" lon="2.83179125088">
        <ele>122.95</ele>
        <time>2022-01-27T16:47:33.630Z</time>
      </trkpt>
      <trkpt lat="41.93181495449" lon="2.83179125088">
        <ele>122.95</ele>
        <time>2022-01-27T16:47:34.118Z</time>
      </trkpt>
      <trkpt lat="41.93185901677" lon="2.83179040352">
        <ele>122.59</ele>
        <time>2022-01-27T16:47:34.607Z</time>
      </trkpt>
      <trkpt lat="41.93185901677" lon="2.83179040352">
        <ele>122.59</ele>
        <time>2022-01-27T16:47:35.096Z</time>
      </trkpt>
      <trkpt lat="41.93188" lon="2.83179">
        <ele>122.39475088627</ele>
        <time>2022-01-27T16:47:35.585Z</time>
      </trkpt>
      <trkpt lat="41.93188" lon="2.83179">
        <ele>122.39475088627</ele>
        <time>2022-01-27T16:47:36.074Z</time>
      </trkpt>
      <trkpt lat="41.93190124172" lon="2.83180213812">
        <ele>122.18</ele>
        <time>2022-01-27T16:47:36.564Z</time>
      </trkpt>
      <trkpt lat="41.93190124172" lon="2.83180213812">
        <ele>122.18</ele>
        <time>2022-01-27T16:47:37.054Z</time>
      </trkpt>
      <trkpt lat="41.93195" lon="2.83183">
        <ele>121.74</ele>
        <time>2022-01-27T16:47:37.544Z</time>
      </trkpt>
      <trkpt lat="41.93195" lon="2.83183">
        <ele>121.74</ele>
        <time>2022-01-27T16:47:38.034Z</time>
      </trkpt>
      <trkpt lat="41.93196960864" lon="2.83186921728">
        <ele>121.26</ele>
        <time>2022-01-27T16:47:38.525Z</time>
      </trkpt>
      <trkpt lat="41.93196960864" lon="2.83186921728">
        <ele>121.26</ele>
        <time>2022-01-27T16:47:39.016Z</time>
      </trkpt>
      <trkpt lat="41.93199418986" lon="2.83191837971">
        <ele>120.75</ele>
        <time>2022-01-27T16:47:39.508Z</time>
      </trkpt>
      <trkpt lat="41.93199418986" lon="2.83191837971">
        <ele>120.75</ele>
        <time>2022-01-27T16:47:40.000Z</time>
      </trkpt>
      <trkpt lat="41.93204" lon="2.83201">
        <ele>119.74427265749</ele>
        <time>2022-01-27T16:47:40.493Z</time>
      </trkpt>
      <trkpt lat="41.93204" lon="2.83201">
        <ele>119.74427265749</ele>
        <time>2022-01-27T16:47:40.986Z</time>
      </trkpt>
      <trkpt lat="41.93207802723" lon="2.83205563268">
        <ele>119.12</ele>
        <time>2022-01-27T16:47:41.480Z</time>
      </trkpt>
      <trkpt lat="41.93207802723" lon="2.83205563268">
        <ele>119.12</ele>
        <time>2022-01-27T16:47:41.974Z</time>
      </trkpt>
      <trkpt lat="41.93209" lon="2.83207">
        <ele>118.93243169899</ele>
        <time>2022-01-27T16:47:42.468Z</time>
      </trkpt>
      <trkpt lat="41.93209" lon="2.83207">
        <ele>118.93243169899</ele>
        <time>2022-01-27T16:47:42.962Z</time>
      </trkpt>
      <trkpt lat="41.93214" lon="2.83207">
        <ele>118.3480915066</ele>
        <time>2022-01-27T16:47:43.457Z</time>
      </trkpt>
      <trkpt lat="41.93214" lon="2.83207">
        <ele>118.3480915066</ele>
        <time>2022-01-27T16:47:43.952Z</time>
      </trkpt>
      <trkpt lat="41.93215950166" lon="2.83205607024">
        <ele>118.09</ele>
        <time>2022-01-27T16:47:44.447Z</time>
      </trkpt>
      <trkpt lat="41.93215950166" lon="2.83205607024">
        <ele>118.09</ele>
        <time>2022-01-27T16:47:44.942Z</time>
      </trkpt>
      <trkpt lat="41.93219841559" lon="2.83202827458">
        <ele>117.61</ele>
        <time>2022-01-27T16:47:45.438Z</time>
      </trkpt>
      <trkpt lat="41.93219841559" lon="2.83202827458">
        <ele>117.61</ele>
        <time>2022-01-27T16:47:45.934Z</time>
      </trkpt>
      <trkpt lat="41.93221" lon="2.83202">
        <ele>117.47901498763</ele>
        <time>2022-01-27T16:47:46.430Z</time>
      </trkpt>
      <trkpt lat="41.93221" lon="2.83202">
        <ele>117.47901498763</ele>
        <time>2022-01-27T16:47:46.926Z</time>
      </trkpt>
      <trkpt lat="41.93222644586" lon="2.83198475887">
        <ele>117.17</ele>
        <time>2022-01-27T16:47:47.423Z</time>
      </trkpt>
      <trkpt lat="41.93222644586" lon="2.83198475887">
        <ele>117.17</ele>
        <time>2022-01-27T16:47:47.920Z</time>
      </trkpt>
      <trkpt lat="41.93227327969" lon="2.83188440066">
        <ele>116.35</ele>
        <time>2022-01-27T16:47:48.418Z</time>
      </trkpt>
      <trkpt lat="41.93227327969" lon="2.83188440066">
        <ele>116.35</ele>
        <time>2022-01-27T16:47:48.916Z</time>
      </trkpt>
      <trkpt lat="41.93231915773" lon="2.83178609058">
        <ele>116.06</ele>
        <time>2022-01-27T16:47:49.415Z</time>
      </trkpt>
      <trkpt lat="41.93231915773" lon="2.83178609058">
        <ele>116.06</ele>
        <time>2022-01-27T16:47:49.914Z</time>
      </trkpt>
      <trkpt lat="41.93234257465" lon="2.83173591147">
        <ele>115.93</ele>
        <time>2022-01-27T16:47:50.414Z</time>
      </trkpt>
      <trkpt lat="41.93234257465" lon="2.83173591147">
        <ele>115.93</ele>
        <time>2022-01-27T16:47:50.914Z</time>
      </trkpt>
      <trkpt lat="41.93235" lon="2.83172">
        <ele>115.89763002565</ele>
        <time>2022-01-27T16:47:51.414Z</time>
      </trkpt>
      <trkpt lat="41.93235" lon="2.83172">
        <ele>115.89763002565</ele>
        <time>2022-01-27T16:47:51.914Z</time>
      </trkpt>
      <trkpt lat="41.93237812041" lon="2.83170945485">
        <ele>115.83</ele>
        <time>2022-01-27T16:47:52.415Z</time>
      </trkpt>
      <trkpt lat="41.93237812041" lon="2.83170945485">
        <ele>115.83</ele>
        <time>2022-01-27T16:47:52.916Z</time>
      </trkpt>
      <trkpt lat="41.93241970017" lon="2.83169386243">
        <ele>115.76</ele>
        <time>2022-01-27T16:47:53.417Z</time>
      </trkpt>
      <trkpt lat="41.93241970017" lon="2.83169386243">
        <ele>115.76</ele>
        <time>2022-01-27T16:47:53.918Z</time>
      </trkpt>
      <trkpt lat="41.93243" lon="2.83169">
        <ele>115.75256862648</ele>
        <time>2022-01-27T16:47:54.420Z</time>
      </trkpt>
      <trkpt lat="41.93243" lon="2.83169">
        <ele>115.75256862648</ele>
        <time>2022-01-27T16:47:54.922Z</time>
      </trkpt>
      <trkpt lat="41.93245909286" lon="2.83170939524">
        <ele>115.73</ele>
        <time>2022-01-27T16:47:55.424Z</time>
      </trkpt>
      <trkpt lat="41.93245909286" lon="2.83170939524">
        <ele>115.73</ele>
        <time>2022-01-27T16:47:55.926Z</time>
      </trkpt>
      <trkpt lat="41.93249" lon="2.83173">
        <ele>115.73</ele>
        <time>2022-01-27T16:47:56.429Z</time>
      </trkpt>
      <trkpt lat="41.93249" lon="2.83173">
        <ele>115.73</ele>
        <time>2022-01-27T16:47:56.932Z</time>
      </trkpt>
      <trkpt lat="41.93249460613" lon="2.83173987028">
        <ele>115.73</ele>
        <time>2022-01-27T16:47:57.435Z</time>
      </trkpt>
      <trkpt lat="41.93249460613" lon="2.83173987028">
        <ele>115.73</ele>
        <time>2022-01-27T16:47:57.938Z</time>
      </trkpt>
      <trkpt lat="41.93251754522" lon="2.83178902548">
        <ele>115.76</ele>
        <time>2022-01-27T16:47:58.442Z</time>
      </trkpt>
      <trkpt lat="41.93251754522" lon="2.83178902548">
        <ele>115.76</ele>
        <time>2022-01-27T16:47:58.946Z</time>
      </trkpt>
      <trkpt lat="41.93256342341" lon="2.83188733587">
        <ele>115.88</ele>
        <time>2022-01-27T16:47:59.451Z</time>
      </trkpt>
      <trkpt lat="41.93256342341" lon="2.83188733587">
        <ele>115.88</ele>
        <time>2022-01-27T16:47:59.956Z</time>
      </trkpt>
      <trkpt lat="41.93260930159" lon="2.83198564626">
        <ele>115.95</ele>
        <time>2022-01-27T16:48:00.462Z</time>
      </trkpt>
      <trkpt lat="41.93260930159" lon="2.83198564626">
        <ele>115.95</ele>
        <time>2022-01-27T16:48:00.968Z</time>
      </trkpt>
      <trkpt lat="41.93263" lon="2.83203">
        <ele>115.71</ele>
        <time>2022-01-27T16:48:01.475Z</time>
      </trkpt>
      <trkpt lat="41.93263" lon="2.83203">
        <ele>115.71</ele>
        <time>2022-01-27T16:48:01.982Z</time>
      </trkpt>
      <trkpt lat="41.93263331239" lon="2.83203350724">
        <ele>115.71</ele>
        <time>2022-01-27T16:48:02.489Z</time>
      </trkpt>
      <trkpt lat="41.93263331239" lon="2.83203350724">
        <ele>115.71</ele>
        <time>2022-01-27T16:48:02.996Z</time>
      </trkpt>
      <trkpt lat="41.93266722318" lon="2.83206941278">
        <ele>115.4</ele>
        <time>2022-01-27T16:48:03.504Z</time>
      </trkpt>
      <trkpt lat="41.93266722318" lon="2.83206941278">
        <ele>115.4</ele>
        <time>2022-01-27T16:48:04.012Z</time>
      </trkpt>
      <trkpt lat="41.93270184044" lon="2.83210606634">
        <ele>114.96</ele>
        <time>2022-01-27T16:48:04.520Z</time>
      </trkpt>
      <trkpt lat="41.93270184044" lon="2.83210606634">
        <ele>114.96</ele>
        <time>2022-01-27T16:48:05.028Z</time>
      </trkpt>
      <trkpt lat="41.93273575122" lon="2.83214197188">
        <ele>114.39</ele>
        <time>2022-01-27T16:48:05.537Z</time>
      </trkpt>
      <trkpt lat="41.93273575122" lon="2.83214197188">
        <ele>114.39</ele>
        <time>2022-01-27T16:48:06.046Z</time>
      </trkpt>
      <trkpt lat="41.93277036848" lon="2.83217862545">
        <ele>113.71</ele>
        <time>2022-01-27T16:48:06.556Z</time>
      </trkpt>
      <trkpt lat="41.93277036848" lon="2.83217862545">
        <ele>113.71</ele>
        <time>2022-01-27T16:48:07.066Z</time>
      </trkpt>
      <trkpt lat="41.9328" lon="2.83221">
        <ele>113.09166809449</ele>
        <time>2022-01-27T16:48:07.576Z</time>
      </trkpt>
      <trkpt lat="41.9328" lon="2.83221">
        <ele>113.09166809449</ele>
        <time>2022-01-27T16:48:08.086Z</time>
      </trkpt>
      <trkpt lat="41.9328347598" lon="2.83225739972">
        <ele>112.28</ele>
        <time>2022-01-27T16:48:08.597Z</time>
      </trkpt>
      <trkpt lat="41.9328347598" lon="2.83225739972">
        <ele>112.28</ele>
        <time>2022-01-27T16:48:09.108Z</time>
      </trkpt>
      <trkpt lat="41.9328650641" lon="2.83229872377">
        <ele>111.67</ele>
        <time>2022-01-27T16:48:09.620Z</time>
      </trkpt>
      <trkpt lat="41.9328650641" lon="2.83229872377">
        <ele>111.67</ele>
        <time>2022-01-27T16:48:10.132Z</time>
      </trkpt>
      <trkpt lat="41.93289599974" lon="2.83234090874">
        <ele>111.14</ele>
        <time>2022-01-27T16:48:10.645Z</time>
      </trkpt>
      <trkpt lat="41.93289599974" lon="2.83234090874">
        <ele>111.14</ele>
        <time>2022-01-27T16:48:11.158Z</time>
      </trkpt>
      <trkpt lat="41.93291" lon="2.83236">
        <ele>110.92748500284</ele>
        <time>2022-01-27T16:48:11.671Z</time>
      </trkpt>
      <trkpt lat="41.93291" lon="2.83236">
        <ele>110.92748500284</ele>
        <time>2022-01-27T16:48:12.184Z</time>
      </trkpt>
      <trkpt lat="41.93293225993" lon="2.83236890397">
        <ele>110.68</ele>
        <time>2022-01-27T16:48:12.697Z</time>
      </trkpt>
      <trkpt lat="41.93293225993" lon="2.83236890397">
        <ele>110.68</ele>
        <time>2022-01-27T16:48:13.210Z</time>
      </trkpt>
      <trkpt lat="41.93296" lon="2.83238">
        <ele>110.39146969248</ele>
        <time>2022-01-27T16:48:13.724Z</time>
      </trkpt>
      <trkpt lat="41.93296" lon="2.83238">
        <ele>110.39146969248</ele>
        <time>2022-01-27T16:48:14.238Z</time>
      </trkpt>
      <trkpt lat="41.93302" lon="2.83235">
        <ele>109.75327903836</ele>
        <time>2022-01-27T16:48:14.753Z</time>
      </trkpt>
      <trkpt lat="41.93302" lon="2.83235">
        <ele>109.75327903836</ele>
        <time>2022-01-27T16:48:15.268Z</time>
      </trkpt>
      <trkpt lat="41.93303563548" lon="2.83230426622">
        <ele>109.38</ele>
        <time>2022-01-27T16:48:15.783Z</time>
      </trkpt>
      <trkpt lat="41.93303563548" lon="2.83230426622">
        <ele>109.38</ele>
        <time>2022-01-27T16:48:16.298Z</time>
      </trkpt>
      <trkpt lat="41.93303601102" lon="2.83230316777">
        <ele>109.37</ele>
        <time>2022-01-27T16:48:16.813Z</time>
      </trkpt>
      <trkpt lat="41.93303601102" lon="2.83230316777">
        <ele>109.37</ele>
        <time>2022-01-27T16:48:17.328Z</time>
      </trkpt>
      <trkpt lat="41.93305291019" lon="2.83225373769">
        <ele>109.56</ele>
        <time>2022-01-27T16:48:17.844Z</time>
      </trkpt>
      <trkpt lat="41.93305291019" lon="2.83225373769">
        <ele>109.56</ele>
        <time>2022-01-27T16:48:18.360Z</time>
      </trkpt>
      <trkpt lat="41.9330701849" lon="2.83220320916">
        <ele>109.78</ele>
        <time>2022-01-27T16:48:18.877Z</time>
      </trkpt>
      <trkpt lat="41.9330701849" lon="2.83220320916">
        <ele>109.78</ele>
        <time>2022-01-27T16:48:19.394Z</time>
      </trkpt>
      <trkpt lat="41.93308745961" lon="2.83215268063">
        <ele>110.05</ele>
        <time>2022-01-27T16:48:19.911Z</time>
      </trkpt>
      <trkpt lat="41.93308745961" lon="2.83215268063">
        <ele>110.05</ele>
        <time>2022-01-27T16:48:20.428Z</time>
      </trkpt>
      <trkpt lat="41.93310510986" lon="2.83210105365">
        <ele>110.39</ele>
        <time>2022-01-27T16:48:20.946Z</time>
      </trkpt>
      <trkpt lat="41.93310510986" lon="2.83210105365">
        <ele>110.39</ele>
        <time>2022-01-27T16:48:21.464Z</time>
      </trkpt>
      <trkpt lat="41.93312200904" lon="2.83205162357">
        <ele>110.8</ele>
        <time>2022-01-27T16:48:21.983Z</time>
      </trkpt>
      <trkpt lat="41.93312200904" lon="2.83205162357">
        <ele>110.8</ele>
        <time>2022-01-27T16:48:22.502Z</time>
      </trkpt>
      <trkpt lat="41.93317383317" lon="2.83190003798">
        <ele>112.2</ele>
        <time>2022-01-27T16:48:23.023Z</time>
      </trkpt>
      <trkpt lat="41.93317383317" lon="2.83190003798">
        <ele>112.2</ele>
        <time>2022-01-27T16:48:23.544Z</time>
      </trkpt>
      <trkpt lat="41.93322941268" lon="2.83173746792">
        <ele>112.58</ele>
        <time>2022-01-27T16:48:24.067Z</time>
      </trkpt>
      <trkpt lat="41.93322941268" lon="2.83173746792">
        <ele>112.58</ele>
        <time>2022-01-27T16:48:24.590Z</time>
      </trkpt>
      <trkpt lat="41.933247814" lon="2.83168364405">
        <ele>112.72</ele>
        <time>2022-01-27T16:48:25.114Z</time>
      </trkpt>
      <trkpt lat="41.933247814" lon="2.83168364405">
        <ele>112.72</ele>
        <time>2022-01-27T16:48:25.638Z</time>
      </trkpt>
      <trkpt lat="41.93326659086" lon="2.83162872174">
        <ele>112.89</ele>
        <time>2022-01-27T16:48:26.162Z</time>
      </trkpt>
      <trkpt lat="41.93326659086" lon="2.83162872174">
        <ele>112.89</ele>
        <time>2022-01-27T16:48:26.686Z</time>
      </trkpt>
      <trkpt lat="41.93337774987" lon="2.83130358163">
        <ele>114.11</ele>
        <time>2022-01-27T16:48:27.215Z</time>
      </trkpt>
      <trkpt lat="41.93337774987" lon="2.83130358163">
        <ele>114.11</ele>
        <time>2022-01-27T16:48:27.744Z</time>
      </trkpt>
      <trkpt lat="41.93339615119" lon="2.83124975776">
        <ele>114.33</ele>
        <time>2022-01-27T16:48:28.273Z</time>
      </trkpt>
      <trkpt lat="41.93339615119" lon="2.83124975776">
        <ele>114.33</ele>
        <time>2022-01-27T16:48:28.802Z</time>
      </trkpt>
      <trkpt lat="41.93341492805" lon="2.83119483545">
        <ele>114.58</ele>
        <time>2022-01-27T16:48:29.332Z</time>
      </trkpt>
      <trkpt lat="41.93341492805" lon="2.83119483545">
        <ele>114.58</ele>
        <time>2022-01-27T16:48:29.862Z</time>
      </trkpt>
      <trkpt lat="41.93342" lon="2.83118">
        <ele>114.65717625841</ele>
        <time>2022-01-27T16:48:30.392Z</time>
      </trkpt>
      <trkpt lat="41.93342" lon="2.83118">
        <ele>114.65717625841</ele>
        <time>2022-01-27T16:48:30.922Z</time>
      </trkpt>
      <trkpt lat="41.93342848511" lon="2.83113863506">
        <ele>114.86</ele>
        <time>2022-01-27T16:48:31.453Z</time>
      </trkpt>
      <trkpt lat="41.93342848511" lon="2.83113863506">
        <ele>114.86</ele>
        <time>2022-01-27T16:48:31.984Z</time>
      </trkpt>
      <trkpt lat="41.93344019889" lon="2.8310815304">
        <ele>115.18</ele>
        <time>2022-01-27T16:48:32.515Z</time>
      </trkpt>
      <trkpt lat="41.93344019889" lon="2.8310815304">
        <ele>115.18</ele>
        <time>2022-01-27T16:48:33.046Z</time>
      </trkpt>
      <trkpt lat="41.93345215173" lon="2.83102326033">
        <ele>115.57</ele>
        <time>2022-01-27T16:48:33.578Z</time>
      </trkpt>
      <trkpt lat="41.93345215173" lon="2.83102326033">
        <ele>115.57</ele>
        <time>2022-01-27T16:48:34.110Z</time>
      </trkpt>
      <trkpt lat="41.9334638655" lon="2.83096615567">
        <ele>116.03</ele>
        <time>2022-01-27T16:48:34.643Z</time>
      </trkpt>
      <trkpt lat="41.9334638655" lon="2.83096615567">
        <ele>116.03</ele>
        <time>2022-01-27T16:48:35.176Z</time>
      </trkpt>
      <trkpt lat="41.93347557928" lon="2.830909051">
        <ele>116.55</ele>
        <time>2022-01-27T16:48:35.710Z</time>
      </trkpt>
      <trkpt lat="41.93347557928" lon="2.830909051">
        <ele>116.55</ele>
        <time>2022-01-27T16:48:36.244Z</time>
      </trkpt>
      <trkpt lat="41.9335" lon="2.83079">
        <ele>117.75212127125</ele>
        <time>2022-01-27T16:48:36.779Z</time>
      </trkpt>
      <trkpt lat="41.9335" lon="2.83079">
        <ele>117.75212127125</ele>
        <time>2022-01-27T16:48:37.314Z</time>
      </trkpt>
      <trkpt lat="41.93351540561" lon="2.83067599846">
        <ele>118.88</ele>
        <time>2022-01-27T16:48:37.850Z</time>
      </trkpt>
      <trkpt lat="41.93351540561" lon="2.83067599846">
        <ele>118.88</ele>
        <time>2022-01-27T16:48:38.386Z</time>
      </trkpt>
      <trkpt lat="41.93352328157" lon="2.83061771637">
        <ele>119.41</ele>
        <time>2022-01-27T16:48:38.923Z</time>
      </trkpt>
      <trkpt lat="41.93352328157" lon="2.83061771637">
        <ele>119.41</ele>
        <time>2022-01-27T16:48:39.460Z</time>
      </trkpt>
      <trkpt lat="41.93353115753" lon="2.83055943428">
        <ele>119.88</ele>
        <time>2022-01-27T16:48:39.998Z</time>
      </trkpt>
      <trkpt lat="41.93353115753" lon="2.83055943428">
        <ele>119.88</ele>
        <time>2022-01-27T16:48:40.536Z</time>
      </trkpt>
      <trkpt lat="41.93353919422" lon="2.83049996276">
        <ele>120.27</ele>
        <time>2022-01-27T16:48:41.075Z</time>
      </trkpt>
      <trkpt lat="41.93353919422" lon="2.83049996276">
        <ele>120.27</ele>
        <time>2022-01-27T16:48:41.614Z</time>
      </trkpt>
      <trkpt lat="41.93354707018" lon="2.83044168067">
        <ele>120.58</ele>
        <time>2022-01-27T16:48:42.153Z</time>
      </trkpt>
      <trkpt lat="41.93354707018" lon="2.83044168067">
        <ele>120.58</ele>
        <time>2022-01-27T16:48:42.692Z</time>
      </trkpt>
      <trkpt lat="41.93355494614" lon="2.83038339858">
        <ele>120.83</ele>
        <time>2022-01-27T16:48:43.232Z</time>
      </trkpt>
      <trkpt lat="41.93355494614" lon="2.83038339858">
        <ele>120.83</ele>
        <time>2022-01-27T16:48:43.772Z</time>
      </trkpt>
      <trkpt lat="41.93356298283" lon="2.83032392706">
        <ele>121.01</ele>
        <time>2022-01-27T16:48:44.313Z</time>
      </trkpt>
      <trkpt lat="41.93356298283" lon="2.83032392706">
        <ele>121.01</ele>
        <time>2022-01-27T16:48:44.854Z</time>
      </trkpt>
      <trkpt lat="41.93357085879" lon="2.83026564497">
        <ele>121.14</ele>
        <time>2022-01-27T16:48:45.395Z</time>
      </trkpt>
      <trkpt lat="41.93357085879" lon="2.83026564497">
        <ele>121.14</ele>
        <time>2022-01-27T16:48:45.936Z</time>
      </trkpt>
      <trkpt lat="41.9335946474" lon="2.83008960927">
        <ele>121.48</ele>
        <time>2022-01-27T16:48:46.479Z</time>
      </trkpt>
      <trkpt lat="41.9335946474" lon="2.83008960927">
        <ele>121.48</ele>
        <time>2022-01-27T16:48:47.022Z</time>
      </trkpt>
      <trkpt lat="41.9336" lon="2.83005">
        <ele>121.57514583375</ele>
        <time>2022-01-27T16:48:47.566Z</time>
      </trkpt>
      <trkpt lat="41.9336" lon="2.83005">
        <ele>121.57514583375</ele>
        <time>2022-01-27T16:48:48.110Z</time>
      </trkpt>
      <trkpt lat="41.93360321394" lon="2.83003151984">
        <ele>121.62</ele>
        <time>2022-01-27T16:48:48.654Z</time>
      </trkpt>
      <trkpt lat="41.93360321394" lon="2.83003151984">
        <ele>121.62</ele>
        <time>2022-01-27T16:48:49.198Z</time>
      </trkpt>
      <trkpt lat="41.9336134501" lon="2.82997266193">
        <ele>121.79</ele>
        <time>2022-01-27T16:48:49.743Z</time>
      </trkpt>
      <trkpt lat="41.9336134501" lon="2.82997266193">
        <ele>121.79</ele>
        <time>2022-01-27T16:48:50.288Z</time>
      </trkpt>
      <trkpt lat="41.93362348153" lon="2.82991498118">
        <ele>121.99</ele>
        <time>2022-01-27T16:48:50.834Z</time>
      </trkpt>
      <trkpt lat="41.93362348153" lon="2.82991498118">
        <ele>121.99</ele>
        <time>2022-01-27T16:48:51.380Z</time>
      </trkpt>
      <trkpt lat="41.93363351297" lon="2.82985730043">
        <ele>122.21</ele>
        <time>2022-01-27T16:48:51.926Z</time>
      </trkpt>
      <trkpt lat="41.93363351297" lon="2.82985730043">
        <ele>122.21</ele>
        <time>2022-01-27T16:48:52.472Z</time>
      </trkpt>
      <trkpt lat="41.93364374913" lon="2.82979844252">
        <ele>122.46</ele>
        <time>2022-01-27T16:48:53.019Z</time>
      </trkpt>
      <trkpt lat="41.93364374913" lon="2.82979844252">
        <ele>122.46</ele>
        <time>2022-01-27T16:48:53.566Z</time>
      </trkpt>
      <trkpt lat="41.93365378056" lon="2.82974076177">
        <ele>122.74</ele>
        <time>2022-01-27T16:48:54.114Z</time>
      </trkpt>
      <trkpt lat="41.93365378056" lon="2.82974076177">
        <ele>122.74</ele>
        <time>2022-01-27T16:48:54.662Z</time>
      </trkpt>
      <trkpt lat="41.9336939063" lon="2.82951003876">
        <ele>123.93</ele>
        <time>2022-01-27T16:48:55.213Z</time>
      </trkpt>
      <trkpt lat="41.9336939063" lon="2.82951003876">
        <ele>123.93</ele>
        <time>2022-01-27T16:48:55.764Z</time>
      </trkpt>
      <trkpt lat="41.93373198481" lon="2.82929108734">
        <ele>124.09</ele>
        <time>2022-01-27T16:48:56.317Z</time>
      </trkpt>
      <trkpt lat="41.93373198481" lon="2.82929108734">
        <ele>124.09</ele>
        <time>2022-01-27T16:48:56.870Z</time>
      </trkpt>
      <trkpt lat="41.93375102406" lon="2.82918161163">
        <ele>124.13</ele>
        <time>2022-01-27T16:48:57.425Z</time>
      </trkpt>
      <trkpt lat="41.93375102406" lon="2.82918161163">
        <ele>124.13</ele>
        <time>2022-01-27T16:48:57.980Z</time>
      </trkpt>
      <trkpt lat="41.93376" lon="2.82913">
        <ele>124.12686826715</ele>
        <time>2022-01-27T16:48:58.535Z</time>
      </trkpt>
      <trkpt lat="41.93376" lon="2.82913">
        <ele>124.12686826715</ele>
        <time>2022-01-27T16:48:59.090Z</time>
      </trkpt>
      <trkpt lat="41.93378327721" lon="2.82901804769">
        <ele>124.12</ele>
        <time>2022-01-27T16:48:59.647Z</time>
      </trkpt>
      <trkpt lat="41.93378327721" lon="2.82901804769">
        <ele>124.12</ele>
        <time>2022-01-27T16:49:00.204Z</time>
      </trkpt>
      <trkpt lat="41.93381692609" lon="2.82885621261">
        <ele>124.05</ele>
        <time>2022-01-27T16:49:00.763Z</time>
      </trkpt>
      <trkpt lat="41.93381692609" lon="2.82885621261">
        <ele>124.05</ele>
        <time>2022-01-27T16:49:01.322Z</time>
      </trkpt>
      <trkpt lat="41.93384089184" lon="2.82874094878">
        <ele>123.72</ele>
        <time>2022-01-27T16:49:01.882Z</time>
      </trkpt>
      <trkpt lat="41.93384089184" lon="2.82874094878">
        <ele>123.72</ele>
        <time>2022-01-27T16:49:02.442Z</time>
      </trkpt>
      <trkpt lat="41.93388858125" lon="2.82851158539">
        <ele>123.0</ele>
        <time>2022-01-27T16:49:03.005Z</time>
      </trkpt>
      <trkpt lat="41.93388858125" lon="2.82851158539">
        <ele>123.0</ele>
        <time>2022-01-27T16:49:03.568Z</time>
      </trkpt>
      <trkpt lat="41.933912547" lon="2.82839632156">
        <ele>122.66</ele>
        <time>2022-01-27T16:49:04.132Z</time>
      </trkpt>
      <trkpt lat="41.933912547" lon="2.82839632156">
        <ele>122.66</ele>
        <time>2022-01-27T16:49:04.696Z</time>
      </trkpt>
      <trkpt lat="41.93397" lon="2.82812">
        <ele>121.88484196935</ele>
        <time>2022-01-27T16:49:05.264Z</time>
      </trkpt>
      <trkpt lat="41.93397" lon="2.82812">
        <ele>121.88484196935</ele>
        <time>2022-01-27T16:49:05.832Z</time>
      </trkpt>
      <trkpt lat="41.93396359736" lon="2.82811039604">
        <ele>121.85</ele>
        <time>2022-01-27T16:49:06.400Z</time>
      </trkpt>
      <trkpt lat="41.93396359736" lon="2.82811039604">
        <ele>121.85</ele>
        <time>2022-01-27T16:49:06.968Z</time>
      </trkpt>
      <trkpt lat="41.9338453596" lon="2.82793303941">
        <ele>121.23</ele>
        <time>2022-01-27T16:49:07.539Z</time>
      </trkpt>
      <trkpt lat="41.9338453596" lon="2.82793303941">
        <ele>121.23</ele>
        <time>2022-01-27T16:49:08.110Z</time>
      </trkpt>
      <trkpt lat="41.93375" lon="2.82779">
        <ele>121.28836478969</ele>
        <time>2022-01-27T16:49:08.683Z</time>
      </trkpt>
      <trkpt lat="41.93375" lon="2.82779">
        <ele>121.28836478969</ele>
        <time>2022-01-27T16:49:09.256Z</time>
      </trkpt>
      <trkpt lat="41.93372372512" lon="2.82769206635">
        <ele>121.32</ele>
        <time>2022-01-27T16:49:09.830Z</time>
      </trkpt>
      <trkpt lat="41.93372372512" lon="2.82769206635">
        <ele>121.32</ele>
        <time>2022-01-27T16:49:10.404Z</time>
      </trkpt>
      <trkpt lat="41.9336501953" lon="2.82741800065">
        <ele>120.35</ele>
        <time>2022-01-27T16:49:10.982Z</time>
      </trkpt>
      <trkpt lat="41.9336501953" lon="2.82741800065">
        <ele>120.35</ele>
        <time>2022-01-27T16:49:11.560Z</time>
      </trkpt>
      <trkpt lat="41.93364" lon="2.82738">
        <ele>120.1795106454</ele>
        <time>2022-01-27T16:49:12.138Z</time>
      </trkpt>
      <trkpt lat="41.93364" lon="2.82738">
        <ele>120.1795106454</ele>
        <time>2022-01-27T16:49:12.716Z</time>
      </trkpt>
      <trkpt lat="41.93362664711" lon="2.82738572267">
        <ele>120.1</ele>
        <time>2022-01-27T16:49:13.294Z</time>
      </trkpt>
      <trkpt lat="41.93362664711" lon="2.82738572267">
        <ele>120.1</ele>
        <time>2022-01-27T16:49:13.872Z</time>
      </trkpt>
      <trkpt lat="41.93358551934" lon="2.82740334885">
        <ele>119.8</ele>
        <time>2022-01-27T16:49:14.451Z</time>
      </trkpt>
      <trkpt lat="41.93358551934" lon="2.82740334885">
        <ele>119.8</ele>
        <time>2022-01-27T16:49:15.030Z</time>
      </trkpt>
      <trkpt lat="41.93354439157" lon="2.82742097504">
        <ele>119.44</ele>
        <time>2022-01-27T16:49:15.610Z</time>
      </trkpt>
      <trkpt lat="41.93354439157" lon="2.82742097504">
        <ele>119.44</ele>
        <time>2022-01-27T16:49:16.190Z</time>
      </trkpt>
      <trkpt lat="41.9335" lon="2.82744">
        <ele>118.97550409343</ele>
        <time>2022-01-27T16:49:16.771Z</time>
      </trkpt>
      <trkpt lat="41.9335" lon="2.82744">
        <ele>118.97550409343</ele>
        <time>2022-01-27T16:49:17.352Z</time>
      </trkpt>
      <trkpt lat="41.93343862634" lon="2.82751671707">
        <ele>118.14</ele>
        <time>2022-01-27T16:49:17.934Z</time>
      </trkpt>
      <trkpt lat="41.93343862634" lon="2.82751671707">
        <ele>118.14</ele>
        <time>2022-01-27T16:49:18.516Z</time>
      </trkpt>
      <trkpt lat="41.93342" lon="2.82754">
        <ele>117.92788077358</ele>
        <time>2022-01-27T16:49:19.098Z</time>
      </trkpt>
      <trkpt lat="41.93342" lon="2.82754">
        <ele>117.92788077358</ele>
        <time>2022-01-27T16:49:19.680Z</time>
      </trkpt>
      <trkpt lat="41.93340338016" lon="2.82753169008">
        <ele>117.78</ele>
        <time>2022-01-27T16:49:20.263Z</time>
      </trkpt>
      <trkpt lat="41.93340338016" lon="2.82753169008">
        <ele>117.78</ele>
        <time>2022-01-27T16:49:20.846Z</time>
      </trkpt>
      <trkpt lat="41.93336207802" lon="2.82751103901">
        <ele>117.52</ele>
        <time>2022-01-27T16:49:21.429Z</time>
      </trkpt>
      <trkpt lat="41.93336207802" lon="2.82751103901">
        <ele>117.52</ele>
        <time>2022-01-27T16:49:22.012Z</time>
      </trkpt>
      <trkpt lat="41.93332" lon="2.82749">
        <ele>117.37</ele>
        <time>2022-01-27T16:49:22.596Z</time>
      </trkpt>
      <trkpt lat="41.93332" lon="2.82749">
        <ele>117.37</ele>
        <time>2022-01-27T16:49:23.180Z</time>
      </trkpt>
      <trkpt lat="41.93330416129" lon="2.82743852418">
        <ele>117.29</ele>
        <time>2022-01-27T16:49:23.765Z</time>
      </trkpt>
      <trkpt lat="41.93330416129" lon="2.82743852418">
        <ele>117.29</ele>
        <time>2022-01-27T16:49:24.350Z</time>
      </trkpt>
      <trkpt lat="41.93328" lon="2.82736">
        <ele>117.25376683396</ele>
        <time>2022-01-27T16:49:24.936Z</time>
      </trkpt>
      <trkpt lat="41.93328" lon="2.82736">
        <ele>117.25376683396</ele>
        <time>2022-01-27T16:49:25.522Z</time>
      </trkpt>
      <trkpt lat="41.93325724685" lon="2.82734965766">
        <ele>117.24</ele>
        <time>2022-01-27T16:49:26.108Z</time>
      </trkpt>
      <trkpt lat="41.93325724685" lon="2.82734965766">
        <ele>117.24</ele>
        <time>2022-01-27T16:49:26.694Z</time>
      </trkpt>
      <trkpt lat="41.93321635403" lon="2.82733107001">
        <ele>117.17</ele>
        <time>2022-01-27T16:49:27.281Z</time>
      </trkpt>
      <trkpt lat="41.93321635403" lon="2.82733107001">
        <ele>117.17</ele>
        <time>2022-01-27T16:49:27.868Z</time>
      </trkpt>
      <trkpt lat="41.93317" lon="2.82731">
        <ele>117.06</ele>
        <time>2022-01-27T16:49:28.456Z</time>
      </trkpt>
      <trkpt lat="41.93317" lon="2.82731">
        <ele>117.06</ele>
        <time>2022-01-27T16:49:29.044Z</time>
      </trkpt>
      <trkpt lat="41.93311429944" lon="2.8273899182">
        <ele>116.79</ele>
        <time>2022-01-27T16:49:29.633Z</time>
      </trkpt>
      <trkpt lat="41.93311429944" lon="2.8273899182">
        <ele>116.79</ele>
        <time>2022-01-27T16:49:30.222Z</time>
      </trkpt>
      <trkpt lat="41.93308478583" lon="2.82743226381">
        <ele>116.68</ele>
        <time>2022-01-27T16:49:30.812Z</time>
      </trkpt>
      <trkpt lat="41.93308478583" lon="2.82743226381">
        <ele>116.68</ele>
        <time>2022-01-27T16:49:31.402Z</time>
      </trkpt>
      <trkpt lat="41.93305527222" lon="2.82747460942">
        <ele>116.61</ele>
        <time>2022-01-27T16:49:31.992Z</time>
      </trkpt>
      <trkpt lat="41.93305527222" lon="2.82747460942">
        <ele>116.61</ele>
        <time>2022-01-27T16:49:32.582Z</time>
      </trkpt>
      <trkpt lat="41.93302575861" lon="2.82751695504">
        <ele>116.57</ele>
        <time>2022-01-27T16:49:33.173Z</time>
      </trkpt>
      <trkpt lat="41.93302575861" lon="2.82751695504">
        <ele>116.57</ele>
        <time>2022-01-27T16:49:33.764Z</time>
      </trkpt>
      <trkpt lat="41.93294" lon="2.82764">
        <ele>116.51635573451</ele>
        <time>2022-01-27T16:49:34.357Z</time>
      </trkpt>
      <trkpt lat="41.93294" lon="2.82764">
        <ele>116.51635573451</ele>
        <time>2022-01-27T16:49:34.950Z</time>
      </trkpt>
      <trkpt lat="41.9329" lon="2.82759">
        <ele>116.49299537266</ele>
        <time>2022-01-27T16:49:35.544Z</time>
      </trkpt>
      <trkpt lat="41.9329" lon="2.82759">
        <ele>116.49299537266</ele>
        <time>2022-01-27T16:49:36.138Z</time>
      </trkpt>
      <trkpt lat="41.93282918496" lon="2.8274533105">
        <ele>116.44</ele>
        <time>2022-01-27T16:49:36.734Z</time>
      </trkpt>
      <trkpt lat="41.93282918496" lon="2.8274533105">
        <ele>116.44</ele>
        <time>2022-01-27T16:49:37.330Z</time>
      </trkpt>
      <trkpt lat="41.93277933257" lon="2.8273570838">
        <ele>116.42</ele>
        <time>2022-01-27T16:49:37.927Z</time>
      </trkpt>
      <trkpt lat="41.93277933257" lon="2.8273570838">
        <ele>116.42</ele>
        <time>2022-01-27T16:49:38.524Z</time>
      </trkpt>
      <trkpt lat="41.9327541494" lon="2.82730847443">
        <ele>116.43</ele>
        <time>2022-01-27T16:49:39.122Z</time>
      </trkpt>
      <trkpt lat="41.9327541494" lon="2.82730847443">
        <ele>116.43</ele>
        <time>2022-01-27T16:49:39.720Z</time>
      </trkpt>
      <trkpt lat="41.9326796278" lon="2.8271646304">
        <ele>116.51</ele>
        <time>2022-01-27T16:49:40.320Z</time>
      </trkpt>
      <trkpt lat="41.9326796278" lon="2.8271646304">
        <ele>116.51</ele>
        <time>2022-01-27T16:49:40.920Z</time>
      </trkpt>
      <trkpt lat="41.93255628168" lon="2.82692654371">
        <ele>116.72</ele>
        <time>2022-01-27T16:49:41.524Z</time>
      </trkpt>
      <trkpt lat="41.93255628168" lon="2.82692654371">
        <ele>116.72</ele>
        <time>2022-01-27T16:49:42.128Z</time>
      </trkpt>
      <trkpt lat="41.93250745718" lon="2.82683230107">
        <ele>116.34</ele>
        <time>2022-01-27T16:49:42.733Z</time>
      </trkpt>
      <trkpt lat="41.93250745718" lon="2.82683230107">
        <ele>116.34</ele>
        <time>2022-01-27T16:49:43.338Z</time>
      </trkpt>
      <trkpt lat="41.93248176007" lon="2.82678269967">
        <ele>116.18</ele>
        <time>2022-01-27T16:49:43.944Z</time>
      </trkpt>
      <trkpt lat="41.93248176007" lon="2.82678269967">
        <ele>116.18</ele>
        <time>2022-01-27T16:49:44.550Z</time>
      </trkpt>
      <trkpt lat="41.93247" lon="2.82676">
        <ele>116.11326055775</ele>
        <time>2022-01-27T16:49:45.156Z</time>
      </trkpt>
      <trkpt lat="41.93247" lon="2.82676">
        <ele>116.11326055775</ele>
        <time>2022-01-27T16:49:45.762Z</time>
      </trkpt>
      <trkpt lat="41.9324531488" lon="2.82673977856">
        <ele>116.04</ele>
        <time>2022-01-27T16:49:46.368Z</time>
      </trkpt>
      <trkpt lat="41.9324531488" lon="2.82673977856">
        <ele>116.04</ele>
        <time>2022-01-27T16:49:46.974Z</time>
      </trkpt>
      <trkpt lat="41.93242" lon="2.8267">
        <ele>115.92793465978</ele>
        <time>2022-01-27T16:49:47.581Z</time>
      </trkpt>
      <trkpt lat="41.93242" lon="2.8267">
        <ele>115.92793465978</ele>
        <time>2022-01-27T16:49:48.188Z</time>
      </trkpt>
      <trkpt lat="41.93237792334" lon="2.82671051916">
        <ele>115.82</ele>
        <time>2022-01-27T16:49:48.796Z</time>
      </trkpt>
      <trkpt lat="41.93237792334" lon="2.82671051916">
        <ele>115.82</ele>
        <time>2022-01-27T16:49:49.404Z</time>
      </trkpt>
      <trkpt lat="41.93234" lon="2.82672">
        <ele>115.74</ele>
        <time>2022-01-27T16:49:50.012Z</time>
      </trkpt>
      <trkpt lat="41.93234" lon="2.82672">
        <ele>115.74</ele>
        <time>2022-01-27T16:49:50.620Z</time>
      </trkpt>
      <trkpt lat="41.9323369342" lon="2.82672459869">
        <ele>115.74</ele>
        <time>2022-01-27T16:49:51.228Z</time>
      </trkpt>
      <trkpt lat="41.9323369342" lon="2.82672459869">
        <ele>115.74</ele>
        <time>2022-01-27T16:49:51.836Z</time>
      </trkpt>
      <trkpt lat="41.9323" lon="2.82678">
        <ele>115.67655858267</ele>
        <time>2022-01-27T16:49:52.445Z</time>
      </trkpt>
      <trkpt lat="41.9323" lon="2.82678">
        <ele>115.67655858267</ele>
        <time>2022-01-27T16:49:53.054Z</time>
      </trkpt>
      <trkpt lat="41.9323" lon="2.8268228688">
        <ele>115.64</ele>
        <time>2022-01-27T16:49:53.664Z</time>
      </trkpt>
      <trkpt lat="41.9323" lon="2.8268228688">
        <ele>115.64</ele>
        <time>2022-01-27T16:49:54.274Z</time>
      </trkpt>
      <trkpt lat="41.9323" lon="2.82686">
        <ele>115.61969217269</ele>
        <time>2022-01-27T16:49:54.884Z</time>
      </trkpt>
      <trkpt lat="41.9323" lon="2.82686">
        <ele>115.61969217269</ele>
        <time>2022-01-27T16:49:55.494Z</time>
      </trkpt>
      <trkpt lat="41.93236" lon="2.8271">
        <ele>115.48</ele>
        <time>2022-01-27T16:49:56.107Z</time>
      </trkpt>
      <trkpt lat="41.93236" lon="2.8271">
        <ele>115.48</ele>
        <time>2022-01-27T16:49:56.720Z</time>
      </trkpt>
      <trkpt lat="41.93236" lon="2.82710222664">
        <ele>115.48</ele>
        <time>2022-01-27T16:49:57.333Z</time>
      </trkpt>
      <trkpt lat="41.93236" lon="2.82710222664">
        <ele>115.48</ele>
        <time>2022-01-27T16:49:57.946Z</time>
      </trkpt>
      <trkpt lat="41.93236" lon="2.82715179043">
        <ele>115.42</ele>
        <time>2022-01-27T16:49:58.560Z</time>
      </trkpt>
      <trkpt lat="41.93236" lon="2.82715179043">
        <ele>115.42</ele>
        <time>2022-01-27T16:49:59.174Z</time>
      </trkpt>
      <trkpt lat="41.93236" lon="2.82719">
        <ele>114.1015322958</ele>
        <time>2022-01-27T16:49:59.788Z</time>
      </trkpt>
      <trkpt lat="41.93236" lon="2.82719">
        <ele>114.1015322958</ele>
        <time>2022-01-27T16:50:00.402Z</time>
      </trkpt>
      <trkpt lat="41.93232" lon="2.82728">
        <ele>113.58442131299</ele>
        <time>2022-01-27T16:50:01.018Z</time>
      </trkpt>
      <trkpt lat="41.93232" lon="2.82728">
        <ele>113.58442131299</ele>
        <time>2022-01-27T16:50:01.634Z</time>
      </trkpt>
      <trkpt lat="41.93228611423" lon="2.82730420412">
        <ele>113.33</ele>
        <time>2022-01-27T16:50:02.250Z</time>
      </trkpt>
      <trkpt lat="41.93228611423" lon="2.82730420412">
        <ele>113.33</ele>
        <time>2022-01-27T16:50:02.866Z</time>
      </trkpt>
      <trkpt lat="41.93225" lon="2.82733">
        <ele>113.2579984887</ele>
        <time>2022-01-27T16:50:03.483Z</time>
      </trkpt>
      <trkpt lat="41.93225" lon="2.82733">
        <ele>113.2579984887</ele>
        <time>2022-01-27T16:50:04.100Z</time>
      </trkpt>
      <trkpt lat="41.93218494798" lon="2.82735168401">
        <ele>113.14</ele>
        <time>2022-01-27T16:50:04.718Z</time>
      </trkpt>
      <trkpt lat="41.93218494798" lon="2.82735168401">
        <ele>113.14</ele>
        <time>2022-01-27T16:50:05.336Z</time>
      </trkpt>
      <trkpt lat="41.93216" lon="2.82736">
        <ele>112.95099610498</ele>
        <time>2022-01-27T16:50:05.954Z</time>
      </trkpt>
      <trkpt lat="41.93216" lon="2.82736">
        <ele>112.95099610498</ele>
        <time>2022-01-27T16:50:06.572Z</time>
      </trkpt>
      <trkpt lat="41.93207418763" lon="2.82736">
        <ele>112.32</ele>
        <time>2022-01-27T16:50:07.192Z</time>
      </trkpt>
      <trkpt lat="41.93207418763" lon="2.82736">
        <ele>112.32</ele>
        <time>2022-01-27T16:50:07.812Z</time>
      </trkpt>
      <trkpt lat="41.93203" lon="2.82736">
        <ele>112.05738532074</ele>
        <time>2022-01-27T16:50:08.432Z</time>
      </trkpt>
      <trkpt lat="41.93203" lon="2.82736">
        <ele>112.05738532074</ele>
        <time>2022-01-27T16:50:09.052Z</time>
      </trkpt>
      <trkpt lat="41.93197508825" lon="2.82732705295">
        <ele>111.7</ele>
        <time>2022-01-27T16:50:09.673Z</time>
      </trkpt>
      <trkpt lat="41.93197508825" lon="2.82732705295">
        <ele>111.7</ele>
        <time>2022-01-27T16:50:10.294Z</time>
      </trkpt>
      <trkpt lat="41.93193" lon="2.8273">
        <ele>111.28014868159</ele>
        <time>2022-01-27T16:50:10.916Z</time>
      </trkpt>
      <trkpt lat="41.93193" lon="2.8273">
        <ele>111.28014868159</ele>
        <time>2022-01-27T16:50:11.538Z</time>
      </trkpt>
      <trkpt lat="41.9318922529" lon="2.82721611755">
        <ele>110.66</ele>
        <time>2022-01-27T16:50:12.161Z</time>
      </trkpt>
      <trkpt lat="41.9318922529" lon="2.82721611755">
        <ele>110.66</ele>
        <time>2022-01-27T16:50:12.784Z</time>
      </trkpt>
      <trkpt lat="41.93184" lon="2.8271">
        <ele>110.36500810766</ele>
        <time>2022-01-27T16:50:13.409Z</time>
      </trkpt>
      <trkpt lat="41.93184" lon="2.8271">
        <ele>110.36500810766</ele>
        <time>2022-01-27T16:50:14.034Z</time>
      </trkpt>
      <trkpt lat="41.93182459105" lon="2.82707842747">
        <ele>110.3</ele>
        <time>2022-01-27T16:50:14.659Z</time>
      </trkpt>
      <trkpt lat="41.93182459105" lon="2.82707842747">
        <ele>110.3</ele>
        <time>2022-01-27T16:50:15.284Z</time>
      </trkpt>
      <trkpt lat="41.93179" lon="2.82703">
        <ele>110.26966509775</ele>
        <time>2022-01-27T16:50:15.910Z</time>
      </trkpt>
      <trkpt lat="41.93179" lon="2.82703">
        <ele>110.26966509775</ele>
        <time>2022-01-27T16:50:16.536Z</time>
      </trkpt>
      <trkpt lat="41.93171" lon="2.82697">
        <ele>110.21402414647</ele>
        <time>2022-01-27T16:50:17.164Z</time>
      </trkpt>
      <trkpt lat="41.93171" lon="2.82697">
        <ele>110.21402414647</ele>
        <time>2022-01-27T16:50:17.792Z</time>
      </trkpt>
      <trkpt lat="41.93163782776" lon="2.82696097847">
        <ele>110.17</ele>
        <time>2022-01-27T16:50:18.421Z</time>
      </trkpt>
      <trkpt lat="41.93163782776" lon="2.82696097847">
        <ele>110.17</ele>
        <time>2022-01-27T16:50:19.050Z</time>
      </trkpt>
      <trkpt lat="41.93155" lon="2.82695">
        <ele>101.6</ele>
        <time>2022-01-27T16:50:19.680Z</time>
      </trkpt>
      <trkpt lat="41.93155" lon="2.82695">
        <ele>101.6</ele>
        <time>2022-01-27T16:50:20.310Z</time>
      </trkpt>
      <trkpt lat="41.93154675759" lon="2.82694432579">
        <ele>101.6</ele>
        <time>2022-01-27T16:50:20.940Z</time>
      </trkpt>
      <trkpt lat="41.93154675759" lon="2.82694432579">
        <ele>101.6</ele>
        <time>2022-01-27T16:50:21.570Z</time>
      </trkpt>
      <trkpt lat="41.93151" lon="2.82688">
        <ele>100.98686664659</ele>
        <time>2022-01-27T16:50:22.201Z</time>
      </trkpt>
      <trkpt lat="41.93151" lon="2.82688">
        <ele>100.98686664659</ele>
        <time>2022-01-27T16:50:22.832Z</time>
      </trkpt>
      <trkpt lat="41.93148641252" lon="2.8265419128">
        <ele>98.42</ele>
        <time>2022-01-27T16:50:23.467Z</time>
      </trkpt>
      <trkpt lat="41.93148641252" lon="2.8265419128">
        <ele>98.42</ele>
        <time>2022-01-27T16:50:24.102Z</time>
      </trkpt>
      <trkpt lat="41.931482214" lon="2.82648173403">
        <ele>97.99</ele>
        <time>2022-01-27T16:50:24.738Z</time>
      </trkpt>
      <trkpt lat="41.931482214" lon="2.82648173403">
        <ele>97.99</ele>
        <time>2022-01-27T16:50:25.374Z</time>
      </trkpt>
      <trkpt lat="41.93148" lon="2.82645">
        <ele>97.78014448595</ele>
        <time>2022-01-27T16:50:26.010Z</time>
      </trkpt>
      <trkpt lat="41.93148" lon="2.82645">
        <ele>97.78014448595</ele>
        <time>2022-01-27T16:50:26.646Z</time>
      </trkpt>
      <trkpt lat="41.93148648387" lon="2.82642406454">
        <ele>97.6</ele>
        <time>2022-01-27T16:50:27.283Z</time>
      </trkpt>
      <trkpt lat="41.93148648387" lon="2.82642406454">
        <ele>97.6</ele>
        <time>2022-01-27T16:50:27.920Z</time>
      </trkpt>
      <trkpt lat="41.93151513102" lon="2.8263094759">
        <ele>96.9</ele>
        <time>2022-01-27T16:50:28.558Z</time>
      </trkpt>
      <trkpt lat="41.93151513102" lon="2.8263094759">
        <ele>96.9</ele>
        <time>2022-01-27T16:50:29.196Z</time>
      </trkpt>
      <trkpt lat="41.93154349171" lon="2.82619603315">
        <ele>96.28</ele>
        <time>2022-01-27T16:50:29.836Z</time>
      </trkpt>
      <trkpt lat="41.93154349171" lon="2.82619603315">
        <ele>96.28</ele>
        <time>2022-01-27T16:50:30.476Z</time>
      </trkpt>
      <trkpt lat="41.93158" lon="2.82605">
        <ele>95.53588011951</ele>
        <time>2022-01-27T16:50:31.117Z</time>
      </trkpt>
      <trkpt lat="41.93158" lon="2.82605">
        <ele>95.53588011951</ele>
        <time>2022-01-27T16:50:31.758Z</time>
      </trkpt>
      <trkpt lat="41.93156404789" lon="2.82603518733">
        <ele>95.41</ele>
        <time>2022-01-27T16:50:32.400Z</time>
      </trkpt>
      <trkpt lat="41.93156404789" lon="2.82603518733">
        <ele>95.41</ele>
        <time>2022-01-27T16:50:33.042Z</time>
      </trkpt>
      <trkpt lat="41.93149523388" lon="2.82597128861">
        <ele>95.3</ele>
        <time>2022-01-27T16:50:33.685Z</time>
      </trkpt>
      <trkpt lat="41.93149523388" lon="2.82597128861">
        <ele>95.3</ele>
        <time>2022-01-27T16:50:34.328Z</time>
      </trkpt>
      <trkpt lat="41.93144" lon="2.82592">
        <ele>95.17203391762</ele>
        <time>2022-01-27T16:50:34.972Z</time>
      </trkpt>
      <trkpt lat="41.93144" lon="2.82592">
        <ele>95.17203391762</ele>
        <time>2022-01-27T16:50:35.616Z</time>
      </trkpt>
      <trkpt lat="41.93138263775" lon="2.82590279133">
        <ele>95.06</ele>
        <time>2022-01-27T16:50:36.261Z</time>
      </trkpt>
      <trkpt lat="41.93138263775" lon="2.82590279133">
        <ele>95.06</ele>
        <time>2022-01-27T16:50:36.906Z</time>
      </trkpt>
      <trkpt lat="41.93134" lon="2.82589">
        <ele>95.31</ele>
        <time>2022-01-27T16:50:37.552Z</time>
      </trkpt>
      <trkpt lat="41.93134" lon="2.82589">
        <ele>95.31</ele>
        <time>2022-01-27T16:50:38.198Z</time>
      </trkpt>
      <trkpt lat="41.93134012823" lon="2.82588951913">
        <ele>95.31</ele>
        <time>2022-01-27T16:50:38.844Z</time>
      </trkpt>
      <trkpt lat="41.93134012823" lon="2.82588951913">
        <ele>95.31</ele>
        <time>2022-01-27T16:50:39.490Z</time>
      </trkpt>
      <trkpt lat="41.93135499754" lon="2.82583375924">
        <ele>95.66</ele>
        <time>2022-01-27T16:50:40.136Z</time>
      </trkpt>
      <trkpt lat="41.93135499754" lon="2.82583375924">
        <ele>95.66</ele>
        <time>2022-01-27T16:50:40.782Z</time>
      </trkpt>
      <trkpt lat="41.93137017029" lon="2.8257768614">
        <ele>96.14</ele>
        <time>2022-01-27T16:50:41.429Z</time>
      </trkpt>
      <trkpt lat="41.93137017029" lon="2.8257768614">
        <ele>96.14</ele>
        <time>2022-01-27T16:50:42.076Z</time>
      </trkpt>
      <trkpt lat="41.93138" lon="2.82574">
        <ele>96.54986574675</ele>
        <time>2022-01-27T16:50:42.724Z</time>
      </trkpt>
      <trkpt lat="41.93138" lon="2.82574">
        <ele>96.54986574675</ele>
        <time>2022-01-27T16:50:43.372Z</time>
      </trkpt>
      <trkpt lat="41.93139245785" lon="2.82572892635">
        <ele>96.76</ele>
        <time>2022-01-27T16:50:44.020Z</time>
      </trkpt>
      <trkpt lat="41.93139245785" lon="2.82572892635">
        <ele>96.76</ele>
        <time>2022-01-27T16:50:44.668Z</time>
      </trkpt>
      <trkpt lat="41.93147" lon="2.82566">
        <ele>98.19</ele>
        <time>2022-01-27T16:50:45.317Z</time>
      </trkpt>
      <trkpt lat="41.93147" lon="2.82566">
        <ele>98.19</ele>
        <time>2022-01-27T16:50:45.966Z</time>
      </trkpt>
      <trkpt lat="41.93145661514" lon="2.82560913752">
        <ele>98.87</ele>
        <time>2022-01-27T16:50:46.616Z</time>
      </trkpt>
      <trkpt lat="41.93145661514" lon="2.82560913752">
        <ele>98.87</ele>
        <time>2022-01-27T16:50:47.266Z</time>
      </trkpt>
      <trkpt lat="41.93144161967" lon="2.82555215474">
        <ele>99.44</ele>
        <time>2022-01-27T16:50:47.917Z</time>
      </trkpt>
      <trkpt lat="41.93144161967" lon="2.82555215474">
        <ele>99.44</ele>
        <time>2022-01-27T16:50:48.568Z</time>
      </trkpt>
      <trkpt lat="41.93142692411" lon="2.82549631162">
        <ele>99.85</ele>
        <time>2022-01-27T16:50:49.219Z</time>
      </trkpt>
      <trkpt lat="41.93142692411" lon="2.82549631162">
        <ele>99.85</ele>
        <time>2022-01-27T16:50:49.870Z</time>
      </trkpt>
      <trkpt lat="41.93142" lon="2.82547">
        <ele>99.99135107694</ele>
        <time>2022-01-27T16:50:50.522Z</time>
      </trkpt>
      <trkpt lat="41.93142" lon="2.82547">
        <ele>99.99135107694</ele>
        <time>2022-01-27T16:50:51.174Z</time>
      </trkpt>
      <trkpt lat="41.93139815828" lon="2.82548092086">
        <ele>100.15</ele>
        <time>2022-01-27T16:50:51.826Z</time>
      </trkpt>
      <trkpt lat="41.93139815828" lon="2.82548092086">
        <ele>100.15</ele>
        <time>2022-01-27T16:50:52.478Z</time>
      </trkpt>
      <trkpt lat="41.93136" lon="2.8255">
        <ele>100.35577437869</ele>
        <time>2022-01-27T16:50:53.131Z</time>
      </trkpt>
      <trkpt lat="41.93136" lon="2.8255">
        <ele>100.35577437869</ele>
        <time>2022-01-27T16:50:53.784Z</time>
      </trkpt>
      <trkpt lat="41.93131576532" lon="2.82552613868">
        <ele>100.6</ele>
        <time>2022-01-27T16:50:54.438Z</time>
      </trkpt>
      <trkpt lat="41.93131576532" lon="2.82552613868">
        <ele>100.6</ele>
        <time>2022-01-27T16:50:55.092Z</time>
      </trkpt>
      <trkpt lat="41.93123426032" lon="2.82557430072">
        <ele>101.0</ele>
        <time>2022-01-27T16:50:55.747Z</time>
      </trkpt>
      <trkpt lat="41.93123426032" lon="2.82557430072">
        <ele>101.0</ele>
        <time>2022-01-27T16:50:56.402Z</time>
      </trkpt>
      <trkpt lat="41.93115275533" lon="2.82562246276">
        <ele>101.35</ele>
        <time>2022-01-27T16:50:57.058Z</time>
      </trkpt>
      <trkpt lat="41.93115275533" lon="2.82562246276">
        <ele>101.35</ele>
        <time>2022-01-27T16:50:57.714Z</time>
      </trkpt>
      <trkpt lat="41.93111241447" lon="2.82564630054">
        <ele>101.57</ele>
        <time>2022-01-27T16:50:58.371Z</time>
      </trkpt>
      <trkpt lat="41.93111241447" lon="2.82564630054">
        <ele>101.57</ele>
        <time>2022-01-27T16:50:59.028Z</time>
      </trkpt>
      <trkpt lat="41.93107125034" lon="2.8256706248">
        <ele>101.84</ele>
        <time>2022-01-27T16:50:59.686Z</time>
      </trkpt>
      <trkpt lat="41.93107125034" lon="2.8256706248">
        <ele>101.84</ele>
        <time>2022-01-27T16:51:00.344Z</time>
      </trkpt>
      <trkpt lat="41.93103090948" lon="2.82569446258">
        <ele>102.2</ele>
        <time>2022-01-27T16:51:01.003Z</time>
      </trkpt>
      <trkpt lat="41.93103090948" lon="2.82569446258">
        <ele>102.2</ele>
        <time>2022-01-27T16:51:01.662Z</time>
      </trkpt>
      <trkpt lat="41.93099056863" lon="2.82571830036">
        <ele>102.64</ele>
        <time>2022-01-27T16:51:02.321Z</time>
      </trkpt>
      <trkpt lat="41.93099056863" lon="2.82571830036">
        <ele>102.64</ele>
        <time>2022-01-27T16:51:02.980Z</time>
      </trkpt>
      <trkpt lat="41.93094940449" lon="2.82574262462">
        <ele>103.15</ele>
        <time>2022-01-27T16:51:03.640Z</time>
      </trkpt>
      <trkpt lat="41.93094940449" lon="2.82574262462">
        <ele>103.15</ele>
        <time>2022-01-27T16:51:04.300Z</time>
      </trkpt>
      <trkpt lat="41.93092" lon="2.82576">
        <ele>103.56127683437</ele>
        <time>2022-01-27T16:51:04.961Z</time>
      </trkpt>
      <trkpt lat="41.93092" lon="2.82576">
        <ele>103.56127683437</ele>
        <time>2022-01-27T16:51:05.622Z</time>
      </trkpt>
      <trkpt lat="41.93086566144" lon="2.82578274638">
        <ele>104.29</ele>
        <time>2022-01-27T16:51:06.283Z</time>
      </trkpt>
      <trkpt lat="41.93086566144" lon="2.82578274638">
        <ele>104.29</ele>
        <time>2022-01-27T16:51:06.944Z</time>
      </trkpt>
      <trkpt lat="41.93082358768" lon="2.82580035865">
        <ele>104.94</ele>
        <time>2022-01-27T16:51:07.606Z</time>
      </trkpt>
      <trkpt lat="41.93082358768" lon="2.82580035865">
        <ele>104.94</ele>
        <time>2022-01-27T16:51:08.268Z</time>
      </trkpt>
      <trkpt lat="41.93078151392" lon="2.82581797092">
        <ele>105.67</ele>
        <time>2022-01-27T16:51:08.931Z</time>
      </trkpt>
      <trkpt lat="41.93078151392" lon="2.82581797092">
        <ele>105.67</ele>
        <time>2022-01-27T16:51:09.594Z</time>
      </trkpt>
      <trkpt lat="41.93073858151" lon="2.82583594262">
        <ele>106.51</ele>
        <time>2022-01-27T16:51:10.258Z</time>
      </trkpt>
      <trkpt lat="41.93073858151" lon="2.82583594262">
        <ele>106.51</ele>
        <time>2022-01-27T16:51:10.922Z</time>
      </trkpt>
      <trkpt lat="41.93065443399" lon="2.82587116717">
        <ele>108.34</ele>
        <time>2022-01-27T16:51:11.587Z</time>
      </trkpt>
      <trkpt lat="41.93065443399" lon="2.82587116717">
        <ele>108.34</ele>
        <time>2022-01-27T16:51:12.252Z</time>
      </trkpt>
      <trkpt lat="41.9306029151" lon="2.82589273321">
        <ele>109.38</ele>
        <time>2022-01-27T16:51:12.918Z</time>
      </trkpt>
      <trkpt lat="41.9306029151" lon="2.82589273321">
        <ele>109.38</ele>
        <time>2022-01-27T16:51:13.584Z</time>
      </trkpt>
      <trkpt lat="41.93057028647" lon="2.82590639171">
        <ele>110.02</ele>
        <time>2022-01-27T16:51:14.250Z</time>
      </trkpt>
      <trkpt lat="41.93057028647" lon="2.82590639171">
        <ele>110.02</ele>
        <time>2022-01-27T16:51:14.916Z</time>
      </trkpt>
      <trkpt lat="41.93052735406" lon="2.82592436342">
        <ele>110.7</ele>
        <time>2022-01-27T16:51:15.583Z</time>
      </trkpt>
      <trkpt lat="41.93052735406" lon="2.82592436342">
        <ele>110.7</ele>
        <time>2022-01-27T16:51:16.250Z</time>
      </trkpt>
      <trkpt lat="41.93049" lon="2.82594">
        <ele>111.25</ele>
        <time>2022-01-27T16:51:16.918Z</time>
      </trkpt>
      <trkpt lat="41.93049" lon="2.82594">
        <ele>111.25</ele>
        <time>2022-01-27T16:51:17.586Z</time>
      </trkpt>
      <trkpt lat="41.93048572805" lon="2.82594334326">
        <ele>111.25</ele>
        <time>2022-01-27T16:51:18.254Z</time>
      </trkpt>
      <trkpt lat="41.93048572805" lon="2.82594334326">
        <ele>111.25</ele>
        <time>2022-01-27T16:51:18.922Z</time>
      </trkpt>
      <trkpt lat="41.93044764577" lon="2.82597314678">
        <ele>111.68</ele>
        <time>2022-01-27T16:51:19.591Z</time>
      </trkpt>
      <trkpt lat="41.93044764577" lon="2.82597314678">
        <ele>111.68</ele>
        <time>2022-01-27T16:51:20.260Z</time>
      </trkpt>
      <trkpt lat="41.93040878631" lon="2.82600355854">
        <ele>111.99</ele>
        <time>2022-01-27T16:51:20.929Z</time>
      </trkpt>
      <trkpt lat="41.93040878631" lon="2.82600355854">
        <ele>111.99</ele>
        <time>2022-01-27T16:51:21.598Z</time>
      </trkpt>
      <trkpt lat="41.93037070403" lon="2.82603336206">
        <ele>112.21</ele>
        <time>2022-01-27T16:51:22.268Z</time>
      </trkpt>
      <trkpt lat="41.93037070403" lon="2.82603336206">
        <ele>112.21</ele>
        <time>2022-01-27T16:51:22.938Z</time>
      </trkpt>
      <trkpt lat="41.93033184456" lon="2.82606377382">
        <ele>112.34</ele>
        <time>2022-01-27T16:51:23.609Z</time>
      </trkpt>
      <trkpt lat="41.93033184456" lon="2.82606377382">
        <ele>112.34</ele>
        <time>2022-01-27T16:51:24.280Z</time>
      </trkpt>
      <trkpt lat="41.93029376228" lon="2.82609357734">
        <ele>112.41</ele>
        <time>2022-01-27T16:51:24.951Z</time>
      </trkpt>
      <trkpt lat="41.93029376228" lon="2.82609357734">
        <ele>112.41</ele>
        <time>2022-01-27T16:51:25.622Z</time>
      </trkpt>
      <trkpt lat="41.93026" lon="2.82612">
        <ele>112.42</ele>
        <time>2022-01-27T16:51:26.294Z</time>
      </trkpt>
      <trkpt lat="41.93026" lon="2.82612">
        <ele>112.42</ele>
        <time>2022-01-27T16:51:26.966Z</time>
      </trkpt>
      <trkpt lat="41.9302550149" lon="2.82612049851">
        <ele>112.42</ele>
        <time>2022-01-27T16:51:27.638Z</time>
      </trkpt>
      <trkpt lat="41.9302550149" lon="2.82612049851">
        <ele>112.42</ele>
        <time>2022-01-27T16:51:28.310Z</time>
      </trkpt>
      <trkpt lat="41.93021017271" lon="2.82612498273">
        <ele>112.39</ele>
        <time>2022-01-27T16:51:28.983Z</time>
      </trkpt>
      <trkpt lat="41.93021017271" lon="2.82612498273">
        <ele>112.39</ele>
        <time>2022-01-27T16:51:29.656Z</time>
      </trkpt>
      <trkpt lat="41.93016" lon="2.82613">
        <ele>112.31</ele>
        <time>2022-01-27T16:51:30.330Z</time>
      </trkpt>
      <trkpt lat="41.93016" lon="2.82613">
        <ele>112.31</ele>
        <time>2022-01-27T16:51:31.004Z</time>
      </trkpt>
      <trkpt lat="41.93015" lon="2.82614">
        <ele>112.24343102965</ele>
        <time>2022-01-27T16:51:31.678Z</time>
      </trkpt>
      <trkpt lat="41.93015" lon="2.82614">
        <ele>112.24343102965</ele>
        <time>2022-01-27T16:51:32.352Z</time>
      </trkpt>
      <trkpt lat="41.93013211231" lon="2.82611416222">
        <ele>112.15</ele>
        <time>2022-01-27T16:51:33.026Z</time>
      </trkpt>
      <trkpt lat="41.93013211231" lon="2.82611416222">
        <ele>112.15</ele>
        <time>2022-01-27T16:51:33.700Z</time>
      </trkpt>
      <trkpt lat="41.9301020924" lon="2.82607080014">
        <ele>111.88</ele>
        <time>2022-01-27T16:51:34.375Z</time>
      </trkpt>
      <trkpt lat="41.9301020924" lon="2.82607080014">
        <ele>111.88</ele>
        <time>2022-01-27T16:51:35.050Z</time>
      </trkpt>
      <trkpt lat="41.9300720725" lon="2.82602743806">
        <ele>111.44</ele>
        <time>2022-01-27T16:51:35.726Z</time>
      </trkpt>
      <trkpt lat="41.9300720725" lon="2.82602743806">
        <ele>111.44</ele>
        <time>2022-01-27T16:51:36.402Z</time>
      </trkpt>
      <trkpt lat="41.93006" lon="2.82601">
        <ele>111.20353585205</ele>
        <time>2022-01-27T16:51:37.078Z</time>
      </trkpt>
      <trkpt lat="41.93006" lon="2.82601">
        <ele>111.20353585205</ele>
        <time>2022-01-27T16:51:37.754Z</time>
      </trkpt>
      <trkpt lat="41.93004628743" lon="2.8259783556">
        <ele>110.84</ele>
        <time>2022-01-27T16:51:38.430Z</time>
      </trkpt>
      <trkpt lat="41.93004628743" lon="2.8259783556">
        <ele>110.84</ele>
        <time>2022-01-27T16:51:39.106Z</time>
      </trkpt>
      <trkpt lat="41.93002003431" lon="2.82591777148">
        <ele>109.92</ele>
        <time>2022-01-27T16:51:39.783Z</time>
      </trkpt>
      <trkpt lat="41.93002003431" lon="2.82591777148">
        <ele>109.92</ele>
        <time>2022-01-27T16:51:40.460Z</time>
      </trkpt>
      <trkpt lat="41.92993" lon="2.82571">
        <ele>105.37</ele>
        <time>2022-01-27T16:51:41.140Z</time>
      </trkpt>
      <trkpt lat="41.92993" lon="2.82571">
        <ele>105.37</ele>
        <time>2022-01-27T16:51:41.820Z</time>
      </trkpt>
      <trkpt lat="41.92997061567" lon="2.82559395522">
        <ele>105.95</ele>
        <time>2022-01-27T16:51:42.502Z</time>
      </trkpt>
      <trkpt lat="41.92997061567" lon="2.82559395522">
        <ele>105.95</ele>
        <time>2022-01-27T16:51:43.184Z</time>
      </trkpt>
      <trkpt lat="41.93" lon="2.82551">
        <ele>104.71850404181</ele>
        <time>2022-01-27T16:51:43.867Z</time>
      </trkpt>
      <trkpt lat="41.93" lon="2.82551">
        <ele>104.71850404181</ele>
        <time>2022-01-27T16:51:44.550Z</time>
      </trkpt>
      <trkpt lat="41.92999314159" lon="2.82544141587">
        <ele>103.8</ele>
        <time>2022-01-27T16:51:45.234Z</time>
      </trkpt>
      <trkpt lat="41.92999314159" lon="2.82544141587">
        <ele>103.8</ele>
        <time>2022-01-27T16:51:45.918Z</time>
      </trkpt>
      <trkpt lat="41.92999" lon="2.82541">
        <ele>103.4220190561</ele>
        <time>2022-01-27T16:51:46.602Z</time>
      </trkpt>
      <trkpt lat="41.92999" lon="2.82541">
        <ele>103.4220190561</ele>
        <time>2022-01-27T16:51:47.286Z</time>
      </trkpt>
      <trkpt lat="41.92995732102" lon="2.82531740955">
        <ele>102.2</ele>
        <time>2022-01-27T16:51:47.971Z</time>
      </trkpt>
      <trkpt lat="41.92995732102" lon="2.82531740955">
        <ele>102.2</ele>
        <time>2022-01-27T16:51:48.656Z</time>
      </trkpt>
      <trkpt lat="41.92993" lon="2.82524">
        <ele>101.23348650316</ele>
        <time>2022-01-27T16:51:49.342Z</time>
      </trkpt>
      <trkpt lat="41.92993" lon="2.82524">
        <ele>101.23348650316</ele>
        <time>2022-01-27T16:51:50.028Z</time>
      </trkpt>
      <trkpt lat="41.92992" lon="2.82517">
        <ele>100.42941394143</ele>
        <time>2022-01-27T16:51:50.715Z</time>
      </trkpt>
      <trkpt lat="41.92992" lon="2.82517">
        <ele>100.42941394143</ele>
        <time>2022-01-27T16:51:51.402Z</time>
      </trkpt>
      <trkpt lat="41.92993891779" lon="2.82513594797">
        <ele>99.95</ele>
        <time>2022-01-27T16:51:52.089Z</time>
      </trkpt>
      <trkpt lat="41.92993891779" lon="2.82513594797">
        <ele>99.95</ele>
        <time>2022-01-27T16:51:52.776Z</time>
      </trkpt>
      <trkpt lat="41.92997" lon="2.82508">
        <ele>97.4945244411</ele>
        <time>2022-01-27T16:51:53.464Z</time>
      </trkpt>
      <trkpt lat="41.92997" lon="2.82508">
        <ele>97.4945244411</ele>
        <time>2022-01-27T16:51:54.152Z</time>
      </trkpt>
      <trkpt lat="41.93001043405" lon="2.82505573957">
        <ele>97.72</ele>
        <time>2022-01-27T16:51:54.841Z</time>
      </trkpt>
      <trkpt lat="41.93001043405" lon="2.82505573957">
        <ele>97.72</ele>
        <time>2022-01-27T16:51:55.530Z</time>
      </trkpt>
      <trkpt lat="41.93002" lon="2.82505">
        <ele>97.76659380996</ele>
        <time>2022-01-27T16:51:56.219Z</time>
      </trkpt>
      <trkpt lat="41.93002" lon="2.82505">
        <ele>97.76659380996</ele>
        <time>2022-01-27T16:51:56.908Z</time>
      </trkpt>
      <trkpt lat="41.93009944278" lon="2.82505198607">
        <ele>98.12</ele>
        <time>2022-01-27T16:51:57.598Z</time>
      </trkpt>
      <trkpt lat="41.93009944278" lon="2.82505198607">
        <ele>98.12</ele>
        <time>2022-01-27T16:51:58.288Z</time>
      </trkpt>
      <trkpt lat="41.93018935947" lon="2.82505423399">
        <ele>98.47</ele>
        <time>2022-01-27T16:51:58.980Z</time>
      </trkpt>
      <trkpt lat="41.93018935947" lon="2.82505423399">
        <ele>98.47</ele>
        <time>2022-01-27T16:51:59.672Z</time>
      </trkpt>
      <trkpt lat="41.93036829367" lon="2.82505870734">
        <ele>99.09</ele>
        <time>2022-01-27T16:52:00.367Z</time>
      </trkpt>
      <trkpt lat="41.93036829367" lon="2.82505870734">
        <ele>99.09</ele>
        <time>2022-01-27T16:52:01.062Z</time>
      </trkpt>
      <trkpt lat="41.93042" lon="2.82506">
        <ele>99.26</ele>
        <time>2022-01-27T16:52:01.758Z</time>
      </trkpt>
      <trkpt lat="41.93042" lon="2.82506">
        <ele>99.26</ele>
        <time>2022-01-27T16:52:02.454Z</time>
      </trkpt>
      <trkpt lat="41.93050204165" lon="2.82507845937">
        <ele>99.64</ele>
        <time>2022-01-27T16:52:03.151Z</time>
      </trkpt>
      <trkpt lat="41.93050204165" lon="2.82507845937">
        <ele>99.64</ele>
        <time>2022-01-27T16:52:03.848Z</time>
      </trkpt>
      <trkpt lat="41.93054639074" lon="2.82508843792">
        <ele>99.85</ele>
        <time>2022-01-27T16:52:04.546Z</time>
      </trkpt>
      <trkpt lat="41.93054639074" lon="2.82508843792">
        <ele>99.85</ele>
        <time>2022-01-27T16:52:05.244Z</time>
      </trkpt>
      <trkpt lat="41.93063508893" lon="2.82510839501">
        <ele>100.33</ele>
        <time>2022-01-27T16:52:05.943Z</time>
      </trkpt>
      <trkpt lat="41.93063508893" lon="2.82510839501">
        <ele>100.33</ele>
        <time>2022-01-27T16:52:06.642Z</time>
      </trkpt>
      <trkpt lat="41.93067943802" lon="2.82511837356">
        <ele>100.61</ele>
        <time>2022-01-27T16:52:07.342Z</time>
      </trkpt>
      <trkpt lat="41.93067943802" lon="2.82511837356">
        <ele>100.61</ele>
        <time>2022-01-27T16:52:08.042Z</time>
      </trkpt>
      <trkpt lat="41.93076813621" lon="2.82513833065">
        <ele>101.25</ele>
        <time>2022-01-27T16:52:08.743Z</time>
      </trkpt>
      <trkpt lat="41.93076813621" lon="2.82513833065">
        <ele>101.25</ele>
        <time>2022-01-27T16:52:09.444Z</time>
      </trkpt>
      <trkpt lat="41.93082" lon="2.82515">
        <ele>101.61</ele>
        <time>2022-01-27T16:52:10.146Z</time>
      </trkpt>
      <trkpt lat="41.93082" lon="2.82515">
        <ele>101.61</ele>
        <time>2022-01-27T16:52:10.848Z</time>
      </trkpt>
      <trkpt lat="41.93094726172" lon="2.82514717196">
        <ele>102.74</ele>
        <time>2022-01-27T16:52:11.552Z</time>
      </trkpt>
      <trkpt lat="41.93094726172" lon="2.82514717196">
        <ele>102.74</ele>
        <time>2022-01-27T16:52:12.256Z</time>
      </trkpt>
      <trkpt lat="41.93099222169" lon="2.82514617285">
        <ele>103.08</ele>
        <time>2022-01-27T16:52:12.961Z</time>
      </trkpt>
      <trkpt lat="41.93099222169" lon="2.82514617285">
        <ele>103.08</ele>
        <time>2022-01-27T16:52:13.666Z</time>
      </trkpt>
      <trkpt lat="41.93103718167" lon="2.82514517374">
        <ele>103.36</ele>
        <time>2022-01-27T16:52:14.372Z</time>
      </trkpt>
      <trkpt lat="41.93103718167" lon="2.82514517374">
        <ele>103.36</ele>
        <time>2022-01-27T16:52:15.078Z</time>
      </trkpt>
      <trkpt lat="41.93108214164" lon="2.82514417463">
        <ele>103.56</ele>
        <time>2022-01-27T16:52:15.784Z</time>
      </trkpt>
      <trkpt lat="41.93108214164" lon="2.82514417463">
        <ele>103.56</ele>
        <time>2022-01-27T16:52:16.490Z</time>
      </trkpt>
      <trkpt lat="41.93112710162" lon="2.82514317552">
        <ele>103.65</ele>
        <time>2022-01-27T16:52:17.197Z</time>
      </trkpt>
      <trkpt lat="41.93112710162" lon="2.82514317552">
        <ele>103.65</ele>
        <time>2022-01-27T16:52:17.904Z</time>
      </trkpt>
      <trkpt lat="41.93117206159" lon="2.82514217641">
        <ele>103.6</ele>
        <time>2022-01-27T16:52:18.612Z</time>
      </trkpt>
      <trkpt lat="41.93117206159" lon="2.82514217641">
        <ele>103.6</ele>
        <time>2022-01-27T16:52:19.320Z</time>
      </trkpt>
      <trkpt lat="41.93121702157" lon="2.8251411773">
        <ele>103.41</ele>
        <time>2022-01-27T16:52:20.028Z</time>
      </trkpt>
      <trkpt lat="41.93121702157" lon="2.8251411773">
        <ele>103.41</ele>
        <time>2022-01-27T16:52:20.736Z</time>
      </trkpt>
      <trkpt lat="41.93127" lon="2.82514">
        <ele>103.09</ele>
        <time>2022-01-27T16:52:21.445Z</time>
      </trkpt>
      <trkpt lat="41.93127" lon="2.82514">
        <ele>103.09</ele>
        <time>2022-01-27T16:52:22.154Z</time>
      </trkpt>
      <trkpt lat="41.93128535106" lon="2.82514080795">
        <ele>102.88</ele>
        <time>2022-01-27T16:52:22.864Z</time>
      </trkpt>
      <trkpt lat="41.93128535106" lon="2.82514080795">
        <ele>102.88</ele>
        <time>2022-01-27T16:52:23.574Z</time>
      </trkpt>
      <trkpt lat="41.93130601964" lon="2.82514189577">
        <ele>102.69</ele>
        <time>2022-01-27T16:52:24.284Z</time>
      </trkpt>
      <trkpt lat="41.93130601964" lon="2.82514189577">
        <ele>102.69</ele>
        <time>2022-01-27T16:52:24.994Z</time>
      </trkpt>
      <trkpt lat="41.93135095133" lon="2.8251442606">
        <ele>102.22</ele>
        <time>2022-01-27T16:52:25.705Z</time>
      </trkpt>
      <trkpt lat="41.93135095133" lon="2.8251442606">
        <ele>102.22</ele>
        <time>2022-01-27T16:52:26.416Z</time>
      </trkpt>
      <trkpt lat="41.93146" lon="2.82515">
        <ele>100.96997941417</ele>
        <time>2022-01-27T16:52:27.128Z</time>
      </trkpt>
      <trkpt lat="41.93146" lon="2.82515">
        <ele>100.96997941417</ele>
        <time>2022-01-27T16:52:27.840Z</time>
      </trkpt>
      <trkpt lat="41.93162" lon="2.82514">
        <ele>99.14</ele>
        <time>2022-01-27T16:52:28.555Z</time>
      </trkpt>
      <trkpt lat="41.93162" lon="2.82514">
        <ele>99.14</ele>
        <time>2022-01-27T16:52:29.270Z</time>
      </trkpt>
      <trkpt lat="41.93175257773" lon="2.8251096176">
        <ele>97.64</ele>
        <time>2022-01-27T16:52:29.987Z</time>
      </trkpt>
      <trkpt lat="41.93175257773" lon="2.8251096176">
        <ele>97.64</ele>
        <time>2022-01-27T16:52:30.704Z</time>
      </trkpt>
      <trkpt lat="41.93179690427" lon="2.82509945944">
        <ele>97.12</ele>
        <time>2022-01-27T16:52:31.422Z</time>
      </trkpt>
      <trkpt lat="41.93179690427" lon="2.82509945944">
        <ele>97.12</ele>
        <time>2022-01-27T16:52:32.140Z</time>
      </trkpt>
      <trkpt lat="41.93197421044" lon="2.82505882677">
        <ele>94.83</ele>
        <time>2022-01-27T16:52:32.861Z</time>
      </trkpt>
      <trkpt lat="41.93197421044" lon="2.82505882677">
        <ele>94.83</ele>
        <time>2022-01-27T16:52:33.582Z</time>
      </trkpt>
      <trkpt lat="41.93201853699" lon="2.82504866861">
        <ele>94.29</ele>
        <time>2022-01-27T16:52:34.303Z</time>
      </trkpt>
      <trkpt lat="41.93201853699" lon="2.82504866861">
        <ele>94.29</ele>
        <time>2022-01-27T16:52:35.024Z</time>
      </trkpt>
      <trkpt lat="41.9321" lon="2.82503">
        <ele>93.28</ele>
        <time>2022-01-27T16:52:35.747Z</time>
      </trkpt>
      <trkpt lat="41.9321" lon="2.82503">
        <ele>93.28</ele>
        <time>2022-01-27T16:52:36.470Z</time>
      </trkpt>
      <trkpt lat="41.9321064692" lon="2.82503452844">
        <ele>93.28</ele>
        <time>2022-01-27T16:52:37.193Z</time>
      </trkpt>
      <trkpt lat="41.9321064692" lon="2.82503452844">
        <ele>93.28</ele>
        <time>2022-01-27T16:52:37.916Z</time>
      </trkpt>
      <trkpt lat="41.9321846386" lon="2.82508924702">
        <ele>92.93</ele>
        <time>2022-01-27T16:52:38.640Z</time>
      </trkpt>
      <trkpt lat="41.9321846386" lon="2.82508924702">
        <ele>92.93</ele>
        <time>2022-01-27T16:52:39.364Z</time>
      </trkpt>
      <trkpt lat="41.9322" lon="2.8251">
        <ele>92.86937170584</ele>
        <time>2022-01-27T16:52:40.088Z</time>
      </trkpt>
      <trkpt lat="41.9322" lon="2.8251">
        <ele>92.86937170584</ele>
        <time>2022-01-27T16:52:40.812Z</time>
      </trkpt>
      <trkpt lat="41.93222218227" lon="2.82512957636">
        <ele>92.76</ele>
        <time>2022-01-27T16:52:41.537Z</time>
      </trkpt>
      <trkpt lat="41.93222218227" lon="2.82512957636">
        <ele>92.76</ele>
        <time>2022-01-27T16:52:42.262Z</time>
      </trkpt>
      <trkpt lat="41.93231348677" lon="2.82525131569">
        <ele>92.36</ele>
        <time>2022-01-27T16:52:42.989Z</time>
      </trkpt>
      <trkpt lat="41.93231348677" lon="2.82525131569">
        <ele>92.36</ele>
        <time>2022-01-27T16:52:43.716Z</time>
      </trkpt>
      <trkpt lat="41.93232" lon="2.82526">
        <ele>92.33709991476</ele>
        <time>2022-01-27T16:52:44.443Z</time>
      </trkpt>
      <trkpt lat="41.93232" lon="2.82526">
        <ele>92.33709991476</ele>
        <time>2022-01-27T16:52:45.170Z</time>
      </trkpt>
      <trkpt lat="41.93235844091" lon="2.82535271043">
        <ele>92.14</ele>
        <time>2022-01-27T16:52:45.898Z</time>
      </trkpt>
      <trkpt lat="41.93235844091" lon="2.82535271043">
        <ele>92.14</ele>
        <time>2022-01-27T16:52:46.626Z</time>
      </trkpt>
      <trkpt lat="41.9323798945" lon="2.82540445143">
        <ele>92.05</ele>
        <time>2022-01-27T16:52:47.355Z</time>
      </trkpt>
      <trkpt lat="41.9323798945" lon="2.82540445143">
        <ele>92.05</ele>
        <time>2022-01-27T16:52:48.084Z</time>
      </trkpt>
      <trkpt lat="41.9324232395" lon="2.82550898937">
        <ele>91.91</ele>
        <time>2022-01-27T16:52:48.815Z</time>
      </trkpt>
      <trkpt lat="41.9324232395" lon="2.82550898937">
        <ele>91.91</ele>
        <time>2022-01-27T16:52:49.546Z</time>
      </trkpt>
      <trkpt lat="41.93249" lon="2.82567">
        <ele>91.75440712065</ele>
        <time>2022-01-27T16:52:50.279Z</time>
      </trkpt>
      <trkpt lat="41.93249" lon="2.82567">
        <ele>91.75440712065</ele>
        <time>2022-01-27T16:52:51.012Z</time>
      </trkpt>
      <trkpt lat="41.93255" lon="2.82573">
        <ele>91.66</ele>
        <time>2022-01-27T16:52:51.746Z</time>
      </trkpt>
      <trkpt lat="41.93255" lon="2.82573">
        <ele>91.66</ele>
        <time>2022-01-27T16:52:52.480Z</time>
      </trkpt>
      <trkpt lat="41.93255735488" lon="2.82572448384">
        <ele>91.66</ele>
        <time>2022-01-27T16:52:53.214Z</time>
      </trkpt>
      <trkpt lat="41.93255735488" lon="2.82572448384">
        <ele>91.66</ele>
        <time>2022-01-27T16:52:53.948Z</time>
      </trkpt>
      <trkpt lat="41.93263" lon="2.82567">
        <ele>91.50999946698</ele>
        <time>2022-01-27T16:52:54.683Z</time>
      </trkpt>
      <trkpt lat="41.93263" lon="2.82567">
        <ele>91.50999946698</ele>
        <time>2022-01-27T16:52:55.418Z</time>
      </trkpt>
      <trkpt lat="41.93273" lon="2.82551">
        <ele>91.22967984177</ele>
        <time>2022-01-27T16:52:56.156Z</time>
      </trkpt>
      <trkpt lat="41.93273" lon="2.82551">
        <ele>91.22967984177</ele>
        <time>2022-01-27T16:52:56.894Z</time>
      </trkpt>
      <trkpt lat="41.93275210548" lon="2.82548789452">
        <ele>91.18</ele>
        <time>2022-01-27T16:52:57.632Z</time>
      </trkpt>
      <trkpt lat="41.93275210548" lon="2.82548789452">
        <ele>91.18</ele>
        <time>2022-01-27T16:52:58.370Z</time>
      </trkpt>
      <trkpt lat="41.93278" lon="2.82546">
        <ele>91.12156211307</ele>
        <time>2022-01-27T16:52:59.109Z</time>
      </trkpt>
      <trkpt lat="41.93278" lon="2.82546">
        <ele>91.12156211307</ele>
        <time>2022-01-27T16:52:59.848Z</time>
      </trkpt>
      <trkpt lat="41.93284" lon="2.82543">
        <ele>91.01396016355</ele>
        <time>2022-01-27T16:53:00.588Z</time>
      </trkpt>
      <trkpt lat="41.93284" lon="2.82543">
        <ele>91.01396016355</ele>
        <time>2022-01-27T16:53:01.328Z</time>
      </trkpt>
      <trkpt lat="41.93297" lon="2.82545">
        <ele>90.79402291629</ele>
        <time>2022-01-27T16:53:02.070Z</time>
      </trkpt>
      <trkpt lat="41.93297" lon="2.82545">
        <ele>90.79402291629</ele>
        <time>2022-01-27T16:53:02.812Z</time>
      </trkpt>
      <trkpt lat="41.93303723019" lon="2.82550762588">
        <ele>90.66</ele>
        <time>2022-01-27T16:53:03.555Z</time>
      </trkpt>
      <trkpt lat="41.93303723019" lon="2.82550762588">
        <ele>90.66</ele>
        <time>2022-01-27T16:53:04.298Z</time>
      </trkpt>
      <trkpt lat="41.93307438596" lon="2.82553947368">
        <ele>90.54</ele>
        <time>2022-01-27T16:53:05.042Z</time>
      </trkpt>
      <trkpt lat="41.93307438596" lon="2.82553947368">
        <ele>90.54</ele>
        <time>2022-01-27T16:53:05.786Z</time>
      </trkpt>
      <trkpt lat="41.93311" lon="2.82557">
        <ele>90.39</ele>
        <time>2022-01-27T16:53:06.531Z</time>
      </trkpt>
      <trkpt lat="41.93311" lon="2.82557">
        <ele>90.39</ele>
        <time>2022-01-27T16:53:07.276Z</time>
      </trkpt>
      <trkpt lat="41.93311171378" lon="2.82557085689">
        <ele>90.39</ele>
        <time>2022-01-27T16:53:08.021Z</time>
      </trkpt>
      <trkpt lat="41.93311171378" lon="2.82557085689">
        <ele>90.39</ele>
        <time>2022-01-27T16:53:08.766Z</time>
      </trkpt>
      <trkpt lat="41.93317" lon="2.8256">
        <ele>90.14236969901</ele>
        <time>2022-01-27T16:53:09.512Z</time>
      </trkpt>
      <trkpt lat="41.93317" lon="2.8256">
        <ele>90.14236969901</ele>
        <time>2022-01-27T16:53:10.258Z</time>
      </trkpt>
      <trkpt lat="41.93317" lon="2.82569532132">
        <ele>89.86</ele>
        <time>2022-01-27T16:53:11.005Z</time>
      </trkpt>
      <trkpt lat="41.93317" lon="2.82569532132">
        <ele>89.86</ele>
        <time>2022-01-27T16:53:11.752Z</time>
      </trkpt>
      <trkpt lat="41.93317" lon="2.82575">
        <ele>89.70769303826</ele>
        <time>2022-01-27T16:53:12.500Z</time>
      </trkpt>
      <trkpt lat="41.93317" lon="2.82575">
        <ele>89.70769303826</ele>
        <time>2022-01-27T16:53:13.248Z</time>
      </trkpt>
      <trkpt lat="41.933179853" lon="2.8258124023">
        <ele>89.53</ele>
        <time>2022-01-27T16:53:13.996Z</time>
      </trkpt>
      <trkpt lat="41.933179853" lon="2.8258124023">
        <ele>89.53</ele>
        <time>2022-01-27T16:53:14.744Z</time>
      </trkpt>
      <trkpt lat="41.9332" lon="2.82594">
        <ele>89.26</ele>
        <time>2022-01-27T16:53:15.494Z</time>
      </trkpt>
      <trkpt lat="41.9332" lon="2.82594">
        <ele>89.26</ele>
        <time>2022-01-27T16:53:16.244Z</time>
      </trkpt>
      <trkpt lat="41.93321216862" lon="2.82598563232">
        <ele>89.15</ele>
        <time>2022-01-27T16:53:16.994Z</time>
      </trkpt>
      <trkpt lat="41.93321216862" lon="2.82598563232">
        <ele>89.15</ele>
        <time>2022-01-27T16:53:17.744Z</time>
      </trkpt>
      <trkpt lat="41.93322703831" lon="2.82604139366">
        <ele>89.07</ele>
        <time>2022-01-27T16:53:18.495Z</time>
      </trkpt>
      <trkpt lat="41.93322703831" lon="2.82604139366">
        <ele>89.07</ele>
        <time>2022-01-27T16:53:19.246Z</time>
      </trkpt>
      <trkpt lat="41.933241908" lon="2.82609715501">
        <ele>89.01</ele>
        <time>2022-01-27T16:53:19.998Z</time>
      </trkpt>
      <trkpt lat="41.933241908" lon="2.82609715501">
        <ele>89.01</ele>
        <time>2022-01-27T16:53:20.750Z</time>
      </trkpt>
      <trkpt lat="41.93325677769" lon="2.82615291635">
        <ele>89.0</ele>
        <time>2022-01-27T16:53:21.503Z</time>
      </trkpt>
      <trkpt lat="41.93325677769" lon="2.82615291635">
        <ele>89.0</ele>
        <time>2022-01-27T16:53:22.256Z</time>
      </trkpt>
      <trkpt lat="41.93327164738" lon="2.82620867769">
        <ele>89.02</ele>
        <time>2022-01-27T16:53:23.009Z</time>
      </trkpt>
      <trkpt lat="41.93327164738" lon="2.82620867769">
        <ele>89.02</ele>
        <time>2022-01-27T16:53:23.762Z</time>
      </trkpt>
      <trkpt lat="41.93328" lon="2.82624">
        <ele>89.04752432221</ele>
        <time>2022-01-27T16:53:24.516Z</time>
      </trkpt>
      <trkpt lat="41.93328" lon="2.82624">
        <ele>89.04752432221</ele>
        <time>2022-01-27T16:53:25.270Z</time>
      </trkpt>
      <trkpt lat="41.93327701416" lon="2.82626687254">
        <ele>89.07</ele>
        <time>2022-01-27T16:53:26.024Z</time>
      </trkpt>
      <trkpt lat="41.93327701416" lon="2.82626687254">
        <ele>89.07</ele>
        <time>2022-01-27T16:53:26.778Z</time>
      </trkpt>
      <trkpt lat="41.93327" lon="2.82633">
        <ele>89.15361767257</ele>
        <time>2022-01-27T16:53:27.533Z</time>
      </trkpt>
      <trkpt lat="41.93327" lon="2.82633">
        <ele>89.15361767257</ele>
        <time>2022-01-27T16:53:28.288Z</time>
      </trkpt>
      <trkpt lat="41.93322" lon="2.82648">
        <ele>89.36895058311</ele>
        <time>2022-01-27T16:53:29.045Z</time>
      </trkpt>
      <trkpt lat="41.93322" lon="2.82648">
        <ele>89.36895058311</ele>
        <time>2022-01-27T16:53:29.802Z</time>
      </trkpt>
      <trkpt lat="41.93308433738" lon="2.8267258885">
        <ele>89.77</ele>
        <time>2022-01-27T16:53:30.562Z</time>
      </trkpt>
      <trkpt lat="41.93308433738" lon="2.8267258885">
        <ele>89.77</ele>
        <time>2022-01-27T16:53:31.322Z</time>
      </trkpt>
      <trkpt lat="41.93306" lon="2.82677">
        <ele>89.85792760517</ele>
        <time>2022-01-27T16:53:32.083Z</time>
      </trkpt>
      <trkpt lat="41.93306" lon="2.82677">
        <ele>89.85792760517</ele>
        <time>2022-01-27T16:53:32.844Z</time>
      </trkpt>
      <trkpt lat="41.9330543005" lon="2.82682699497">
        <ele>89.95</ele>
        <time>2022-01-27T16:53:33.606Z</time>
      </trkpt>
      <trkpt lat="41.9330543005" lon="2.82682699497">
        <ele>89.95</ele>
        <time>2022-01-27T16:53:34.368Z</time>
      </trkpt>
      <trkpt lat="41.93305" lon="2.82687">
        <ele>90.03400736519</ele>
        <time>2022-01-27T16:53:35.130Z</time>
      </trkpt>
      <trkpt lat="41.93305" lon="2.82687">
        <ele>90.03400736519</ele>
        <time>2022-01-27T16:53:35.892Z</time>
      </trkpt>
      <trkpt lat="41.93307" lon="2.82693">
        <ele>90.17</ele>
        <time>2022-01-27T16:53:36.655Z</time>
      </trkpt>
      <trkpt lat="41.93307" lon="2.82693">
        <ele>90.17</ele>
        <time>2022-01-27T16:53:37.418Z</time>
      </trkpt>
      <trkpt lat="41.93307249494" lon="2.82693299393">
        <ele>90.17</ele>
        <time>2022-01-27T16:53:38.181Z</time>
      </trkpt>
      <trkpt lat="41.93307249494" lon="2.82693299393">
        <ele>90.17</ele>
        <time>2022-01-27T16:53:38.944Z</time>
      </trkpt>
      <trkpt lat="41.93312" lon="2.82699">
        <ele>90.37338848441</ele>
        <time>2022-01-27T16:53:39.708Z</time>
      </trkpt>
      <trkpt lat="41.93312" lon="2.82699">
        <ele>90.37338848441</ele>
        <time>2022-01-27T16:53:40.472Z</time>
      </trkpt>
      <trkpt lat="41.93313954743" lon="2.82699977372">
        <ele>90.44</ele>
        <time>2022-01-27T16:53:41.236Z</time>
      </trkpt>
      <trkpt lat="41.93313954743" lon="2.82699977372">
        <ele>90.44</ele>
        <time>2022-01-27T16:53:42.000Z</time>
      </trkpt>
      <trkpt lat="41.93317916376" lon="2.82701958188">
        <ele>90.6</ele>
        <time>2022-01-27T16:53:42.765Z</time>
      </trkpt>
      <trkpt lat="41.93317916376" lon="2.82701958188">
        <ele>90.6</ele>
        <time>2022-01-27T16:53:43.530Z</time>
      </trkpt>
      <trkpt lat="41.93324" lon="2.82705">
        <ele>90.87938663268</ele>
        <time>2022-01-27T16:53:44.296Z</time>
      </trkpt>
      <trkpt lat="41.93324" lon="2.82705">
        <ele>90.87938663268</ele>
        <time>2022-01-27T16:53:45.062Z</time>
      </trkpt>
      <trkpt lat="41.93325854326" lon="2.82705353205">
        <ele>90.96</ele>
        <time>2022-01-27T16:53:45.828Z</time>
      </trkpt>
      <trkpt lat="41.93325854326" lon="2.82705353205">
        <ele>90.96</ele>
        <time>2022-01-27T16:53:46.594Z</time>
      </trkpt>
      <trkpt lat="41.93345" lon="2.82709">
        <ele>91.89326383808</ele>
        <time>2022-01-27T16:53:47.364Z</time>
      </trkpt>
      <trkpt lat="41.93345" lon="2.82709">
        <ele>91.89326383808</ele>
        <time>2022-01-27T16:53:48.134Z</time>
      </trkpt>
      <trkpt lat="41.93346569396" lon="2.82710177047">
        <ele>91.98</ele>
        <time>2022-01-27T16:53:48.904Z</time>
      </trkpt>
      <trkpt lat="41.93346569396" lon="2.82710177047">
        <ele>91.98</ele>
        <time>2022-01-27T16:53:49.674Z</time>
      </trkpt>
      <trkpt lat="41.93354030246" lon="2.82715772684">
        <ele>92.15</ele>
        <time>2022-01-27T16:53:50.445Z</time>
      </trkpt>
      <trkpt lat="41.93354030246" lon="2.82715772684">
        <ele>92.15</ele>
        <time>2022-01-27T16:53:51.216Z</time>
      </trkpt>
      <trkpt lat="41.93357" lon="2.82718">
        <ele>92.24553081264</ele>
        <time>2022-01-27T16:53:51.988Z</time>
      </trkpt>
      <trkpt lat="41.93357" lon="2.82718">
        <ele>92.24553081264</ele>
        <time>2022-01-27T16:53:52.760Z</time>
      </trkpt>
      <trkpt lat="41.93359681423" lon="2.8272389913">
        <ele>92.39</ele>
        <time>2022-01-27T16:53:53.533Z</time>
      </trkpt>
      <trkpt lat="41.93359681423" lon="2.8272389913">
        <ele>92.39</ele>
        <time>2022-01-27T16:53:54.306Z</time>
      </trkpt>
      <trkpt lat="41.93362" lon="2.82729">
        <ele>92.55</ele>
        <time>2022-01-27T16:53:55.079Z</time>
      </trkpt>
      <trkpt lat="41.93362" lon="2.82729">
        <ele>92.55</ele>
        <time>2022-01-27T16:53:55.852Z</time>
      </trkpt>
      <trkpt lat="41.93363203193" lon="2.82734263967">
        <ele>92.74</ele>
        <time>2022-01-27T16:53:56.626Z</time>
      </trkpt>
      <trkpt lat="41.93363203193" lon="2.82734263967">
        <ele>92.74</ele>
        <time>2022-01-27T16:53:57.400Z</time>
      </trkpt>
      <trkpt lat="41.93365738868" lon="2.82745357549">
        <ele>93.24</ele>
        <time>2022-01-27T16:53:58.175Z</time>
      </trkpt>
      <trkpt lat="41.93365738868" lon="2.82745357549">
        <ele>93.24</ele>
        <time>2022-01-27T16:53:58.950Z</time>
      </trkpt>
      <trkpt lat="41.93366980293" lon="2.82750788782">
        <ele>93.55</ele>
        <time>2022-01-27T16:53:59.726Z</time>
      </trkpt>
      <trkpt lat="41.93366980293" lon="2.82750788782">
        <ele>93.55</ele>
        <time>2022-01-27T16:54:00.502Z</time>
      </trkpt>
      <trkpt lat="41.93369515969" lon="2.82761882363">
        <ele>94.23</ele>
        <time>2022-01-27T16:54:01.279Z</time>
      </trkpt>
      <trkpt lat="41.93369515969" lon="2.82761882363">
        <ele>94.23</ele>
        <time>2022-01-27T16:54:02.056Z</time>
      </trkpt>
      <trkpt lat="41.9337" lon="2.82764">
        <ele>94.37426294958</ele>
        <time>2022-01-27T16:54:02.834Z</time>
      </trkpt>
      <trkpt lat="41.9337" lon="2.82764">
        <ele>94.37426294958</ele>
        <time>2022-01-27T16:54:03.612Z</time>
      </trkpt>
      <trkpt lat="41.93371054477" lon="2.82767163431">
        <ele>94.6</ele>
        <time>2022-01-27T16:54:04.390Z</time>
      </trkpt>
      <trkpt lat="41.93371054477" lon="2.82767163431">
        <ele>94.6</ele>
        <time>2022-01-27T16:54:05.168Z</time>
      </trkpt>
      <trkpt lat="41.93372819618" lon="2.82772458853">
        <ele>95.01</ele>
        <time>2022-01-27T16:54:05.947Z</time>
      </trkpt>
      <trkpt lat="41.93372819618" lon="2.82772458853">
        <ele>95.01</ele>
        <time>2022-01-27T16:54:06.726Z</time>
      </trkpt>
      <trkpt lat="41.93374584758" lon="2.82777754275">
        <ele>95.47</ele>
        <time>2022-01-27T16:54:07.505Z</time>
      </trkpt>
      <trkpt lat="41.93374584758" lon="2.82777754275">
        <ele>95.47</ele>
        <time>2022-01-27T16:54:08.284Z</time>
      </trkpt>
      <trkpt lat="41.93375" lon="2.82779">
        <ele>95.59733299095</ele>
        <time>2022-01-27T16:54:09.064Z</time>
      </trkpt>
      <trkpt lat="41.93375" lon="2.82779">
        <ele>95.59733299095</ele>
        <time>2022-01-27T16:54:09.844Z</time>
      </trkpt>
      <trkpt lat="41.93377143177" lon="2.82782214765">
        <ele>96.0</ele>
        <time>2022-01-27T16:54:10.624Z</time>
      </trkpt>
      <trkpt lat="41.93377143177" lon="2.82782214765">
        <ele>96.0</ele>
        <time>2022-01-27T16:54:11.404Z</time>
      </trkpt>
      <trkpt lat="41.93382905016" lon="2.82790857525">
        <ele>97.18</ele>
        <time>2022-01-27T16:54:12.185Z</time>
      </trkpt>
      <trkpt lat="41.93382905016" lon="2.82790857525">
        <ele>97.18</ele>
        <time>2022-01-27T16:54:12.966Z</time>
      </trkpt>
      <trkpt lat="41.93394488715" lon="2.82808233073">
        <ele>99.09</ele>
        <time>2022-01-27T16:54:13.750Z</time>
      </trkpt>
      <trkpt lat="41.93394488715" lon="2.82808233073">
        <ele>99.09</ele>
        <time>2022-01-27T16:54:14.534Z</time>
      </trkpt>
      <trkpt lat="41.93397" lon="2.82812">
        <ele>99.52566803682</ele>
        <time>2022-01-27T16:54:15.319Z</time>
      </trkpt>
      <trkpt lat="41.93397" lon="2.82812">
        <ele>99.52566803682</ele>
        <time>2022-01-27T16:54:16.104Z</time>
      </trkpt>
      <trkpt lat="41.93398230432" lon="2.82805540233">
        <ele>100.1</ele>
        <time>2022-01-27T16:54:16.890Z</time>
      </trkpt>
      <trkpt lat="41.93398230432" lon="2.82805540233">
        <ele>100.1</ele>
        <time>2022-01-27T16:54:17.676Z</time>
      </trkpt>
      <trkpt lat="41.93400394226" lon="2.82794180313">
        <ele>101.21</ele>
        <time>2022-01-27T16:54:18.463Z</time>
      </trkpt>
      <trkpt lat="41.93400394226" lon="2.82794180313">
        <ele>101.21</ele>
        <time>2022-01-27T16:54:19.250Z</time>
      </trkpt>
      <trkpt lat="41.93404699508" lon="2.82771577585">
        <ele>103.56</ele>
        <time>2022-01-27T16:54:20.040Z</time>
      </trkpt>
      <trkpt lat="41.93404699508" lon="2.82771577585">
        <ele>103.56</ele>
        <time>2022-01-27T16:54:20.830Z</time>
      </trkpt>
      <trkpt lat="41.93405770251" lon="2.82765956181">
        <ele>104.06</ele>
        <time>2022-01-27T16:54:21.621Z</time>
      </trkpt>
      <trkpt lat="41.93405770251" lon="2.82765956181">
        <ele>104.06</ele>
        <time>2022-01-27T16:54:22.412Z</time>
      </trkpt>
      <trkpt lat="41.93406863302" lon="2.82760217665">
        <ele>104.5</ele>
        <time>2022-01-27T16:54:23.203Z</time>
      </trkpt>
      <trkpt lat="41.93406863302" lon="2.82760217665">
        <ele>104.5</ele>
        <time>2022-01-27T16:54:23.994Z</time>
      </trkpt>
      <trkpt lat="41.93407934045" lon="2.82754596261">
        <ele>104.87</ele>
        <time>2022-01-27T16:54:24.786Z</time>
      </trkpt>
      <trkpt lat="41.93407934045" lon="2.82754596261">
        <ele>104.87</ele>
        <time>2022-01-27T16:54:25.578Z</time>
      </trkpt>
      <trkpt lat="41.93409027096" lon="2.82748857745">
        <ele>105.19</ele>
        <time>2022-01-27T16:54:26.371Z</time>
      </trkpt>
      <trkpt lat="41.93409027096" lon="2.82748857745">
        <ele>105.19</ele>
        <time>2022-01-27T16:54:27.164Z</time>
      </trkpt>
      <trkpt lat="41.9341009784" lon="2.82743236341">
        <ele>105.46</ele>
        <time>2022-01-27T16:54:27.957Z</time>
      </trkpt>
      <trkpt lat="41.9341009784" lon="2.82743236341">
        <ele>105.46</ele>
        <time>2022-01-27T16:54:28.750Z</time>
      </trkpt>
      <trkpt lat="41.93413332378" lon="2.82726255018">
        <ele>106.17</ele>
        <time>2022-01-27T16:54:29.545Z</time>
      </trkpt>
      <trkpt lat="41.93413332378" lon="2.82726255018">
        <ele>106.17</ele>
        <time>2022-01-27T16:54:30.340Z</time>
      </trkpt>
      <trkpt lat="41.93415496172" lon="2.82714895098">
        <ele>106.68</ele>
        <time>2022-01-27T16:54:31.137Z</time>
      </trkpt>
      <trkpt lat="41.93415496172" lon="2.82714895098">
        <ele>106.68</ele>
        <time>2022-01-27T16:54:31.934Z</time>
      </trkpt>
      <trkpt lat="41.93418753017" lon="2.82697796662">
        <ele>108.42</ele>
        <time>2022-01-27T16:54:32.733Z</time>
      </trkpt>
      <trkpt lat="41.93418753017" lon="2.82697796662">
        <ele>108.42</ele>
        <time>2022-01-27T16:54:33.532Z</time>
      </trkpt>
      <trkpt lat="41.93421" lon="2.82686">
        <ele>109.65855858074</ele>
        <time>2022-01-27T16:54:34.332Z</time>
      </trkpt>
      <trkpt lat="41.93421" lon="2.82686">
        <ele>109.65855858074</ele>
        <time>2022-01-27T16:54:35.132Z</time>
      </trkpt>
      <trkpt lat="41.93427" lon="2.8268">
        <ele>110.68100212563</ele>
        <time>2022-01-27T16:54:35.934Z</time>
      </trkpt>
      <trkpt lat="41.93427" lon="2.8268">
        <ele>110.68100212563</ele>
        <time>2022-01-27T16:54:36.736Z</time>
      </trkpt>
      <trkpt lat="41.93428081488" lon="2.82679819752">
        <ele>110.83</ele>
        <time>2022-01-27T16:54:37.538Z</time>
      </trkpt>
      <trkpt lat="41.93428081488" lon="2.82679819752">
        <ele>110.83</ele>
        <time>2022-01-27T16:54:38.340Z</time>
      </trkpt>
      <trkpt lat="41.93433" lon="2.82679">
        <ele>111.493570263</ele>
        <time>2022-01-27T16:54:39.143Z</time>
      </trkpt>
      <trkpt lat="41.93433" lon="2.82679">
        <ele>111.493570263</ele>
        <time>2022-01-27T16:54:39.946Z</time>
      </trkpt>
      <trkpt lat="41.93436809094" lon="2.82679816234">
        <ele>112.01</ele>
        <time>2022-01-27T16:54:40.749Z</time>
      </trkpt>
      <trkpt lat="41.93436809094" lon="2.82679816234">
        <ele>112.01</ele>
        <time>2022-01-27T16:54:41.552Z</time>
      </trkpt>
      <trkpt lat="41.93447" lon="2.82682">
        <ele>113.12582888034</ele>
        <time>2022-01-27T16:54:42.357Z</time>
      </trkpt>
      <trkpt lat="41.93447" lon="2.82682">
        <ele>113.12582888034</ele>
        <time>2022-01-27T16:54:43.162Z</time>
      </trkpt>
      <trkpt lat="41.93449716154" lon="2.82681791065">
        <ele>113.42</ele>
        <time>2022-01-27T16:54:43.967Z</time>
      </trkpt>
      <trkpt lat="41.93449716154" lon="2.82681791065">
        <ele>113.42</ele>
        <time>2022-01-27T16:54:44.772Z</time>
      </trkpt>
      <trkpt lat="41.93454025851" lon="2.8268145955">
        <ele>113.87</ele>
        <time>2022-01-27T16:54:45.578Z</time>
      </trkpt>
      <trkpt lat="41.93454025851" lon="2.8268145955">
        <ele>113.87</ele>
        <time>2022-01-27T16:54:46.384Z</time>
      </trkpt>
      <trkpt lat="41.93458335548" lon="2.82681128035">
        <ele>114.28</ele>
        <time>2022-01-27T16:54:47.191Z</time>
      </trkpt>
      <trkpt lat="41.93458335548" lon="2.82681128035">
        <ele>114.28</ele>
        <time>2022-01-27T16:54:47.998Z</time>
      </trkpt>
      <trkpt lat="41.9346273503" lon="2.82680789613">
        <ele>114.63</ele>
        <time>2022-01-27T16:54:48.805Z</time>
      </trkpt>
      <trkpt lat="41.9346273503" lon="2.82680789613">
        <ele>114.63</ele>
        <time>2022-01-27T16:54:49.612Z</time>
      </trkpt>
      <trkpt lat="41.93467044727" lon="2.82680458098">
        <ele>114.92</ele>
        <time>2022-01-27T16:54:50.420Z</time>
      </trkpt>
      <trkpt lat="41.93467044727" lon="2.82680458098">
        <ele>114.92</ele>
        <time>2022-01-27T16:54:51.228Z</time>
      </trkpt>
      <trkpt lat="41.9347144421" lon="2.82680119676">
        <ele>115.15</ele>
        <time>2022-01-27T16:54:52.037Z</time>
      </trkpt>
      <trkpt lat="41.9347144421" lon="2.82680119676">
        <ele>115.15</ele>
        <time>2022-01-27T16:54:52.846Z</time>
      </trkpt>
      <trkpt lat="41.93473" lon="2.8268">
        <ele>115.20775962002</ele>
        <time>2022-01-27T16:54:53.655Z</time>
      </trkpt>
      <trkpt lat="41.93473" lon="2.8268">
        <ele>115.20775962002</ele>
        <time>2022-01-27T16:54:54.464Z</time>
      </trkpt>
      <trkpt lat="41.93475747908" lon="2.82680323283">
        <ele>115.31</ele>
        <time>2022-01-27T16:54:55.273Z</time>
      </trkpt>
      <trkpt lat="41.93475747908" lon="2.82680323283">
        <ele>115.31</ele>
        <time>2022-01-27T16:54:56.082Z</time>
      </trkpt>
      <trkpt lat="41.93480048218" lon="2.82680829202">
        <ele>115.41</ele>
        <time>2022-01-27T16:54:56.892Z</time>
      </trkpt>
      <trkpt lat="41.93480048218" lon="2.82680829202">
        <ele>115.41</ele>
        <time>2022-01-27T16:54:57.702Z</time>
      </trkpt>
      <trkpt lat="41.93484438118" lon="2.82681345661">
        <ele>115.48</ele>
        <time>2022-01-27T16:54:58.513Z</time>
      </trkpt>
      <trkpt lat="41.93484438118" lon="2.82681345661">
        <ele>115.48</ele>
        <time>2022-01-27T16:54:59.324Z</time>
      </trkpt>
      <trkpt lat="41.93507" lon="2.82684">
        <ele>115.64</ele>
        <time>2022-01-27T16:55:00.138Z</time>
      </trkpt>
      <trkpt lat="41.93507" lon="2.82684">
        <ele>115.64</ele>
        <time>2022-01-27T16:55:00.952Z</time>
      </trkpt>
      <trkpt lat="41.93514797013" lon="2.82682912045">
        <ele>115.74</ele>
        <time>2022-01-27T16:55:01.768Z</time>
      </trkpt>
      <trkpt lat="41.93514797013" lon="2.82682912045">
        <ele>115.74</ele>
        <time>2022-01-27T16:55:02.584Z</time>
      </trkpt>
      <trkpt lat="41.93519090691" lon="2.82682312927">
        <ele>115.82</ele>
        <time>2022-01-27T16:55:03.400Z</time>
      </trkpt>
      <trkpt lat="41.93519090691" lon="2.82682312927">
        <ele>115.82</ele>
        <time>2022-01-27T16:55:04.216Z</time>
      </trkpt>
      <trkpt lat="41.935277675" lon="2.82681102209">
        <ele>116.04</ele>
        <time>2022-01-27T16:55:05.034Z</time>
      </trkpt>
      <trkpt lat="41.935277675" lon="2.82681102209">
        <ele>116.04</ele>
        <time>2022-01-27T16:55:05.852Z</time>
      </trkpt>
      <trkpt lat="41.93532061178" lon="2.82680503091">
        <ele>116.18</ele>
        <time>2022-01-27T16:55:06.670Z</time>
      </trkpt>
      <trkpt lat="41.93532061178" lon="2.82680503091">
        <ele>116.18</ele>
        <time>2022-01-27T16:55:07.488Z</time>
      </trkpt>
      <trkpt lat="41.93536444308" lon="2.82679891492">
        <ele>116.34</ele>
        <time>2022-01-27T16:55:08.307Z</time>
      </trkpt>
      <trkpt lat="41.93536444308" lon="2.82679891492">
        <ele>116.34</ele>
        <time>2022-01-27T16:55:09.126Z</time>
      </trkpt>
      <trkpt lat="41.93545031664" lon="2.82678693256">
        <ele>116.73</ele>
        <time>2022-01-27T16:55:09.947Z</time>
      </trkpt>
      <trkpt lat="41.93545031664" lon="2.82678693256">
        <ele>116.73</ele>
        <time>2022-01-27T16:55:10.768Z</time>
      </trkpt>
      <trkpt lat="41.9355" lon="2.82678">
        <ele>116.73</ele>
        <time>2022-01-27T16:55:11.589Z</time>
      </trkpt>
      <trkpt lat="41.9355" lon="2.82678">
        <ele>116.73</ele>
        <time>2022-01-27T16:55:12.410Z</time>
      </trkpt>
      <trkpt lat="41.9356" lon="2.82678">
        <ele>116.73</ele>
        <time>2022-01-27T16:55:13.233Z</time>
      </trkpt>
      <trkpt lat="41.9356" lon="2.82678">
        <ele>116.73</ele>
        <time>2022-01-27T16:55:14.056Z</time>
      </trkpt>
      <trkpt lat="41.93567" lon="2.82681">
        <ele>116.73</ele>
        <time>2022-01-27T16:55:14.880Z</time>
      </trkpt>
      <trkpt lat="41.93567" lon="2.82681">
        <ele>116.73</ele>
        <time>2022-01-27T16:55:15.704Z</time>
      </trkpt>
      <trkpt lat="41.93569" lon="2.82685">
        <ele>116.73</ele>
        <time>2022-01-27T16:55:16.529Z</time>
      </trkpt>
      <trkpt lat="41.93569" lon="2.82685">
        <ele>116.73</ele>
        <time>2022-01-27T16:55:17.354Z</time>
      </trkpt>
      <trkpt lat="41.9357" lon="2.82685">
        <ele>116.73</ele>
        <time>2022-01-27T16:55:18.179Z</time>
      </trkpt>
      <trkpt lat="41.9357" lon="2.82685">
        <ele>116.73</ele>
        <time>2022-01-27T16:55:19.004Z</time>
      </trkpt>
      <trkpt lat="41.93569" lon="2.82692">
        <ele>116.73</ele>
        <time>2022-01-27T16:55:19.830Z</time>
      </trkpt>
      <trkpt lat="41.93569" lon="2.82692">
        <ele>116.73</ele>
        <time>2022-01-27T16:55:20.656Z</time>
      </trkpt>
      <trkpt lat="41.93559" lon="2.8272">
        <ele>116.73</ele>
        <time>2022-01-27T16:55:21.485Z</time>
      </trkpt>
      <trkpt lat="41.93559" lon="2.8272">
        <ele>116.73</ele>
        <time>2022-01-27T16:55:22.314Z</time>
      </trkpt>
      <trkpt lat="41.93546" lon="2.8274">
        <ele>116.73</ele>
        <time>2022-01-27T16:55:23.147Z</time>
      </trkpt>
      <trkpt lat="41.93546" lon="2.8274">
        <ele>116.73</ele>
        <time>2022-01-27T16:55:23.980Z</time>
      </trkpt>
      <trkpt lat="41.93547" lon="2.82747">
        <ele>116.73</ele>
        <time>2022-01-27T16:55:24.813Z</time>
      </trkpt>
      <trkpt lat="41.93547" lon="2.82747">
        <ele>116.73</ele>
        <time>2022-01-27T16:55:25.646Z</time>
      </trkpt>
      <trkpt lat="41.93572044876" lon="2.82764809689">
        <ele>116.73</ele>
        <time>2022-01-27T16:55:26.484Z</time>
      </trkpt>
      <trkpt lat="41.93572044876" lon="2.82764809689">
        <ele>116.73</ele>
        <time>2022-01-27T16:55:27.322Z</time>
      </trkpt>
      <trkpt lat="41.93592" lon="2.82779">
        <ele>116.88403762056</ele>
        <time>2022-01-27T16:55:28.164Z</time>
      </trkpt>
      <trkpt lat="41.93592" lon="2.82779">
        <ele>116.88403762056</ele>
        <time>2022-01-27T16:55:29.006Z</time>
      </trkpt>
      <trkpt lat="41.93607" lon="2.82782">
        <ele>116.9875139675</ele>
        <time>2022-01-27T16:55:29.850Z</time>
      </trkpt>
      <trkpt lat="41.93607" lon="2.82782">
        <ele>116.9875139675</ele>
        <time>2022-01-27T16:55:30.694Z</time>
      </trkpt>
      <trkpt lat="41.93608365124" lon="2.82783638149">
        <ele>117.0</ele>
        <time>2022-01-27T16:55:31.538Z</time>
      </trkpt>
      <trkpt lat="41.93608365124" lon="2.82783638149">
        <ele>117.0</ele>
        <time>2022-01-27T16:55:32.382Z</time>
      </trkpt>
      <trkpt lat="41.93614939957" lon="2.82791527949">
        <ele>117.0</ele>
        <time>2022-01-27T16:55:33.228Z</time>
      </trkpt>
      <trkpt lat="41.93614939957" lon="2.82791527949">
        <ele>117.0</ele>
        <time>2022-01-27T16:55:34.074Z</time>
      </trkpt>
      <trkpt lat="41.93621514791" lon="2.82799417749">
        <ele>116.95</ele>
        <time>2022-01-27T16:55:34.921Z</time>
      </trkpt>
      <trkpt lat="41.93621514791" lon="2.82799417749">
        <ele>116.95</ele>
        <time>2022-01-27T16:55:35.768Z</time>
      </trkpt>
      <trkpt lat="41.93627" lon="2.82806">
        <ele>116.88325812143</ele>
        <time>2022-01-27T16:55:36.616Z</time>
      </trkpt>
      <trkpt lat="41.93627" lon="2.82806">
        <ele>116.88325812143</ele>
        <time>2022-01-27T16:55:37.464Z</time>
      </trkpt>
      <trkpt lat="41.93628215906" lon="2.82807087916">
        <ele>116.87</ele>
        <time>2022-01-27T16:55:38.313Z</time>
      </trkpt>
      <trkpt lat="41.93628215906" lon="2.82807087916">
        <ele>116.87</ele>
        <time>2022-01-27T16:55:39.162Z</time>
      </trkpt>
      <trkpt lat="41.93635552728" lon="2.82813652441">
        <ele>116.77</ele>
        <time>2022-01-27T16:55:40.012Z</time>
      </trkpt>
      <trkpt lat="41.93635552728" lon="2.82813652441">
        <ele>116.77</ele>
        <time>2022-01-27T16:55:40.862Z</time>
      </trkpt>
      <trkpt lat="41.93646" lon="2.82823">
        <ele>116.60414478608</ele>
        <time>2022-01-27T16:55:41.714Z</time>
      </trkpt>
      <trkpt lat="41.93646" lon="2.82823">
        <ele>116.60414478608</ele>
        <time>2022-01-27T16:55:42.566Z</time>
      </trkpt>
      <trkpt lat="41.93654331772" lon="2.8282883224">
        <ele>116.48</ele>
        <time>2022-01-27T16:55:43.419Z</time>
      </trkpt>
      <trkpt lat="41.93654331772" lon="2.8282883224">
        <ele>116.48</ele>
        <time>2022-01-27T16:55:44.272Z</time>
      </trkpt>
      <trkpt lat="41.93656" lon="2.8283">
        <ele>116.41098358288</ele>
        <time>2022-01-27T16:55:45.126Z</time>
      </trkpt>
      <trkpt lat="41.93656" lon="2.8283">
        <ele>116.41098358288</ele>
        <time>2022-01-27T16:55:45.980Z</time>
      </trkpt>
      <trkpt lat="41.93658908396" lon="2.82838725188">
        <ele>116.15</ele>
        <time>2022-01-27T16:55:46.835Z</time>
      </trkpt>
      <trkpt lat="41.93658908396" lon="2.82838725188">
        <ele>116.15</ele>
        <time>2022-01-27T16:55:47.690Z</time>
      </trkpt>
      <trkpt lat="41.93661" lon="2.82845">
        <ele>115.95</ele>
        <time>2022-01-27T16:55:48.546Z</time>
      </trkpt>
      <trkpt lat="41.93661" lon="2.82845">
        <ele>115.95</ele>
        <time>2022-01-27T16:55:49.402Z</time>
      </trkpt>
      <trkpt lat="41.9366279167" lon="2.82855750019">
        <ele>115.5</ele>
        <time>2022-01-27T16:55:50.259Z</time>
      </trkpt>
      <trkpt lat="41.9366279167" lon="2.82855750019">
        <ele>115.5</ele>
        <time>2022-01-27T16:55:51.116Z</time>
      </trkpt>
      <trkpt lat="41.93663" lon="2.82857">
        <ele>115.44666598481</ele>
        <time>2022-01-27T16:55:51.973Z</time>
      </trkpt>
      <trkpt lat="41.93663" lon="2.82857">
        <ele>115.44666598481</ele>
        <time>2022-01-27T16:55:52.830Z</time>
      </trkpt>
      <trkpt lat="41.93662" lon="2.82873">
        <ele>114.75</ele>
        <time>2022-01-27T16:55:53.689Z</time>
      </trkpt>
      <trkpt lat="41.93662" lon="2.82873">
        <ele>114.75</ele>
        <time>2022-01-27T16:55:54.548Z</time>
      </trkpt>
      <trkpt lat="41.93661801267" lon="2.82873621041">
        <ele>114.75</ele>
        <time>2022-01-27T16:55:55.407Z</time>
      </trkpt>
      <trkpt lat="41.93661801267" lon="2.82873621041">
        <ele>114.75</ele>
        <time>2022-01-27T16:55:56.266Z</time>
      </trkpt>
      <trkpt lat="41.93660059912" lon="2.82879062774">
        <ele>114.47</ele>
        <time>2022-01-27T16:55:57.126Z</time>
      </trkpt>
      <trkpt lat="41.93660059912" lon="2.82879062774">
        <ele>114.47</ele>
        <time>2022-01-27T16:55:57.986Z</time>
      </trkpt>
      <trkpt lat="41.9365828302" lon="2.82884615562">
        <ele>114.16</ele>
        <time>2022-01-27T16:55:58.847Z</time>
      </trkpt>
      <trkpt lat="41.9365828302" lon="2.82884615562">
        <ele>114.16</ele>
        <time>2022-01-27T16:55:59.708Z</time>
      </trkpt>
      <trkpt lat="41.93654" lon="2.82898">
        <ele>113.31310284284</ele>
        <time>2022-01-27T16:56:00.570Z</time>
      </trkpt>
      <trkpt lat="41.93654" lon="2.82898">
        <ele>113.31310284284</ele>
        <time>2022-01-27T16:56:01.432Z</time>
      </trkpt>
      <trkpt lat="41.93651860895" lon="2.82899663748">
        <ele>113.12</ele>
        <time>2022-01-27T16:56:02.295Z</time>
      </trkpt>
      <trkpt lat="41.93651860895" lon="2.82899663748">
        <ele>113.12</ele>
        <time>2022-01-27T16:56:03.158Z</time>
      </trkpt>
      <trkpt lat="41.93647968787" lon="2.82902690944">
        <ele>112.81</ele>
        <time>2022-01-27T16:56:04.022Z</time>
      </trkpt>
      <trkpt lat="41.93647968787" lon="2.82902690944">
        <ele>112.81</ele>
        <time>2022-01-27T16:56:04.886Z</time>
      </trkpt>
      <trkpt lat="41.93645" lon="2.82905">
        <ele>112.60405189287</ele>
        <time>2022-01-27T16:56:05.750Z</time>
      </trkpt>
      <trkpt lat="41.93645" lon="2.82905">
        <ele>112.60405189287</ele>
        <time>2022-01-27T16:56:06.614Z</time>
      </trkpt>
      <trkpt lat="41.9364395457" lon="2.82904714883">
        <ele>112.54</ele>
        <time>2022-01-27T16:56:07.478Z</time>
      </trkpt>
      <trkpt lat="41.9364395457" lon="2.82904714883">
        <ele>112.54</ele>
        <time>2022-01-27T16:56:08.342Z</time>
      </trkpt>
      <trkpt lat="41.93639635872" lon="2.82903537056">
        <ele>112.32</ele>
        <time>2022-01-27T16:56:09.207Z</time>
      </trkpt>
      <trkpt lat="41.93639635872" lon="2.82903537056">
        <ele>112.32</ele>
        <time>2022-01-27T16:56:10.072Z</time>
      </trkpt>
      <trkpt lat="41.93634" lon="2.82902">
        <ele>112.09393294947</ele>
        <time>2022-01-27T16:56:10.938Z</time>
      </trkpt>
      <trkpt lat="41.93634" lon="2.82902">
        <ele>112.09393294947</ele>
        <time>2022-01-27T16:56:11.804Z</time>
      </trkpt>
      <trkpt lat="41.93630889609" lon="2.82902691198">
        <ele>111.97</ele>
        <time>2022-01-27T16:56:12.670Z</time>
      </trkpt>
      <trkpt lat="41.93630889609" lon="2.82902691198">
        <ele>111.97</ele>
        <time>2022-01-27T16:56:13.536Z</time>
      </trkpt>
      <trkpt lat="41.93625" lon="2.82904">
        <ele>111.76214910259</ele>
        <time>2022-01-27T16:56:14.403Z</time>
      </trkpt>
      <trkpt lat="41.93625" lon="2.82904">
        <ele>111.76214910259</ele>
        <time>2022-01-27T16:56:15.270Z</time>
      </trkpt>
      <trkpt lat="41.93624482408" lon="2.82907881939">
        <ele>111.66</ele>
        <time>2022-01-27T16:56:16.138Z</time>
      </trkpt>
      <trkpt lat="41.93624482408" lon="2.82907881939">
        <ele>111.66</ele>
        <time>2022-01-27T16:56:17.006Z</time>
      </trkpt>
      <trkpt lat="41.93623" lon="2.82919">
        <ele>111.41</ele>
        <time>2022-01-27T16:56:17.875Z</time>
      </trkpt>
      <trkpt lat="41.93623" lon="2.82919">
        <ele>111.41</ele>
        <time>2022-01-27T16:56:18.744Z</time>
      </trkpt>
      <trkpt lat="41.93623046238" lon="2.82919670453">
        <ele>111.41</ele>
        <time>2022-01-27T16:56:19.613Z</time>
      </trkpt>
      <trkpt lat="41.93623046238" lon="2.82919670453">
        <ele>111.41</ele>
        <time>2022-01-27T16:56:20.482Z</time>
      </trkpt>
      <trkpt lat="41.93623461336" lon="2.82925689373">
        <ele>111.32</ele>
        <time>2022-01-27T16:56:21.352Z</time>
      </trkpt>
      <trkpt lat="41.93623461336" lon="2.82925689373">
        <ele>111.32</ele>
        <time>2022-01-27T16:56:22.222Z</time>
      </trkpt>
      <trkpt lat="41.93623868132" lon="2.82931587916">
        <ele>111.26</ele>
        <time>2022-01-27T16:56:23.093Z</time>
      </trkpt>
      <trkpt lat="41.93623868132" lon="2.82931587916">
        <ele>111.26</ele>
        <time>2022-01-27T16:56:23.964Z</time>
      </trkpt>
      <trkpt lat="41.9362428323" lon="2.82937606836">
        <ele>111.24</ele>
        <time>2022-01-27T16:56:24.835Z</time>
      </trkpt>
      <trkpt lat="41.9362428323" lon="2.82937606836">
        <ele>111.24</ele>
        <time>2022-01-27T16:56:25.706Z</time>
      </trkpt>
      <trkpt lat="41.93624698328" lon="2.82943625757">
        <ele>111.28</ele>
        <time>2022-01-27T16:56:26.578Z</time>
      </trkpt>
      <trkpt lat="41.93624698328" lon="2.82943625757">
        <ele>111.28</ele>
        <time>2022-01-27T16:56:27.450Z</time>
      </trkpt>
      <trkpt lat="41.93625" lon="2.82948">
        <ele>111.33932642913</ele>
        <time>2022-01-27T16:56:28.323Z</time>
      </trkpt>
      <trkpt lat="41.93625" lon="2.82948">
        <ele>111.33932642913</ele>
        <time>2022-01-27T16:56:29.196Z</time>
      </trkpt>
      <trkpt lat="41.93624364744" lon="2.82949270512">
        <ele>111.36</ele>
        <time>2022-01-27T16:56:30.069Z</time>
      </trkpt>
      <trkpt lat="41.93624364744" lon="2.82949270512">
        <ele>111.36</ele>
        <time>2022-01-27T16:56:30.942Z</time>
      </trkpt>
      <trkpt lat="41.93621856342" lon="2.82954287316">
        <ele>111.48</ele>
        <time>2022-01-27T16:56:31.816Z</time>
      </trkpt>
      <trkpt lat="41.93621856342" lon="2.82954287316">
        <ele>111.48</ele>
        <time>2022-01-27T16:56:32.690Z</time>
      </trkpt>
      <trkpt lat="41.93619" lon="2.8296">
        <ele>111.63</ele>
        <time>2022-01-27T16:56:33.564Z</time>
      </trkpt>
      <trkpt lat="41.93619" lon="2.8296">
        <ele>111.63</ele>
        <time>2022-01-27T16:56:34.438Z</time>
      </trkpt>
      <trkpt lat="41.93622035243" lon="2.82963035243">
        <ele>111.82</ele>
        <time>2022-01-27T16:56:35.313Z</time>
      </trkpt>
      <trkpt lat="41.93622035243" lon="2.82963035243">
        <ele>111.82</ele>
        <time>2022-01-27T16:56:36.188Z</time>
      </trkpt>
      <trkpt lat="41.93625570931" lon="2.82966570931">
        <ele>112.04</ele>
        <time>2022-01-27T16:56:37.064Z</time>
      </trkpt>
      <trkpt lat="41.93625570931" lon="2.82966570931">
        <ele>112.04</ele>
        <time>2022-01-27T16:56:37.940Z</time>
      </trkpt>
      <trkpt lat="41.93629178775" lon="2.82970178775">
        <ele>112.29</ele>
        <time>2022-01-27T16:56:38.816Z</time>
      </trkpt>
      <trkpt lat="41.93629178775" lon="2.82970178775">
        <ele>112.29</ele>
        <time>2022-01-27T16:56:39.692Z</time>
      </trkpt>
      <trkpt lat="41.93634" lon="2.82975">
        <ele>112.67357253191</ele>
        <time>2022-01-27T16:56:40.569Z</time>
      </trkpt>
      <trkpt lat="41.93634" lon="2.82975">
        <ele>112.67357253191</ele>
        <time>2022-01-27T16:56:41.446Z</time>
      </trkpt>
      <trkpt lat="41.93637579606" lon="2.82976278431">
        <ele>112.91</ele>
        <time>2022-01-27T16:56:42.324Z</time>
      </trkpt>
      <trkpt lat="41.93637579606" lon="2.82976278431">
        <ele>112.91</ele>
        <time>2022-01-27T16:56:43.202Z</time>
      </trkpt>
      <trkpt lat="41.93645315229" lon="2.82979041153">
        <ele>113.42</ele>
        <time>2022-01-27T16:56:44.081Z</time>
      </trkpt>
      <trkpt lat="41.93645315229" lon="2.82979041153">
        <ele>113.42</ele>
        <time>2022-01-27T16:56:44.960Z</time>
      </trkpt>
      <trkpt lat="41.93648" lon="2.8298">
        <ele>113.58565398451</ele>
        <time>2022-01-27T16:56:45.840Z</time>
      </trkpt>
      <trkpt lat="41.93648" lon="2.8298">
        <ele>113.58565398451</ele>
        <time>2022-01-27T16:56:46.720Z</time>
      </trkpt>
      <trkpt lat="41.93650601368" lon="2.8300601368">
        <ele>114.75</ele>
        <time>2022-01-27T16:56:47.603Z</time>
      </trkpt>
      <trkpt lat="41.93650601368" lon="2.8300601368">
        <ele>114.75</ele>
        <time>2022-01-27T16:56:48.486Z</time>
      </trkpt>
      <trkpt lat="41.93651" lon="2.8301">
        <ele>114.91859786245</ele>
        <time>2022-01-27T16:56:49.369Z</time>
      </trkpt>
      <trkpt lat="41.93651" lon="2.8301">
        <ele>114.91859786245</ele>
        <time>2022-01-27T16:56:50.252Z</time>
      </trkpt>
      <trkpt lat="41.9365" lon="2.83018">
        <ele>115.25863563378</ele>
        <time>2022-01-27T16:56:51.136Z</time>
      </trkpt>
      <trkpt lat="41.9365" lon="2.83018">
        <ele>115.25863563378</ele>
        <time>2022-01-27T16:56:52.020Z</time>
      </trkpt>
      <trkpt lat="41.9364787799" lon="2.83023001882">
        <ele>115.5</ele>
        <time>2022-01-27T16:56:52.905Z</time>
      </trkpt>
      <trkpt lat="41.9364787799" lon="2.83023001882">
        <ele>115.5</ele>
        <time>2022-01-27T16:56:53.790Z</time>
      </trkpt>
      <trkpt lat="41.93641239639" lon="2.83038649422">
        <ele>116.28</ele>
        <time>2022-01-27T16:56:54.677Z</time>
      </trkpt>
      <trkpt lat="41.93641239639" lon="2.83038649422">
        <ele>116.28</ele>
        <time>2022-01-27T16:56:55.564Z</time>
      </trkpt>
      <trkpt lat="41.93636828923" lon="2.8304904611">
        <ele>116.75</ele>
        <time>2022-01-27T16:56:56.452Z</time>
      </trkpt>
      <trkpt lat="41.93636828923" lon="2.8304904611">
        <ele>116.75</ele>
        <time>2022-01-27T16:56:57.340Z</time>
      </trkpt>
      <trkpt lat="41.93636" lon="2.83051">
        <ele>116.82814291461</ele>
        <time>2022-01-27T16:56:58.229Z</time>
      </trkpt>
      <trkpt lat="41.93636" lon="2.83051">
        <ele>116.82814291461</ele>
        <time>2022-01-27T16:56:59.118Z</time>
      </trkpt>
      <trkpt lat="41.93634845465" lon="2.83054463604">
        <ele>116.96</ele>
        <time>2022-01-27T16:57:00.007Z</time>
      </trkpt>
      <trkpt lat="41.93634845465" lon="2.83054463604">
        <ele>116.96</ele>
        <time>2022-01-27T16:57:00.896Z</time>
      </trkpt>
      <trkpt lat="41.9363120474" lon="2.8306538578">
        <ele>117.3</ele>
        <time>2022-01-27T16:57:01.787Z</time>
      </trkpt>
      <trkpt lat="41.9363120474" lon="2.8306538578">
        <ele>117.3</ele>
        <time>2022-01-27T16:57:02.678Z</time>
      </trkpt>
      <trkpt lat="41.93626" lon="2.83081">
        <ele>117.7</ele>
        <time>2022-01-27T16:57:03.571Z</time>
      </trkpt>
      <trkpt lat="41.93626" lon="2.83081">
        <ele>117.7</ele>
        <time>2022-01-27T16:57:04.464Z</time>
      </trkpt>
      <trkpt lat="41.93625533093" lon="2.83081466907">
        <ele>117.7</ele>
        <time>2022-01-27T16:57:05.357Z</time>
      </trkpt>
      <trkpt lat="41.93625533093" lon="2.83081466907">
        <ele>117.7</ele>
        <time>2022-01-27T16:57:06.250Z</time>
      </trkpt>
      <trkpt lat="41.93614781721" lon="2.83092218279">
        <ele>118.0</ele>
        <time>2022-01-27T16:57:07.145Z</time>
      </trkpt>
      <trkpt lat="41.93614781721" lon="2.83092218279">
        <ele>118.0</ele>
        <time>2022-01-27T16:57:08.040Z</time>
      </trkpt>
      <trkpt lat="41.93611" lon="2.83096">
        <ele>118.08144755518</ele>
        <time>2022-01-27T16:57:08.936Z</time>
      </trkpt>
      <trkpt lat="41.93611" lon="2.83096">
        <ele>118.08144755518</ele>
        <time>2022-01-27T16:57:09.832Z</time>
      </trkpt>
      <trkpt lat="41.93605667819" lon="2.83105064707">
        <ele>118.23</ele>
        <time>2022-01-27T16:57:10.729Z</time>
      </trkpt>
      <trkpt lat="41.93605667819" lon="2.83105064707">
        <ele>118.23</ele>
        <time>2022-01-27T16:57:11.626Z</time>
      </trkpt>
      <trkpt lat="41.93601" lon="2.83113">
        <ele>115.64213176269</ele>
        <time>2022-01-27T16:57:12.524Z</time>
      </trkpt>
      <trkpt lat="41.93601" lon="2.83113">
        <ele>115.64213176269</ele>
        <time>2022-01-27T16:57:13.422Z</time>
      </trkpt>
      <trkpt lat="41.93601" lon="2.83123556453">
        <ele>115.06</ele>
        <time>2022-01-27T16:57:14.322Z</time>
      </trkpt>
      <trkpt lat="41.93601" lon="2.83123556453">
        <ele>115.06</ele>
        <time>2022-01-27T16:57:15.222Z</time>
      </trkpt>
      <trkpt lat="41.93601" lon="2.83139393593">
        <ele>114.79</ele>
        <time>2022-01-27T16:57:16.123Z</time>
      </trkpt>
      <trkpt lat="41.93601" lon="2.83139393593">
        <ele>114.79</ele>
        <time>2022-01-27T16:57:17.024Z</time>
      </trkpt>
      <trkpt lat="41.93601" lon="2.83144">
        <ele>114.68113486054</ele>
        <time>2022-01-27T16:57:17.926Z</time>
      </trkpt>
      <trkpt lat="41.93601" lon="2.83144">
        <ele>114.68113486054</ele>
        <time>2022-01-27T16:57:18.828Z</time>
      </trkpt>
      <trkpt lat="41.93604816293" lon="2.83152326458">
        <ele>114.45</ele>
        <time>2022-01-27T16:57:19.731Z</time>
      </trkpt>
      <trkpt lat="41.93604816293" lon="2.83152326458">
        <ele>114.45</ele>
        <time>2022-01-27T16:57:20.634Z</time>
      </trkpt>
      <trkpt lat="41.93610854643" lon="2.83165501039">
        <ele>114.05</ele>
        <time>2022-01-27T16:57:21.539Z</time>
      </trkpt>
      <trkpt lat="41.93610854643" lon="2.83165501039">
        <ele>114.05</ele>
        <time>2022-01-27T16:57:22.444Z</time>
      </trkpt>
      <trkpt lat="41.93612" lon="2.83168">
        <ele>113.90131400627</ele>
        <time>2022-01-27T16:57:23.349Z</time>
      </trkpt>
      <trkpt lat="41.93612" lon="2.83168">
        <ele>113.90131400627</ele>
        <time>2022-01-27T16:57:24.254Z</time>
      </trkpt>
      <trkpt lat="41.93619" lon="2.83173">
        <ele>113.36152944774</ele>
        <time>2022-01-27T16:57:25.161Z</time>
      </trkpt>
      <trkpt lat="41.93619" lon="2.83173">
        <ele>113.36152944774</ele>
        <time>2022-01-27T16:57:26.068Z</time>
      </trkpt>
      <trkpt lat="41.93619908269" lon="2.83171410529">
        <ele>113.26</ele>
        <time>2022-01-27T16:57:26.975Z</time>
      </trkpt>
      <trkpt lat="41.93619908269" lon="2.83171410529">
        <ele>113.26</ele>
        <time>2022-01-27T16:57:27.882Z</time>
      </trkpt>
      <trkpt lat="41.93623" lon="2.83166">
        <ele>112.93571451016</ele>
        <time>2022-01-27T16:57:28.790Z</time>
      </trkpt>
      <trkpt lat="41.93623" lon="2.83166">
        <ele>112.93571451016</ele>
        <time>2022-01-27T16:57:29.698Z</time>
      </trkpt>
      <trkpt lat="41.93625852486" lon="2.83157442543">
        <ele>112.49</ele>
        <time>2022-01-27T16:57:30.607Z</time>
      </trkpt>
      <trkpt lat="41.93625852486" lon="2.83157442543">
        <ele>112.49</ele>
        <time>2022-01-27T16:57:31.516Z</time>
      </trkpt>
      <trkpt lat="41.9362971386" lon="2.83145858421">
        <ele>112.66</ele>
        <time>2022-01-27T16:57:32.426Z</time>
      </trkpt>
      <trkpt lat="41.9362971386" lon="2.83145858421">
        <ele>112.66</ele>
        <time>2022-01-27T16:57:33.336Z</time>
      </trkpt>
      <trkpt lat="41.93634" lon="2.83133">
        <ele>112.96903514976</ele>
        <time>2022-01-27T16:57:34.248Z</time>
      </trkpt>
      <trkpt lat="41.93634" lon="2.83133">
        <ele>112.96903514976</ele>
        <time>2022-01-27T16:57:35.160Z</time>
      </trkpt>
      <trkpt lat="41.93634" lon="2.83131132223">
        <ele>113.01</ele>
        <time>2022-01-27T16:57:36.072Z</time>
      </trkpt>
      <trkpt lat="41.93634" lon="2.83131132223">
        <ele>113.01</ele>
        <time>2022-01-27T16:57:36.984Z</time>
      </trkpt>
      <trkpt lat="41.93634" lon="2.83117833793">
        <ele>113.67</ele>
        <time>2022-01-27T16:57:37.898Z</time>
      </trkpt>
      <trkpt lat="41.93634" lon="2.83117833793">
        <ele>113.67</ele>
        <time>2022-01-27T16:57:38.812Z</time>
      </trkpt>
      <trkpt lat="41.93634" lon="2.83107">
        <ele>114.13789282622</ele>
        <time>2022-01-27T16:57:39.727Z</time>
      </trkpt>
      <trkpt lat="41.93634" lon="2.83107">
        <ele>114.13789282622</ele>
        <time>2022-01-27T16:57:40.642Z</time>
      </trkpt>
      <trkpt lat="41.93634709729" lon="2.83104338518">
        <ele>114.26</ele>
        <time>2022-01-27T16:57:41.557Z</time>
      </trkpt>
      <trkpt lat="41.93634709729" lon="2.83104338518">
        <ele>114.26</ele>
        <time>2022-01-27T16:57:42.472Z</time>
      </trkpt>
      <trkpt lat="41.93638" lon="2.83092">
        <ele>115.24</ele>
        <time>2022-01-27T16:57:43.389Z</time>
      </trkpt>
      <trkpt lat="41.93638" lon="2.83092">
        <ele>115.24</ele>
        <time>2022-01-27T16:57:44.306Z</time>
      </trkpt>
      <trkpt lat="41.9363807476" lon="2.83091837477">
        <ele>115.24</ele>
        <time>2022-01-27T16:57:45.223Z</time>
      </trkpt>
      <trkpt lat="41.9363807476" lon="2.83091837477">
        <ele>115.24</ele>
        <time>2022-01-27T16:57:46.140Z</time>
      </trkpt>
      <trkpt lat="41.93643892536" lon="2.83079190139">
        <ele>116.61</ele>
        <time>2022-01-27T16:57:47.059Z</time>
      </trkpt>
      <trkpt lat="41.93643892536" lon="2.83079190139">
        <ele>116.61</ele>
        <time>2022-01-27T16:57:47.978Z</time>
      </trkpt>
      <trkpt lat="41.93649095425" lon="2.8306787951">
        <ele>117.5</ele>
        <time>2022-01-27T16:57:48.898Z</time>
      </trkpt>
      <trkpt lat="41.93649095425" lon="2.8306787951">
        <ele>117.5</ele>
        <time>2022-01-27T16:57:49.818Z</time>
      </trkpt>
      <trkpt lat="41.936549605" lon="2.83055129348">
        <ele>117.8</ele>
        <time>2022-01-27T16:57:50.740Z</time>
      </trkpt>
      <trkpt lat="41.936549605" lon="2.83055129348">
        <ele>117.8</ele>
        <time>2022-01-27T16:57:51.662Z</time>
      </trkpt>
      <trkpt lat="41.93661" lon="2.83042">
        <ele>118.08</ele>
        <time>2022-01-27T16:57:52.586Z</time>
      </trkpt>
      <trkpt lat="41.93661" lon="2.83042">
        <ele>118.08</ele>
        <time>2022-01-27T16:57:53.510Z</time>
      </trkpt>
      <trkpt lat="41.93668554416" lon="2.83031927445">
        <ele>117.87</ele>
        <time>2022-01-27T16:57:54.436Z</time>
      </trkpt>
      <trkpt lat="41.93668554416" lon="2.83031927445">
        <ele>117.87</ele>
        <time>2022-01-27T16:57:55.362Z</time>
      </trkpt>
      <trkpt lat="41.93676" lon="2.83022">
        <ele>118.41</ele>
        <time>2022-01-27T16:57:56.289Z</time>
      </trkpt>
      <trkpt lat="41.93676" lon="2.83022">
        <ele>118.41</ele>
        <time>2022-01-27T16:57:57.216Z</time>
      </trkpt>
      <trkpt lat="41.93676192896" lon="2.83021682288">
        <ele>118.41</ele>
        <time>2022-01-27T16:57:58.143Z</time>
      </trkpt>
      <trkpt lat="41.93676192896" lon="2.83021682288">
        <ele>118.41</ele>
        <time>2022-01-27T16:57:59.070Z</time>
      </trkpt>
      <trkpt lat="41.9367761452" lon="2.8301934079">
        <ele>122.46</ele>
        <time>2022-01-27T16:57:59.998Z</time>
      </trkpt>
      <trkpt lat="41.9367761452" lon="2.8301934079">
        <ele>122.46</ele>
        <time>2022-01-27T16:58:00.926Z</time>
      </trkpt>
      <trkpt lat="41.93683130422" lon="2.83010255776">
        <ele>122.23</ele>
        <time>2022-01-27T16:58:01.855Z</time>
      </trkpt>
      <trkpt lat="41.93683130422" lon="2.83010255776">
        <ele>122.23</ele>
        <time>2022-01-27T16:58:02.784Z</time>
      </trkpt>
      <trkpt lat="41.93688703188" lon="2.83001077103">
        <ele>121.91</ele>
        <time>2022-01-27T16:58:03.715Z</time>
      </trkpt>
      <trkpt lat="41.93688703188" lon="2.83001077103">
        <ele>121.91</ele>
        <time>2022-01-27T16:58:04.646Z</time>
      </trkpt>
      <trkpt lat="41.93691489571" lon="2.82996487766">
        <ele>121.72</ele>
        <time>2022-01-27T16:58:05.577Z</time>
      </trkpt>
      <trkpt lat="41.93691489571" lon="2.82996487766">
        <ele>121.72</ele>
        <time>2022-01-27T16:58:06.508Z</time>
      </trkpt>
      <trkpt lat="41.93693" lon="2.82994">
        <ele>121.59129902778</ele>
        <time>2022-01-27T16:58:07.440Z</time>
      </trkpt>
      <trkpt lat="41.93693" lon="2.82994">
        <ele>121.59129902778</ele>
        <time>2022-01-27T16:58:08.372Z</time>
      </trkpt>
      <trkpt lat="41.93698" lon="2.82993">
        <ele>121.31894441949</ele>
        <time>2022-01-27T16:58:09.304Z</time>
      </trkpt>
      <trkpt lat="41.93698" lon="2.82993">
        <ele>121.31894441949</ele>
        <time>2022-01-27T16:58:10.236Z</time>
      </trkpt>
      <trkpt lat="41.93699258072" lon="2.82993314518">
        <ele>121.25</ele>
        <time>2022-01-27T16:58:11.169Z</time>
      </trkpt>
      <trkpt lat="41.93699258072" lon="2.82993314518">
        <ele>121.25</ele>
        <time>2022-01-27T16:58:12.102Z</time>
      </trkpt>
      <trkpt lat="41.93703502054" lon="2.82994375513">
        <ele>120.49</ele>
        <time>2022-01-27T16:58:13.035Z</time>
      </trkpt>
      <trkpt lat="41.93703502054" lon="2.82994375513">
        <ele>120.49</ele>
        <time>2022-01-27T16:58:13.968Z</time>
      </trkpt>
      <trkpt lat="41.93707746036" lon="2.82995436509">
        <ele>119.68</ele>
        <time>2022-01-27T16:58:14.902Z</time>
      </trkpt>
      <trkpt lat="41.93707746036" lon="2.82995436509">
        <ele>119.68</ele>
        <time>2022-01-27T16:58:15.836Z</time>
      </trkpt>
      <trkpt lat="41.9371" lon="2.82996">
        <ele>119.1755714452</ele>
        <time>2022-01-27T16:58:16.770Z</time>
      </trkpt>
      <trkpt lat="41.9371" lon="2.82996">
        <ele>119.1755714452</ele>
        <time>2022-01-27T16:58:17.704Z</time>
      </trkpt>
      <trkpt lat="41.93711496931" lon="2.82997646624">
        <ele>118.75</ele>
        <time>2022-01-27T16:58:18.639Z</time>
      </trkpt>
      <trkpt lat="41.93711496931" lon="2.82997646624">
        <ele>118.75</ele>
        <time>2022-01-27T16:58:19.574Z</time>
      </trkpt>
      <trkpt lat="41.9371483777" lon="2.83001321547">
        <ele>117.7</ele>
        <time>2022-01-27T16:58:20.509Z</time>
      </trkpt>
      <trkpt lat="41.9371483777" lon="2.83001321547">
        <ele>117.7</ele>
        <time>2022-01-27T16:58:21.444Z</time>
      </trkpt>
      <trkpt lat="41.9372" lon="2.83007">
        <ele>115.95897794097</ele>
        <time>2022-01-27T16:58:22.381Z</time>
      </trkpt>
      <trkpt lat="41.9372" lon="2.83007">
        <ele>115.95897794097</ele>
        <time>2022-01-27T16:58:23.318Z</time>
      </trkpt>
      <trkpt lat="41.93720457876" lon="2.83009442003">
        <ele>115.47</ele>
        <time>2022-01-27T16:58:24.255Z</time>
      </trkpt>
      <trkpt lat="41.93720457876" lon="2.83009442003">
        <ele>115.47</ele>
        <time>2022-01-27T16:58:25.192Z</time>
      </trkpt>
      <trkpt lat="41.93721512944" lon="2.83015069036">
        <ele>114.58</ele>
        <time>2022-01-27T16:58:26.130Z</time>
      </trkpt>
      <trkpt lat="41.93721512944" lon="2.83015069036">
        <ele>114.58</ele>
        <time>2022-01-27T16:58:27.068Z</time>
      </trkpt>
      <trkpt lat="41.93722546032" lon="2.83020578838">
        <ele>113.96</ele>
        <time>2022-01-27T16:58:28.006Z</time>
      </trkpt>
      <trkpt lat="41.93722546032" lon="2.83020578838">
        <ele>113.96</ele>
        <time>2022-01-27T16:58:28.944Z</time>
      </trkpt>
      <trkpt lat="41.93723" lon="2.83023">
        <ele>113.7964961464</ele>
        <time>2022-01-27T16:58:29.882Z</time>
      </trkpt>
      <trkpt lat="41.93723" lon="2.83023">
        <ele>113.7964961464</ele>
        <time>2022-01-27T16:58:30.820Z</time>
      </trkpt>
      <trkpt lat="41.93724" lon="2.83024">
        <ele>113.68678210587</ele>
        <time>2022-01-27T16:58:31.759Z</time>
      </trkpt>
      <trkpt lat="41.93724" lon="2.83024">
        <ele>113.68678210587</ele>
        <time>2022-01-27T16:58:32.698Z</time>
      </trkpt>
      <trkpt lat="41.93723613569" lon="2.83025545726">
        <ele>113.58</ele>
        <time>2022-01-27T16:58:33.637Z</time>
      </trkpt>
      <trkpt lat="41.93723613569" lon="2.83025545726">
        <ele>113.58</ele>
        <time>2022-01-27T16:58:34.576Z</time>
      </trkpt>
      <trkpt lat="41.93722238395" lon="2.83031046422">
        <ele>113.39</ele>
        <time>2022-01-27T16:58:35.516Z</time>
      </trkpt>
      <trkpt lat="41.93722238395" lon="2.83031046422">
        <ele>113.39</ele>
        <time>2022-01-27T16:58:36.456Z</time>
      </trkpt>
      <trkpt lat="41.93721" lon="2.83036">
        <ele>113.34</ele>
        <time>2022-01-27T16:58:37.396Z</time>
      </trkpt>
      <trkpt lat="41.93721" lon="2.83036">
        <ele>113.34</ele>
        <time>2022-01-27T16:58:38.336Z</time>
      </trkpt>
      <trkpt lat="41.93720954134" lon="2.83036452107">
        <ele>113.34</ele>
        <time>2022-01-27T16:58:39.276Z</time>
      </trkpt>
      <trkpt lat="41.93720954134" lon="2.83036452107">
        <ele>113.34</ele>
        <time>2022-01-27T16:58:40.216Z</time>
      </trkpt>
      <trkpt lat="41.93720370821" lon="2.8304220191">
        <ele>113.4</ele>
        <time>2022-01-27T16:58:41.157Z</time>
      </trkpt>
      <trkpt lat="41.93720370821" lon="2.8304220191">
        <ele>113.4</ele>
        <time>2022-01-27T16:58:42.098Z</time>
      </trkpt>
      <trkpt lat="41.93719787507" lon="2.83047951713">
        <ele>113.54</ele>
        <time>2022-01-27T16:58:43.040Z</time>
      </trkpt>
      <trkpt lat="41.93719787507" lon="2.83047951713">
        <ele>113.54</ele>
        <time>2022-01-27T16:58:43.982Z</time>
      </trkpt>
      <trkpt lat="41.93719216346" lon="2.83053581728">
        <ele>113.74</ele>
        <time>2022-01-27T16:58:44.924Z</time>
      </trkpt>
      <trkpt lat="41.93719216346" lon="2.83053581728">
        <ele>113.74</ele>
        <time>2022-01-27T16:58:45.866Z</time>
      </trkpt>
      <trkpt lat="41.93718633033" lon="2.83059331531">
        <ele>114.0</ele>
        <time>2022-01-27T16:58:46.809Z</time>
      </trkpt>
      <trkpt lat="41.93718633033" lon="2.83059331531">
        <ele>114.0</ele>
        <time>2022-01-27T16:58:47.752Z</time>
      </trkpt>
      <trkpt lat="41.9371804972" lon="2.83065081334">
        <ele>114.31</ele>
        <time>2022-01-27T16:58:48.696Z</time>
      </trkpt>
      <trkpt lat="41.9371804972" lon="2.83065081334">
        <ele>114.31</ele>
        <time>2022-01-27T16:58:49.640Z</time>
      </trkpt>
      <trkpt lat="41.93717478559" lon="2.8307071135">
        <ele>114.64</ele>
        <time>2022-01-27T16:58:50.584Z</time>
      </trkpt>
      <trkpt lat="41.93717478559" lon="2.8307071135">
        <ele>114.64</ele>
        <time>2022-01-27T16:58:51.528Z</time>
      </trkpt>
      <trkpt lat="41.93716324084" lon="2.83082091168">
        <ele>115.38</ele>
        <time>2022-01-27T16:58:52.474Z</time>
      </trkpt>
      <trkpt lat="41.93716324084" lon="2.83082091168">
        <ele>115.38</ele>
        <time>2022-01-27T16:58:53.420Z</time>
      </trkpt>
      <trkpt lat="41.93715752923" lon="2.83087721184">
        <ele>115.88</ele>
        <time>2022-01-27T16:58:54.366Z</time>
      </trkpt>
      <trkpt lat="41.93715752923" lon="2.83087721184">
        <ele>115.88</ele>
        <time>2022-01-27T16:58:55.312Z</time>
      </trkpt>
      <trkpt lat="41.93715193915" lon="2.83093231412">
        <ele>116.42</ele>
        <time>2022-01-27T16:58:56.259Z</time>
      </trkpt>
      <trkpt lat="41.93715193915" lon="2.83093231412">
        <ele>116.42</ele>
        <time>2022-01-27T16:58:57.206Z</time>
      </trkpt>
      <trkpt lat="41.93714622754" lon="2.83098861427">
        <ele>117.07</ele>
        <time>2022-01-27T16:58:58.154Z</time>
      </trkpt>
      <trkpt lat="41.93714622754" lon="2.83098861427">
        <ele>117.07</ele>
        <time>2022-01-27T16:58:59.102Z</time>
      </trkpt>
      <trkpt lat="41.93714" lon="2.83105">
        <ele>117.81</ele>
        <time>2022-01-27T16:59:00.051Z</time>
      </trkpt>
      <trkpt lat="41.93714" lon="2.83105">
        <ele>117.81</ele>
        <time>2022-01-27T16:59:01.000Z</time>
      </trkpt>
      <trkpt lat="41.93717" lon="2.8312">
        <ele>120.28</ele>
        <time>2022-01-27T16:59:01.950Z</time>
      </trkpt>
      <trkpt lat="41.93717" lon="2.8312">
        <ele>120.28</ele>
        <time>2022-01-27T16:59:02.900Z</time>
      </trkpt>
      <trkpt lat="41.93717" lon="2.83120637746">
        <ele>120.28</ele>
        <time>2022-01-27T16:59:03.850Z</time>
      </trkpt>
      <trkpt lat="41.93717" lon="2.83120637746">
        <ele>120.28</ele>
        <time>2022-01-27T16:59:04.800Z</time>
      </trkpt>
      <trkpt lat="41.93717" lon="2.83126319876">
        <ele>121.02</ele>
        <time>2022-01-27T16:59:05.751Z</time>
      </trkpt>
      <trkpt lat="41.93717" lon="2.83126319876">
        <ele>121.02</ele>
        <time>2022-01-27T16:59:06.702Z</time>
      </trkpt>
      <trkpt lat="41.93717" lon="2.83131881111">
        <ele>121.67</ele>
        <time>2022-01-27T16:59:07.654Z</time>
      </trkpt>
      <trkpt lat="41.93717" lon="2.83131881111">
        <ele>121.67</ele>
        <time>2022-01-27T16:59:08.606Z</time>
      </trkpt>
      <trkpt lat="41.93717" lon="2.83137563241">
        <ele>122.24</ele>
        <time>2022-01-27T16:59:09.558Z</time>
      </trkpt>
      <trkpt lat="41.93717" lon="2.83137563241">
        <ele>122.24</ele>
        <time>2022-01-27T16:59:10.510Z</time>
      </trkpt>
      <trkpt lat="41.93717" lon="2.8314">
        <ele>122.44593928827</ele>
        <time>2022-01-27T16:59:11.463Z</time>
      </trkpt>
      <trkpt lat="41.93717" lon="2.8314">
        <ele>122.44593928827</ele>
        <time>2022-01-27T16:59:12.416Z</time>
      </trkpt>
      <trkpt lat="41.93715540815" lon="2.83142431975">
        <ele>122.71</ele>
        <time>2022-01-27T16:59:13.369Z</time>
      </trkpt>
      <trkpt lat="41.93715540815" lon="2.83142431975">
        <ele>122.71</ele>
        <time>2022-01-27T16:59:14.322Z</time>
      </trkpt>
      <trkpt lat="41.93712830699" lon="2.83146948834">
        <ele>123.08</ele>
        <time>2022-01-27T16:59:15.276Z</time>
      </trkpt>
      <trkpt lat="41.93712830699" lon="2.83146948834">
        <ele>123.08</ele>
        <time>2022-01-27T16:59:16.230Z</time>
      </trkpt>
      <trkpt lat="41.93710233505" lon="2.83151277491">
        <ele>123.36</ele>
        <time>2022-01-27T16:59:17.184Z</time>
      </trkpt>
      <trkpt lat="41.93710233505" lon="2.83151277491">
        <ele>123.36</ele>
        <time>2022-01-27T16:59:18.138Z</time>
      </trkpt>
      <trkpt lat="41.93708" lon="2.83155">
        <ele>123.57</ele>
        <time>2022-01-27T16:59:19.093Z</time>
      </trkpt>
      <trkpt lat="41.93708" lon="2.83155">
        <ele>123.57</ele>
        <time>2022-01-27T16:59:20.048Z</time>
      </trkpt>
      <trkpt lat="41.93708102903" lon="2.83155643142">
        <ele>123.57</ele>
        <time>2022-01-27T16:59:21.003Z</time>
      </trkpt>
      <trkpt lat="41.93708102903" lon="2.83155643142">
        <ele>123.57</ele>
        <time>2022-01-27T16:59:21.958Z</time>
      </trkpt>
      <trkpt lat="41.93709956172" lon="2.83167226074">
        <ele>123.83</ele>
        <time>2022-01-27T16:59:22.915Z</time>
      </trkpt>
      <trkpt lat="41.93709956172" lon="2.83167226074">
        <ele>123.83</ele>
        <time>2022-01-27T16:59:23.872Z</time>
      </trkpt>
      <trkpt lat="41.93710901717" lon="2.83173135733">
        <ele>123.91</ele>
        <time>2022-01-27T16:59:24.829Z</time>
      </trkpt>
      <trkpt lat="41.93710901717" lon="2.83173135733">
        <ele>123.91</ele>
        <time>2022-01-27T16:59:25.786Z</time>
      </trkpt>
      <trkpt lat="41.93712" lon="2.8318">
        <ele>123.92</ele>
        <time>2022-01-27T16:59:26.744Z</time>
      </trkpt>
      <trkpt lat="41.93712" lon="2.8318">
        <ele>123.92</ele>
        <time>2022-01-27T16:59:27.702Z</time>
      </trkpt>
      <trkpt lat="41.93712099298" lon="2.83182283862">
        <ele>123.88</ele>
        <time>2022-01-27T16:59:28.660Z</time>
      </trkpt>
      <trkpt lat="41.93712099298" lon="2.83182283862">
        <ele>123.88</ele>
        <time>2022-01-27T16:59:29.618Z</time>
      </trkpt>
      <trkpt lat="41.93712204247" lon="2.8318469767">
        <ele>123.86</ele>
        <time>2022-01-27T16:59:30.577Z</time>
      </trkpt>
      <trkpt lat="41.93712204247" lon="2.8318469767">
        <ele>123.86</ele>
        <time>2022-01-27T16:59:31.536Z</time>
      </trkpt>
      <trkpt lat="41.93712461369" lon="2.83190611497">
        <ele>123.69</ele>
        <time>2022-01-27T16:59:32.495Z</time>
      </trkpt>
      <trkpt lat="41.93712461369" lon="2.83190611497">
        <ele>123.69</ele>
        <time>2022-01-27T16:59:33.454Z</time>
      </trkpt>
      <trkpt lat="41.93712718492" lon="2.83196525324">
        <ele>123.38</ele>
        <time>2022-01-27T16:59:34.414Z</time>
      </trkpt>
      <trkpt lat="41.93712718492" lon="2.83196525324">
        <ele>123.38</ele>
        <time>2022-01-27T16:59:35.374Z</time>
      </trkpt>
      <trkpt lat="41.93712980863" lon="2.83202559842">
        <ele>122.92</ele>
        <time>2022-01-27T16:59:36.335Z</time>
      </trkpt>
      <trkpt lat="41.93712980863" lon="2.83202559842">
        <ele>122.92</ele>
        <time>2022-01-27T16:59:37.296Z</time>
      </trkpt>
      <trkpt lat="41.93713237986" lon="2.8320847367">
        <ele>122.34</ele>
        <time>2022-01-27T16:59:38.258Z</time>
      </trkpt>
      <trkpt lat="41.93713237986" lon="2.8320847367">
        <ele>122.34</ele>
        <time>2022-01-27T16:59:39.220Z</time>
      </trkpt>
      <trkpt lat="41.93714014602" lon="2.83226335842">
        <ele>120.24</ele>
        <time>2022-01-27T16:59:40.184Z</time>
      </trkpt>
      <trkpt lat="41.93714014602" lon="2.83226335842">
        <ele>120.24</ele>
        <time>2022-01-27T16:59:41.148Z</time>
      </trkpt>
      <trkpt lat="41.93714271725" lon="2.8323224967">
        <ele>119.58</ele>
        <time>2022-01-27T16:59:42.112Z</time>
      </trkpt>
      <trkpt lat="41.93714271725" lon="2.8323224967">
        <ele>119.58</ele>
        <time>2022-01-27T16:59:43.076Z</time>
      </trkpt>
      <trkpt lat="41.93714528848" lon="2.83238163497">
        <ele>118.97</ele>
        <time>2022-01-27T16:59:44.041Z</time>
      </trkpt>
      <trkpt lat="41.93714528848" lon="2.83238163497">
        <ele>118.97</ele>
        <time>2022-01-27T16:59:45.006Z</time>
      </trkpt>
      <trkpt lat="41.93715" lon="2.83249">
        <ele>117.86</ele>
        <time>2022-01-27T16:59:45.972Z</time>
      </trkpt>
      <trkpt lat="41.93715" lon="2.83249">
        <ele>117.86</ele>
        <time>2022-01-27T16:59:46.938Z</time>
      </trkpt>
      <trkpt lat="41.9371498496" lon="2.83249992638">
        <ele>117.86</ele>
        <time>2022-01-27T16:59:47.904Z</time>
      </trkpt>
      <trkpt lat="41.9371498496" lon="2.83249992638">
        <ele>117.86</ele>
        <time>2022-01-27T16:59:48.870Z</time>
      </trkpt>
      <trkpt lat="41.93714803653" lon="2.83261958895">
        <ele>116.89</ele>
        <time>2022-01-27T16:59:49.838Z</time>
      </trkpt>
      <trkpt lat="41.93714803653" lon="2.83261958895">
        <ele>116.89</ele>
        <time>2022-01-27T16:59:50.806Z</time>
      </trkpt>
      <trkpt lat="41.93714624178" lon="2.8327380428">
        <ele>116.03</ele>
        <time>2022-01-27T16:59:51.775Z</time>
      </trkpt>
      <trkpt lat="41.93714624178" lon="2.8327380428">
        <ele>116.03</ele>
        <time>2022-01-27T16:59:52.744Z</time>
      </trkpt>
      <trkpt lat="41.93714532608" lon="2.83279847844">
        <ele>115.64</ele>
        <time>2022-01-27T16:59:53.714Z</time>
      </trkpt>
      <trkpt lat="41.93714532608" lon="2.83279847844">
        <ele>115.64</ele>
        <time>2022-01-27T16:59:54.684Z</time>
      </trkpt>
      <trkpt lat="41.93714173657" lon="2.83303538615">
        <ele>114.23</ele>
        <time>2022-01-27T16:59:55.657Z</time>
      </trkpt>
      <trkpt lat="41.93714173657" lon="2.83303538615">
        <ele>114.23</ele>
        <time>2022-01-27T16:59:56.630Z</time>
      </trkpt>
      <trkpt lat="41.93714" lon="2.83315">
        <ele>113.48</ele>
        <time>2022-01-27T16:59:57.604Z</time>
      </trkpt>
      <trkpt lat="41.93714" lon="2.83315">
        <ele>113.48</ele>
        <time>2022-01-27T16:59:58.578Z</time>
      </trkpt>
      <trkpt lat="41.93713954881" lon="2.8331550132">
        <ele>113.48</ele>
        <time>2022-01-27T16:59:59.552Z</time>
      </trkpt>
      <trkpt lat="41.93713954881" lon="2.8331550132">
        <ele>113.48</ele>
        <time>2022-01-27T17:00:00.526Z</time>
      </trkpt>
      <trkpt lat="41.93713425589" lon="2.8332138235">
        <ele>113.08</ele>
        <time>2022-01-27T17:00:01.501Z</time>
      </trkpt>
      <trkpt lat="41.93713425589" lon="2.8332138235">
        <ele>113.08</ele>
        <time>2022-01-27T17:00:02.476Z</time>
      </trkpt>
      <trkpt lat="41.93712356201" lon="2.8333326443">
        <ele>112.23</ele>
        <time>2022-01-27T17:00:03.452Z</time>
      </trkpt>
      <trkpt lat="41.93712356201" lon="2.8333326443">
        <ele>112.23</ele>
        <time>2022-01-27T17:00:04.428Z</time>
      </trkpt>
      <trkpt lat="41.93709698936" lon="2.833627896">
        <ele>110.04</ele>
        <time>2022-01-27T17:00:05.408Z</time>
      </trkpt>
      <trkpt lat="41.93709698936" lon="2.833627896">
        <ele>110.04</ele>
        <time>2022-01-27T17:00:06.388Z</time>
      </trkpt>
      <trkpt lat="41.93708111058" lon="2.83380432689">
        <ele>108.79</ele>
        <time>2022-01-27T17:00:07.370Z</time>
      </trkpt>
      <trkpt lat="41.93708111058" lon="2.83380432689">
        <ele>108.79</ele>
        <time>2022-01-27T17:00:08.352Z</time>
      </trkpt>
      <trkpt lat="41.93706512378" lon="2.83398195799">
        <ele>107.67</ele>
        <time>2022-01-27T17:00:09.336Z</time>
      </trkpt>
      <trkpt lat="41.93706512378" lon="2.83398195799">
        <ele>107.67</ele>
        <time>2022-01-27T17:00:10.320Z</time>
      </trkpt>
      <trkpt lat="41.93705453793" lon="2.83409957859">
        <ele>107.01</ele>
        <time>2022-01-27T17:00:11.306Z</time>
      </trkpt>
      <trkpt lat="41.93705453793" lon="2.83409957859">
        <ele>107.01</ele>
        <time>2022-01-27T17:00:12.292Z</time>
      </trkpt>
      <trkpt lat="41.93705" lon="2.83415">
        <ele>106.69820343219</ele>
        <time>2022-01-27T17:00:13.278Z</time>
      </trkpt>
      <trkpt lat="41.93705" lon="2.83415">
        <ele>106.69820343219</ele>
        <time>2022-01-27T17:00:14.264Z</time>
      </trkpt>
      <trkpt lat="41.93706510456" lon="2.83425195578">
        <ele>106.06</ele>
        <time>2022-01-27T17:00:15.252Z</time>
      </trkpt>
      <trkpt lat="41.93706510456" lon="2.83425195578">
        <ele>106.06</ele>
        <time>2022-01-27T17:00:16.240Z</time>
      </trkpt>
      <trkpt lat="41.93708196752" lon="2.83436578076">
        <ele>106.69</ele>
        <time>2022-01-27T17:00:17.229Z</time>
      </trkpt>
      <trkpt lat="41.93708196752" lon="2.83436578076">
        <ele>106.69</ele>
        <time>2022-01-27T17:00:18.218Z</time>
      </trkpt>
      <trkpt lat="41.93709" lon="2.83442">
        <ele>106.96627642221</ele>
        <time>2022-01-27T17:00:19.208Z</time>
      </trkpt>
      <trkpt lat="41.93709" lon="2.83442">
        <ele>106.96627642221</ele>
        <time>2022-01-27T17:00:20.198Z</time>
      </trkpt>
      <trkpt lat="41.93709" lon="2.83448077634">
        <ele>107.27</ele>
        <time>2022-01-27T17:00:21.188Z</time>
      </trkpt>
      <trkpt lat="41.93709" lon="2.83448077634">
        <ele>107.27</ele>
        <time>2022-01-27T17:00:22.178Z</time>
      </trkpt>
      <trkpt lat="41.93709" lon="2.8346">
        <ele>107.78</ele>
        <time>2022-01-27T17:00:23.170Z</time>
      </trkpt>
      <trkpt lat="41.93709" lon="2.8346">
        <ele>107.78</ele>
        <time>2022-01-27T17:00:24.162Z</time>
      </trkpt>
      <trkpt lat="41.93702343922" lon="2.83474421501">
        <ele>108.49</ele>
        <time>2022-01-27T17:00:25.156Z</time>
      </trkpt>
      <trkpt lat="41.93702343922" lon="2.83474421501">
        <ele>108.49</ele>
        <time>2022-01-27T17:00:26.150Z</time>
      </trkpt>
      <trkpt lat="41.93700068073" lon="2.83479352509">
        <ele>108.76</ele>
        <time>2022-01-27T17:00:27.144Z</time>
      </trkpt>
      <trkpt lat="41.93700068073" lon="2.83479352509">
        <ele>108.76</ele>
        <time>2022-01-27T17:00:28.138Z</time>
      </trkpt>
      <trkpt lat="41.93697792223" lon="2.83484283517">
        <ele>109.06</ele>
        <time>2022-01-27T17:00:29.133Z</time>
      </trkpt>
      <trkpt lat="41.93697792223" lon="2.83484283517">
        <ele>109.06</ele>
        <time>2022-01-27T17:00:30.128Z</time>
      </trkpt>
      <trkpt lat="41.9369319311" lon="2.83494248262">
        <ele>109.72</ele>
        <time>2022-01-27T17:00:31.125Z</time>
      </trkpt>
      <trkpt lat="41.9369319311" lon="2.83494248262">
        <ele>109.72</ele>
        <time>2022-01-27T17:00:32.122Z</time>
      </trkpt>
      <trkpt lat="41.93691" lon="2.83499">
        <ele>110.06691201009</ele>
        <time>2022-01-27T17:00:33.119Z</time>
      </trkpt>
      <trkpt lat="41.93691" lon="2.83499">
        <ele>110.06691201009</ele>
        <time>2022-01-27T17:00:34.116Z</time>
      </trkpt>
      <trkpt lat="41.93689170611" lon="2.83504488166">
        <ele>110.44</ele>
        <time>2022-01-27T17:00:35.114Z</time>
      </trkpt>
      <trkpt lat="41.93689170611" lon="2.83504488166">
        <ele>110.44</ele>
        <time>2022-01-27T17:00:36.112Z</time>
      </trkpt>
      <trkpt lat="41.93687405398" lon="2.83509783806">
        <ele>110.82</ele>
        <time>2022-01-27T17:00:37.111Z</time>
      </trkpt>
      <trkpt lat="41.93687405398" lon="2.83509783806">
        <ele>110.82</ele>
        <time>2022-01-27T17:00:38.110Z</time>
      </trkpt>
      <trkpt lat="41.93685" lon="2.83517">
        <ele>111.39232011464</ele>
        <time>2022-01-27T17:00:39.110Z</time>
      </trkpt>
      <trkpt lat="41.93685" lon="2.83517">
        <ele>111.39232011464</ele>
        <time>2022-01-27T17:00:40.110Z</time>
      </trkpt>
      <trkpt lat="41.93684481133" lon="2.83520632072">
        <ele>111.66</ele>
        <time>2022-01-27T17:00:41.110Z</time>
      </trkpt>
      <trkpt lat="41.93684481133" lon="2.83520632072">
        <ele>111.66</ele>
        <time>2022-01-27T17:00:42.110Z</time>
      </trkpt>
      <trkpt lat="41.93683" lon="2.83531">
        <ele>112.57</ele>
        <time>2022-01-27T17:00:43.111Z</time>
      </trkpt>
      <trkpt lat="41.93683" lon="2.83531">
        <ele>112.57</ele>
        <time>2022-01-27T17:00:44.112Z</time>
      </trkpt>
      <trkpt lat="41.93683" lon="2.8353204861">
        <ele>112.57</ele>
        <time>2022-01-27T17:00:45.113Z</time>
      </trkpt>
      <trkpt lat="41.93683" lon="2.8353204861">
        <ele>112.57</ele>
        <time>2022-01-27T17:00:46.114Z</time>
      </trkpt>
      <trkpt lat="41.93683" lon="2.83544">
        <ele>113.57229999098</ele>
        <time>2022-01-27T17:00:47.117Z</time>
      </trkpt>
      <trkpt lat="41.93683" lon="2.83544">
        <ele>113.57229999098</ele>
        <time>2022-01-27T17:00:48.120Z</time>
      </trkpt>
      <trkpt lat="41.93684895907" lon="2.83548825944">
        <ele>114.03</ele>
        <time>2022-01-27T17:00:49.123Z</time>
      </trkpt>
      <trkpt lat="41.93684895907" lon="2.83548825944">
        <ele>114.03</ele>
        <time>2022-01-27T17:00:50.126Z</time>
      </trkpt>
      <trkpt lat="41.93689053687" lon="2.83559409386">
        <ele>115.09</ele>
        <time>2022-01-27T17:00:51.131Z</time>
      </trkpt>
      <trkpt lat="41.93689053687" lon="2.83559409386">
        <ele>115.09</ele>
        <time>2022-01-27T17:00:52.136Z</time>
      </trkpt>
      <trkpt lat="41.93694" lon="2.83572">
        <ele>116.39508060203</ele>
        <time>2022-01-27T17:00:53.143Z</time>
      </trkpt>
      <trkpt lat="41.93694" lon="2.83572">
        <ele>116.39508060203</ele>
        <time>2022-01-27T17:00:54.150Z</time>
      </trkpt>
      <trkpt lat="41.93695814094" lon="2.83574721141">
        <ele>116.73</ele>
        <time>2022-01-27T17:00:55.157Z</time>
      </trkpt>
      <trkpt lat="41.93695814094" lon="2.83574721141">
        <ele>116.73</ele>
        <time>2022-01-27T17:00:56.164Z</time>
      </trkpt>
      <trkpt lat="41.93698" lon="2.83578">
        <ele>117.10147533436</ele>
        <time>2022-01-27T17:00:57.172Z</time>
      </trkpt>
      <trkpt lat="41.93698" lon="2.83578">
        <ele>117.10147533436</ele>
        <time>2022-01-27T17:00:58.180Z</time>
      </trkpt>
      <trkpt lat="41.93699163652" lon="2.83578498708">
        <ele>117.24</ele>
        <time>2022-01-27T17:00:59.188Z</time>
      </trkpt>
      <trkpt lat="41.93699163652" lon="2.83578498708">
        <ele>117.24</ele>
        <time>2022-01-27T17:01:00.196Z</time>
      </trkpt>
      <trkpt lat="41.93703362133" lon="2.83580298057">
        <ele>117.71</ele>
        <time>2022-01-27T17:01:01.204Z</time>
      </trkpt>
      <trkpt lat="41.93703362133" lon="2.83580298057">
        <ele>117.71</ele>
        <time>2022-01-27T17:01:02.212Z</time>
      </trkpt>
      <trkpt lat="41.93705" lon="2.83581">
        <ele>117.87056907383</ele>
        <time>2022-01-27T17:01:03.221Z</time>
      </trkpt>
      <trkpt lat="41.93705" lon="2.83581">
        <ele>117.87056907383</ele>
        <time>2022-01-27T17:01:04.230Z</time>
      </trkpt>
      <trkpt lat="41.93705632312" lon="2.83577364206">
        <ele>118.13</ele>
        <time>2022-01-27T17:01:05.239Z</time>
      </trkpt>
      <trkpt lat="41.93705632312" lon="2.83577364206">
        <ele>118.13</ele>
        <time>2022-01-27T17:01:06.248Z</time>
      </trkpt>
      <trkpt lat="41.93706635506" lon="2.83571595838">
        <ele>118.51</ele>
        <time>2022-01-27T17:01:07.258Z</time>
      </trkpt>
      <trkpt lat="41.93706635506" lon="2.83571595838">
        <ele>118.51</ele>
        <time>2022-01-27T17:01:08.268Z</time>
      </trkpt>
      <trkpt lat="41.93710709704" lon="2.83548169203">
        <ele>120.0</ele>
        <time>2022-01-27T17:01:09.281Z</time>
      </trkpt>
      <trkpt lat="41.93710709704" lon="2.83548169203">
        <ele>120.0</ele>
        <time>2022-01-27T17:01:10.294Z</time>
      </trkpt>
      <trkpt lat="41.93712736566" lon="2.83536514746">
        <ele>120.83</ele>
        <time>2022-01-27T17:01:11.308Z</time>
      </trkpt>
      <trkpt lat="41.93712736566" lon="2.83536514746">
        <ele>120.83</ele>
        <time>2022-01-27T17:01:12.322Z</time>
      </trkpt>
      <trkpt lat="41.93713" lon="2.83535">
        <ele>120.95347279533</ele>
        <time>2022-01-27T17:01:13.336Z</time>
      </trkpt>
      <trkpt lat="41.93713" lon="2.83535">
        <ele>120.95347279533</ele>
        <time>2022-01-27T17:01:14.350Z</time>
      </trkpt>
      <trkpt lat="41.93716486918" lon="2.83525701551">
        <ele>121.78</ele>
        <time>2022-01-27T17:01:15.366Z</time>
      </trkpt>
      <trkpt lat="41.93716486918" lon="2.83525701551">
        <ele>121.78</ele>
        <time>2022-01-27T17:01:16.382Z</time>
      </trkpt>
      <trkpt lat="41.93719" lon="2.83519">
        <ele>122.43839673522</ele>
        <time>2022-01-27T17:01:17.398Z</time>
      </trkpt>
      <trkpt lat="41.93719" lon="2.83519">
        <ele>122.43839673522</ele>
        <time>2022-01-27T17:01:18.414Z</time>
      </trkpt>
      <trkpt lat="41.93721431718" lon="2.83515960353">
        <ele>122.83</ele>
        <time>2022-01-27T17:01:19.431Z</time>
      </trkpt>
      <trkpt lat="41.93721431718" lon="2.83515960353">
        <ele>122.83</ele>
        <time>2022-01-27T17:01:20.448Z</time>
      </trkpt>
      <trkpt lat="41.93724658852" lon="2.83511926435">
        <ele>123.31</ele>
        <time>2022-01-27T17:01:21.466Z</time>
      </trkpt>
      <trkpt lat="41.93724658852" lon="2.83511926435">
        <ele>123.31</ele>
        <time>2022-01-27T17:01:22.484Z</time>
      </trkpt>
      <trkpt lat="41.93727951846" lon="2.83507810193">
        <ele>123.73</ele>
        <time>2022-01-27T17:01:23.502Z</time>
      </trkpt>
      <trkpt lat="41.93727951846" lon="2.83507810193">
        <ele>123.73</ele>
        <time>2022-01-27T17:01:24.520Z</time>
      </trkpt>
      <trkpt lat="41.9373117898" lon="2.83503776275">
        <ele>124.07</ele>
        <time>2022-01-27T17:01:25.539Z</time>
      </trkpt>
      <trkpt lat="41.9373117898" lon="2.83503776275">
        <ele>124.07</ele>
        <time>2022-01-27T17:01:26.558Z</time>
      </trkpt>
      <trkpt lat="41.93734471974" lon="2.83499660033">
        <ele>124.34</ele>
        <time>2022-01-27T17:01:27.578Z</time>
      </trkpt>
      <trkpt lat="41.93734471974" lon="2.83499660033">
        <ele>124.34</ele>
        <time>2022-01-27T17:01:28.598Z</time>
      </trkpt>
      <trkpt lat="41.93740992102" lon="2.83491509872">
        <ele>124.78</ele>
        <time>2022-01-27T17:01:29.619Z</time>
      </trkpt>
      <trkpt lat="41.93740992102" lon="2.83491509872">
        <ele>124.78</ele>
        <time>2022-01-27T17:01:30.640Z</time>
      </trkpt>
      <trkpt lat="41.93743" lon="2.83489">
        <ele>124.88470427014</ele>
        <time>2022-01-27T17:01:31.662Z</time>
      </trkpt>
      <trkpt lat="41.93743" lon="2.83489">
        <ele>124.88470427014</ele>
        <time>2022-01-27T17:01:32.684Z</time>
      </trkpt>
      <trkpt lat="41.93744962854" lon="2.83481148583">
        <ele>125.12</ele>
        <time>2022-01-27T17:01:33.707Z</time>
      </trkpt>
      <trkpt lat="41.93744962854" lon="2.83481148583">
        <ele>125.12</ele>
        <time>2022-01-27T17:01:34.730Z</time>
      </trkpt>
      <trkpt lat="41.93746" lon="2.83477">
        <ele>125.22860336418</ele>
        <time>2022-01-27T17:01:35.753Z</time>
      </trkpt>
      <trkpt lat="41.93746" lon="2.83477">
        <ele>125.22860336418</ele>
        <time>2022-01-27T17:01:36.776Z</time>
      </trkpt>
      <trkpt lat="41.93745834663" lon="2.83475346631">
        <ele>125.27</ele>
        <time>2022-01-27T17:01:37.799Z</time>
      </trkpt>
      <trkpt lat="41.93745834663" lon="2.83475346631">
        <ele>125.27</ele>
        <time>2022-01-27T17:01:38.822Z</time>
      </trkpt>
      <trkpt lat="41.9374524755" lon="2.83469475495">
        <ele>125.4</ele>
        <time>2022-01-27T17:01:39.846Z</time>
      </trkpt>
      <trkpt lat="41.9374524755" lon="2.83469475495">
        <ele>125.4</ele>
        <time>2022-01-27T17:01:40.870Z</time>
      </trkpt>
      <trkpt lat="41.93744648454" lon="2.8346348454">
        <ele>125.5</ele>
        <time>2022-01-27T17:01:41.895Z</time>
      </trkpt>
      <trkpt lat="41.93744648454" lon="2.8346348454">
        <ele>125.5</ele>
        <time>2022-01-27T17:01:42.920Z</time>
      </trkpt>
      <trkpt lat="41.9374406134" lon="2.83457613405">
        <ele>125.57</ele>
        <time>2022-01-27T17:01:43.946Z</time>
      </trkpt>
      <trkpt lat="41.9374406134" lon="2.83457613405">
        <ele>125.57</ele>
        <time>2022-01-27T17:01:44.972Z</time>
      </trkpt>
      <trkpt lat="41.93743" lon="2.83447">
        <ele>125.62368398351</ele>
        <time>2022-01-27T17:01:45.999Z</time>
      </trkpt>
      <trkpt lat="41.93743" lon="2.83447">
        <ele>125.62368398351</ele>
        <time>2022-01-27T17:01:47.026Z</time>
      </trkpt>
      <trkpt lat="41.93742756658" lon="2.83445783291">
        <ele>125.63</ele>
        <time>2022-01-27T17:01:48.053Z</time>
      </trkpt>
      <trkpt lat="41.93742756658" lon="2.83445783291">
        <ele>125.63</ele>
        <time>2022-01-27T17:01:49.080Z</time>
      </trkpt>
      <trkpt lat="41.93741589151" lon="2.83439945755">
        <ele>125.62</ele>
        <time>2022-01-27T17:01:50.108Z</time>
      </trkpt>
      <trkpt lat="41.93741589151" lon="2.83439945755">
        <ele>125.62</ele>
        <time>2022-01-27T17:01:51.136Z</time>
      </trkpt>
      <trkpt lat="41.9374" lon="2.83432">
        <ele>125.57187857271</ele>
        <time>2022-01-27T17:01:52.165Z</time>
      </trkpt>
      <trkpt lat="41.9374" lon="2.83432">
        <ele>125.57187857271</ele>
        <time>2022-01-27T17:01:53.194Z</time>
      </trkpt>
      <trkpt lat="41.93740177772" lon="2.83428266784">
        <ele>125.55</ele>
        <time>2022-01-27T17:01:54.223Z</time>
      </trkpt>
      <trkpt lat="41.93740177772" lon="2.83428266784">
        <ele>125.55</ele>
        <time>2022-01-27T17:01:55.252Z</time>
      </trkpt>
      <trkpt lat="41.93740465034" lon="2.83422234288">
        <ele>125.48</ele>
        <time>2022-01-27T17:01:56.282Z</time>
      </trkpt>
      <trkpt lat="41.93740465034" lon="2.83422234288">
        <ele>125.48</ele>
        <time>2022-01-27T17:01:57.312Z</time>
      </trkpt>
      <trkpt lat="41.9374074655" lon="2.83416322442">
        <ele>125.39</ele>
        <time>2022-01-27T17:01:58.343Z</time>
      </trkpt>
      <trkpt lat="41.9374074655" lon="2.83416322442">
        <ele>125.39</ele>
        <time>2022-01-27T17:01:59.374Z</time>
      </trkpt>
      <trkpt lat="41.93741033812" lon="2.83410289946">
        <ele>125.27</ele>
        <time>2022-01-27T17:02:00.405Z</time>
      </trkpt>
      <trkpt lat="41.93741033812" lon="2.83410289946">
        <ele>125.27</ele>
        <time>2022-01-27T17:02:01.436Z</time>
      </trkpt>
      <trkpt lat="41.93741884107" lon="2.83392433758">
        <ele>124.84</ele>
        <time>2022-01-27T17:02:02.469Z</time>
      </trkpt>
      <trkpt lat="41.93741884107" lon="2.83392433758">
        <ele>124.84</ele>
        <time>2022-01-27T17:02:03.502Z</time>
      </trkpt>
      <trkpt lat="41.93742171368" lon="2.83386401262">
        <ele>124.73</ele>
        <time>2022-01-27T17:02:04.536Z</time>
      </trkpt>
      <trkpt lat="41.93742171368" lon="2.83386401262">
        <ele>124.73</ele>
        <time>2022-01-27T17:02:05.570Z</time>
      </trkpt>
      <trkpt lat="41.93742452885" lon="2.83380489416">
        <ele>124.65</ele>
        <time>2022-01-27T17:02:06.605Z</time>
      </trkpt>
      <trkpt lat="41.93742452885" lon="2.83380489416">
        <ele>124.65</ele>
        <time>2022-01-27T17:02:07.640Z</time>
      </trkpt>
      <trkpt lat="41.93742740147" lon="2.8337445692">
        <ele>124.6</ele>
        <time>2022-01-27T17:02:08.676Z</time>
      </trkpt>
      <trkpt lat="41.93742740147" lon="2.8337445692">
        <ele>124.6</ele>
        <time>2022-01-27T17:02:09.712Z</time>
      </trkpt>
      <trkpt lat="41.93743596187" lon="2.83356480082">
        <ele>124.58</ele>
        <time>2022-01-27T17:02:10.750Z</time>
      </trkpt>
      <trkpt lat="41.93743596187" lon="2.83356480082">
        <ele>124.58</ele>
        <time>2022-01-27T17:02:11.788Z</time>
      </trkpt>
      <trkpt lat="41.93743877703" lon="2.83350568236">
        <ele>124.54</ele>
        <time>2022-01-27T17:02:12.826Z</time>
      </trkpt>
      <trkpt lat="41.93743877703" lon="2.83350568236">
        <ele>124.54</ele>
        <time>2022-01-27T17:02:13.864Z</time>
      </trkpt>
      <trkpt lat="41.93744" lon="2.83348">
        <ele>124.51019864474</ele>
        <time>2022-01-27T17:02:14.903Z</time>
      </trkpt>
      <trkpt lat="41.93744" lon="2.83348">
        <ele>124.51019864474</ele>
        <time>2022-01-27T17:02:15.942Z</time>
      </trkpt>
      <trkpt lat="41.9374544051" lon="2.8334511898">
        <ele>124.47</ele>
        <time>2022-01-27T17:02:16.981Z</time>
      </trkpt>
      <trkpt lat="41.9374544051" lon="2.8334511898">
        <ele>124.47</ele>
        <time>2022-01-27T17:02:18.020Z</time>
      </trkpt>
      <trkpt lat="41.93749" lon="2.83338">
        <ele>124.28366563352</ele>
        <time>2022-01-27T17:02:19.060Z</time>
      </trkpt>
      <trkpt lat="41.93749" lon="2.83338">
        <ele>124.28366563352</ele>
        <time>2022-01-27T17:02:20.100Z</time>
      </trkpt>
      <trkpt lat="41.93751023987" lon="2.83335976013">
        <ele>124.21</ele>
        <time>2022-01-27T17:02:21.141Z</time>
      </trkpt>
      <trkpt lat="41.93751023987" lon="2.83335976013">
        <ele>124.21</ele>
        <time>2022-01-27T17:02:22.182Z</time>
      </trkpt>
      <trkpt lat="41.93758023258" lon="2.83328976742">
        <ele>123.52</ele>
        <time>2022-01-27T17:02:23.224Z</time>
      </trkpt>
      <trkpt lat="41.93758023258" lon="2.83328976742">
        <ele>123.52</ele>
        <time>2022-01-27T17:02:24.266Z</time>
      </trkpt>
      <trkpt lat="41.93761558971" lon="2.83325441029">
        <ele>123.11</ele>
        <time>2022-01-27T17:02:25.309Z</time>
      </trkpt>
      <trkpt lat="41.93761558971" lon="2.83325441029">
        <ele>123.11</ele>
        <time>2022-01-27T17:02:26.352Z</time>
      </trkpt>
      <trkpt lat="41.93765094685" lon="2.83321905315">
        <ele>122.64</ele>
        <time>2022-01-27T17:02:27.395Z</time>
      </trkpt>
      <trkpt lat="41.93765094685" lon="2.83321905315">
        <ele>122.64</ele>
        <time>2022-01-27T17:02:28.438Z</time>
      </trkpt>
      <trkpt lat="41.93768630399" lon="2.83318369601">
        <ele>122.1</ele>
        <time>2022-01-27T17:02:29.482Z</time>
      </trkpt>
      <trkpt lat="41.93768630399" lon="2.83318369601">
        <ele>122.1</ele>
        <time>2022-01-27T17:02:30.526Z</time>
      </trkpt>
      <trkpt lat="41.9377" lon="2.83317">
        <ele>121.85878646991</ele>
        <time>2022-01-27T17:02:31.570Z</time>
      </trkpt>
      <trkpt lat="41.9377" lon="2.83317">
        <ele>121.85878646991</ele>
        <time>2022-01-27T17:02:32.614Z</time>
      </trkpt>
      <trkpt lat="41.93771741772" lon="2.83314387342">
        <ele>121.49</ele>
        <time>2022-01-27T17:02:33.659Z</time>
      </trkpt>
      <trkpt lat="41.93771741772" lon="2.83314387342">
        <ele>121.49</ele>
        <time>2022-01-27T17:02:34.704Z</time>
      </trkpt>
      <trkpt lat="41.93774682813" lon="2.83309975781">
        <ele>120.81</ele>
        <time>2022-01-27T17:02:35.750Z</time>
      </trkpt>
      <trkpt lat="41.93774682813" lon="2.83309975781">
        <ele>120.81</ele>
        <time>2022-01-27T17:02:36.796Z</time>
      </trkpt>
      <trkpt lat="41.93783505935" lon="2.83296741097">
        <ele>118.53</ele>
        <time>2022-01-27T17:02:37.844Z</time>
      </trkpt>
      <trkpt lat="41.93783505935" lon="2.83296741097">
        <ele>118.53</ele>
        <time>2022-01-27T17:02:38.892Z</time>
      </trkpt>
      <trkpt lat="41.93786386955" lon="2.83292419568">
        <ele>117.81</ele>
        <time>2022-01-27T17:02:39.940Z</time>
      </trkpt>
      <trkpt lat="41.93786386955" lon="2.83292419568">
        <ele>117.81</ele>
        <time>2022-01-27T17:02:40.988Z</time>
      </trkpt>
      <trkpt lat="41.93789327996" lon="2.83288008006">
        <ele>117.16</ele>
        <time>2022-01-27T17:02:42.037Z</time>
      </trkpt>
      <trkpt lat="41.93789327996" lon="2.83288008006">
        <ele>117.16</ele>
        <time>2022-01-27T17:02:43.086Z</time>
      </trkpt>
      <trkpt lat="41.93792269037" lon="2.83283596445">
        <ele>116.55</ele>
        <time>2022-01-27T17:02:44.136Z</time>
      </trkpt>
      <trkpt lat="41.93792269037" lon="2.83283596445">
        <ele>116.55</ele>
        <time>2022-01-27T17:02:45.186Z</time>
      </trkpt>
      <trkpt lat="41.93795210077" lon="2.83279184884">
        <ele>115.99</ele>
        <time>2022-01-27T17:02:46.236Z</time>
      </trkpt>
      <trkpt lat="41.93795210077" lon="2.83279184884">
        <ele>115.99</ele>
        <time>2022-01-27T17:02:47.286Z</time>
      </trkpt>
      <trkpt lat="41.93798" lon="2.83275">
        <ele>115.48248967372</ele>
        <time>2022-01-27T17:02:48.337Z</time>
      </trkpt>
      <trkpt lat="41.93798" lon="2.83275">
        <ele>115.48248967372</ele>
        <time>2022-01-27T17:02:49.388Z</time>
      </trkpt>
      <trkpt lat="41.93801585697" lon="2.83278944267">
        <ele>114.92</ele>
        <time>2022-01-27T17:02:50.440Z</time>
      </trkpt>
      <trkpt lat="41.93801585697" lon="2.83278944267">
        <ele>114.92</ele>
        <time>2022-01-27T17:02:51.492Z</time>
      </trkpt>
      <trkpt lat="41.93808" lon="2.83286">
        <ele>113.76</ele>
        <time>2022-01-27T17:02:52.545Z</time>
      </trkpt>
      <trkpt lat="41.93808" lon="2.83286">
        <ele>113.76</ele>
        <time>2022-01-27T17:02:53.598Z</time>
      </trkpt>
      <trkpt lat="41.93807808756" lon="2.8328652592">
        <ele>113.76</ele>
        <time>2022-01-27T17:02:54.651Z</time>
      </trkpt>
      <trkpt lat="41.93807808756" lon="2.8328652592">
        <ele>113.76</ele>
        <time>2022-01-27T17:02:55.704Z</time>
      </trkpt>
      <trkpt lat="41.93805873438" lon="2.83291848046">
        <ele>113.11</ele>
        <time>2022-01-27T17:02:56.758Z</time>
      </trkpt>
      <trkpt lat="41.93805873438" lon="2.83291848046">
        <ele>113.11</ele>
        <time>2022-01-27T17:02:57.812Z</time>
      </trkpt>
      <trkpt lat="41.93804" lon="2.83297">
        <ele>112.4</ele>
        <time>2022-01-27T17:02:58.867Z</time>
      </trkpt>
      <trkpt lat="41.93804" lon="2.83297">
        <ele>112.4</ele>
        <time>2022-01-27T17:02:59.922Z</time>
      </trkpt>
      <trkpt lat="41.93803969194" lon="2.83297184835">
        <ele>112.4</ele>
        <time>2022-01-27T17:03:00.977Z</time>
      </trkpt>
      <trkpt lat="41.93803969194" lon="2.83297184835">
        <ele>112.4</ele>
        <time>2022-01-27T17:03:02.032Z</time>
      </trkpt>
      <trkpt lat="41.93802" lon="2.83309">
        <ele>110.87029165634</ele>
        <time>2022-01-27T17:03:03.088Z</time>
      </trkpt>
      <trkpt lat="41.93802" lon="2.83309">
        <ele>110.87029165634</ele>
        <time>2022-01-27T17:03:04.144Z</time>
      </trkpt>
      <trkpt lat="41.93803313555" lon="2.83314254221">
        <ele>110.17</ele>
        <time>2022-01-27T17:03:05.201Z</time>
      </trkpt>
      <trkpt lat="41.93803313555" lon="2.83314254221">
        <ele>110.17</ele>
        <time>2022-01-27T17:03:06.258Z</time>
      </trkpt>
      <trkpt lat="41.93804717395" lon="2.83319869579">
        <ele>109.46</ele>
        <time>2022-01-27T17:03:07.315Z</time>
      </trkpt>
      <trkpt lat="41.93804717395" lon="2.83319869579">
        <ele>109.46</ele>
        <time>2022-01-27T17:03:08.372Z</time>
      </trkpt>
      <trkpt lat="41.93806" lon="2.83325">
        <ele>108.79</ele>
        <time>2022-01-27T17:03:09.430Z</time>
      </trkpt>
      <trkpt lat="41.93806" lon="2.83325">
        <ele>108.79</ele>
        <time>2022-01-27T17:03:10.488Z</time>
      </trkpt>
      <trkpt lat="41.93806" lon="2.83325511591">
        <ele>108.79</ele>
        <time>2022-01-27T17:03:11.546Z</time>
      </trkpt>
      <trkpt lat="41.93806" lon="2.83325511591">
        <ele>108.79</ele>
        <time>2022-01-27T17:03:12.604Z</time>
      </trkpt>
      <trkpt lat="41.93806" lon="2.83338">
        <ele>107.57</ele>
        <time>2022-01-27T17:03:13.664Z</time>
      </trkpt>
      <trkpt lat="41.93806" lon="2.83338">
        <ele>107.57</ele>
        <time>2022-01-27T17:03:14.724Z</time>
      </trkpt>
      <trkpt lat="41.93807487424" lon="2.83342759757">
        <ele>107.01</ele>
        <time>2022-01-27T17:03:15.784Z</time>
      </trkpt>
      <trkpt lat="41.93807487424" lon="2.83342759757">
        <ele>107.01</ele>
        <time>2022-01-27T17:03:16.844Z</time>
      </trkpt>
      <trkpt lat="41.93811" lon="2.83354">
        <ele>105.96</ele>
        <time>2022-01-27T17:03:17.906Z</time>
      </trkpt>
      <trkpt lat="41.93811" lon="2.83354">
        <ele>105.96</ele>
        <time>2022-01-27T17:03:18.968Z</time>
      </trkpt>
      <trkpt lat="41.93809" lon="2.83367">
        <ele>105.96</ele>
        <time>2022-01-27T17:03:20.031Z</time>
      </trkpt>
      <trkpt lat="41.93809" lon="2.83367">
        <ele>105.96</ele>
        <time>2022-01-27T17:03:21.094Z</time>
      </trkpt>
      <trkpt lat="41.93801" lon="2.83376">
        <ele>105.96</ele>
        <time>2022-01-27T17:03:22.159Z</time>
      </trkpt>
      <trkpt lat="41.93801" lon="2.83376">
        <ele>105.96</ele>
        <time>2022-01-27T17:03:23.224Z</time>
      </trkpt>
      <trkpt lat="41.93791" lon="2.83378">
        <ele>105.96</ele>
        <time>2022-01-27T17:03:24.291Z</time>
      </trkpt>
      <trkpt lat="41.93791" lon="2.83378">
        <ele>105.96</ele>
        <time>2022-01-27T17:03:25.358Z</time>
      </trkpt>
      <trkpt lat="41.93785" lon="2.8339">
        <ele>105.96</ele>
        <time>2022-01-27T17:03:26.426Z</time>
      </trkpt>
      <trkpt lat="41.93785" lon="2.8339">
        <ele>105.96</ele>
        <time>2022-01-27T17:03:27.494Z</time>
      </trkpt>
      <trkpt lat="41.93776" lon="2.83397">
        <ele>105.96</ele>
        <time>2022-01-27T17:03:28.564Z</time>
      </trkpt>
      <trkpt lat="41.93776" lon="2.83397">
        <ele>105.96</ele>
        <time>2022-01-27T17:03:29.634Z</time>
      </trkpt>
      <trkpt lat="41.93766" lon="2.83401">
        <ele>105.96</ele>
        <time>2022-01-27T17:03:30.706Z</time>
      </trkpt>
      <trkpt lat="41.93766" lon="2.83401">
        <ele>105.96</ele>
        <time>2022-01-27T17:03:31.778Z</time>
      </trkpt>
      <trkpt lat="41.93761" lon="2.83413">
        <ele>105.96</ele>
        <time>2022-01-27T17:03:32.851Z</time>
      </trkpt>
      <trkpt lat="41.93761" lon="2.83413">
        <ele>105.96</ele>
        <time>2022-01-27T17:03:33.924Z</time>
      </trkpt>
      <trkpt lat="41.93761" lon="2.83429">
        <ele>105.96</ele>
        <time>2022-01-27T17:03:34.999Z</time>
      </trkpt>
      <trkpt lat="41.93761" lon="2.83429">
        <ele>105.96</ele>
        <time>2022-01-27T17:03:36.074Z</time>
      </trkpt>
      <trkpt lat="41.93767" lon="2.83439">
        <ele>105.96</ele>
        <time>2022-01-27T17:03:37.151Z</time>
      </trkpt>
      <trkpt lat="41.93767" lon="2.83439">
        <ele>105.96</ele>
        <time>2022-01-27T17:03:38.228Z</time>
      </trkpt>
      <trkpt lat="41.93788" lon="2.83452">
        <ele>105.96</ele>
        <time>2022-01-27T17:03:39.308Z</time>
      </trkpt>
      <trkpt lat="41.93788" lon="2.83452">
        <ele>105.96</ele>
        <time>2022-01-27T17:03:40.388Z</time>
      </trkpt>
      <trkpt lat="41.93799020445" lon="2.83464857185">
        <ele>105.96</ele>
        <time>2022-01-27T17:03:41.471Z</time>
      </trkpt>
      <trkpt lat="41.93799020445" lon="2.83464857185">
        <ele>105.96</ele>
        <time>2022-01-27T17:03:42.554Z</time>
      </trkpt>
      <trkpt lat="41.938" lon="2.83466">
        <ele>106.05976837119</ele>
        <time>2022-01-27T17:03:43.637Z</time>
      </trkpt>
      <trkpt lat="41.938" lon="2.83466">
        <ele>106.05976837119</ele>
        <time>2022-01-27T17:03:44.720Z</time>
      </trkpt>
      <trkpt lat="41.93805" lon="2.8346">
        <ele>106.57532246389</ele>
        <time>2022-01-27T17:03:45.804Z</time>
      </trkpt>
      <trkpt lat="41.93805" lon="2.8346">
        <ele>106.57532246389</ele>
        <time>2022-01-27T17:03:46.888Z</time>
      </trkpt>
      <trkpt lat="41.93809612252" lon="2.83456978179">
        <ele>106.97</ele>
        <time>2022-01-27T17:03:47.973Z</time>
      </trkpt>
      <trkpt lat="41.93809612252" lon="2.83456978179">
        <ele>106.97</ele>
        <time>2022-01-27T17:03:49.058Z</time>
      </trkpt>
      <trkpt lat="41.93817453965" lon="2.83451840506">
        <ele>107.68</ele>
        <time>2022-01-27T17:03:50.144Z</time>
      </trkpt>
      <trkpt lat="41.93817453965" lon="2.83451840506">
        <ele>107.68</ele>
        <time>2022-01-27T17:03:51.230Z</time>
      </trkpt>
      <trkpt lat="41.93825214835" lon="2.83446755798">
        <ele>108.47</ele>
        <time>2022-01-27T17:03:52.318Z</time>
      </trkpt>
      <trkpt lat="41.93825214835" lon="2.83446755798">
        <ele>108.47</ele>
        <time>2022-01-27T17:03:53.406Z</time>
      </trkpt>
      <trkpt lat="41.93833056547" lon="2.83441618124">
        <ele>109.35</ele>
        <time>2022-01-27T17:03:54.495Z</time>
      </trkpt>
      <trkpt lat="41.93833056547" lon="2.83441618124">
        <ele>109.35</ele>
        <time>2022-01-27T17:03:55.584Z</time>
      </trkpt>
      <trkpt lat="41.93834" lon="2.83441">
        <ele>109.46432107012</ele>
        <time>2022-01-27T17:03:56.673Z</time>
      </trkpt>
      <trkpt lat="41.93834" lon="2.83441">
        <ele>109.46432107012</ele>
        <time>2022-01-27T17:03:57.762Z</time>
      </trkpt>
      <trkpt lat="41.93837350714" lon="2.83441279226">
        <ele>109.83</ele>
        <time>2022-01-27T17:03:58.852Z</time>
      </trkpt>
      <trkpt lat="41.93837350714" lon="2.83441279226">
        <ele>109.83</ele>
        <time>2022-01-27T17:03:59.942Z</time>
      </trkpt>
      <trkpt lat="41.93858" lon="2.83443">
        <ele>112.2160569693</ele>
        <time>2022-01-27T17:04:01.035Z</time>
      </trkpt>
      <trkpt lat="41.93858" lon="2.83443">
        <ele>112.2160569693</ele>
        <time>2022-01-27T17:04:02.128Z</time>
      </trkpt>
      <trkpt lat="41.93859037398" lon="2.83442622764">
        <ele>112.34</ele>
        <time>2022-01-27T17:04:03.221Z</time>
      </trkpt>
      <trkpt lat="41.93859037398" lon="2.83442622764">
        <ele>112.34</ele>
        <time>2022-01-27T17:04:04.314Z</time>
      </trkpt>
      <trkpt lat="41.93869" lon="2.83439">
        <ele>113.44619334171</ele>
        <time>2022-01-27T17:04:05.409Z</time>
      </trkpt>
      <trkpt lat="41.93869" lon="2.83439">
        <ele>113.44619334171</ele>
        <time>2022-01-27T17:04:06.504Z</time>
      </trkpt>
      <trkpt lat="41.9387375611" lon="2.83431865836">
        <ele>114.21</ele>
        <time>2022-01-27T17:04:07.600Z</time>
      </trkpt>
      <trkpt lat="41.9387375611" lon="2.83431865836">
        <ele>114.21</ele>
        <time>2022-01-27T17:04:08.696Z</time>
      </trkpt>
      <trkpt lat="41.93875" lon="2.8343">
        <ele>114.42155760972</ele>
        <time>2022-01-27T17:04:09.792Z</time>
      </trkpt>
      <trkpt lat="41.93875" lon="2.8343">
        <ele>114.42155760972</ele>
        <time>2022-01-27T17:04:10.888Z</time>
      </trkpt>
      <trkpt lat="41.9387700588" lon="2.83421307853">
        <ele>115.19</ele>
        <time>2022-01-27T17:04:11.985Z</time>
      </trkpt>
      <trkpt lat="41.9387700588" lon="2.83421307853">
        <ele>115.19</ele>
        <time>2022-01-27T17:04:13.082Z</time>
      </trkpt>
      <trkpt lat="41.93878" lon="2.83417">
        <ele>115.59383855851</ele>
        <time>2022-01-27T17:04:14.180Z</time>
      </trkpt>
      <trkpt lat="41.93878" lon="2.83417">
        <ele>115.59383855851</ele>
        <time>2022-01-27T17:04:15.278Z</time>
      </trkpt>
      <trkpt lat="41.9387836003" lon="2.83409799396">
        <ele>116.24</ele>
        <time>2022-01-27T17:04:16.377Z</time>
      </trkpt>
      <trkpt lat="41.9387836003" lon="2.83409799396">
        <ele>116.24</ele>
        <time>2022-01-27T17:04:17.476Z</time>
      </trkpt>
      <trkpt lat="41.93879" lon="2.83397">
        <ele>117.46205983681</ele>
        <time>2022-01-27T17:04:18.576Z</time>
      </trkpt>
      <trkpt lat="41.93879" lon="2.83397">
        <ele>117.46205983681</ele>
        <time>2022-01-27T17:04:19.676Z</time>
      </trkpt>
      <trkpt lat="41.93877783798" lon="2.83392591268">
        <ele>117.91</ele>
        <time>2022-01-27T17:04:20.777Z</time>
      </trkpt>
      <trkpt lat="41.93877783798" lon="2.83392591268">
        <ele>117.91</ele>
        <time>2022-01-27T17:04:21.878Z</time>
      </trkpt>
      <trkpt lat="41.93874750564" lon="2.83381595794">
        <ele>118.88</ele>
        <time>2022-01-27T17:04:22.980Z</time>
      </trkpt>
      <trkpt lat="41.93874750564" lon="2.83381595794">
        <ele>118.88</ele>
        <time>2022-01-27T17:04:24.082Z</time>
      </trkpt>
      <trkpt lat="41.9387171733" lon="2.8337060032">
        <ele>119.76</ele>
        <time>2022-01-27T17:04:25.186Z</time>
      </trkpt>
      <trkpt lat="41.9387171733" lon="2.8337060032">
        <ele>119.76</ele>
        <time>2022-01-27T17:04:26.290Z</time>
      </trkpt>
      <trkpt lat="41.93870185077" lon="2.83365045906">
        <ele>120.16</ele>
        <time>2022-01-27T17:04:27.394Z</time>
      </trkpt>
      <trkpt lat="41.93870185077" lon="2.83365045906">
        <ele>120.16</ele>
        <time>2022-01-27T17:04:28.498Z</time>
      </trkpt>
      <trkpt lat="41.93868652825" lon="2.83359491491">
        <ele>120.52</ele>
        <time>2022-01-27T17:04:29.603Z</time>
      </trkpt>
      <trkpt lat="41.93868652825" lon="2.83359491491">
        <ele>120.52</ele>
        <time>2022-01-27T17:04:30.708Z</time>
      </trkpt>
      <trkpt lat="41.93867120573" lon="2.83353937077">
        <ele>120.84</ele>
        <time>2022-01-27T17:04:31.814Z</time>
      </trkpt>
      <trkpt lat="41.93867120573" lon="2.83353937077">
        <ele>120.84</ele>
        <time>2022-01-27T17:04:32.920Z</time>
      </trkpt>
      <trkpt lat="41.93865619591" lon="2.83348496018">
        <ele>121.11</ele>
        <time>2022-01-27T17:04:34.027Z</time>
      </trkpt>
      <trkpt lat="41.93865619591" lon="2.83348496018">
        <ele>121.11</ele>
        <time>2022-01-27T17:04:35.134Z</time>
      </trkpt>
      <trkpt lat="41.93864087339" lon="2.83342941603">
        <ele>121.33</ele>
        <time>2022-01-27T17:04:36.241Z</time>
      </trkpt>
      <trkpt lat="41.93864087339" lon="2.83342941603">
        <ele>121.33</ele>
        <time>2022-01-27T17:04:37.348Z</time>
      </trkpt>
      <trkpt lat="41.93863" lon="2.83339">
        <ele>121.45188152512</ele>
        <time>2022-01-27T17:04:38.456Z</time>
      </trkpt>
      <trkpt lat="41.93863" lon="2.83339">
        <ele>121.45188152512</ele>
        <time>2022-01-27T17:04:39.564Z</time>
      </trkpt>
      <trkpt lat="41.93863" lon="2.83331476697">
        <ele>121.67</ele>
        <time>2022-01-27T17:04:40.673Z</time>
      </trkpt>
      <trkpt lat="41.93863" lon="2.83331476697">
        <ele>121.67</ele>
        <time>2022-01-27T17:04:41.782Z</time>
      </trkpt>
      <trkpt lat="41.93863" lon="2.8333">
        <ele>121.70597357646</ele>
        <time>2022-01-27T17:04:42.891Z</time>
      </trkpt>
      <trkpt lat="41.93863" lon="2.8333">
        <ele>121.70597357646</ele>
        <time>2022-01-27T17:04:44.000Z</time>
      </trkpt>
      <trkpt lat="41.93867920123" lon="2.8331523963">
        <ele>122.1</ele>
        <time>2022-01-27T17:04:45.111Z</time>
      </trkpt>
      <trkpt lat="41.93867920123" lon="2.8331523963">
        <ele>122.1</ele>
        <time>2022-01-27T17:04:46.222Z</time>
      </trkpt>
      <trkpt lat="41.93869722155" lon="2.83309833536">
        <ele>122.27</ele>
        <time>2022-01-27T17:04:47.333Z</time>
      </trkpt>
      <trkpt lat="41.93869722155" lon="2.83309833536">
        <ele>122.27</ele>
        <time>2022-01-27T17:04:48.444Z</time>
      </trkpt>
      <trkpt lat="41.93873326217" lon="2.83299021349">
        <ele>122.66</ele>
        <time>2022-01-27T17:04:49.557Z</time>
      </trkpt>
      <trkpt lat="41.93873326217" lon="2.83299021349">
        <ele>122.66</ele>
        <time>2022-01-27T17:04:50.670Z</time>
      </trkpt>
      <trkpt lat="41.93875" lon="2.83294">
        <ele>122.86574247119</ele>
        <time>2022-01-27T17:04:51.784Z</time>
      </trkpt>
      <trkpt lat="41.93875" lon="2.83294">
        <ele>122.86574247119</ele>
        <time>2022-01-27T17:04:52.898Z</time>
      </trkpt>
      <trkpt lat="41.93881" lon="2.83298">
        <ele>123.20238779405</ele>
        <time>2022-01-27T17:04:54.013Z</time>
      </trkpt>
      <trkpt lat="41.93881" lon="2.83298">
        <ele>123.20238779405</ele>
        <time>2022-01-27T17:04:55.128Z</time>
      </trkpt>
      <trkpt lat="41.93883337265" lon="2.83298146079">
        <ele>123.32</ele>
        <time>2022-01-27T17:04:56.243Z</time>
      </trkpt>
      <trkpt lat="41.93883337265" lon="2.83298146079">
        <ele>123.32</ele>
        <time>2022-01-27T17:04:57.358Z</time>
      </trkpt>
      <trkpt lat="41.93892051279" lon="2.83298690705">
        <ele>123.72</ele>
        <time>2022-01-27T17:04:58.474Z</time>
      </trkpt>
      <trkpt lat="41.93892051279" lon="2.83298690705">
        <ele>123.72</ele>
        <time>2022-01-27T17:04:59.590Z</time>
      </trkpt>
      <trkpt lat="41.93897" lon="2.83299">
        <ele>123.93012435288</ele>
        <time>2022-01-27T17:05:00.707Z</time>
      </trkpt>
      <trkpt lat="41.93897" lon="2.83299">
        <ele>123.93012435288</ele>
        <time>2022-01-27T17:05:01.824Z</time>
      </trkpt>
      <trkpt lat="41.93900532918" lon="2.83300766459">
        <ele>124.09</ele>
        <time>2022-01-27T17:05:02.942Z</time>
      </trkpt>
      <trkpt lat="41.93900532918" lon="2.83300766459">
        <ele>124.09</ele>
        <time>2022-01-27T17:05:04.060Z</time>
      </trkpt>
      <trkpt lat="41.93912923695" lon="2.83306961847">
        <ele>124.57</ele>
        <time>2022-01-27T17:05:05.180Z</time>
      </trkpt>
      <trkpt lat="41.93912923695" lon="2.83306961847">
        <ele>124.57</ele>
        <time>2022-01-27T17:05:06.300Z</time>
      </trkpt>
      <trkpt lat="41.93921" lon="2.83311">
        <ele>124.83</ele>
        <time>2022-01-27T17:05:07.421Z</time>
      </trkpt>
      <trkpt lat="41.93921" lon="2.83311">
        <ele>124.83</ele>
        <time>2022-01-27T17:05:08.542Z</time>
      </trkpt>
      <trkpt lat="41.93921105896" lon="2.83311016546">
        <ele>124.83</ele>
        <time>2022-01-27T17:05:09.663Z</time>
      </trkpt>
      <trkpt lat="41.93921105896" lon="2.83311016546">
        <ele>124.83</ele>
        <time>2022-01-27T17:05:10.784Z</time>
      </trkpt>
      <trkpt lat="41.9392548311" lon="2.83311700486">
        <ele>124.94</ele>
        <time>2022-01-27T17:05:11.906Z</time>
      </trkpt>
      <trkpt lat="41.9392548311" lon="2.83311700486">
        <ele>124.94</ele>
        <time>2022-01-27T17:05:13.028Z</time>
      </trkpt>
      <trkpt lat="41.93934148206" lon="2.83313054407">
        <ele>125.11</ele>
        <time>2022-01-27T17:05:14.151Z</time>
      </trkpt>
      <trkpt lat="41.93934148206" lon="2.83313054407">
        <ele>125.11</ele>
        <time>2022-01-27T17:05:15.274Z</time>
      </trkpt>
      <trkpt lat="41.93942813302" lon="2.83314408328">
        <ele>125.22</ele>
        <time>2022-01-27T17:05:16.399Z</time>
      </trkpt>
      <trkpt lat="41.93942813302" lon="2.83314408328">
        <ele>125.22</ele>
        <time>2022-01-27T17:05:17.524Z</time>
      </trkpt>
      <trkpt lat="41.93946207876" lon="2.83314938731">
        <ele>125.23</ele>
        <time>2022-01-27T17:05:18.649Z</time>
      </trkpt>
      <trkpt lat="41.93946207876" lon="2.83314938731">
        <ele>125.23</ele>
        <time>2022-01-27T17:05:19.774Z</time>
      </trkpt>
      <trkpt lat="41.93953" lon="2.83316">
        <ele>125.60460756582</ele>
        <time>2022-01-27T17:05:20.900Z</time>
      </trkpt>
      <trkpt lat="41.93953" lon="2.83316">
        <ele>125.60460756582</ele>
        <time>2022-01-27T17:05:22.026Z</time>
      </trkpt>
      <trkpt lat="41.93958836295" lon="2.83316364768">
        <ele>125.6</ele>
        <time>2022-01-27T17:05:23.153Z</time>
      </trkpt>
      <trkpt lat="41.93958836295" lon="2.83316364768">
        <ele>125.6</ele>
        <time>2022-01-27T17:05:24.280Z</time>
      </trkpt>
      <trkpt lat="41.93969" lon="2.83317">
        <ele>125.26</ele>
        <time>2022-01-27T17:05:25.409Z</time>
      </trkpt>
      <trkpt lat="41.93969" lon="2.83317">
        <ele>125.26</ele>
        <time>2022-01-27T17:05:26.538Z</time>
      </trkpt>
      <trkpt lat="41.93977461538" lon="2.83313745562">
        <ele>125.03</ele>
        <time>2022-01-27T17:05:27.668Z</time>
      </trkpt>
      <trkpt lat="41.93977461538" lon="2.83313745562">
        <ele>125.03</ele>
        <time>2022-01-27T17:05:28.798Z</time>
      </trkpt>
      <trkpt lat="41.93982" lon="2.83312">
        <ele>124.77821845668</ele>
        <time>2022-01-27T17:05:29.929Z</time>
      </trkpt>
      <trkpt lat="41.93982" lon="2.83312">
        <ele>124.77821845668</ele>
        <time>2022-01-27T17:05:31.060Z</time>
      </trkpt>
      <trkpt lat="41.9399937827" lon="2.83310758695">
        <ele>123.85</ele>
        <time>2022-01-27T17:05:32.194Z</time>
      </trkpt>
      <trkpt lat="41.9399937827" lon="2.83310758695">
        <ele>123.85</ele>
        <time>2022-01-27T17:05:33.328Z</time>
      </trkpt>
      <trkpt lat="41.9401" lon="2.8331">
        <ele>122.8846694358</ele>
        <time>2022-01-27T17:05:34.464Z</time>
      </trkpt>
      <trkpt lat="41.9401" lon="2.8331">
        <ele>122.8846694358</ele>
        <time>2022-01-27T17:05:35.600Z</time>
      </trkpt>
      <trkpt lat="41.94011588656" lon="2.83310176517">
        <ele>122.74</ele>
        <time>2022-01-27T17:05:36.736Z</time>
      </trkpt>
      <trkpt lat="41.94011588656" lon="2.83310176517">
        <ele>122.74</ele>
        <time>2022-01-27T17:05:37.872Z</time>
      </trkpt>
      <trkpt lat="41.94019" lon="2.83311">
        <ele>122.33013874242</ele>
        <time>2022-01-27T17:05:39.009Z</time>
      </trkpt>
      <trkpt lat="41.94019" lon="2.83311">
        <ele>122.33013874242</ele>
        <time>2022-01-27T17:05:40.146Z</time>
      </trkpt>
      <trkpt lat="41.94021768328" lon="2.83312186426">
        <ele>122.17</ele>
        <time>2022-01-27T17:05:41.284Z</time>
      </trkpt>
      <trkpt lat="41.94021768328" lon="2.83312186426">
        <ele>122.17</ele>
        <time>2022-01-27T17:05:42.422Z</time>
      </trkpt>
      <trkpt lat="41.94026" lon="2.83314">
        <ele>122.12884404794</ele>
        <time>2022-01-27T17:05:43.560Z</time>
      </trkpt>
      <trkpt lat="41.94026" lon="2.83314">
        <ele>122.12884404794</ele>
        <time>2022-01-27T17:05:44.698Z</time>
      </trkpt>
      <trkpt lat="41.94031095319" lon="2.83319095319">
        <ele>122.07</ele>
        <time>2022-01-27T17:05:45.837Z</time>
      </trkpt>
      <trkpt lat="41.94031095319" lon="2.83319095319">
        <ele>122.07</ele>
        <time>2022-01-27T17:05:46.976Z</time>
      </trkpt>
      <trkpt lat="41.94037" lon="2.83325">
        <ele>122.39580181015</ele>
        <time>2022-01-27T17:05:48.116Z</time>
      </trkpt>
      <trkpt lat="41.94037" lon="2.83325">
        <ele>122.39580181015</ele>
        <time>2022-01-27T17:05:49.256Z</time>
      </trkpt>
      <trkpt lat="41.94039294267" lon="2.83325705928">
        <ele>122.5</ele>
        <time>2022-01-27T17:05:50.397Z</time>
      </trkpt>
      <trkpt lat="41.94039294267" lon="2.83325705928">
        <ele>122.5</ele>
        <time>2022-01-27T17:05:51.538Z</time>
      </trkpt>
      <trkpt lat="41.9405" lon="2.83329">
        <ele>121.98</ele>
        <time>2022-01-27T17:05:52.681Z</time>
      </trkpt>
      <trkpt lat="41.9405" lon="2.83329">
        <ele>121.98</ele>
        <time>2022-01-27T17:05:53.824Z</time>
      </trkpt>
      <trkpt lat="41.94050078945" lon="2.83329006865">
        <ele>121.98</ele>
        <time>2022-01-27T17:05:54.967Z</time>
      </trkpt>
      <trkpt lat="41.94050078945" lon="2.83329006865">
        <ele>121.98</ele>
        <time>2022-01-27T17:05:56.110Z</time>
      </trkpt>
      <trkpt lat="41.94060399585" lon="2.83329904312">
        <ele>121.75</ele>
        <time>2022-01-27T17:05:57.254Z</time>
      </trkpt>
      <trkpt lat="41.94060399585" lon="2.83329904312">
        <ele>121.75</ele>
        <time>2022-01-27T17:05:58.398Z</time>
      </trkpt>
      <trkpt lat="41.94071258694" lon="2.83330848582">
        <ele>121.79</ele>
        <time>2022-01-27T17:05:59.544Z</time>
      </trkpt>
      <trkpt lat="41.94071258694" lon="2.83330848582">
        <ele>121.79</ele>
        <time>2022-01-27T17:06:00.690Z</time>
      </trkpt>
      <trkpt lat="41.94073" lon="2.83331">
        <ele>121.66539432295</ele>
        <time>2022-01-27T17:06:01.836Z</time>
      </trkpt>
      <trkpt lat="41.94073" lon="2.83331">
        <ele>121.66539432295</ele>
        <time>2022-01-27T17:06:02.982Z</time>
      </trkpt>
      <trkpt lat="41.94080921861" lon="2.83332980465">
        <ele>121.09</ele>
        <time>2022-01-27T17:06:04.130Z</time>
      </trkpt>
      <trkpt lat="41.94080921861" lon="2.83332980465">
        <ele>121.09</ele>
        <time>2022-01-27T17:06:05.278Z</time>
      </trkpt>
      <trkpt lat="41.94093" lon="2.83336">
        <ele>120.08</ele>
        <time>2022-01-27T17:06:06.428Z</time>
      </trkpt>
      <trkpt lat="41.94093" lon="2.83336">
        <ele>120.08</ele>
        <time>2022-01-27T17:06:07.578Z</time>
      </trkpt>
      <trkpt lat="41.94102387128" lon="2.83336213344">
        <ele>118.62</ele>
        <time>2022-01-27T17:06:08.729Z</time>
      </trkpt>
      <trkpt lat="41.94102387128" lon="2.83336213344">
        <ele>118.62</ele>
        <time>2022-01-27T17:06:09.880Z</time>
      </trkpt>
      <trkpt lat="41.94113177455" lon="2.83336458579">
        <ele>117.7</ele>
        <time>2022-01-27T17:06:11.033Z</time>
      </trkpt>
      <trkpt lat="41.94113177455" lon="2.83336458579">
        <ele>117.7</ele>
        <time>2022-01-27T17:06:12.186Z</time>
      </trkpt>
      <trkpt lat="41.94125406492" lon="2.83336736511">
        <ele>116.02</ele>
        <time>2022-01-27T17:06:13.341Z</time>
      </trkpt>
      <trkpt lat="41.94125406492" lon="2.83336736511">
        <ele>116.02</ele>
        <time>2022-01-27T17:06:14.496Z</time>
      </trkpt>
      <trkpt lat="41.94137" lon="2.83337">
        <ele>114.759489275</ele>
        <time>2022-01-27T17:06:15.653Z</time>
      </trkpt>
      <trkpt lat="41.94137" lon="2.83337">
        <ele>114.759489275</ele>
        <time>2022-01-27T17:06:16.810Z</time>
      </trkpt>
      <trkpt lat="41.9414149145" lon="2.83336572243">
        <ele>114.27</ele>
        <time>2022-01-27T17:06:17.967Z</time>
      </trkpt>
      <trkpt lat="41.9414149145" lon="2.83336572243">
        <ele>114.27</ele>
        <time>2022-01-27T17:06:19.124Z</time>
      </trkpt>
      <trkpt lat="41.94152974" lon="2.83335478667">
        <ele>106.35</ele>
        <time>2022-01-27T17:06:20.283Z</time>
      </trkpt>
      <trkpt lat="41.94152974" lon="2.83335478667">
        <ele>106.35</ele>
        <time>2022-01-27T17:06:21.442Z</time>
      </trkpt>
      <trkpt lat="41.94158" lon="2.83335">
        <ele>106.31</ele>
        <time>2022-01-27T17:06:22.602Z</time>
      </trkpt>
      <trkpt lat="41.94158" lon="2.83335">
        <ele>106.31</ele>
        <time>2022-01-27T17:06:23.762Z</time>
      </trkpt>
      <trkpt lat="41.94161629168" lon="2.83333604166">
        <ele>106.3</ele>
        <time>2022-01-27T17:06:24.923Z</time>
      </trkpt>
      <trkpt lat="41.94161629168" lon="2.83333604166">
        <ele>106.3</ele>
        <time>2022-01-27T17:06:26.084Z</time>
      </trkpt>
      <trkpt lat="41.94165865879" lon="2.83331974662">
        <ele>106.32</ele>
        <time>2022-01-27T17:06:27.245Z</time>
      </trkpt>
      <trkpt lat="41.94165865879" lon="2.83331974662">
        <ele>106.32</ele>
        <time>2022-01-27T17:06:28.406Z</time>
      </trkpt>
      <trkpt lat="41.94170102589" lon="2.83330345158">
        <ele>106.37</ele>
        <time>2022-01-27T17:06:29.568Z</time>
      </trkpt>
      <trkpt lat="41.94170102589" lon="2.83330345158">
        <ele>106.37</ele>
        <time>2022-01-27T17:06:30.730Z</time>
      </trkpt>
      <trkpt lat="41.94171" lon="2.8333">
        <ele>106.38694542717</ele>
        <time>2022-01-27T17:06:31.892Z</time>
      </trkpt>
      <trkpt lat="41.94171" lon="2.8333">
        <ele>106.38694542717</ele>
        <time>2022-01-27T17:06:33.054Z</time>
      </trkpt>
      <trkpt lat="41.94174461464" lon="2.83330384607">
        <ele>106.45</ele>
        <time>2022-01-27T17:06:34.217Z</time>
      </trkpt>
      <trkpt lat="41.94174461464" lon="2.83330384607">
        <ele>106.45</ele>
        <time>2022-01-27T17:06:35.380Z</time>
      </trkpt>
      <trkpt lat="41.9418" lon="2.83331">
        <ele>106.59503055434</ele>
        <time>2022-01-27T17:06:36.544Z</time>
      </trkpt>
      <trkpt lat="41.9418" lon="2.83331">
        <ele>106.59503055434</ele>
        <time>2022-01-27T17:06:37.708Z</time>
      </trkpt>
      <trkpt lat="41.94182903846" lon="2.83332979895">
        <ele>106.68</ele>
        <time>2022-01-27T17:06:38.872Z</time>
      </trkpt>
      <trkpt lat="41.94182903846" lon="2.83332979895">
        <ele>106.68</ele>
        <time>2022-01-27T17:06:40.036Z</time>
      </trkpt>
      <trkpt lat="41.94202" lon="2.83346">
        <ele>107.43</ele>
        <time>2022-01-27T17:06:41.203Z</time>
      </trkpt>
      <trkpt lat="41.94202" lon="2.83346">
        <ele>107.43</ele>
        <time>2022-01-27T17:06:42.370Z</time>
      </trkpt>
      <trkpt lat="41.94202618339" lon="2.83345911666">
        <ele>107.43</ele>
        <time>2022-01-27T17:06:43.538Z</time>
      </trkpt>
      <trkpt lat="41.94202618339" lon="2.83345911666">
        <ele>107.43</ele>
        <time>2022-01-27T17:06:44.706Z</time>
      </trkpt>
      <trkpt lat="41.94209" lon="2.83345">
        <ele>107.62863166027</ele>
        <time>2022-01-27T17:06:45.875Z</time>
      </trkpt>
      <trkpt lat="41.94209" lon="2.83345">
        <ele>107.62863166027</ele>
        <time>2022-01-27T17:06:47.044Z</time>
      </trkpt>
      <trkpt lat="41.94211161212" lon="2.83343919394">
        <ele>107.7</ele>
        <time>2022-01-27T17:06:48.213Z</time>
      </trkpt>
      <trkpt lat="41.94211161212" lon="2.83343919394">
        <ele>107.7</ele>
        <time>2022-01-27T17:06:49.382Z</time>
      </trkpt>
      <trkpt lat="41.94219590363" lon="2.83339704818">
        <ele>108.03</ele>
        <time>2022-01-27T17:06:50.552Z</time>
      </trkpt>
      <trkpt lat="41.94219590363" lon="2.83339704818">
        <ele>108.03</ele>
        <time>2022-01-27T17:06:51.722Z</time>
      </trkpt>
      <trkpt lat="41.94223804939" lon="2.83337597531">
        <ele>108.23</ele>
        <time>2022-01-27T17:06:52.893Z</time>
      </trkpt>
      <trkpt lat="41.94223804939" lon="2.83337597531">
        <ele>108.23</ele>
        <time>2022-01-27T17:06:54.064Z</time>
      </trkpt>
      <trkpt lat="41.94227935223" lon="2.83335532389">
        <ele>108.46</ele>
        <time>2022-01-27T17:06:55.236Z</time>
      </trkpt>
      <trkpt lat="41.94227935223" lon="2.83335532389">
        <ele>108.46</ele>
        <time>2022-01-27T17:06:56.408Z</time>
      </trkpt>
      <trkpt lat="41.94236364374" lon="2.83331317813">
        <ele>109.0</ele>
        <time>2022-01-27T17:06:57.581Z</time>
      </trkpt>
      <trkpt lat="41.94236364374" lon="2.83331317813">
        <ele>109.0</ele>
        <time>2022-01-27T17:06:58.754Z</time>
      </trkpt>
      <trkpt lat="41.94243" lon="2.83328">
        <ele>109.49595086072</ele>
        <time>2022-01-27T17:06:59.928Z</time>
      </trkpt>
      <trkpt lat="41.94243" lon="2.83328">
        <ele>109.49595086072</ele>
        <time>2022-01-27T17:07:01.102Z</time>
      </trkpt>
      <trkpt lat="41.94244619485" lon="2.83326629666">
        <ele>109.63</ele>
        <time>2022-01-27T17:07:02.277Z</time>
      </trkpt>
      <trkpt lat="41.94244619485" lon="2.83326629666">
        <ele>109.63</ele>
        <time>2022-01-27T17:07:03.452Z</time>
      </trkpt>
      <trkpt lat="41.9425215458" lon="2.83320253817">
        <ele>110.31</ele>
        <time>2022-01-27T17:07:04.628Z</time>
      </trkpt>
      <trkpt lat="41.9425215458" lon="2.83320253817">
        <ele>110.31</ele>
        <time>2022-01-27T17:07:05.804Z</time>
      </trkpt>
      <trkpt lat="41.94256" lon="2.83317">
        <ele>110.68387114219</ele>
        <time>2022-01-27T17:07:06.981Z</time>
      </trkpt>
      <trkpt lat="41.94256" lon="2.83317">
        <ele>110.68387114219</ele>
        <time>2022-01-27T17:07:08.158Z</time>
      </trkpt>
      <trkpt lat="41.94259570224" lon="2.83313429776">
        <ele>111.05</ele>
        <time>2022-01-27T17:07:09.336Z</time>
      </trkpt>
      <trkpt lat="41.94259570224" lon="2.83313429776">
        <ele>111.05</ele>
        <time>2022-01-27T17:07:10.514Z</time>
      </trkpt>
      <trkpt lat="41.94266786169" lon="2.83306213831">
        <ele>111.84</ele>
        <time>2022-01-27T17:07:11.693Z</time>
      </trkpt>
      <trkpt lat="41.94266786169" lon="2.83306213831">
        <ele>111.84</ele>
        <time>2022-01-27T17:07:12.872Z</time>
      </trkpt>
      <trkpt lat="41.94268" lon="2.83305">
        <ele>111.98952455657</ele>
        <time>2022-01-27T17:07:14.051Z</time>
      </trkpt>
      <trkpt lat="41.94268" lon="2.83305">
        <ele>111.98952455657</ele>
        <time>2022-01-27T17:07:15.230Z</time>
      </trkpt>
      <trkpt lat="41.94272976313" lon="2.83297654015">
        <ele>112.72</ele>
        <time>2022-01-27T17:07:16.410Z</time>
      </trkpt>
      <trkpt lat="41.94272976313" lon="2.83297654015">
        <ele>112.72</ele>
        <time>2022-01-27T17:07:17.590Z</time>
      </trkpt>
      <trkpt lat="41.94276004059" lon="2.83293184484">
        <ele>113.22</ele>
        <time>2022-01-27T17:07:18.771Z</time>
      </trkpt>
      <trkpt lat="41.94276004059" lon="2.83293184484">
        <ele>113.22</ele>
        <time>2022-01-27T17:07:19.952Z</time>
      </trkpt>
      <trkpt lat="41.94279031806" lon="2.83288714953">
        <ele>113.75</ele>
        <time>2022-01-27T17:07:21.134Z</time>
      </trkpt>
      <trkpt lat="41.94279031806" lon="2.83288714953">
        <ele>113.75</ele>
        <time>2022-01-27T17:07:22.316Z</time>
      </trkpt>
      <trkpt lat="41.94288054491" lon="2.83275395752">
        <ele>115.45</ele>
        <time>2022-01-27T17:07:23.500Z</time>
      </trkpt>
      <trkpt lat="41.94288054491" lon="2.83275395752">
        <ele>115.45</ele>
        <time>2022-01-27T17:07:24.684Z</time>
      </trkpt>
      <trkpt lat="41.94289" lon="2.83274">
        <ele>115.61863204363</ele>
        <time>2022-01-27T17:07:25.868Z</time>
      </trkpt>
      <trkpt lat="41.94289" lon="2.83274">
        <ele>115.61863204363</ele>
        <time>2022-01-27T17:07:27.052Z</time>
      </trkpt>
      <trkpt lat="41.942903582" lon="2.8327026495">
        <ele>115.99</ele>
        <time>2022-01-27T17:07:28.237Z</time>
      </trkpt>
      <trkpt lat="41.942903582" lon="2.8327026495">
        <ele>115.99</ele>
        <time>2022-01-27T17:07:29.422Z</time>
      </trkpt>
      <trkpt lat="41.94292333136" lon="2.83264833876">
        <ele>116.49</ele>
        <time>2022-01-27T17:07:30.607Z</time>
      </trkpt>
      <trkpt lat="41.94292333136" lon="2.83264833876">
        <ele>116.49</ele>
        <time>2022-01-27T17:07:31.792Z</time>
      </trkpt>
      <trkpt lat="41.94293" lon="2.83263">
        <ele>116.64870183675</ele>
        <time>2022-01-27T17:07:32.978Z</time>
      </trkpt>
      <trkpt lat="41.94293" lon="2.83263">
        <ele>116.64870183675</ele>
        <time>2022-01-27T17:07:34.164Z</time>
      </trkpt>
      <trkpt lat="41.94294" lon="2.83262">
        <ele>116.77896867596</ele>
        <time>2022-01-27T17:07:35.350Z</time>
      </trkpt>
      <trkpt lat="41.94294" lon="2.83262">
        <ele>116.77896867596</ele>
        <time>2022-01-27T17:07:36.536Z</time>
      </trkpt>
      <trkpt lat="41.94294154614" lon="2.83259680784">
        <ele>116.96</ele>
        <time>2022-01-27T17:07:37.722Z</time>
      </trkpt>
      <trkpt lat="41.94294154614" lon="2.83259680784">
        <ele>116.96</ele>
        <time>2022-01-27T17:07:38.908Z</time>
      </trkpt>
      <trkpt lat="41.94295" lon="2.83247">
        <ele>117.83</ele>
        <time>2022-01-27T17:07:40.096Z</time>
      </trkpt>
      <trkpt lat="41.94295" lon="2.83247">
        <ele>117.83</ele>
        <time>2022-01-27T17:07:41.284Z</time>
      </trkpt>
      <trkpt lat="41.94292" lon="2.83239">
        <ele>117.569242031</ele>
        <time>2022-01-27T17:07:42.473Z</time>
      </trkpt>
      <trkpt lat="41.94292" lon="2.83239">
        <ele>117.569242031</ele>
        <time>2022-01-27T17:07:43.662Z</time>
      </trkpt>
      <trkpt lat="41.94286963897" lon="2.83234421724">
        <ele>117.35</ele>
        <time>2022-01-27T17:07:44.852Z</time>
      </trkpt>
      <trkpt lat="41.94286963897" lon="2.83234421724">
        <ele>117.35</ele>
        <time>2022-01-27T17:07:46.042Z</time>
      </trkpt>
      <trkpt lat="41.94283238948" lon="2.83231035407">
        <ele>117.17</ele>
        <time>2022-01-27T17:07:47.233Z</time>
      </trkpt>
      <trkpt lat="41.94283238948" lon="2.83231035407">
        <ele>117.17</ele>
        <time>2022-01-27T17:07:48.424Z</time>
      </trkpt>
      <trkpt lat="41.94281" lon="2.83229">
        <ele>117.04119971899</ele>
        <time>2022-01-27T17:07:49.615Z</time>
      </trkpt>
      <trkpt lat="41.94281" lon="2.83229">
        <ele>117.04119971899</ele>
        <time>2022-01-27T17:07:50.806Z</time>
      </trkpt>
      <trkpt lat="41.94279402961" lon="2.83228201481">
        <ele>116.96</ele>
        <time>2022-01-27T17:07:51.997Z</time>
      </trkpt>
      <trkpt lat="41.94279402961" lon="2.83228201481">
        <ele>116.96</ele>
        <time>2022-01-27T17:07:53.188Z</time>
      </trkpt>
      <trkpt lat="41.94275188383" lon="2.83226094191">
        <ele>116.72</ele>
        <time>2022-01-27T17:07:54.380Z</time>
      </trkpt>
      <trkpt lat="41.94275188383" lon="2.83226094191">
        <ele>116.72</ele>
        <time>2022-01-27T17:07:55.572Z</time>
      </trkpt>
      <trkpt lat="41.94262713231" lon="2.83219856615">
        <ele>115.93</ele>
        <time>2022-01-27T17:07:56.766Z</time>
      </trkpt>
      <trkpt lat="41.94262713231" lon="2.83219856615">
        <ele>115.93</ele>
        <time>2022-01-27T17:07:57.960Z</time>
      </trkpt>
      <trkpt lat="41.94254368366" lon="2.83215684183">
        <ele>115.46</ele>
        <time>2022-01-27T17:07:59.155Z</time>
      </trkpt>
      <trkpt lat="41.94254368366" lon="2.83215684183">
        <ele>115.46</ele>
        <time>2022-01-27T17:08:00.350Z</time>
      </trkpt>
      <trkpt lat="41.94246023501" lon="2.8321151175">
        <ele>115.05</ele>
        <time>2022-01-27T17:08:01.547Z</time>
      </trkpt>
      <trkpt lat="41.94246023501" lon="2.8321151175">
        <ele>115.05</ele>
        <time>2022-01-27T17:08:02.744Z</time>
      </trkpt>
      <trkpt lat="41.94243" lon="2.8321">
        <ele>114.9340580217</ele>
        <time>2022-01-27T17:08:03.941Z</time>
      </trkpt>
      <trkpt lat="41.94243" lon="2.8321">
        <ele>114.9340580217</ele>
        <time>2022-01-27T17:08:05.138Z</time>
      </trkpt>
      <trkpt lat="41.94238764386" lon="2.83204917263">
        <ele>114.73</ele>
        <time>2022-01-27T17:08:06.336Z</time>
      </trkpt>
      <trkpt lat="41.94238764386" lon="2.83204917263">
        <ele>114.73</ele>
        <time>2022-01-27T17:08:07.534Z</time>
      </trkpt>
      <trkpt lat="41.94238" lon="2.83204">
        <ele>114.70170885455</ele>
        <time>2022-01-27T17:08:08.732Z</time>
      </trkpt>
      <trkpt lat="41.94238" lon="2.83204">
        <ele>114.70170885455</ele>
        <time>2022-01-27T17:08:09.930Z</time>
      </trkpt>
      <trkpt lat="41.9424" lon="2.83188">
        <ele>114.36</ele>
        <time>2022-01-27T17:08:11.130Z</time>
      </trkpt>
      <trkpt lat="41.9424" lon="2.83188">
        <ele>114.36</ele>
        <time>2022-01-27T17:08:12.330Z</time>
      </trkpt>
      <trkpt lat="41.94240092697" lon="2.83187606038">
        <ele>114.36</ele>
        <time>2022-01-27T17:08:13.530Z</time>
      </trkpt>
      <trkpt lat="41.94240092697" lon="2.83187606038">
        <ele>114.36</ele>
        <time>2022-01-27T17:08:14.730Z</time>
      </trkpt>
      <trkpt lat="41.94242777954" lon="2.83176193695">
        <ele>114.15</ele>
        <time>2022-01-27T17:08:15.932Z</time>
      </trkpt>
      <trkpt lat="41.94242777954" lon="2.83176193695">
        <ele>114.15</ele>
        <time>2022-01-27T17:08:17.134Z</time>
      </trkpt>
      <trkpt lat="41.94244" lon="2.83171">
        <ele>114.08173581068</ele>
        <time>2022-01-27T17:08:18.337Z</time>
      </trkpt>
      <trkpt lat="41.94244" lon="2.83171">
        <ele>114.08173581068</ele>
        <time>2022-01-27T17:08:19.540Z</time>
      </trkpt>
      <trkpt lat="41.94247192368" lon="2.83166088665">
        <ele>114.0</ele>
        <time>2022-01-27T17:08:20.743Z</time>
      </trkpt>
      <trkpt lat="41.94247192368" lon="2.83166088665">
        <ele>114.0</ele>
        <time>2022-01-27T17:08:21.946Z</time>
      </trkpt>
      <trkpt lat="41.94257" lon="2.83151">
        <ele>113.83961376874</ele>
        <time>2022-01-27T17:08:23.152Z</time>
      </trkpt>
      <trkpt lat="41.94257" lon="2.83151">
        <ele>113.83961376874</ele>
        <time>2022-01-27T17:08:24.358Z</time>
      </trkpt>
      <trkpt lat="41.94263609029" lon="2.83146529187">
        <ele>113.76</ele>
        <time>2022-01-27T17:08:25.565Z</time>
      </trkpt>
      <trkpt lat="41.94263609029" lon="2.83146529187">
        <ele>113.76</ele>
        <time>2022-01-27T17:08:26.772Z</time>
      </trkpt>
      <trkpt lat="41.94271562271" lon="2.83141149052">
        <ele>113.64</ele>
        <time>2022-01-27T17:08:27.980Z</time>
      </trkpt>
      <trkpt lat="41.94271562271" lon="2.83141149052">
        <ele>113.64</ele>
        <time>2022-01-27T17:08:29.188Z</time>
      </trkpt>
      <trkpt lat="41.94275498724" lon="2.83138486157">
        <ele>113.56</ele>
        <time>2022-01-27T17:08:30.397Z</time>
      </trkpt>
      <trkpt lat="41.94275498724" lon="2.83138486157">
        <ele>113.56</ele>
        <time>2022-01-27T17:08:31.606Z</time>
      </trkpt>
      <trkpt lat="41.94279515513" lon="2.83135768918">
        <ele>113.44</ele>
        <time>2022-01-27T17:08:32.816Z</time>
      </trkpt>
      <trkpt lat="41.94279515513" lon="2.83135768918">
        <ele>113.44</ele>
        <time>2022-01-27T17:08:34.026Z</time>
      </trkpt>
      <trkpt lat="41.94283451966" lon="2.83133106023">
        <ele>113.27</ele>
        <time>2022-01-27T17:08:35.236Z</time>
      </trkpt>
      <trkpt lat="41.94283451966" lon="2.83133106023">
        <ele>113.27</ele>
        <time>2022-01-27T17:08:36.446Z</time>
      </trkpt>
      <trkpt lat="41.94287468755" lon="2.83130388784">
        <ele>113.07</ele>
        <time>2022-01-27T17:08:37.657Z</time>
      </trkpt>
      <trkpt lat="41.94287468755" lon="2.83130388784">
        <ele>113.07</ele>
        <time>2022-01-27T17:08:38.868Z</time>
      </trkpt>
      <trkpt lat="41.94291" lon="2.83128">
        <ele>112.83911961651</ele>
        <time>2022-01-27T17:08:40.080Z</time>
      </trkpt>
      <trkpt lat="41.94291" lon="2.83128">
        <ele>112.83911961651</ele>
        <time>2022-01-27T17:08:41.292Z</time>
      </trkpt>
      <trkpt lat="41.94294831242" lon="2.83123785634">
        <ele>112.55</ele>
        <time>2022-01-27T17:08:42.505Z</time>
      </trkpt>
      <trkpt lat="41.94294831242" lon="2.83123785634">
        <ele>112.55</ele>
        <time>2022-01-27T17:08:43.718Z</time>
      </trkpt>
      <trkpt lat="41.94301" lon="2.83117">
        <ele>111.98600809862</ele>
        <time>2022-01-27T17:08:44.932Z</time>
      </trkpt>
      <trkpt lat="41.94301" lon="2.83117">
        <ele>111.98600809862</ele>
        <time>2022-01-27T17:08:46.146Z</time>
      </trkpt>
      <trkpt lat="41.94301622611" lon="2.83116066084">
        <ele>111.92</ele>
        <time>2022-01-27T17:08:47.360Z</time>
      </trkpt>
      <trkpt lat="41.94301622611" lon="2.83116066084">
        <ele>111.92</ele>
        <time>2022-01-27T17:08:48.574Z</time>
      </trkpt>
      <trkpt lat="41.9431050616" lon="2.8310274076">
        <ele>110.89</ele>
        <time>2022-01-27T17:08:49.790Z</time>
      </trkpt>
      <trkpt lat="41.9431050616" lon="2.8310274076">
        <ele>110.89</ele>
        <time>2022-01-27T17:08:51.006Z</time>
      </trkpt>
      <trkpt lat="41.94313507359" lon="2.83098238961">
        <ele>110.59</ele>
        <time>2022-01-27T17:08:52.223Z</time>
      </trkpt>
      <trkpt lat="41.94313507359" lon="2.83098238961">
        <ele>110.59</ele>
        <time>2022-01-27T17:08:53.440Z</time>
      </trkpt>
      <trkpt lat="41.94317" lon="2.83093">
        <ele>110.32</ele>
        <time>2022-01-27T17:08:54.658Z</time>
      </trkpt>
      <trkpt lat="41.94317" lon="2.83093">
        <ele>110.32</ele>
        <time>2022-01-27T17:08:55.876Z</time>
      </trkpt>
      <trkpt lat="41.94313332763" lon="2.83093203735">
        <ele>110.08</ele>
        <time>2022-01-27T17:08:57.094Z</time>
      </trkpt>
      <trkpt lat="41.94313332763" lon="2.83093203735">
        <ele>110.08</ele>
        <time>2022-01-27T17:08:58.312Z</time>
      </trkpt>
      <trkpt lat="41.94308929841" lon="2.83093448342">
        <ele>109.88</ele>
        <time>2022-01-27T17:08:59.531Z</time>
      </trkpt>
      <trkpt lat="41.94308929841" lon="2.83093448342">
        <ele>109.88</ele>
        <time>2022-01-27T17:09:00.750Z</time>
      </trkpt>
      <trkpt lat="41.94304437064" lon="2.83093697941">
        <ele>109.71</ele>
        <time>2022-01-27T17:09:01.970Z</time>
      </trkpt>
      <trkpt lat="41.94304437064" lon="2.83093697941">
        <ele>109.71</ele>
        <time>2022-01-27T17:09:03.190Z</time>
      </trkpt>
      <trkpt lat="41.94299" lon="2.83094">
        <ele>109.5458389865</ele>
        <time>2022-01-27T17:09:04.411Z</time>
      </trkpt>
      <trkpt lat="41.94299" lon="2.83094">
        <ele>109.5458389865</ele>
        <time>2022-01-27T17:09:05.632Z</time>
      </trkpt>
      <trkpt lat="41.94269" lon="2.83103">
        <ele>108.61856466429</ele>
        <time>2022-01-27T17:09:06.858Z</time>
      </trkpt>
      <trkpt lat="41.94269" lon="2.83103">
        <ele>108.61856466429</ele>
        <time>2022-01-27T17:09:08.084Z</time>
      </trkpt>
      <trkpt lat="41.94265382918" lon="2.83105066904">
        <ele>108.5</ele>
        <time>2022-01-27T17:09:09.310Z</time>
      </trkpt>
      <trkpt lat="41.94265382918" lon="2.83105066904">
        <ele>108.5</ele>
        <time>2022-01-27T17:09:10.536Z</time>
      </trkpt>
      <trkpt lat="41.94261327369" lon="2.8310738436">
        <ele>108.38</ele>
        <time>2022-01-27T17:09:11.763Z</time>
      </trkpt>
      <trkpt lat="41.94261327369" lon="2.8310738436">
        <ele>108.38</ele>
        <time>2022-01-27T17:09:12.990Z</time>
      </trkpt>
      <trkpt lat="41.9424899519" lon="2.8311443132">
        <ele>108.08</ele>
        <time>2022-01-27T17:09:14.219Z</time>
      </trkpt>
      <trkpt lat="41.9424899519" lon="2.8311443132">
        <ele>108.08</ele>
        <time>2022-01-27T17:09:15.448Z</time>
      </trkpt>
      <trkpt lat="41.94248" lon="2.83115">
        <ele>108.06421078441</ele>
        <time>2022-01-27T17:09:16.677Z</time>
      </trkpt>
      <trkpt lat="41.94248" lon="2.83115">
        <ele>108.06421078441</ele>
        <time>2022-01-27T17:09:17.906Z</time>
      </trkpt>
      <trkpt lat="41.94240612995" lon="2.83118457747">
        <ele>107.95</ele>
        <time>2022-01-27T17:09:19.136Z</time>
      </trkpt>
      <trkpt lat="41.94240612995" lon="2.83118457747">
        <ele>107.95</ele>
        <time>2022-01-27T17:09:20.366Z</time>
      </trkpt>
      <trkpt lat="41.94236451346" lon="2.83120405753">
        <ele>107.91</ele>
        <time>2022-01-27T17:09:21.597Z</time>
      </trkpt>
      <trkpt lat="41.94236451346" lon="2.83120405753">
        <ele>107.91</ele>
        <time>2022-01-27T17:09:22.828Z</time>
      </trkpt>
      <trkpt lat="41.94232204765" lon="2.83122393514">
        <ele>107.89</ele>
        <time>2022-01-27T17:09:24.060Z</time>
      </trkpt>
      <trkpt lat="41.94232204765" lon="2.83122393514">
        <ele>107.89</ele>
        <time>2022-01-27T17:09:25.292Z</time>
      </trkpt>
      <trkpt lat="41.94223796534" lon="2.83126329282">
        <ele>107.92</ele>
        <time>2022-01-27T17:09:26.525Z</time>
      </trkpt>
      <trkpt lat="41.94223796534" lon="2.83126329282">
        <ele>107.92</ele>
        <time>2022-01-27T17:09:27.758Z</time>
      </trkpt>
      <trkpt lat="41.94215388304" lon="2.83130265049">
        <ele>108.02</ele>
        <time>2022-01-27T17:09:28.993Z</time>
      </trkpt>
      <trkpt lat="41.94215388304" lon="2.83130265049">
        <ele>108.02</ele>
        <time>2022-01-27T17:09:30.228Z</time>
      </trkpt>
      <trkpt lat="41.94201" lon="2.83137">
        <ele>108.29379465215</ele>
        <time>2022-01-27T17:09:31.465Z</time>
      </trkpt>
      <trkpt lat="41.94201" lon="2.83137">
        <ele>108.29379465215</ele>
        <time>2022-01-27T17:09:32.702Z</time>
      </trkpt>
      <trkpt lat="41.94198662155" lon="2.83138438674">
        <ele>108.34</ele>
        <time>2022-01-27T17:09:33.940Z</time>
      </trkpt>
      <trkpt lat="41.94198662155" lon="2.83138438674">
        <ele>108.34</ele>
        <time>2022-01-27T17:09:35.178Z</time>
      </trkpt>
      <trkpt lat="41.94194737066" lon="2.83140854113">
        <ele>108.17</ele>
        <time>2022-01-27T17:09:36.416Z</time>
      </trkpt>
      <trkpt lat="41.94194737066" lon="2.83140854113">
        <ele>108.17</ele>
        <time>2022-01-27T17:09:37.654Z</time>
      </trkpt>
      <trkpt lat="41.94190730204" lon="2.83143319874">
        <ele>107.97</ele>
        <time>2022-01-27T17:09:38.893Z</time>
      </trkpt>
      <trkpt lat="41.94190730204" lon="2.83143319874">
        <ele>107.97</ele>
        <time>2022-01-27T17:09:40.132Z</time>
      </trkpt>
      <trkpt lat="41.94188" lon="2.83145">
        <ele>107.79965445907</ele>
        <time>2022-01-27T17:09:41.371Z</time>
      </trkpt>
      <trkpt lat="41.94188" lon="2.83145">
        <ele>107.79965445907</ele>
        <time>2022-01-27T17:09:42.610Z</time>
      </trkpt>
      <trkpt lat="41.94186799872" lon="2.83145979697">
        <ele>107.72</ele>
        <time>2022-01-27T17:09:43.850Z</time>
      </trkpt>
      <trkpt lat="41.94186799872" lon="2.83145979697">
        <ele>107.72</ele>
        <time>2022-01-27T17:09:45.090Z</time>
      </trkpt>
      <trkpt lat="41.9417549986" lon="2.83155204196">
        <ele>106.81</ele>
        <time>2022-01-27T17:09:46.332Z</time>
      </trkpt>
      <trkpt lat="41.9417549986" lon="2.83155204196">
        <ele>106.81</ele>
        <time>2022-01-27T17:09:47.574Z</time>
      </trkpt>
      <trkpt lat="41.9417173319" lon="2.83158279028">
        <ele>106.54</ele>
        <time>2022-01-27T17:09:48.816Z</time>
      </trkpt>
      <trkpt lat="41.9417173319" lon="2.83158279028">
        <ele>106.54</ele>
        <time>2022-01-27T17:09:50.058Z</time>
      </trkpt>
      <trkpt lat="41.9416796652" lon="2.83161353861">
        <ele>106.31</ele>
        <time>2022-01-27T17:09:51.301Z</time>
      </trkpt>
      <trkpt lat="41.9416796652" lon="2.83161353861">
        <ele>106.31</ele>
        <time>2022-01-27T17:09:52.544Z</time>
      </trkpt>
      <trkpt lat="41.94164199849" lon="2.83164428694">
        <ele>106.13</ele>
        <time>2022-01-27T17:09:53.788Z</time>
      </trkpt>
      <trkpt lat="41.94164199849" lon="2.83164428694">
        <ele>106.13</ele>
        <time>2022-01-27T17:09:55.032Z</time>
      </trkpt>
      <trkpt lat="41.94160433179" lon="2.83167503527">
        <ele>105.98</ele>
        <time>2022-01-27T17:09:56.277Z</time>
      </trkpt>
      <trkpt lat="41.94160433179" lon="2.83167503527">
        <ele>105.98</ele>
        <time>2022-01-27T17:09:57.522Z</time>
      </trkpt>
      <trkpt lat="41.94156743379" lon="2.83170515609">
        <ele>105.88</ele>
        <time>2022-01-27T17:09:58.767Z</time>
      </trkpt>
      <trkpt lat="41.94156743379" lon="2.83170515609">
        <ele>105.88</ele>
        <time>2022-01-27T17:10:00.012Z</time>
      </trkpt>
      <trkpt lat="41.94152976709" lon="2.83173590442">
        <ele>105.81</ele>
        <time>2022-01-27T17:10:01.258Z</time>
      </trkpt>
      <trkpt lat="41.94152976709" lon="2.83173590442">
        <ele>105.81</ele>
        <time>2022-01-27T17:10:02.504Z</time>
      </trkpt>
      <trkpt lat="41.94149210039" lon="2.83176665275">
        <ele>105.77</ele>
        <time>2022-01-27T17:10:03.751Z</time>
      </trkpt>
      <trkpt lat="41.94149210039" lon="2.83176665275">
        <ele>105.77</ele>
        <time>2022-01-27T17:10:04.998Z</time>
      </trkpt>
      <trkpt lat="41.94145443368" lon="2.83179740108">
        <ele>105.77</ele>
        <time>2022-01-27T17:10:06.245Z</time>
      </trkpt>
      <trkpt lat="41.94145443368" lon="2.83179740108">
        <ele>105.77</ele>
        <time>2022-01-27T17:10:07.492Z</time>
      </trkpt>
      <trkpt lat="41.94139" lon="2.83185">
        <ele>105.80421254086</ele>
        <time>2022-01-27T17:10:08.741Z</time>
      </trkpt>
      <trkpt lat="41.94139" lon="2.83185">
        <ele>105.80421254086</ele>
        <time>2022-01-27T17:10:09.990Z</time>
      </trkpt>
      <trkpt lat="41.94137802362" lon="2.8318558867">
        <ele>105.81</ele>
        <time>2022-01-27T17:10:11.239Z</time>
      </trkpt>
      <trkpt lat="41.94137802362" lon="2.8318558867">
        <ele>105.81</ele>
        <time>2022-01-27T17:10:12.488Z</time>
      </trkpt>
      <trkpt lat="41.94125386156" lon="2.8319169155">
        <ele>105.97</ele>
        <time>2022-01-27T17:10:13.739Z</time>
      </trkpt>
      <trkpt lat="41.94125386156" lon="2.8319169155">
        <ele>105.97</ele>
        <time>2022-01-27T17:10:14.990Z</time>
      </trkpt>
      <trkpt lat="41.9411719315" lon="2.83195718621">
        <ele>105.98</ele>
        <time>2022-01-27T17:10:16.242Z</time>
      </trkpt>
      <trkpt lat="41.9411719315" lon="2.83195718621">
        <ele>105.98</ele>
        <time>2022-01-27T17:10:17.494Z</time>
      </trkpt>
      <trkpt lat="41.94109000144" lon="2.83199745692">
        <ele>106.1</ele>
        <time>2022-01-27T17:10:18.748Z</time>
      </trkpt>
      <trkpt lat="41.94109000144" lon="2.83199745692">
        <ele>106.1</ele>
        <time>2022-01-27T17:10:20.002Z</time>
      </trkpt>
      <trkpt lat="41.94100807137" lon="2.83203772763">
        <ele>106.32</ele>
        <time>2022-01-27T17:10:21.257Z</time>
      </trkpt>
      <trkpt lat="41.94100807137" lon="2.83203772763">
        <ele>106.32</ele>
        <time>2022-01-27T17:10:22.512Z</time>
      </trkpt>
      <trkpt lat="41.94092614131" lon="2.83207799834">
        <ele>106.61</ele>
        <time>2022-01-27T17:10:23.769Z</time>
      </trkpt>
      <trkpt lat="41.94092614131" lon="2.83207799834">
        <ele>106.61</ele>
        <time>2022-01-27T17:10:25.026Z</time>
      </trkpt>
      <trkpt lat="41.94084421125" lon="2.83211826905">
        <ele>106.93</ele>
        <time>2022-01-27T17:10:26.284Z</time>
      </trkpt>
      <trkpt lat="41.94084421125" lon="2.83211826905">
        <ele>106.93</ele>
        <time>2022-01-27T17:10:27.542Z</time>
      </trkpt>
      <trkpt lat="41.9408" lon="2.83214">
        <ele>107.14045249292</ele>
        <time>2022-01-27T17:10:28.801Z</time>
      </trkpt>
      <trkpt lat="41.9408" lon="2.83214">
        <ele>107.14045249292</ele>
        <time>2022-01-27T17:10:30.060Z</time>
      </trkpt>
      <trkpt lat="41.94076039016" lon="2.83214891221">
        <ele>107.32</ele>
        <time>2022-01-27T17:10:31.319Z</time>
      </trkpt>
      <trkpt lat="41.94076039016" lon="2.83214891221">
        <ele>107.32</ele>
        <time>2022-01-27T17:10:32.578Z</time>
      </trkpt>
      <trkpt lat="41.94072224978" lon="2.8321574938">
        <ele>107.52</ele>
        <time>2022-01-27T17:10:33.838Z</time>
      </trkpt>
      <trkpt lat="41.94072224978" lon="2.8321574938">
        <ele>107.52</ele>
        <time>2022-01-27T17:10:35.098Z</time>
      </trkpt>
      <trkpt lat="41.94067435256" lon="2.83216827067">
        <ele>107.82</ele>
        <time>2022-01-27T17:10:36.359Z</time>
      </trkpt>
      <trkpt lat="41.94067435256" lon="2.83216827067">
        <ele>107.82</ele>
        <time>2022-01-27T17:10:37.620Z</time>
      </trkpt>
      <trkpt lat="41.94063177725" lon="2.83217785012">
        <ele>108.13</ele>
        <time>2022-01-27T17:10:38.881Z</time>
      </trkpt>
      <trkpt lat="41.94063177725" lon="2.83217785012">
        <ele>108.13</ele>
        <time>2022-01-27T17:10:40.142Z</time>
      </trkpt>
      <trkpt lat="41.94054573965" lon="2.83219720858">
        <ele>108.83</ele>
        <time>2022-01-27T17:10:41.405Z</time>
      </trkpt>
      <trkpt lat="41.94054573965" lon="2.83219720858">
        <ele>108.83</ele>
        <time>2022-01-27T17:10:42.668Z</time>
      </trkpt>
      <trkpt lat="41.94045970205" lon="2.83221656704">
        <ele>109.57</ele>
        <time>2022-01-27T17:10:43.932Z</time>
      </trkpt>
      <trkpt lat="41.94045970205" lon="2.83221656704">
        <ele>109.57</ele>
        <time>2022-01-27T17:10:45.196Z</time>
      </trkpt>
      <trkpt lat="41.94041623976" lon="2.83222634605">
        <ele>109.97</ele>
        <time>2022-01-27T17:10:46.461Z</time>
      </trkpt>
      <trkpt lat="41.94041623976" lon="2.83222634605">
        <ele>109.97</ele>
        <time>2022-01-27T17:10:47.726Z</time>
      </trkpt>
      <trkpt lat="41.94028762685" lon="2.83225528396">
        <ele>111.23</ele>
        <time>2022-01-27T17:10:48.993Z</time>
      </trkpt>
      <trkpt lat="41.94028762685" lon="2.83225528396">
        <ele>111.23</ele>
        <time>2022-01-27T17:10:50.260Z</time>
      </trkpt>
      <trkpt lat="41.94011555164" lon="2.83229400088">
        <ele>113.02</ele>
        <time>2022-01-27T17:10:51.530Z</time>
      </trkpt>
      <trkpt lat="41.94011555164" lon="2.83229400088">
        <ele>113.02</ele>
        <time>2022-01-27T17:10:52.800Z</time>
      </trkpt>
      <trkpt lat="41.94007208935" lon="2.8323037799">
        <ele>113.43</ele>
        <time>2022-01-27T17:10:54.070Z</time>
      </trkpt>
      <trkpt lat="41.94007208935" lon="2.8323037799">
        <ele>113.43</ele>
        <time>2022-01-27T17:10:55.340Z</time>
      </trkpt>
      <trkpt lat="41.94002951404" lon="2.83231335934">
        <ele>113.79</ele>
        <time>2022-01-27T17:10:56.611Z</time>
      </trkpt>
      <trkpt lat="41.94002951404" lon="2.83231335934">
        <ele>113.79</ele>
        <time>2022-01-27T17:10:57.882Z</time>
      </trkpt>
      <trkpt lat="41.94" lon="2.83232">
        <ele>113.99582192616</ele>
        <time>2022-01-27T17:10:59.154Z</time>
      </trkpt>
      <trkpt lat="41.94" lon="2.83232">
        <ele>113.99582192616</ele>
        <time>2022-01-27T17:11:00.426Z</time>
      </trkpt>
      <trkpt lat="41.93994269027" lon="2.83232">
        <ele>114.39</ele>
        <time>2022-01-27T17:11:01.699Z</time>
      </trkpt>
      <trkpt lat="41.93994269027" lon="2.83232">
        <ele>114.39</ele>
        <time>2022-01-27T17:11:02.972Z</time>
      </trkpt>
      <trkpt lat="41.93981678514" lon="2.83232">
        <ele>114.27</ele>
        <time>2022-01-27T17:11:04.247Z</time>
      </trkpt>
      <trkpt lat="41.93981678514" lon="2.83232">
        <ele>114.27</ele>
        <time>2022-01-27T17:11:05.522Z</time>
      </trkpt>
      <trkpt lat="41.93978" lon="2.83232">
        <ele>114.21741020136</ele>
        <time>2022-01-27T17:11:06.797Z</time>
      </trkpt>
      <trkpt lat="41.93978" lon="2.83232">
        <ele>114.21741020136</ele>
        <time>2022-01-27T17:11:08.072Z</time>
      </trkpt>
      <trkpt lat="41.93969155709" lon="2.83233474048">
        <ele>114.09</ele>
        <time>2022-01-27T17:11:09.349Z</time>
      </trkpt>
      <trkpt lat="41.93969155709" lon="2.83233474048">
        <ele>114.09</ele>
        <time>2022-01-27T17:11:10.626Z</time>
      </trkpt>
      <trkpt lat="41.93952109154" lon="2.83236315141">
        <ele>113.73</ele>
        <time>2022-01-27T17:11:11.905Z</time>
      </trkpt>
      <trkpt lat="41.93952109154" lon="2.83236315141">
        <ele>113.73</ele>
        <time>2022-01-27T17:11:13.184Z</time>
      </trkpt>
      <trkpt lat="41.93936" lon="2.83239">
        <ele>113.35133542022</ele>
        <time>2022-01-27T17:11:14.466Z</time>
      </trkpt>
      <trkpt lat="41.93936" lon="2.83239">
        <ele>113.35133542022</ele>
        <time>2022-01-27T17:11:15.748Z</time>
      </trkpt>
      <trkpt lat="41.93926514422" lon="2.83239296424">
        <ele>113.13</ele>
        <time>2022-01-27T17:11:17.031Z</time>
      </trkpt>
      <trkpt lat="41.93926514422" lon="2.83239296424">
        <ele>113.13</ele>
        <time>2022-01-27T17:11:18.314Z</time>
      </trkpt>
      <trkpt lat="41.93905026422" lon="2.83239967924">
        <ele>112.74</ele>
        <time>2022-01-27T17:11:19.601Z</time>
      </trkpt>
      <trkpt lat="41.93905026422" lon="2.83239967924">
        <ele>112.74</ele>
        <time>2022-01-27T17:11:20.888Z</time>
      </trkpt>
      <trkpt lat="41.93904" lon="2.8324">
        <ele>112.71859430691</ele>
        <time>2022-01-27T17:11:22.175Z</time>
      </trkpt>
      <trkpt lat="41.93904" lon="2.8324">
        <ele>112.71859430691</ele>
        <time>2022-01-27T17:11:23.462Z</time>
      </trkpt>
      <trkpt lat="41.93896495049" lon="2.83241667767">
        <ele>112.56</ele>
        <time>2022-01-27T17:11:24.750Z</time>
      </trkpt>
      <trkpt lat="41.93896495049" lon="2.83241667767">
        <ele>112.56</ele>
        <time>2022-01-27T17:11:26.038Z</time>
      </trkpt>
      <trkpt lat="41.93895" lon="2.83242">
        <ele>112.51697932281</ele>
        <time>2022-01-27T17:11:27.327Z</time>
      </trkpt>
      <trkpt lat="41.93895" lon="2.83242">
        <ele>112.51697932281</ele>
        <time>2022-01-27T17:11:28.616Z</time>
      </trkpt>
      <trkpt lat="41.93892501424" lon="2.8324341586">
        <ele>112.44</ele>
        <time>2022-01-27T17:11:29.905Z</time>
      </trkpt>
      <trkpt lat="41.93892501424" lon="2.8324341586">
        <ele>112.44</ele>
        <time>2022-01-27T17:11:31.194Z</time>
      </trkpt>
      <trkpt lat="41.93888523623" lon="2.83245669947">
        <ele>112.29</ele>
        <time>2022-01-27T17:11:32.484Z</time>
      </trkpt>
      <trkpt lat="41.93888523623" lon="2.83245669947">
        <ele>112.29</ele>
        <time>2022-01-27T17:11:33.774Z</time>
      </trkpt>
      <trkpt lat="41.93884545822" lon="2.83247924034">
        <ele>112.09</ele>
        <time>2022-01-27T17:11:35.064Z</time>
      </trkpt>
      <trkpt lat="41.93884545822" lon="2.83247924034">
        <ele>112.09</ele>
        <time>2022-01-27T17:11:36.354Z</time>
      </trkpt>
      <trkpt lat="41.9388056802" lon="2.83250178122">
        <ele>111.84</ele>
        <time>2022-01-27T17:11:37.645Z</time>
      </trkpt>
      <trkpt lat="41.9388056802" lon="2.83250178122">
        <ele>111.84</ele>
        <time>2022-01-27T17:11:38.936Z</time>
      </trkpt>
      <trkpt lat="41.93876590219" lon="2.83252432209">
        <ele>111.56</ele>
        <time>2022-01-27T17:11:40.228Z</time>
      </trkpt>
      <trkpt lat="41.93876590219" lon="2.83252432209">
        <ele>111.56</ele>
        <time>2022-01-27T17:11:41.520Z</time>
      </trkpt>
      <trkpt lat="41.93868468875" lon="2.83257034304">
        <ele>112.33</ele>
        <time>2022-01-27T17:11:42.813Z</time>
      </trkpt>
      <trkpt lat="41.93868468875" lon="2.83257034304">
        <ele>112.33</ele>
        <time>2022-01-27T17:11:44.106Z</time>
      </trkpt>
      <trkpt lat="41.93865" lon="2.83259">
        <ele>112.64607665352</ele>
        <time>2022-01-27T17:11:45.400Z</time>
      </trkpt>
      <trkpt lat="41.93865" lon="2.83259">
        <ele>112.64607665352</ele>
        <time>2022-01-27T17:11:46.694Z</time>
      </trkpt>
      <trkpt lat="41.93860160769" lon="2.83260935692">
        <ele>113.07</ele>
        <time>2022-01-27T17:11:47.989Z</time>
      </trkpt>
      <trkpt lat="41.93860160769" lon="2.83260935692">
        <ele>113.07</ele>
        <time>2022-01-27T17:11:49.284Z</time>
      </trkpt>
      <trkpt lat="41.93855937092" lon="2.83262625163">
        <ele>113.42</ele>
        <time>2022-01-27T17:11:50.579Z</time>
      </trkpt>
      <trkpt lat="41.93855937092" lon="2.83262625163">
        <ele>113.42</ele>
        <time>2022-01-27T17:11:51.874Z</time>
      </trkpt>
      <trkpt lat="41.93855" lon="2.83263">
        <ele>113.48766928667</ele>
        <time>2022-01-27T17:11:53.169Z</time>
      </trkpt>
      <trkpt lat="41.93855" lon="2.83263">
        <ele>113.48766928667</ele>
        <time>2022-01-27T17:11:54.464Z</time>
      </trkpt>
      <trkpt lat="41.93847215147" lon="2.8326180233">
        <ele>114.03</ele>
        <time>2022-01-27T17:11:55.761Z</time>
      </trkpt>
      <trkpt lat="41.93847215147" lon="2.8326180233">
        <ele>114.03</ele>
        <time>2022-01-27T17:11:57.058Z</time>
      </trkpt>
      <trkpt lat="41.93842" lon="2.83261">
        <ele>114.3</ele>
        <time>2022-01-27T17:11:58.355Z</time>
      </trkpt>
      <trkpt lat="41.93842" lon="2.83261">
        <ele>114.3</ele>
        <time>2022-01-27T17:11:59.652Z</time>
      </trkpt>
      <trkpt lat="41.93834029148" lon="2.83261">
        <ele>114.76</ele>
        <time>2022-01-27T17:12:00.951Z</time>
      </trkpt>
      <trkpt lat="41.93834029148" lon="2.83261">
        <ele>114.76</ele>
        <time>2022-01-27T17:12:02.250Z</time>
      </trkpt>
      <trkpt lat="41.93829622468" lon="2.83261">
        <ele>114.96</ele>
        <time>2022-01-27T17:12:03.549Z</time>
      </trkpt>
      <trkpt lat="41.93829622468" lon="2.83261">
        <ele>114.96</ele>
        <time>2022-01-27T17:12:04.848Z</time>
      </trkpt>
      <trkpt lat="41.9381199575" lon="2.83261">
        <ele>115.69</ele>
        <time>2022-01-27T17:12:06.150Z</time>
      </trkpt>
      <trkpt lat="41.9381199575" lon="2.83261">
        <ele>115.69</ele>
        <time>2022-01-27T17:12:07.452Z</time>
      </trkpt>
      <trkpt lat="41.93811" lon="2.83261">
        <ele>115.71123440263</ele>
        <time>2022-01-27T17:12:08.754Z</time>
      </trkpt>
      <trkpt lat="41.93811" lon="2.83261">
        <ele>115.71123440263</ele>
        <time>2022-01-27T17:12:10.056Z</time>
      </trkpt>
      <trkpt lat="41.93803" lon="2.83263">
        <ele>115.88475961741</ele>
        <time>2022-01-27T17:12:11.360Z</time>
      </trkpt>
      <trkpt lat="41.93803" lon="2.83263">
        <ele>115.88475961741</ele>
        <time>2022-01-27T17:12:12.664Z</time>
      </trkpt>
      <trkpt lat="41.93806" lon="2.83258">
        <ele>115.97</ele>
        <time>2022-01-27T17:12:13.969Z</time>
      </trkpt>
      <trkpt lat="41.93806" lon="2.83258">
        <ele>115.97</ele>
        <time>2022-01-27T17:12:15.274Z</time>
      </trkpt>
      <trkpt lat="41.93816116058" lon="2.83248479004">
        <ele>116.29</ele>
        <time>2022-01-27T17:12:16.580Z</time>
      </trkpt>
      <trkpt lat="41.93816116058" lon="2.83248479004">
        <ele>116.29</ele>
        <time>2022-01-27T17:12:17.886Z</time>
      </trkpt>
      <trkpt lat="41.93823" lon="2.83242">
        <ele>116.81</ele>
        <time>2022-01-27T17:12:19.194Z</time>
      </trkpt>
      <trkpt lat="41.93823" lon="2.83242">
        <ele>116.81</ele>
        <time>2022-01-27T17:12:20.502Z</time>
      </trkpt>
      <trkpt lat="41.93823217243" lon="2.83241684011">
        <ele>116.81</ele>
        <time>2022-01-27T17:12:21.810Z</time>
      </trkpt>
      <trkpt lat="41.93823217243" lon="2.83241684011">
        <ele>116.81</ele>
        <time>2022-01-27T17:12:23.118Z</time>
      </trkpt>
      <trkpt lat="41.93829138144" lon="2.83233071791">
        <ele>117.36</ele>
        <time>2022-01-27T17:12:24.427Z</time>
      </trkpt>
      <trkpt lat="41.93829138144" lon="2.83233071791">
        <ele>117.36</ele>
        <time>2022-01-27T17:12:25.736Z</time>
      </trkpt>
      <trkpt lat="41.93834" lon="2.83226">
        <ele>117.84236665128</ele>
        <time>2022-01-27T17:12:27.046Z</time>
      </trkpt>
      <trkpt lat="41.93834" lon="2.83226">
        <ele>117.84236665128</ele>
        <time>2022-01-27T17:12:28.356Z</time>
      </trkpt>
      <trkpt lat="41.93854" lon="2.83215">
        <ele>119.29753275586</ele>
        <time>2022-01-27T17:12:29.670Z</time>
      </trkpt>
      <trkpt lat="41.93854" lon="2.83215">
        <ele>119.29753275586</ele>
        <time>2022-01-27T17:12:30.984Z</time>
      </trkpt>
      <trkpt lat="41.93866" lon="2.83199">
        <ele>120.43567076775</ele>
        <time>2022-01-27T17:12:32.301Z</time>
      </trkpt>
      <trkpt lat="41.93866" lon="2.83199">
        <ele>120.43567076775</ele>
        <time>2022-01-27T17:12:33.618Z</time>
      </trkpt>
      <trkpt lat="41.93867257686" lon="2.83196188701">
        <ele>120.6</ele>
        <time>2022-01-27T17:12:34.935Z</time>
      </trkpt>
      <trkpt lat="41.93867257686" lon="2.83196188701">
        <ele>120.6</ele>
        <time>2022-01-27T17:12:36.252Z</time>
      </trkpt>
      <trkpt lat="41.93876342266" lon="2.83175881994">
        <ele>121.72</ele>
        <time>2022-01-27T17:12:37.572Z</time>
      </trkpt>
      <trkpt lat="41.93876342266" lon="2.83175881994">
        <ele>121.72</ele>
        <time>2022-01-27T17:12:38.892Z</time>
      </trkpt>
      <trkpt lat="41.93883" lon="2.83161">
        <ele>121.95845502257</ele>
        <time>2022-01-27T17:12:40.214Z</time>
      </trkpt>
      <trkpt lat="41.93883" lon="2.83161">
        <ele>121.95845502257</ele>
        <time>2022-01-27T17:12:41.536Z</time>
      </trkpt>
      <trkpt lat="41.93878001156" lon="2.83149613744">
        <ele>122.14</ele>
        <time>2022-01-27T17:12:42.859Z</time>
      </trkpt>
      <trkpt lat="41.93878001156" lon="2.83149613744">
        <ele>122.14</ele>
        <time>2022-01-27T17:12:44.182Z</time>
      </trkpt>
      <trkpt lat="41.93865" lon="2.8312">
        <ele>122.58108698534</ele>
        <time>2022-01-27T17:12:45.510Z</time>
      </trkpt>
      <trkpt lat="41.93865" lon="2.8312">
        <ele>122.58108698534</ele>
        <time>2022-01-27T17:12:46.838Z</time>
      </trkpt>
      <trkpt lat="41.93859" lon="2.83112">
        <ele>122.72</ele>
        <time>2022-01-27T17:12:48.167Z</time>
      </trkpt>
      <trkpt lat="41.93859" lon="2.83112">
        <ele>122.72</ele>
        <time>2022-01-27T17:12:49.496Z</time>
      </trkpt>
      <trkpt lat="41.93843520439" lon="2.83101283381">
        <ele>123.11</ele>
        <time>2022-01-27T17:12:50.828Z</time>
      </trkpt>
      <trkpt lat="41.93843520439" lon="2.83101283381">
        <ele>123.11</ele>
        <time>2022-01-27T17:12:52.160Z</time>
      </trkpt>
      <trkpt lat="41.93833" lon="2.83094">
        <ele>123.34439858464</ele>
        <time>2022-01-27T17:12:53.494Z</time>
      </trkpt>
      <trkpt lat="41.93833" lon="2.83094">
        <ele>123.34439858464</ele>
        <time>2022-01-27T17:12:54.828Z</time>
      </trkpt>
      <trkpt lat="41.93842227945" lon="2.83100388577">
        <ele>123.55</ele>
        <time>2022-01-27T17:12:56.163Z</time>
      </trkpt>
      <trkpt lat="41.93842227945" lon="2.83100388577">
        <ele>123.55</ele>
        <time>2022-01-27T17:12:57.498Z</time>
      </trkpt>
      <trkpt lat="41.93850143289" lon="2.83105868431">
        <ele>123.69</ele>
        <time>2022-01-27T17:12:58.835Z</time>
      </trkpt>
      <trkpt lat="41.93850143289" lon="2.83105868431">
        <ele>123.69</ele>
        <time>2022-01-27T17:13:00.172Z</time>
      </trkpt>
      <trkpt lat="41.93854140938" lon="2.83108636034">
        <ele>123.74</ele>
        <time>2022-01-27T17:13:01.509Z</time>
      </trkpt>
      <trkpt lat="41.93854140938" lon="2.83108636034">
        <ele>123.74</ele>
        <time>2022-01-27T17:13:02.846Z</time>
      </trkpt>
      <trkpt lat="41.93858058634" lon="2.83111348285">
        <ele>123.78</ele>
        <time>2022-01-27T17:13:04.184Z</time>
      </trkpt>
      <trkpt lat="41.93858058634" lon="2.83111348285">
        <ele>123.78</ele>
        <time>2022-01-27T17:13:05.522Z</time>
      </trkpt>
      <trkpt lat="41.93859" lon="2.83112">
        <ele>123.78118929301</ele>
        <time>2022-01-27T17:13:06.860Z</time>
      </trkpt>
      <trkpt lat="41.93859" lon="2.83112">
        <ele>123.78118929301</ele>
        <time>2022-01-27T17:13:08.198Z</time>
      </trkpt>
      <trkpt lat="41.93865" lon="2.8312">
        <ele>123.79</ele>
        <time>2022-01-27T17:13:09.538Z</time>
      </trkpt>
      <trkpt lat="41.93865" lon="2.8312">
        <ele>123.79</ele>
        <time>2022-01-27T17:13:10.878Z</time>
      </trkpt>
      <trkpt lat="41.93866977399" lon="2.83124504076">
        <ele>123.78</ele>
        <time>2022-01-27T17:13:12.218Z</time>
      </trkpt>
      <trkpt lat="41.93866977399" lon="2.83124504076">
        <ele>123.78</ele>
        <time>2022-01-27T17:13:13.558Z</time>
      </trkpt>
      <trkpt lat="41.93876028039" lon="2.83145119423">
        <ele>123.67</ele>
        <time>2022-01-27T17:13:14.901Z</time>
      </trkpt>
      <trkpt lat="41.93876028039" lon="2.83145119423">
        <ele>123.67</ele>
        <time>2022-01-27T17:13:16.244Z</time>
      </trkpt>
      <trkpt lat="41.9388055336" lon="2.83155427097">
        <ele>123.65</ele>
        <time>2022-01-27T17:13:17.589Z</time>
      </trkpt>
      <trkpt lat="41.9388055336" lon="2.83155427097">
        <ele>123.65</ele>
        <time>2022-01-27T17:13:18.934Z</time>
      </trkpt>
      <trkpt lat="41.93883" lon="2.83161">
        <ele>123.66924491508</ele>
        <time>2022-01-27T17:13:20.279Z</time>
      </trkpt>
      <trkpt lat="41.93883" lon="2.83161">
        <ele>123.66924491508</ele>
        <time>2022-01-27T17:13:21.624Z</time>
      </trkpt>
      <trkpt lat="41.93901" lon="2.83123">
        <ele>123.80322328471</ele>
        <time>2022-01-27T17:13:22.975Z</time>
      </trkpt>
      <trkpt lat="41.93901" lon="2.83123">
        <ele>123.80322328471</ele>
        <time>2022-01-27T17:13:24.326Z</time>
      </trkpt>
      <trkpt lat="41.93902" lon="2.83123">
        <ele>123.81</ele>
        <time>2022-01-27T17:13:25.677Z</time>
      </trkpt>
      <trkpt lat="41.93902" lon="2.83123">
        <ele>123.81</ele>
        <time>2022-01-27T17:13:27.028Z</time>
      </trkpt>
      <trkpt lat="41.93902198944" lon="2.8312210475">
        <ele>123.81</ele>
        <time>2022-01-27T17:13:28.379Z</time>
      </trkpt>
      <trkpt lat="41.93902198944" lon="2.8312210475">
        <ele>123.81</ele>
        <time>2022-01-27T17:13:29.730Z</time>
      </trkpt>
      <trkpt lat="41.93904747449" lon="2.83110636478">
        <ele>123.86</ele>
        <time>2022-01-27T17:13:31.082Z</time>
      </trkpt>
      <trkpt lat="41.93904747449" lon="2.83110636478">
        <ele>123.86</ele>
        <time>2022-01-27T17:13:32.434Z</time>
      </trkpt>
      <trkpt lat="41.93906" lon="2.83105">
        <ele>123.89945159394</ele>
        <time>2022-01-27T17:13:33.787Z</time>
      </trkpt>
      <trkpt lat="41.93906" lon="2.83105">
        <ele>123.89945159394</ele>
        <time>2022-01-27T17:13:35.140Z</time>
      </trkpt>
      <trkpt lat="41.93905081011" lon="2.8309305314">
        <ele>123.98</ele>
        <time>2022-01-27T17:13:36.495Z</time>
      </trkpt>
      <trkpt lat="41.93905081011" lon="2.8309305314">
        <ele>123.98</ele>
        <time>2022-01-27T17:13:37.850Z</time>
      </trkpt>
      <trkpt lat="41.93904165195" lon="2.83081147533">
        <ele>124.11</ele>
        <time>2022-01-27T17:13:39.206Z</time>
      </trkpt>
      <trkpt lat="41.93904165195" lon="2.83081147533">
        <ele>124.11</ele>
        <time>2022-01-27T17:13:40.562Z</time>
      </trkpt>
      <trkpt lat="41.93904" lon="2.83079">
        <ele>124.13876395225</ele>
        <time>2022-01-27T17:13:41.918Z</time>
      </trkpt>
      <trkpt lat="41.93904" lon="2.83079">
        <ele>124.13876395225</ele>
        <time>2022-01-27T17:13:43.274Z</time>
      </trkpt>
      <trkpt lat="41.93903472026" lon="2.83063160792">
        <ele>124.35</ele>
        <time>2022-01-27T17:13:44.632Z</time>
      </trkpt>
      <trkpt lat="41.93903472026" lon="2.83063160792">
        <ele>124.35</ele>
        <time>2022-01-27T17:13:45.990Z</time>
      </trkpt>
      <trkpt lat="41.93902674887" lon="2.83039246606">
        <ele>124.74</ele>
        <time>2022-01-27T17:13:47.351Z</time>
      </trkpt>
      <trkpt lat="41.93902674887" lon="2.83039246606">
        <ele>124.74</ele>
        <time>2022-01-27T17:13:48.712Z</time>
      </trkpt>
      <trkpt lat="41.93902091123" lon="2.83021733692">
        <ele>124.72</ele>
        <time>2022-01-27T17:13:50.075Z</time>
      </trkpt>
      <trkpt lat="41.93902091123" lon="2.83021733692">
        <ele>124.72</ele>
        <time>2022-01-27T17:13:51.438Z</time>
      </trkpt>
      <trkpt lat="41.93902" lon="2.83019">
        <ele>124.72</ele>
        <time>2022-01-27T17:13:52.801Z</time>
      </trkpt>
      <trkpt lat="41.93902" lon="2.83019">
        <ele>124.72</ele>
        <time>2022-01-27T17:13:54.164Z</time>
      </trkpt>
      <trkpt lat="41.93906" lon="2.83022">
        <ele>124.72</ele>
        <time>2022-01-27T17:13:55.528Z</time>
      </trkpt>
      <trkpt lat="41.93906" lon="2.83022">
        <ele>124.72</ele>
        <time>2022-01-27T17:13:56.892Z</time>
      </trkpt>
      <trkpt lat="41.9391" lon="2.8302">
        <ele>124.72</ele>
        <time>2022-01-27T17:13:58.257Z</time>
      </trkpt>
      <trkpt lat="41.9391" lon="2.8302">
        <ele>124.72</ele>
        <time>2022-01-27T17:13:59.622Z</time>
      </trkpt>
      <trkpt lat="41.93915" lon="2.8301">
        <ele>124.72</ele>
        <time>2022-01-27T17:14:00.988Z</time>
      </trkpt>
      <trkpt lat="41.93915" lon="2.8301">
        <ele>124.72</ele>
        <time>2022-01-27T17:14:02.354Z</time>
      </trkpt>
      <trkpt lat="41.93915529147" lon="2.82995713027">
        <ele>124.72</ele>
        <time>2022-01-27T17:14:03.722Z</time>
      </trkpt>
      <trkpt lat="41.93915529147" lon="2.82995713027">
        <ele>124.72</ele>
        <time>2022-01-27T17:14:05.090Z</time>
      </trkpt>
      <trkpt lat="41.93916" lon="2.82983">
        <ele>124.75</ele>
        <time>2022-01-27T17:14:06.459Z</time>
      </trkpt>
      <trkpt lat="41.93916" lon="2.82983">
        <ele>124.75</ele>
        <time>2022-01-27T17:14:07.828Z</time>
      </trkpt>
      <trkpt lat="41.93920909328" lon="2.82974545045">
        <ele>124.81</ele>
        <time>2022-01-27T17:14:09.199Z</time>
      </trkpt>
      <trkpt lat="41.93920909328" lon="2.82974545045">
        <ele>124.81</ele>
        <time>2022-01-27T17:14:10.570Z</time>
      </trkpt>
      <trkpt lat="41.93931589405" lon="2.82956151581">
        <ele>125.07</ele>
        <time>2022-01-27T17:14:11.944Z</time>
      </trkpt>
      <trkpt lat="41.93931589405" lon="2.82956151581">
        <ele>125.07</ele>
        <time>2022-01-27T17:14:13.318Z</time>
      </trkpt>
      <trkpt lat="41.93934" lon="2.82952">
        <ele>125.11940014342</ele>
        <time>2022-01-27T17:14:14.692Z</time>
      </trkpt>
      <trkpt lat="41.93934" lon="2.82952">
        <ele>125.11940014342</ele>
        <time>2022-01-27T17:14:16.066Z</time>
      </trkpt>
      <trkpt lat="41.9393620728" lon="2.82946261072">
        <ele>125.18</ele>
        <time>2022-01-27T17:14:17.441Z</time>
      </trkpt>
      <trkpt lat="41.9393620728" lon="2.82946261072">
        <ele>125.18</ele>
        <time>2022-01-27T17:14:18.816Z</time>
      </trkpt>
      <trkpt lat="41.93939" lon="2.82939">
        <ele>125.22879180852</ele>
        <time>2022-01-27T17:14:20.192Z</time>
      </trkpt>
      <trkpt lat="41.93939" lon="2.82939">
        <ele>125.22879180852</ele>
        <time>2022-01-27T17:14:21.568Z</time>
      </trkpt>
      <trkpt lat="41.93939228374" lon="2.82935460202">
        <ele>125.25</ele>
        <time>2022-01-27T17:14:22.944Z</time>
      </trkpt>
      <trkpt lat="41.93939228374" lon="2.82935460202">
        <ele>125.25</ele>
        <time>2022-01-27T17:14:24.320Z</time>
      </trkpt>
      <trkpt lat="41.93939982148" lon="2.82923776704">
        <ele>125.29</ele>
        <time>2022-01-27T17:14:25.698Z</time>
      </trkpt>
      <trkpt lat="41.93939982148" lon="2.82923776704">
        <ele>125.29</ele>
        <time>2022-01-27T17:14:27.076Z</time>
      </trkpt>
      <trkpt lat="41.93941" lon="2.82908">
        <ele>125.29</ele>
        <time>2022-01-27T17:14:28.456Z</time>
      </trkpt>
      <trkpt lat="41.93941" lon="2.82908">
        <ele>125.29</ele>
        <time>2022-01-27T17:14:29.836Z</time>
      </trkpt>
      <trkpt lat="41.93927" lon="2.82868">
        <ele>125.29</ele>
        <time>2022-01-27T17:14:31.221Z</time>
      </trkpt>
      <trkpt lat="41.93927" lon="2.82868">
        <ele>125.29</ele>
        <time>2022-01-27T17:14:32.606Z</time>
      </trkpt>
      <trkpt lat="41.93915" lon="2.82841">
        <ele>125.29</ele>
        <time>2022-01-27T17:14:33.995Z</time>
      </trkpt>
      <trkpt lat="41.93915" lon="2.82841">
        <ele>125.29</ele>
        <time>2022-01-27T17:14:35.384Z</time>
      </trkpt>
      <trkpt lat="41.93914" lon="2.82832">
        <ele>125.29</ele>
        <time>2022-01-27T17:14:36.774Z</time>
      </trkpt>
      <trkpt lat="41.93914" lon="2.82832">
        <ele>125.29</ele>
        <time>2022-01-27T17:14:38.164Z</time>
      </trkpt>
      <trkpt lat="41.93925" lon="2.82829">
        <ele>125.29</ele>
        <time>2022-01-27T17:14:39.556Z</time>
      </trkpt>
      <trkpt lat="41.93925" lon="2.82829">
        <ele>125.29</ele>
        <time>2022-01-27T17:14:40.948Z</time>
      </trkpt>
      <trkpt lat="41.93934" lon="2.82833">
        <ele>125.29</ele>
        <time>2022-01-27T17:14:42.341Z</time>
      </trkpt>
      <trkpt lat="41.93934" lon="2.82833">
        <ele>125.29</ele>
        <time>2022-01-27T17:14:43.734Z</time>
      </trkpt>
      <trkpt lat="41.93941454114" lon="2.82839708703">
        <ele>125.29</ele>
        <time>2022-01-27T17:14:45.128Z</time>
      </trkpt>
      <trkpt lat="41.93941454114" lon="2.82839708703">
        <ele>125.29</ele>
        <time>2022-01-27T17:14:46.522Z</time>
      </trkpt>
      <trkpt lat="41.93944" lon="2.82842">
        <ele>125.3286328502</ele>
        <time>2022-01-27T17:14:47.917Z</time>
      </trkpt>
      <trkpt lat="41.93944" lon="2.82842">
        <ele>125.3286328502</ele>
        <time>2022-01-27T17:14:49.312Z</time>
      </trkpt>
      <trkpt lat="41.93949304677" lon="2.82844652338">
        <ele>125.4</ele>
        <time>2022-01-27T17:14:50.708Z</time>
      </trkpt>
      <trkpt lat="41.93949304677" lon="2.82844652338">
        <ele>125.4</ele>
        <time>2022-01-27T17:14:52.104Z</time>
      </trkpt>
      <trkpt lat="41.93952" lon="2.82846">
        <ele>125.4261031681</ele>
        <time>2022-01-27T17:14:53.500Z</time>
      </trkpt>
      <trkpt lat="41.93952" lon="2.82846">
        <ele>125.4261031681</ele>
        <time>2022-01-27T17:14:54.896Z</time>
      </trkpt>
      <trkpt lat="41.93953519341" lon="2.82846253223">
        <ele>125.44</ele>
        <time>2022-01-27T17:14:56.293Z</time>
      </trkpt>
      <trkpt lat="41.93953519341" lon="2.82846253223">
        <ele>125.44</ele>
        <time>2022-01-27T17:14:57.690Z</time>
      </trkpt>
      <trkpt lat="41.93962176492" lon="2.82847696082">
        <ele>125.47</ele>
        <time>2022-01-27T17:14:59.088Z</time>
      </trkpt>
      <trkpt lat="41.93962176492" lon="2.82847696082">
        <ele>125.47</ele>
        <time>2022-01-27T17:15:00.486Z</time>
      </trkpt>
      <trkpt lat="41.93964" lon="2.82848">
        <ele>125.46859091747</ele>
        <time>2022-01-27T17:15:01.884Z</time>
      </trkpt>
      <trkpt lat="41.93964" lon="2.82848">
        <ele>125.46859091747</ele>
        <time>2022-01-27T17:15:03.282Z</time>
      </trkpt>
      <trkpt lat="41.93966" lon="2.82845">
        <ele>125.46629291661</ele>
        <time>2022-01-27T17:15:04.681Z</time>
      </trkpt>
      <trkpt lat="41.93966" lon="2.82845">
        <ele>125.46629291661</ele>
        <time>2022-01-27T17:15:06.080Z</time>
      </trkpt>
      <trkpt lat="41.93963385726" lon="2.82834542903">
        <ele>125.46</ele>
        <time>2022-01-27T17:15:07.480Z</time>
      </trkpt>
      <trkpt lat="41.93963385726" lon="2.82834542903">
        <ele>125.46</ele>
        <time>2022-01-27T17:15:08.880Z</time>
      </trkpt>
      <trkpt lat="41.93962" lon="2.82829">
        <ele>125.44488541874</ele>
        <time>2022-01-27T17:15:10.281Z</time>
      </trkpt>
      <trkpt lat="41.93962" lon="2.82829">
        <ele>125.44488541874</ele>
        <time>2022-01-27T17:15:11.682Z</time>
      </trkpt>
      <trkpt lat="41.93958409725" lon="2.82825858509">
        <ele>125.43</ele>
        <time>2022-01-27T17:15:13.083Z</time>
      </trkpt>
      <trkpt lat="41.93958409725" lon="2.82825858509">
        <ele>125.43</ele>
        <time>2022-01-27T17:15:14.484Z</time>
      </trkpt>
      <trkpt lat="41.93954" lon="2.82822">
        <ele>125.4</ele>
        <time>2022-01-27T17:15:15.886Z</time>
      </trkpt>
      <trkpt lat="41.93954" lon="2.82822">
        <ele>125.4</ele>
        <time>2022-01-27T17:15:17.288Z</time>
      </trkpt>
      <trkpt lat="41.93943" lon="2.82818">
        <ele>125.27389258645</ele>
        <time>2022-01-27T17:15:18.692Z</time>
      </trkpt>
      <trkpt lat="41.93943" lon="2.82818">
        <ele>125.27389258645</ele>
        <time>2022-01-27T17:15:20.096Z</time>
      </trkpt>
      <trkpt lat="41.93938" lon="2.82814">
        <ele>125.22</ele>
        <time>2022-01-27T17:15:21.501Z</time>
      </trkpt>
      <trkpt lat="41.93938" lon="2.82814">
        <ele>125.22</ele>
        <time>2022-01-27T17:15:22.906Z</time>
      </trkpt>
      <trkpt lat="41.93934963015" lon="2.82817036985">
        <ele>125.19</ele>
        <time>2022-01-27T17:15:24.312Z</time>
      </trkpt>
      <trkpt lat="41.93934963015" lon="2.82817036985">
        <ele>125.19</ele>
        <time>2022-01-27T17:15:25.718Z</time>
      </trkpt>
      <trkpt lat="41.93933" lon="2.82819">
        <ele>125.18439085612</ele>
        <time>2022-01-27T17:15:27.124Z</time>
      </trkpt>
      <trkpt lat="41.93933" lon="2.82819">
        <ele>125.18439085612</ele>
        <time>2022-01-27T17:15:28.530Z</time>
      </trkpt>
      <trkpt lat="41.93938822056" lon="2.82822153613">
        <ele>125.17</ele>
        <time>2022-01-27T17:15:29.937Z</time>
      </trkpt>
      <trkpt lat="41.93938822056" lon="2.82822153613">
        <ele>125.17</ele>
        <time>2022-01-27T17:15:31.344Z</time>
      </trkpt>
      <trkpt lat="41.93950917337" lon="2.82828705224">
        <ele>125.16</ele>
        <time>2022-01-27T17:15:32.753Z</time>
      </trkpt>
      <trkpt lat="41.93950917337" lon="2.82828705224">
        <ele>125.16</ele>
        <time>2022-01-27T17:15:34.162Z</time>
      </trkpt>
      <trkpt lat="41.93957" lon="2.82832">
        <ele>125.18255252971</ele>
        <time>2022-01-27T17:15:35.572Z</time>
      </trkpt>
      <trkpt lat="41.93957" lon="2.82832">
        <ele>125.18255252971</ele>
        <time>2022-01-27T17:15:36.982Z</time>
      </trkpt>
      <trkpt lat="41.93957885586" lon="2.82829343243">
        <ele>125.19</ele>
        <time>2022-01-27T17:15:38.393Z</time>
      </trkpt>
      <trkpt lat="41.93957885586" lon="2.82829343243">
        <ele>125.19</ele>
        <time>2022-01-27T17:15:39.804Z</time>
      </trkpt>
      <trkpt lat="41.93959" lon="2.82826">
        <ele>125.20855242126</ele>
        <time>2022-01-27T17:15:41.215Z</time>
      </trkpt>
      <trkpt lat="41.93959" lon="2.82826">
        <ele>125.20855242126</ele>
        <time>2022-01-27T17:15:42.626Z</time>
      </trkpt>
      <trkpt lat="41.93957554976" lon="2.82824843981">
        <ele>125.22</ele>
        <time>2022-01-27T17:15:44.037Z</time>
      </trkpt>
      <trkpt lat="41.93957554976" lon="2.82824843981">
        <ele>125.22</ele>
        <time>2022-01-27T17:15:45.448Z</time>
      </trkpt>
      <trkpt lat="41.93954" lon="2.82822">
        <ele>125.26312421676</ele>
        <time>2022-01-27T17:15:46.860Z</time>
      </trkpt>
      <trkpt lat="41.93954" lon="2.82822">
        <ele>125.26312421676</ele>
        <time>2022-01-27T17:15:48.272Z</time>
      </trkpt>
      <trkpt lat="41.93949659305" lon="2.82820421565">
        <ele>125.31</ele>
        <time>2022-01-27T17:15:49.685Z</time>
      </trkpt>
      <trkpt lat="41.93949659305" lon="2.82820421565">
        <ele>125.31</ele>
        <time>2022-01-27T17:15:51.098Z</time>
      </trkpt>
      <trkpt lat="41.93943" lon="2.82818">
        <ele>124.93444503084</ele>
        <time>2022-01-27T17:15:52.512Z</time>
      </trkpt>
      <trkpt lat="41.93943" lon="2.82818">
        <ele>124.93444503084</ele>
        <time>2022-01-27T17:15:53.926Z</time>
      </trkpt>
      <trkpt lat="41.93941509133" lon="2.82816807306">
        <ele>124.84</ele>
        <time>2022-01-27T17:15:55.340Z</time>
      </trkpt>
      <trkpt lat="41.93941509133" lon="2.82816807306">
        <ele>124.84</ele>
        <time>2022-01-27T17:15:56.754Z</time>
      </trkpt>
      <trkpt lat="41.93938" lon="2.82814">
        <ele>124.59089753452</ele>
        <time>2022-01-27T17:15:58.169Z</time>
      </trkpt>
      <trkpt lat="41.93938" lon="2.82814">
        <ele>124.59089753452</ele>
        <time>2022-01-27T17:15:59.584Z</time>
      </trkpt>
      <trkpt lat="41.93937" lon="2.82806">
        <ele>124.22279127368</ele>
        <time>2022-01-27T17:16:01.000Z</time>
      </trkpt>
      <trkpt lat="41.93937" lon="2.82806">
        <ele>124.22279127368</ele>
        <time>2022-01-27T17:16:02.416Z</time>
      </trkpt>
      <trkpt lat="41.93937" lon="2.82805">
        <ele>124.17741422346</ele>
        <time>2022-01-27T17:16:03.832Z</time>
      </trkpt>
      <trkpt lat="41.93937" lon="2.82805">
        <ele>124.17741422346</ele>
        <time>2022-01-27T17:16:05.248Z</time>
      </trkpt>
      <trkpt lat="41.93938907322" lon="2.82806144393">
        <ele>124.05</ele>
        <time>2022-01-27T17:16:06.664Z</time>
      </trkpt>
      <trkpt lat="41.93938907322" lon="2.82806144393">
        <ele>124.05</ele>
        <time>2022-01-27T17:16:08.080Z</time>
      </trkpt>
      <trkpt lat="41.93942" lon="2.82808">
        <ele>123.82404845837</ele>
        <time>2022-01-27T17:16:09.497Z</time>
      </trkpt>
      <trkpt lat="41.93942" lon="2.82808">
        <ele>123.82404845837</ele>
        <time>2022-01-27T17:16:10.914Z</time>
      </trkpt>
      <trkpt lat="41.93947082503" lon="2.82809172885">
        <ele>123.48</ele>
        <time>2022-01-27T17:16:12.331Z</time>
      </trkpt>
      <trkpt lat="41.93947082503" lon="2.82809172885">
        <ele>123.48</ele>
        <time>2022-01-27T17:16:13.748Z</time>
      </trkpt>
      <trkpt lat="41.93951425659" lon="2.82810175152">
        <ele>123.13</ele>
        <time>2022-01-27T17:16:15.166Z</time>
      </trkpt>
      <trkpt lat="41.93951425659" lon="2.82810175152">
        <ele>123.13</ele>
        <time>2022-01-27T17:16:16.584Z</time>
      </trkpt>
      <trkpt lat="41.93955" lon="2.82811">
        <ele>122.72</ele>
        <time>2022-01-27T17:16:18.003Z</time>
      </trkpt>
      <trkpt lat="41.93955" lon="2.82811">
        <ele>122.72</ele>
        <time>2022-01-27T17:16:19.422Z</time>
      </trkpt>
      <trkpt lat="41.93955684883" lon="2.82810885853">
        <ele>122.72</ele>
        <time>2022-01-27T17:16:20.841Z</time>
      </trkpt>
      <trkpt lat="41.93955684883" lon="2.82810885853">
        <ele>122.72</ele>
        <time>2022-01-27T17:16:22.260Z</time>
      </trkpt>
      <trkpt lat="41.93959968835" lon="2.82810171861">
        <ele>122.22</ele>
        <time>2022-01-27T17:16:23.680Z</time>
      </trkpt>
      <trkpt lat="41.93959968835" lon="2.82810171861">
        <ele>122.22</ele>
        <time>2022-01-27T17:16:25.100Z</time>
      </trkpt>
      <trkpt lat="41.93964252786" lon="2.82809457869">
        <ele>121.67</ele>
        <time>2022-01-27T17:16:26.520Z</time>
      </trkpt>
      <trkpt lat="41.93964252786" lon="2.82809457869">
        <ele>121.67</ele>
        <time>2022-01-27T17:16:27.940Z</time>
      </trkpt>
      <trkpt lat="41.93973" lon="2.82808">
        <ele>120.49252931936</ele>
        <time>2022-01-27T17:16:29.362Z</time>
      </trkpt>
      <trkpt lat="41.93973" lon="2.82808">
        <ele>120.49252931936</ele>
        <time>2022-01-27T17:16:30.784Z</time>
      </trkpt>
      <trkpt lat="41.93977042028" lon="2.82809178925">
        <ele>119.94</ele>
        <time>2022-01-27T17:16:32.206Z</time>
      </trkpt>
      <trkpt lat="41.93977042028" lon="2.82809178925">
        <ele>119.94</ele>
        <time>2022-01-27T17:16:33.628Z</time>
      </trkpt>
      <trkpt lat="41.93981260633" lon="2.82810409351">
        <ele>119.41</ele>
        <time>2022-01-27T17:16:35.051Z</time>
      </trkpt>
      <trkpt lat="41.93981260633" lon="2.82810409351">
        <ele>119.41</ele>
        <time>2022-01-27T17:16:36.474Z</time>
      </trkpt>
      <trkpt lat="41.93985479238" lon="2.82811639778">
        <ele>118.92</ele>
        <time>2022-01-27T17:16:37.898Z</time>
      </trkpt>
      <trkpt lat="41.93985479238" lon="2.82811639778">
        <ele>118.92</ele>
        <time>2022-01-27T17:16:39.322Z</time>
      </trkpt>
      <trkpt lat="41.93989961505" lon="2.82812947106">
        <ele>118.46</ele>
        <time>2022-01-27T17:16:40.746Z</time>
      </trkpt>
      <trkpt lat="41.93989961505" lon="2.82812947106">
        <ele>118.46</ele>
        <time>2022-01-27T17:16:42.170Z</time>
      </trkpt>
      <trkpt lat="41.93997" lon="2.82815">
        <ele>121.08300067968</ele>
        <time>2022-01-27T17:16:43.596Z</time>
      </trkpt>
      <trkpt lat="41.93997" lon="2.82815">
        <ele>121.08300067968</ele>
        <time>2022-01-27T17:16:45.022Z</time>
      </trkpt>
      <trkpt lat="41.93998956606" lon="2.82817655393">
        <ele>121.42</ele>
        <time>2022-01-27T17:16:46.448Z</time>
      </trkpt>
      <trkpt lat="41.93998956606" lon="2.82817655393">
        <ele>121.42</ele>
        <time>2022-01-27T17:16:47.874Z</time>
      </trkpt>
      <trkpt lat="41.94001171764" lon="2.82820661679">
        <ele>119.94</ele>
        <time>2022-01-27T17:16:49.301Z</time>
      </trkpt>
      <trkpt lat="41.94001171764" lon="2.82820661679">
        <ele>119.94</ele>
        <time>2022-01-27T17:16:50.728Z</time>
      </trkpt>
      <trkpt lat="41.94010285556" lon="2.82833030398">
        <ele>121.67</ele>
        <time>2022-01-27T17:16:52.157Z</time>
      </trkpt>
      <trkpt lat="41.94010285556" lon="2.82833030398">
        <ele>121.67</ele>
        <time>2022-01-27T17:16:53.586Z</time>
      </trkpt>
      <trkpt lat="41.94011" lon="2.82834">
        <ele>121.79934596233</ele>
        <time>2022-01-27T17:16:55.015Z</time>
      </trkpt>
      <trkpt lat="41.94011" lon="2.82834">
        <ele>121.79934596233</ele>
        <time>2022-01-27T17:16:56.444Z</time>
      </trkpt>
      <trkpt lat="41.94011582517" lon="2.82838368877">
        <ele>122.22</ele>
        <time>2022-01-27T17:16:57.873Z</time>
      </trkpt>
      <trkpt lat="41.94011582517" lon="2.82838368877">
        <ele>122.22</ele>
        <time>2022-01-27T17:16:59.302Z</time>
      </trkpt>
      <trkpt lat="41.94012344151" lon="2.8284408113">
        <ele>122.72</ele>
        <time>2022-01-27T17:17:00.732Z</time>
      </trkpt>
      <trkpt lat="41.94012344151" lon="2.8284408113">
        <ele>122.72</ele>
        <time>2022-01-27T17:17:02.162Z</time>
      </trkpt>
      <trkpt lat="41.94013" lon="2.82849">
        <ele>123.13</ele>
        <time>2022-01-27T17:17:03.593Z</time>
      </trkpt>
      <trkpt lat="41.94013" lon="2.82849">
        <ele>123.13</ele>
        <time>2022-01-27T17:17:05.024Z</time>
      </trkpt>
      <trkpt lat="41.94012438049" lon="2.82849280976">
        <ele>123.13</ele>
        <time>2022-01-27T17:17:06.455Z</time>
      </trkpt>
      <trkpt lat="41.94012438049" lon="2.82849280976">
        <ele>123.13</ele>
        <time>2022-01-27T17:17:07.886Z</time>
      </trkpt>
      <trkpt lat="41.94008392073" lon="2.82851303964">
        <ele>123.48</ele>
        <time>2022-01-27T17:17:09.317Z</time>
      </trkpt>
      <trkpt lat="41.94008392073" lon="2.82851303964">
        <ele>123.48</ele>
        <time>2022-01-27T17:17:10.748Z</time>
      </trkpt>
      <trkpt lat="41.94007" lon="2.82852">
        <ele>123.57805811117</ele>
        <time>2022-01-27T17:17:12.180Z</time>
      </trkpt>
      <trkpt lat="41.94007" lon="2.82852">
        <ele>123.57805811117</ele>
        <time>2022-01-27T17:17:13.612Z</time>
      </trkpt>
      <trkpt lat="41.93999871435" lon="2.82852712857">
        <ele>124.05</ele>
        <time>2022-01-27T17:17:15.045Z</time>
      </trkpt>
      <trkpt lat="41.93999871435" lon="2.82852712857">
        <ele>124.05</ele>
        <time>2022-01-27T17:17:16.478Z</time>
      </trkpt>
      <trkpt lat="41.93997" lon="2.82853">
        <ele>124.22564927167</ele>
        <time>2022-01-27T17:17:17.911Z</time>
      </trkpt>
      <trkpt lat="41.93997" lon="2.82853">
        <ele>124.22564927167</ele>
        <time>2022-01-27T17:17:19.344Z</time>
      </trkpt>
      <trkpt lat="41.93988" lon="2.82857">
        <ele>124.84</ele>
        <time>2022-01-27T17:17:20.779Z</time>
      </trkpt>
      <trkpt lat="41.93988" lon="2.82857">
        <ele>124.84</ele>
        <time>2022-01-27T17:17:22.214Z</time>
      </trkpt>
      <trkpt lat="41.93987483189" lon="2.82857387608">
        <ele>124.84</ele>
        <time>2022-01-27T17:17:23.649Z</time>
      </trkpt>
      <trkpt lat="41.93987483189" lon="2.82857387608">
        <ele>124.84</ele>
        <time>2022-01-27T17:17:25.084Z</time>
      </trkpt>
      <trkpt lat="41.9398" lon="2.82863">
        <ele>125.31</ele>
        <time>2022-01-27T17:17:26.520Z</time>
      </trkpt>
      <trkpt lat="41.9398" lon="2.82863">
        <ele>125.31</ele>
        <time>2022-01-27T17:17:27.956Z</time>
      </trkpt>
      <trkpt lat="41.93979950645" lon="2.82863055935">
        <ele>125.31</ele>
        <time>2022-01-27T17:17:29.392Z</time>
      </trkpt>
      <trkpt lat="41.93979950645" lon="2.82863055935">
        <ele>125.31</ele>
        <time>2022-01-27T17:17:30.828Z</time>
      </trkpt>
      <trkpt lat="41.93969705571" lon="2.82874667019">
        <ele>125.19</ele>
        <time>2022-01-27T17:17:32.266Z</time>
      </trkpt>
      <trkpt lat="41.93969705571" lon="2.82874667019">
        <ele>125.19</ele>
        <time>2022-01-27T17:17:33.704Z</time>
      </trkpt>
      <trkpt lat="41.93965" lon="2.8288">
        <ele>125.08794656588</ele>
        <time>2022-01-27T17:17:35.143Z</time>
      </trkpt>
      <trkpt lat="41.93965" lon="2.8288">
        <ele>125.08794656588</ele>
        <time>2022-01-27T17:17:36.582Z</time>
      </trkpt>
      <trkpt lat="41.93965" lon="2.82887">
        <ele>125.00160660158</ele>
        <time>2022-01-27T17:17:38.022Z</time>
      </trkpt>
      <trkpt lat="41.93965" lon="2.82887">
        <ele>125.00160660158</ele>
        <time>2022-01-27T17:17:39.462Z</time>
      </trkpt>
      <trkpt lat="41.93969" lon="2.82891">
        <ele>124.91894229929</ele>
        <time>2022-01-27T17:17:40.903Z</time>
      </trkpt>
      <trkpt lat="41.93969" lon="2.82891">
        <ele>124.91894229929</ele>
        <time>2022-01-27T17:17:42.344Z</time>
      </trkpt>
      <trkpt lat="41.93973157738" lon="2.82891">
        <ele>124.85</ele>
        <time>2022-01-27T17:17:43.786Z</time>
      </trkpt>
      <trkpt lat="41.93973157738" lon="2.82891">
        <ele>124.85</ele>
        <time>2022-01-27T17:17:45.228Z</time>
      </trkpt>
      <trkpt lat="41.93981" lon="2.82891">
        <ele>124.74647262486</ele>
        <time>2022-01-27T17:17:46.671Z</time>
      </trkpt>
      <trkpt lat="41.93981" lon="2.82891">
        <ele>124.74647262486</ele>
        <time>2022-01-27T17:17:48.114Z</time>
      </trkpt>
      <trkpt lat="41.93985" lon="2.82893">
        <ele>124.69013384939</ele>
        <time>2022-01-27T17:17:49.558Z</time>
      </trkpt>
      <trkpt lat="41.93985" lon="2.82893">
        <ele>124.69013384939</ele>
        <time>2022-01-27T17:17:51.002Z</time>
      </trkpt>
      <trkpt lat="41.93985" lon="2.82897">
        <ele>124.65085510313</ele>
        <time>2022-01-27T17:17:52.446Z</time>
      </trkpt>
      <trkpt lat="41.93985" lon="2.82897">
        <ele>124.65085510313</ele>
        <time>2022-01-27T17:17:53.890Z</time>
      </trkpt>
      <trkpt lat="41.93981624045" lon="2.82901219943">
        <ele>124.59</ele>
        <time>2022-01-27T17:17:55.335Z</time>
      </trkpt>
      <trkpt lat="41.93981624045" lon="2.82901219943">
        <ele>124.59</ele>
        <time>2022-01-27T17:17:56.780Z</time>
      </trkpt>
      <trkpt lat="41.93978396853" lon="2.82905253934">
        <ele>124.51</ele>
        <time>2022-01-27T17:17:58.225Z</time>
      </trkpt>
      <trkpt lat="41.93978396853" lon="2.82905253934">
        <ele>124.51</ele>
        <time>2022-01-27T17:17:59.670Z</time>
      </trkpt>
      <trkpt lat="41.93977" lon="2.82907">
        <ele>124.45909822015</ele>
        <time>2022-01-27T17:18:01.116Z</time>
      </trkpt>
      <trkpt lat="41.93977" lon="2.82907">
        <ele>124.45909822015</ele>
        <time>2022-01-27T17:18:02.562Z</time>
      </trkpt>
      <trkpt lat="41.93976258843" lon="2.82910335208">
        <ele>124.39</ele>
        <time>2022-01-27T17:18:04.008Z</time>
      </trkpt>
      <trkpt lat="41.93976258843" lon="2.82910335208">
        <ele>124.39</ele>
        <time>2022-01-27T17:18:05.454Z</time>
      </trkpt>
      <trkpt lat="41.93975" lon="2.82916">
        <ele>124.24</ele>
        <time>2022-01-27T17:18:06.901Z</time>
      </trkpt>
      <trkpt lat="41.93975" lon="2.82916">
        <ele>124.24</ele>
        <time>2022-01-27T17:18:08.348Z</time>
      </trkpt>
      <trkpt lat="41.93975055143" lon="2.82916110286">
        <ele>124.24</ele>
        <time>2022-01-27T17:18:09.795Z</time>
      </trkpt>
      <trkpt lat="41.93975055143" lon="2.82916110286">
        <ele>124.24</ele>
        <time>2022-01-27T17:18:11.242Z</time>
      </trkpt>
      <trkpt lat="41.93977" lon="2.8292">
        <ele>124.10099284062</ele>
        <time>2022-01-27T17:18:12.689Z</time>
      </trkpt>
      <trkpt lat="41.93977" lon="2.8292">
        <ele>124.10099284062</ele>
        <time>2022-01-27T17:18:14.136Z</time>
      </trkpt>
      <trkpt lat="41.93986" lon="2.82925">
        <ele>123.7127022179</ele>
        <time>2022-01-27T17:18:15.585Z</time>
      </trkpt>
      <trkpt lat="41.93986" lon="2.82925">
        <ele>123.7127022179</ele>
        <time>2022-01-27T17:18:17.034Z</time>
      </trkpt>
      <trkpt lat="41.93987713869" lon="2.82930712898">
        <ele>123.53</ele>
        <time>2022-01-27T17:18:18.484Z</time>
      </trkpt>
      <trkpt lat="41.93987713869" lon="2.82930712898">
        <ele>123.53</ele>
        <time>2022-01-27T17:18:19.934Z</time>
      </trkpt>
      <trkpt lat="41.93989" lon="2.82935">
        <ele>123.4152958074</ele>
        <time>2022-01-27T17:18:21.384Z</time>
      </trkpt>
      <trkpt lat="41.93989" lon="2.82935">
        <ele>123.4152958074</ele>
        <time>2022-01-27T17:18:22.834Z</time>
      </trkpt>
      <trkpt lat="41.93989" lon="2.82936422439">
        <ele>123.38</ele>
        <time>2022-01-27T17:18:24.285Z</time>
      </trkpt>
      <trkpt lat="41.93989" lon="2.82936422439">
        <ele>123.38</ele>
        <time>2022-01-27T17:18:25.736Z</time>
      </trkpt>
      <trkpt lat="41.93989" lon="2.82942467517">
        <ele>123.27</ele>
        <time>2022-01-27T17:18:27.187Z</time>
      </trkpt>
      <trkpt lat="41.93989" lon="2.82942467517">
        <ele>123.27</ele>
        <time>2022-01-27T17:18:28.638Z</time>
      </trkpt>
      <trkpt lat="41.93989" lon="2.82948391693">
        <ele>123.19</ele>
        <time>2022-01-27T17:18:30.090Z</time>
      </trkpt>
      <trkpt lat="41.93989" lon="2.82948391693">
        <ele>123.19</ele>
        <time>2022-01-27T17:18:31.542Z</time>
      </trkpt>
      <trkpt lat="41.93989" lon="2.82951">
        <ele>123.15959396143</ele>
        <time>2022-01-27T17:18:32.994Z</time>
      </trkpt>
      <trkpt lat="41.93989" lon="2.82951">
        <ele>123.15959396143</ele>
        <time>2022-01-27T17:18:34.446Z</time>
      </trkpt>
      <trkpt lat="41.93991" lon="2.82963">
        <ele>123.0162369383</ele>
        <time>2022-01-27T17:18:35.900Z</time>
      </trkpt>
      <trkpt lat="41.93991" lon="2.82963">
        <ele>123.0162369383</ele>
        <time>2022-01-27T17:18:37.354Z</time>
      </trkpt>
      <trkpt lat="41.93992511928" lon="2.82965351888">
        <ele>122.98</ele>
        <time>2022-01-27T17:18:38.808Z</time>
      </trkpt>
      <trkpt lat="41.93992511928" lon="2.82965351888">
        <ele>122.98</ele>
        <time>2022-01-27T17:18:40.262Z</time>
      </trkpt>
      <trkpt lat="41.93994981729" lon="2.82969193801">
        <ele>123.29</ele>
        <time>2022-01-27T17:18:41.717Z</time>
      </trkpt>
      <trkpt lat="41.93994981729" lon="2.82969193801">
        <ele>123.29</ele>
        <time>2022-01-27T17:18:43.172Z</time>
      </trkpt>
      <trkpt lat="41.94" lon="2.82977">
        <ele>123.35966349989</ele>
        <time>2022-01-27T17:18:44.628Z</time>
      </trkpt>
      <trkpt lat="41.94" lon="2.82977">
        <ele>123.35966349989</ele>
        <time>2022-01-27T17:18:46.084Z</time>
      </trkpt>
      <trkpt lat="41.940007427" lon="2.82975839532">
        <ele>123.37</ele>
        <time>2022-01-27T17:18:47.540Z</time>
      </trkpt>
      <trkpt lat="41.940007427" lon="2.82975839532">
        <ele>123.37</ele>
        <time>2022-01-27T17:18:48.996Z</time>
      </trkpt>
      <trkpt lat="41.94003675441" lon="2.82971257124">
        <ele>123.39</ele>
        <time>2022-01-27T17:18:50.453Z</time>
      </trkpt>
      <trkpt lat="41.94003675441" lon="2.82971257124">
        <ele>123.39</ele>
        <time>2022-01-27T17:18:51.910Z</time>
      </trkpt>
      <trkpt lat="41.94012356354" lon="2.82957693197">
        <ele>123.37</ele>
        <time>2022-01-27T17:18:53.369Z</time>
      </trkpt>
      <trkpt lat="41.94012356354" lon="2.82957693197">
        <ele>123.37</ele>
        <time>2022-01-27T17:18:54.828Z</time>
      </trkpt>
      <trkpt lat="41.94016" lon="2.82952">
        <ele>123.33235142251</ele>
        <time>2022-01-27T17:18:56.288Z</time>
      </trkpt>
      <trkpt lat="41.94016" lon="2.82952">
        <ele>123.33235142251</ele>
        <time>2022-01-27T17:18:57.748Z</time>
      </trkpt>
      <trkpt lat="41.9402" lon="2.82941">
        <ele>123.27097409193</ele>
        <time>2022-01-27T17:18:59.209Z</time>
      </trkpt>
      <trkpt lat="41.9402" lon="2.82941">
        <ele>123.27097409193</ele>
        <time>2022-01-27T17:19:00.670Z</time>
      </trkpt>
      <trkpt lat="41.9401990043" lon="2.82936818051">
        <ele>123.25</ele>
        <time>2022-01-27T17:19:02.132Z</time>
      </trkpt>
      <trkpt lat="41.9401990043" lon="2.82936818051">
        <ele>123.25</ele>
        <time>2022-01-27T17:19:03.594Z</time>
      </trkpt>
      <trkpt lat="41.94019615592" lon="2.82924854867">
        <ele>123.16</ele>
        <time>2022-01-27T17:19:05.057Z</time>
      </trkpt>
      <trkpt lat="41.94019615592" lon="2.82924854867">
        <ele>123.16</ele>
        <time>2022-01-27T17:19:06.520Z</time>
      </trkpt>
      <trkpt lat="41.94019330754" lon="2.82912891683">
        <ele>123.03</ele>
        <time>2022-01-27T17:19:07.985Z</time>
      </trkpt>
      <trkpt lat="41.94019330754" lon="2.82912891683">
        <ele>123.03</ele>
        <time>2022-01-27T17:19:09.450Z</time>
      </trkpt>
      <trkpt lat="41.94019186897" lon="2.82906849671">
        <ele>122.95</ele>
        <time>2022-01-27T17:19:10.915Z</time>
      </trkpt>
      <trkpt lat="41.94019186897" lon="2.82906849671">
        <ele>122.95</ele>
        <time>2022-01-27T17:19:12.380Z</time>
      </trkpt>
      <trkpt lat="41.94019045917" lon="2.82900928499">
        <ele>122.84</ele>
        <time>2022-01-27T17:19:13.846Z</time>
      </trkpt>
      <trkpt lat="41.94019045917" lon="2.82900928499">
        <ele>122.84</ele>
        <time>2022-01-27T17:19:15.312Z</time>
      </trkpt>
      <trkpt lat="41.94019" lon="2.82899">
        <ele>122.79531457565</ele>
        <time>2022-01-27T17:19:16.778Z</time>
      </trkpt>
      <trkpt lat="41.94019" lon="2.82899">
        <ele>122.79531457565</ele>
        <time>2022-01-27T17:19:18.244Z</time>
      </trkpt>
      <trkpt lat="41.94019552022" lon="2.82894951841">
        <ele>122.7</ele>
        <time>2022-01-27T17:19:19.711Z</time>
      </trkpt>
      <trkpt lat="41.94019552022" lon="2.82894951841">
        <ele>122.7</ele>
        <time>2022-01-27T17:19:21.178Z</time>
      </trkpt>
      <trkpt lat="41.94020346626" lon="2.82889124744">
        <ele>122.49</ele>
        <time>2022-01-27T17:19:22.646Z</time>
      </trkpt>
      <trkpt lat="41.94020346626" lon="2.82889124744">
        <ele>122.49</ele>
        <time>2022-01-27T17:19:24.114Z</time>
      </trkpt>
      <trkpt lat="41.94021157447" lon="2.82883178725">
        <ele>122.2</ele>
        <time>2022-01-27T17:19:25.582Z</time>
      </trkpt>
      <trkpt lat="41.94021157447" lon="2.82883178725">
        <ele>122.2</ele>
        <time>2022-01-27T17:19:27.050Z</time>
      </trkpt>
      <trkpt lat="41.94022" lon="2.82877">
        <ele>121.84</ele>
        <time>2022-01-27T17:19:28.519Z</time>
      </trkpt>
      <trkpt lat="41.94022" lon="2.82877">
        <ele>121.84</ele>
        <time>2022-01-27T17:19:29.988Z</time>
      </trkpt>
      <trkpt lat="41.94025" lon="2.82872">
        <ele>121.39</ele>
        <time>2022-01-27T17:19:31.458Z</time>
      </trkpt>
      <trkpt lat="41.94025" lon="2.82872">
        <ele>121.39</ele>
        <time>2022-01-27T17:19:32.928Z</time>
      </trkpt>
      <trkpt lat="41.94028717132" lon="2.82870606075">
        <ele>120.87</ele>
        <time>2022-01-27T17:19:34.398Z</time>
      </trkpt>
      <trkpt lat="41.94028717132" lon="2.82870606075">
        <ele>120.87</ele>
        <time>2022-01-27T17:19:35.868Z</time>
      </trkpt>
      <trkpt lat="41.94033" lon="2.82869">
        <ele>120.29</ele>
        <time>2022-01-27T17:19:37.339Z</time>
      </trkpt>
      <trkpt lat="41.94033" lon="2.82869">
        <ele>120.29</ele>
        <time>2022-01-27T17:19:38.810Z</time>
      </trkpt>
      <trkpt lat="41.94033048767" lon="2.82869016256">
        <ele>120.29</ele>
        <time>2022-01-27T17:19:40.281Z</time>
      </trkpt>
      <trkpt lat="41.94033048767" lon="2.82869016256">
        <ele>120.29</ele>
        <time>2022-01-27T17:19:41.752Z</time>
      </trkpt>
      <trkpt lat="41.94037325933" lon="2.82870441978">
        <ele>119.67</ele>
        <time>2022-01-27T17:19:43.224Z</time>
      </trkpt>
      <trkpt lat="41.94037325933" lon="2.82870441978">
        <ele>119.67</ele>
        <time>2022-01-27T17:19:44.696Z</time>
      </trkpt>
      <trkpt lat="41.94045" lon="2.82873">
        <ele>118.4622713685</ele>
        <time>2022-01-27T17:19:46.169Z</time>
      </trkpt>
      <trkpt lat="41.94045" lon="2.82873">
        <ele>118.4622713685</ele>
        <time>2022-01-27T17:19:47.642Z</time>
      </trkpt>
      <trkpt lat="41.94045918583" lon="2.8287352053">
        <ele>118.31</ele>
        <time>2022-01-27T17:19:49.115Z</time>
      </trkpt>
      <trkpt lat="41.94045918583" lon="2.8287352053">
        <ele>118.31</ele>
        <time>2022-01-27T17:19:50.588Z</time>
      </trkpt>
      <trkpt lat="41.94075" lon="2.8289">
        <ele>113.4</ele>
        <time>2022-01-27T17:19:52.066Z</time>
      </trkpt>
      <trkpt lat="41.94075" lon="2.8289">
        <ele>113.4</ele>
        <time>2022-01-27T17:19:53.544Z</time>
      </trkpt>
      <trkpt lat="41.94084" lon="2.82893">
        <ele>112.05</ele>
        <time>2022-01-27T17:19:55.024Z</time>
      </trkpt>
      <trkpt lat="41.94084" lon="2.82893">
        <ele>112.05</ele>
        <time>2022-01-27T17:19:56.504Z</time>
      </trkpt>
      <trkpt lat="41.94092" lon="2.82889">
        <ele>110.68516223824</ele>
        <time>2022-01-27T17:19:57.985Z</time>
      </trkpt>
      <trkpt lat="41.94092" lon="2.82889">
        <ele>110.68516223824</ele>
        <time>2022-01-27T17:19:59.466Z</time>
      </trkpt>
      <trkpt lat="41.94094" lon="2.82882">
        <ele>109.8707369827</ele>
        <time>2022-01-27T17:20:00.948Z</time>
      </trkpt>
      <trkpt lat="41.94094" lon="2.82882">
        <ele>109.8707369827</ele>
        <time>2022-01-27T17:20:02.430Z</time>
      </trkpt>
      <trkpt lat="41.9409683293" lon="2.82882708232">
        <ele>109.45</ele>
        <time>2022-01-27T17:20:03.912Z</time>
      </trkpt>
      <trkpt lat="41.9409683293" lon="2.82882708232">
        <ele>109.45</ele>
        <time>2022-01-27T17:20:05.394Z</time>
      </trkpt>
      <trkpt lat="41.94114" lon="2.82887">
        <ele>106.96577980478</ele>
        <time>2022-01-27T17:20:06.879Z</time>
      </trkpt>
      <trkpt lat="41.94114" lon="2.82887">
        <ele>106.96577980478</ele>
        <time>2022-01-27T17:20:08.364Z</time>
      </trkpt>
      <trkpt lat="41.94122668402" lon="2.82891334201">
        <ele>105.65</ele>
        <time>2022-01-27T17:20:09.851Z</time>
      </trkpt>
      <trkpt lat="41.94122668402" lon="2.82891334201">
        <ele>105.65</ele>
        <time>2022-01-27T17:20:11.338Z</time>
      </trkpt>
      <trkpt lat="41.9413" lon="2.82895">
        <ele>104.49466951129</ele>
        <time>2022-01-27T17:20:12.826Z</time>
      </trkpt>
      <trkpt lat="41.9413" lon="2.82895">
        <ele>104.49466951129</ele>
        <time>2022-01-27T17:20:14.314Z</time>
      </trkpt>
      <trkpt lat="41.9413996804" lon="2.82895766772">
        <ele>103.02</ele>
        <time>2022-01-27T17:20:15.804Z</time>
      </trkpt>
      <trkpt lat="41.9413996804" lon="2.82895766772">
        <ele>103.02</ele>
        <time>2022-01-27T17:20:17.294Z</time>
      </trkpt>
      <trkpt lat="41.9414445731" lon="2.82896112101">
        <ele>102.43</ele>
        <time>2022-01-27T17:20:18.784Z</time>
      </trkpt>
      <trkpt lat="41.9414445731" lon="2.82896112101">
        <ele>102.43</ele>
        <time>2022-01-27T17:20:20.274Z</time>
      </trkpt>
      <trkpt lat="41.94148856793" lon="2.82896450523">
        <ele>101.91</ele>
        <time>2022-01-27T17:20:21.765Z</time>
      </trkpt>
      <trkpt lat="41.94148856793" lon="2.82896450523">
        <ele>101.91</ele>
        <time>2022-01-27T17:20:23.256Z</time>
      </trkpt>
      <trkpt lat="41.94153256277" lon="2.82896788944">
        <ele>101.48</ele>
        <time>2022-01-27T17:20:24.748Z</time>
      </trkpt>
      <trkpt lat="41.94153256277" lon="2.82896788944">
        <ele>101.48</ele>
        <time>2022-01-27T17:20:26.240Z</time>
      </trkpt>
      <trkpt lat="41.94156" lon="2.82897">
        <ele>101.26608925204</ele>
        <time>2022-01-27T17:20:27.732Z</time>
      </trkpt>
      <trkpt lat="41.94156" lon="2.82897">
        <ele>101.26608925204</ele>
        <time>2022-01-27T17:20:29.224Z</time>
      </trkpt>
      <trkpt lat="41.94157705251" lon="2.8289751899">
        <ele>101.13</ele>
        <time>2022-01-27T17:20:30.716Z</time>
      </trkpt>
      <trkpt lat="41.94157705251" lon="2.8289751899">
        <ele>101.13</ele>
        <time>2022-01-27T17:20:32.208Z</time>
      </trkpt>
      <trkpt lat="41.94162003175" lon="2.82898827053">
        <ele>100.86</ele>
        <time>2022-01-27T17:20:33.701Z</time>
      </trkpt>
      <trkpt lat="41.94162003175" lon="2.82898827053">
        <ele>100.86</ele>
        <time>2022-01-27T17:20:35.194Z</time>
      </trkpt>
      <trkpt lat="41.94166388812" lon="2.82900161812">
        <ele>100.65</ele>
        <time>2022-01-27T17:20:36.688Z</time>
      </trkpt>
      <trkpt lat="41.94166388812" lon="2.82900161812">
        <ele>100.65</ele>
        <time>2022-01-27T17:20:38.182Z</time>
      </trkpt>
      <trkpt lat="41.94170686736" lon="2.82901469876">
        <ele>100.49</ele>
        <time>2022-01-27T17:20:39.677Z</time>
      </trkpt>
      <trkpt lat="41.94170686736" lon="2.82901469876">
        <ele>100.49</ele>
        <time>2022-01-27T17:20:41.172Z</time>
      </trkpt>
      <trkpt lat="41.94177440617" lon="2.82903525405">
        <ele>100.27</ele>
        <time>2022-01-27T17:20:42.668Z</time>
      </trkpt>
      <trkpt lat="41.94177440617" lon="2.82903525405">
        <ele>100.27</ele>
        <time>2022-01-27T17:20:44.164Z</time>
      </trkpt>
      <trkpt lat="41.94179" lon="2.82904">
        <ele>105.4752790007</ele>
        <time>2022-01-27T17:20:45.660Z</time>
      </trkpt>
      <trkpt lat="41.94179" lon="2.82904">
        <ele>105.4752790007</ele>
        <time>2022-01-27T17:20:47.156Z</time>
      </trkpt>
      <trkpt lat="41.94182992569" lon="2.8290754895">
        <ele>106.0</ele>
        <time>2022-01-27T17:20:48.653Z</time>
      </trkpt>
      <trkpt lat="41.94182992569" lon="2.8290754895">
        <ele>106.0</ele>
        <time>2022-01-27T17:20:50.150Z</time>
      </trkpt>
      <trkpt lat="41.94193495045" lon="2.82916884485">
        <ele>107.69</ele>
        <time>2022-01-27T17:20:51.649Z</time>
      </trkpt>
      <trkpt lat="41.94193495045" lon="2.82916884485">
        <ele>107.69</ele>
        <time>2022-01-27T17:20:53.148Z</time>
      </trkpt>
      <trkpt lat="41.94197" lon="2.8292">
        <ele>107.88142922797</ele>
        <time>2022-01-27T17:20:54.647Z</time>
      </trkpt>
      <trkpt lat="41.94197" lon="2.8292">
        <ele>107.88142922797</ele>
        <time>2022-01-27T17:20:56.146Z</time>
      </trkpt>
      <trkpt lat="41.94203" lon="2.82929">
        <ele>108.28</ele>
        <time>2022-01-27T17:20:57.647Z</time>
      </trkpt>
      <trkpt lat="41.94203" lon="2.82929">
        <ele>108.28</ele>
        <time>2022-01-27T17:20:59.148Z</time>
      </trkpt>
      <trkpt lat="41.94204" lon="2.8293">
        <ele>108.00825584717</ele>
        <time>2022-01-27T17:21:00.649Z</time>
      </trkpt>
      <trkpt lat="41.94204" lon="2.8293">
        <ele>108.00825584717</ele>
        <time>2022-01-27T17:21:02.150Z</time>
      </trkpt>
      <trkpt lat="41.94204430508" lon="2.82934735585">
        <ele>107.36</ele>
        <time>2022-01-27T17:21:03.652Z</time>
      </trkpt>
      <trkpt lat="41.94204430508" lon="2.82934735585">
        <ele>107.36</ele>
        <time>2022-01-27T17:21:05.154Z</time>
      </trkpt>
      <trkpt lat="41.94204910558" lon="2.8294001614">
        <ele>101.13</ele>
        <time>2022-01-27T17:21:06.656Z</time>
      </trkpt>
      <trkpt lat="41.94204910558" lon="2.8294001614">
        <ele>101.13</ele>
        <time>2022-01-27T17:21:08.158Z</time>
      </trkpt>
      <trkpt lat="41.9420544516" lon="2.82945896759">
        <ele>100.86</ele>
        <time>2022-01-27T17:21:09.661Z</time>
      </trkpt>
      <trkpt lat="41.9420544516" lon="2.82945896759">
        <ele>100.86</ele>
        <time>2022-01-27T17:21:11.164Z</time>
      </trkpt>
      <trkpt lat="41.94206" lon="2.82952">
        <ele>100.65</ele>
        <time>2022-01-27T17:21:12.668Z</time>
      </trkpt>
      <trkpt lat="41.94206" lon="2.82952">
        <ele>100.65</ele>
        <time>2022-01-27T17:21:14.172Z</time>
      </trkpt>
      <trkpt lat="41.94201724185" lon="2.82952916246">
        <ele>100.49</ele>
        <time>2022-01-27T17:21:15.676Z</time>
      </trkpt>
      <trkpt lat="41.94201724185" lon="2.82952916246">
        <ele>100.49</ele>
        <time>2022-01-27T17:21:17.180Z</time>
      </trkpt>
      <trkpt lat="41.94192" lon="2.82955">
        <ele>100.17262952897</ele>
        <time>2022-01-27T17:21:18.686Z</time>
      </trkpt>
      <trkpt lat="41.94192" lon="2.82955">
        <ele>100.17262952897</ele>
        <time>2022-01-27T17:21:20.192Z</time>
      </trkpt>
      <trkpt lat="41.94189703173" lon="2.82956531218">
        <ele>100.09</ele>
        <time>2022-01-27T17:21:21.698Z</time>
      </trkpt>
      <trkpt lat="41.94189703173" lon="2.82956531218">
        <ele>100.09</ele>
        <time>2022-01-27T17:21:23.204Z</time>
      </trkpt>
      <trkpt lat="41.94182129584" lon="2.82961580277">
        <ele>99.64</ele>
        <time>2022-01-27T17:21:24.712Z</time>
      </trkpt>
      <trkpt lat="41.94182129584" lon="2.82961580277">
        <ele>99.64</ele>
        <time>2022-01-27T17:21:26.220Z</time>
      </trkpt>
      <trkpt lat="41.9418" lon="2.82963">
        <ele>99.53537553199</ele>
        <time>2022-01-27T17:21:27.728Z</time>
      </trkpt>
      <trkpt lat="41.9418" lon="2.82963">
        <ele>99.53537553199</ele>
        <time>2022-01-27T17:21:29.236Z</time>
      </trkpt>
      <trkpt lat="41.94178528076" lon="2.82964698373">
        <ele>99.45</ele>
        <time>2022-01-27T17:21:30.744Z</time>
      </trkpt>
      <trkpt lat="41.94178528076" lon="2.82964698373">
        <ele>99.45</ele>
        <time>2022-01-27T17:21:32.252Z</time>
      </trkpt>
      <trkpt lat="41.94175252366" lon="2.82968478039">
        <ele>99.3</ele>
        <time>2022-01-27T17:21:33.761Z</time>
      </trkpt>
      <trkpt lat="41.94175252366" lon="2.82968478039">
        <ele>99.3</ele>
        <time>2022-01-27T17:21:35.270Z</time>
      </trkpt>
      <trkpt lat="41.94171976656" lon="2.82972257704">
        <ele>99.18</ele>
        <time>2022-01-27T17:21:36.780Z</time>
      </trkpt>
      <trkpt lat="41.94171976656" lon="2.82972257704">
        <ele>99.18</ele>
        <time>2022-01-27T17:21:38.290Z</time>
      </trkpt>
      <trkpt lat="41.9416876919" lon="2.82975958627">
        <ele>99.08</ele>
        <time>2022-01-27T17:21:39.800Z</time>
      </trkpt>
      <trkpt lat="41.9416876919" lon="2.82975958627">
        <ele>99.08</ele>
        <time>2022-01-27T17:21:41.310Z</time>
      </trkpt>
      <trkpt lat="41.94167" lon="2.82978">
        <ele>99.04489391795</ele>
        <time>2022-01-27T17:21:42.821Z</time>
      </trkpt>
      <trkpt lat="41.94167" lon="2.82978">
        <ele>99.04489391795</ele>
        <time>2022-01-27T17:21:44.332Z</time>
      </trkpt>
      <trkpt lat="41.94161303853" lon="2.82981624821">
        <ele>98.95</ele>
        <time>2022-01-27T17:21:45.844Z</time>
      </trkpt>
      <trkpt lat="41.94161303853" lon="2.82981624821">
        <ele>98.95</ele>
        <time>2022-01-27T17:21:47.356Z</time>
      </trkpt>
      <trkpt lat="41.94156" lon="2.82985">
        <ele>98.90921912927</ele>
        <time>2022-01-27T17:21:48.869Z</time>
      </trkpt>
      <trkpt lat="41.94156" lon="2.82985">
        <ele>98.90921912927</ele>
        <time>2022-01-27T17:21:50.382Z</time>
      </trkpt>
      <trkpt lat="41.94153273218" lon="2.82985619723">
        <ele>98.89</ele>
        <time>2022-01-27T17:21:51.895Z</time>
      </trkpt>
      <trkpt lat="41.94153273218" lon="2.82985619723">
        <ele>98.89</ele>
        <time>2022-01-27T17:21:53.408Z</time>
      </trkpt>
      <trkpt lat="41.94149105537" lon="2.82986566923">
        <ele>98.9</ele>
        <time>2022-01-27T17:21:54.922Z</time>
      </trkpt>
      <trkpt lat="41.94149105537" lon="2.82986566923">
        <ele>98.9</ele>
        <time>2022-01-27T17:21:56.436Z</time>
      </trkpt>
      <trkpt lat="41.94144849181" lon="2.82987534277">
        <ele>98.94</ele>
        <time>2022-01-27T17:21:57.951Z</time>
      </trkpt>
      <trkpt lat="41.94144849181" lon="2.82987534277">
        <ele>98.94</ele>
        <time>2022-01-27T17:21:59.466Z</time>
      </trkpt>
      <trkpt lat="41.94140592826" lon="2.8298850163">
        <ele>99.02</ele>
        <time>2022-01-27T17:22:00.981Z</time>
      </trkpt>
      <trkpt lat="41.94140592826" lon="2.8298850163">
        <ele>99.02</ele>
        <time>2022-01-27T17:22:02.496Z</time>
      </trkpt>
      <trkpt lat="41.94136247796" lon="2.82989489137">
        <ele>99.14</ele>
        <time>2022-01-27T17:22:04.012Z</time>
      </trkpt>
      <trkpt lat="41.94136247796" lon="2.82989489137">
        <ele>99.14</ele>
        <time>2022-01-27T17:22:05.528Z</time>
      </trkpt>
      <trkpt lat="41.94134" lon="2.8299">
        <ele>99.2316877598</ele>
        <time>2022-01-27T17:22:07.044Z</time>
      </trkpt>
      <trkpt lat="41.94134" lon="2.8299">
        <ele>99.2316877598</ele>
        <time>2022-01-27T17:22:08.560Z</time>
      </trkpt>
      <trkpt lat="41.94132099615" lon="2.82989429884">
        <ele>99.31</ele>
        <time>2022-01-27T17:22:10.077Z</time>
      </trkpt>
      <trkpt lat="41.94132099615" lon="2.82989429884">
        <ele>99.31</ele>
        <time>2022-01-27T17:22:11.594Z</time>
      </trkpt>
      <trkpt lat="41.94127974264" lon="2.82988192279">
        <ele>99.52</ele>
        <time>2022-01-27T17:22:13.111Z</time>
      </trkpt>
      <trkpt lat="41.94127974264" lon="2.82988192279">
        <ele>99.52</ele>
        <time>2022-01-27T17:22:14.628Z</time>
      </trkpt>
      <trkpt lat="41.94124" lon="2.82987">
        <ele>99.75</ele>
        <time>2022-01-27T17:22:16.146Z</time>
      </trkpt>
      <trkpt lat="41.94124" lon="2.82987">
        <ele>99.75</ele>
        <time>2022-01-27T17:22:17.664Z</time>
      </trkpt>
      <trkpt lat="41.94123767832" lon="2.82986895924">
        <ele>99.75</ele>
        <time>2022-01-27T17:22:19.182Z</time>
      </trkpt>
      <trkpt lat="41.94123767832" lon="2.82986895924">
        <ele>99.75</ele>
        <time>2022-01-27T17:22:20.700Z</time>
      </trkpt>
      <trkpt lat="41.94115577647" lon="2.82983224462">
        <ele>100.24</ele>
        <time>2022-01-27T17:22:22.219Z</time>
      </trkpt>
      <trkpt lat="41.94115577647" lon="2.82983224462">
        <ele>100.24</ele>
        <time>2022-01-27T17:22:23.738Z</time>
      </trkpt>
      <trkpt lat="41.94095" lon="2.82974">
        <ele>104.28</ele>
        <time>2022-01-27T17:22:25.261Z</time>
      </trkpt>
      <trkpt lat="41.94095" lon="2.82974">
        <ele>104.28</ele>
        <time>2022-01-27T17:22:26.784Z</time>
      </trkpt>
      <trkpt lat="41.94094480739" lon="2.82973930765">
        <ele>104.28</ele>
        <time>2022-01-27T17:22:28.307Z</time>
      </trkpt>
      <trkpt lat="41.94094480739" lon="2.82973930765">
        <ele>104.28</ele>
        <time>2022-01-27T17:22:29.830Z</time>
      </trkpt>
      <trkpt lat="41.94085620914" lon="2.82972749455">
        <ele>105.98</ele>
        <time>2022-01-27T17:22:31.354Z</time>
      </trkpt>
      <trkpt lat="41.94085620914" lon="2.82972749455">
        <ele>105.98</ele>
        <time>2022-01-27T17:22:32.878Z</time>
      </trkpt>
      <trkpt lat="41.9408" lon="2.82972">
        <ele>107.14704619109</ele>
        <time>2022-01-27T17:22:34.403Z</time>
      </trkpt>
      <trkpt lat="41.9408" lon="2.82972">
        <ele>107.14704619109</ele>
        <time>2022-01-27T17:22:35.928Z</time>
      </trkpt>
      <trkpt lat="41.94075" lon="2.82974">
        <ele>108.22486351398</ele>
        <time>2022-01-27T17:22:37.454Z</time>
      </trkpt>
      <trkpt lat="41.94075" lon="2.82974">
        <ele>108.22486351398</ele>
        <time>2022-01-27T17:22:38.980Z</time>
      </trkpt>
      <trkpt lat="41.94073537004" lon="2.82976633393">
        <ele>108.73</ele>
        <time>2022-01-27T17:22:40.507Z</time>
      </trkpt>
      <trkpt lat="41.94073537004" lon="2.82976633393">
        <ele>108.73</ele>
        <time>2022-01-27T17:22:42.034Z</time>
      </trkpt>
      <trkpt lat="41.9407" lon="2.82983">
        <ele>110.0311531125</ele>
        <time>2022-01-27T17:22:43.561Z</time>
      </trkpt>
      <trkpt lat="41.9407" lon="2.82983">
        <ele>110.0311531125</ele>
        <time>2022-01-27T17:22:45.088Z</time>
      </trkpt>
      <trkpt lat="41.9407" lon="2.82984">
        <ele>110.19489544945</ele>
        <time>2022-01-27T17:22:46.616Z</time>
      </trkpt>
      <trkpt lat="41.9407" lon="2.82984">
        <ele>110.19489544945</ele>
        <time>2022-01-27T17:22:48.144Z</time>
      </trkpt>
      <trkpt lat="41.94067446486" lon="2.82998469915">
        <ele>112.63</ele>
        <time>2022-01-27T17:22:49.673Z</time>
      </trkpt>
      <trkpt lat="41.94067446486" lon="2.82998469915">
        <ele>112.63</ele>
        <time>2022-01-27T17:22:51.202Z</time>
      </trkpt>
      <trkpt lat="41.94064" lon="2.83018">
        <ele>115.74075706394</ele>
        <time>2022-01-27T17:22:52.734Z</time>
      </trkpt>
      <trkpt lat="41.94064" lon="2.83018">
        <ele>115.74075706394</ele>
        <time>2022-01-27T17:22:54.266Z</time>
      </trkpt>
      <trkpt lat="41.94063759185" lon="2.8302185304">
        <ele>116.34</ele>
        <time>2022-01-27T17:22:55.798Z</time>
      </trkpt>
      <trkpt lat="41.94063759185" lon="2.8302185304">
        <ele>116.34</ele>
        <time>2022-01-27T17:22:57.330Z</time>
      </trkpt>
      <trkpt lat="41.94063" lon="2.83034">
        <ele>118.28</ele>
        <time>2022-01-27T17:22:58.864Z</time>
      </trkpt>
      <trkpt lat="41.94063" lon="2.83034">
        <ele>118.28</ele>
        <time>2022-01-27T17:23:00.398Z</time>
      </trkpt>
      <trkpt lat="41.94064240231" lon="2.83039581042">
        <ele>119.19</ele>
        <time>2022-01-27T17:23:01.932Z</time>
      </trkpt>
      <trkpt lat="41.94064240231" lon="2.83039581042">
        <ele>119.19</ele>
        <time>2022-01-27T17:23:03.466Z</time>
      </trkpt>
      <trkpt lat="41.94065" lon="2.83043">
        <ele>119.65980707704</ele>
        <time>2022-01-27T17:23:05.001Z</time>
      </trkpt>
      <trkpt lat="41.94065" lon="2.83043">
        <ele>119.65980707704</ele>
        <time>2022-01-27T17:23:06.536Z</time>
      </trkpt>
      <trkpt lat="41.9406606761" lon="2.83044868317">
        <ele>119.97</ele>
        <time>2022-01-27T17:23:08.071Z</time>
      </trkpt>
      <trkpt lat="41.9406606761" lon="2.83044868317">
        <ele>119.97</ele>
        <time>2022-01-27T17:23:09.606Z</time>
      </trkpt>
      <trkpt lat="41.94069" lon="2.8305">
        <ele>120.61</ele>
        <time>2022-01-27T17:23:11.142Z</time>
      </trkpt>
      <trkpt lat="41.94069" lon="2.8305">
        <ele>120.61</ele>
        <time>2022-01-27T17:23:12.678Z</time>
      </trkpt>
      <trkpt lat="41.94073000478" lon="2.83051142994">
        <ele>121.15</ele>
        <time>2022-01-27T17:23:14.215Z</time>
      </trkpt>
      <trkpt lat="41.94073000478" lon="2.83051142994">
        <ele>121.15</ele>
        <time>2022-01-27T17:23:15.752Z</time>
      </trkpt>
      <trkpt lat="41.94076" lon="2.83052">
        <ele>121.46370205127</ele>
        <time>2022-01-27T17:23:17.289Z</time>
      </trkpt>
      <trkpt lat="41.94076" lon="2.83052">
        <ele>121.46370205127</ele>
        <time>2022-01-27T17:23:18.826Z</time>
      </trkpt>
      <trkpt lat="41.94077370712" lon="2.83051451715">
        <ele>121.61</ele>
        <time>2022-01-27T17:23:20.363Z</time>
      </trkpt>
      <trkpt lat="41.94077370712" lon="2.83051451715">
        <ele>121.61</ele>
        <time>2022-01-27T17:23:21.900Z</time>
      </trkpt>
      <trkpt lat="41.94081" lon="2.8305">
        <ele>122.01</ele>
        <time>2022-01-27T17:23:23.438Z</time>
      </trkpt>
      <trkpt lat="41.94081" lon="2.8305">
        <ele>122.01</ele>
        <time>2022-01-27T17:23:24.976Z</time>
      </trkpt>
      <trkpt lat="41.94081425005" lon="2.8304939285">
        <ele>122.01</ele>
        <time>2022-01-27T17:23:26.514Z</time>
      </trkpt>
      <trkpt lat="41.94081425005" lon="2.8304939285">
        <ele>122.01</ele>
        <time>2022-01-27T17:23:28.052Z</time>
      </trkpt>
      <trkpt lat="41.94084445003" lon="2.83045078567">
        <ele>122.36</ele>
        <time>2022-01-27T17:23:29.591Z</time>
      </trkpt>
      <trkpt lat="41.94084445003" lon="2.83045078567">
        <ele>122.36</ele>
        <time>2022-01-27T17:23:31.130Z</time>
      </trkpt>
      <trkpt lat="41.94088" lon="2.8304">
        <ele>122.66</ele>
        <time>2022-01-27T17:23:32.669Z</time>
      </trkpt>
      <trkpt lat="41.94088" lon="2.8304">
        <ele>122.66</ele>
        <time>2022-01-27T17:23:34.208Z</time>
      </trkpt>
      <trkpt lat="41.94090003509" lon="2.83035792632">
        <ele>122.9</ele>
        <time>2022-01-27T17:23:35.748Z</time>
      </trkpt>
      <trkpt lat="41.94090003509" lon="2.83035792632">
        <ele>122.9</ele>
        <time>2022-01-27T17:23:37.288Z</time>
      </trkpt>
      <trkpt lat="41.94092427916" lon="2.83030701376">
        <ele>123.07</ele>
        <time>2022-01-27T17:23:38.829Z</time>
      </trkpt>
      <trkpt lat="41.94092427916" lon="2.83030701376">
        <ele>123.07</ele>
        <time>2022-01-27T17:23:40.370Z</time>
      </trkpt>
      <trkpt lat="41.94094803835" lon="2.83025711946">
        <ele>123.18</ele>
        <time>2022-01-27T17:23:41.912Z</time>
      </trkpt>
      <trkpt lat="41.94094803835" lon="2.83025711946">
        <ele>123.18</ele>
        <time>2022-01-27T17:23:43.454Z</time>
      </trkpt>
      <trkpt lat="41.94097228243" lon="2.8302062069">
        <ele>123.26</ele>
        <time>2022-01-27T17:23:44.996Z</time>
      </trkpt>
      <trkpt lat="41.94097228243" lon="2.8302062069">
        <ele>123.26</ele>
        <time>2022-01-27T17:23:46.538Z</time>
      </trkpt>
      <trkpt lat="41.94098" lon="2.83019">
        <ele>123.27299298899</ele>
        <time>2022-01-27T17:23:48.080Z</time>
      </trkpt>
      <trkpt lat="41.94098" lon="2.83019">
        <ele>123.27299298899</ele>
        <time>2022-01-27T17:23:49.622Z</time>
      </trkpt>
      <trkpt lat="41.94100387272" lon="2.83016612728">
        <ele>123.3</ele>
        <time>2022-01-27T17:23:51.165Z</time>
      </trkpt>
      <trkpt lat="41.94100387272" lon="2.83016612728">
        <ele>123.3</ele>
        <time>2022-01-27T17:23:52.708Z</time>
      </trkpt>
      <trkpt lat="41.94103" lon="2.83014">
        <ele>123.3182868841</ele>
        <time>2022-01-27T17:23:54.251Z</time>
      </trkpt>
      <trkpt lat="41.94103" lon="2.83014">
        <ele>123.3182868841</ele>
        <time>2022-01-27T17:23:55.794Z</time>
      </trkpt>
      <trkpt lat="41.94107" lon="2.83015">
        <ele>123.34113558701</ele>
        <time>2022-01-27T17:23:57.338Z</time>
      </trkpt>
      <trkpt lat="41.94107" lon="2.83015">
        <ele>123.34113558701</ele>
        <time>2022-01-27T17:23:58.882Z</time>
      </trkpt>
      <trkpt lat="41.94108266498" lon="2.83016266498">
        <ele>123.35</ele>
        <time>2022-01-27T17:24:00.426Z</time>
      </trkpt>
      <trkpt lat="41.94108266498" lon="2.83016266498">
        <ele>123.35</ele>
        <time>2022-01-27T17:24:01.970Z</time>
      </trkpt>
      <trkpt lat="41.94111" lon="2.83019">
        <ele>123.35</ele>
        <time>2022-01-27T17:24:03.515Z</time>
      </trkpt>
      <trkpt lat="41.94111" lon="2.83019">
        <ele>123.35</ele>
        <time>2022-01-27T17:24:05.060Z</time>
      </trkpt>
      <trkpt lat="41.9411152453" lon="2.8302014443">
        <ele>123.35</ele>
        <time>2022-01-27T17:24:06.605Z</time>
      </trkpt>
      <trkpt lat="41.9411152453" lon="2.8302014443">
        <ele>123.35</ele>
        <time>2022-01-27T17:24:08.150Z</time>
      </trkpt>
      <trkpt lat="41.94116195087" lon="2.83030334735">
        <ele>123.29</ele>
        <time>2022-01-27T17:24:09.696Z</time>
      </trkpt>
      <trkpt lat="41.94116195087" lon="2.83030334735">
        <ele>123.29</ele>
        <time>2022-01-27T17:24:11.242Z</time>
      </trkpt>
      <trkpt lat="41.94122" lon="2.83043">
        <ele>123.29</ele>
        <time>2022-01-27T17:24:12.790Z</time>
      </trkpt>
      <trkpt lat="41.94122" lon="2.83043">
        <ele>123.29</ele>
        <time>2022-01-27T17:24:14.338Z</time>
      </trkpt>
      <trkpt lat="41.94124" lon="2.83051">
        <ele>123.29</ele>
        <time>2022-01-27T17:24:15.887Z</time>
      </trkpt>
      <trkpt lat="41.94124" lon="2.83051">
        <ele>123.29</ele>
        <time>2022-01-27T17:24:17.436Z</time>
      </trkpt>
      <trkpt lat="41.94123" lon="2.8306">
        <ele>123.29</ele>
        <time>2022-01-27T17:24:18.986Z</time>
      </trkpt>
      <trkpt lat="41.94123" lon="2.8306">
        <ele>123.29</ele>
        <time>2022-01-27T17:24:20.536Z</time>
      </trkpt>
      <trkpt lat="41.94117" lon="2.83069">
        <ele>123.29</ele>
        <time>2022-01-27T17:24:22.088Z</time>
      </trkpt>
      <trkpt lat="41.94117" lon="2.83069">
        <ele>123.29</ele>
        <time>2022-01-27T17:24:23.640Z</time>
      </trkpt>
      <trkpt lat="41.94095" lon="2.83075">
        <ele>123.29</ele>
        <time>2022-01-27T17:24:25.195Z</time>
      </trkpt>
      <trkpt lat="41.94095" lon="2.83075">
        <ele>123.29</ele>
        <time>2022-01-27T17:24:26.750Z</time>
      </trkpt>
      <trkpt lat="41.94084" lon="2.83083">
        <ele>123.29</ele>
        <time>2022-01-27T17:24:28.307Z</time>
      </trkpt>
      <trkpt lat="41.94084" lon="2.83083">
        <ele>123.29</ele>
        <time>2022-01-27T17:24:29.864Z</time>
      </trkpt>
      <trkpt lat="41.94093" lon="2.83104">
        <ele>123.29</ele>
        <time>2022-01-27T17:24:31.424Z</time>
      </trkpt>
      <trkpt lat="41.94093" lon="2.83104">
        <ele>123.29</ele>
        <time>2022-01-27T17:24:32.984Z</time>
      </trkpt>
      <trkpt lat="41.94109" lon="2.8312">
        <ele>123.29</ele>
        <time>2022-01-27T17:24:34.547Z</time>
      </trkpt>
      <trkpt lat="41.94109" lon="2.8312">
        <ele>123.29</ele>
        <time>2022-01-27T17:24:36.110Z</time>
      </trkpt>
      <trkpt lat="41.94116" lon="2.8313">
        <ele>123.29</ele>
        <time>2022-01-27T17:24:37.675Z</time>
      </trkpt>
      <trkpt lat="41.94116" lon="2.8313">
        <ele>123.29</ele>
        <time>2022-01-27T17:24:39.240Z</time>
      </trkpt>
      <trkpt lat="41.94121" lon="2.83145">
        <ele>123.29</ele>
        <time>2022-01-27T17:24:40.807Z</time>
      </trkpt>
      <trkpt lat="41.94121" lon="2.83145">
        <ele>123.29</ele>
        <time>2022-01-27T17:24:42.374Z</time>
      </trkpt>
      <trkpt lat="41.94116" lon="2.8313">
        <ele>123.29</ele>
        <time>2022-01-27T17:24:43.943Z</time>
      </trkpt>
      <trkpt lat="41.94116" lon="2.8313">
        <ele>123.29</ele>
        <time>2022-01-27T17:24:45.512Z</time>
      </trkpt>
      <trkpt lat="41.94107" lon="2.83118">
        <ele>123.29</ele>
        <time>2022-01-27T17:24:47.083Z</time>
      </trkpt>
      <trkpt lat="41.94107" lon="2.83118">
        <ele>123.29</ele>
        <time>2022-01-27T17:24:48.654Z</time>
      </trkpt>
      <trkpt lat="41.94113" lon="2.83107">
        <ele>123.29</ele>
        <time>2022-01-27T17:24:50.227Z</time>
      </trkpt>
      <trkpt lat="41.94113" lon="2.83107">
        <ele>123.29</ele>
        <time>2022-01-27T17:24:51.800Z</time>
      </trkpt>
      <trkpt lat="41.94118363348" lon="2.83106463665">
        <ele>123.29</ele>
        <time>2022-01-27T17:24:53.374Z</time>
      </trkpt>
      <trkpt lat="41.94118363348" lon="2.83106463665">
        <ele>123.29</ele>
        <time>2022-01-27T17:24:54.948Z</time>
      </trkpt>
      <trkpt lat="41.94123" lon="2.83106">
        <ele>123.21899624099</ele>
        <time>2022-01-27T17:24:56.522Z</time>
      </trkpt>
      <trkpt lat="41.94123" lon="2.83106">
        <ele>123.21899624099</ele>
        <time>2022-01-27T17:24:58.096Z</time>
      </trkpt>
      <trkpt lat="41.94133" lon="2.83108">
        <ele>123.06460167199</ele>
        <time>2022-01-27T17:24:59.672Z</time>
      </trkpt>
      <trkpt lat="41.94133" lon="2.83108">
        <ele>123.06460167199</ele>
        <time>2022-01-27T17:25:01.248Z</time>
      </trkpt>
      <trkpt lat="41.94138777573" lon="2.83111004338">
        <ele>122.97</ele>
        <time>2022-01-27T17:25:02.825Z</time>
      </trkpt>
      <trkpt lat="41.94138777573" lon="2.83111004338">
        <ele>122.97</ele>
        <time>2022-01-27T17:25:04.402Z</time>
      </trkpt>
      <trkpt lat="41.94150520292" lon="2.83117110552">
        <ele>122.74</ele>
        <time>2022-01-27T17:25:05.981Z</time>
      </trkpt>
      <trkpt lat="41.94150520292" lon="2.83117110552">
        <ele>122.74</ele>
        <time>2022-01-27T17:25:07.560Z</time>
      </trkpt>
      <trkpt lat="41.94154630244" lon="2.83119247727">
        <ele>122.23</ele>
        <time>2022-01-27T17:25:09.140Z</time>
      </trkpt>
      <trkpt lat="41.94154630244" lon="2.83119247727">
        <ele>122.23</ele>
        <time>2022-01-27T17:25:10.720Z</time>
      </trkpt>
      <trkpt lat="41.94158" lon="2.83121">
        <ele>121.63</ele>
        <time>2022-01-27T17:25:12.300Z</time>
      </trkpt>
      <trkpt lat="41.94158" lon="2.83121">
        <ele>121.63</ele>
        <time>2022-01-27T17:25:13.880Z</time>
      </trkpt>
      <trkpt lat="41.94158605534" lon="2.83120134952">
        <ele>121.63</ele>
        <time>2022-01-27T17:25:15.460Z</time>
      </trkpt>
      <trkpt lat="41.94158605534" lon="2.83120134952">
        <ele>121.63</ele>
        <time>2022-01-27T17:25:17.040Z</time>
      </trkpt>
      <trkpt lat="41.94161687185" lon="2.83115732592">
        <ele>120.9</ele>
        <time>2022-01-27T17:25:18.621Z</time>
      </trkpt>
      <trkpt lat="41.94161687185" lon="2.83115732592">
        <ele>120.9</ele>
        <time>2022-01-27T17:25:20.202Z</time>
      </trkpt>
      <trkpt lat="41.94164707204" lon="2.8311141828">
        <ele>120.01</ele>
        <time>2022-01-27T17:25:21.784Z</time>
      </trkpt>
      <trkpt lat="41.94164707204" lon="2.8311141828">
        <ele>120.01</ele>
        <time>2022-01-27T17:25:23.366Z</time>
      </trkpt>
      <trkpt lat="41.94167788855" lon="2.83107015921">
        <ele>118.96</ele>
        <time>2022-01-27T17:25:24.948Z</time>
      </trkpt>
      <trkpt lat="41.94167788855" lon="2.83107015921">
        <ele>118.96</ele>
        <time>2022-01-27T17:25:26.530Z</time>
      </trkpt>
      <trkpt lat="41.94170870506" lon="2.83102613562">
        <ele>117.72</ele>
        <time>2022-01-27T17:25:28.113Z</time>
      </trkpt>
      <trkpt lat="41.94170870506" lon="2.83102613562">
        <ele>117.72</ele>
        <time>2022-01-27T17:25:29.696Z</time>
      </trkpt>
      <trkpt lat="41.94172" lon="2.83101">
        <ele>117.18143679487</ele>
        <time>2022-01-27T17:25:31.279Z</time>
      </trkpt>
      <trkpt lat="41.94172" lon="2.83101">
        <ele>117.18143679487</ele>
        <time>2022-01-27T17:25:32.862Z</time>
      </trkpt>
      <trkpt lat="41.94172407548" lon="2.83097332069">
        <ele>116.28</ele>
        <time>2022-01-27T17:25:34.446Z</time>
      </trkpt>
      <trkpt lat="41.94172407548" lon="2.83097332069">
        <ele>116.28</ele>
        <time>2022-01-27T17:25:36.030Z</time>
      </trkpt>
      <trkpt lat="41.94173" lon="2.83092">
        <ele>114.67</ele>
        <time>2022-01-27T17:25:37.615Z</time>
      </trkpt>
      <trkpt lat="41.94173" lon="2.83092">
        <ele>114.67</ele>
        <time>2022-01-27T17:25:39.200Z</time>
      </trkpt>
      <trkpt lat="41.94172893634" lon="2.83091361803">
        <ele>114.67</ele>
        <time>2022-01-27T17:25:40.785Z</time>
      </trkpt>
      <trkpt lat="41.94172893634" lon="2.83091361803">
        <ele>114.67</ele>
        <time>2022-01-27T17:25:42.370Z</time>
      </trkpt>
      <trkpt lat="41.9417191047" lon="2.83085462823">
        <ele>112.93</ele>
        <time>2022-01-27T17:25:43.955Z</time>
      </trkpt>
      <trkpt lat="41.9417191047" lon="2.83085462823">
        <ele>112.93</ele>
        <time>2022-01-27T17:25:45.540Z</time>
      </trkpt>
      <trkpt lat="41.94169963807" lon="2.83073782841">
        <ele>109.34</ele>
        <time>2022-01-27T17:25:47.127Z</time>
      </trkpt>
      <trkpt lat="41.94169963807" lon="2.83073782841">
        <ele>109.34</ele>
        <time>2022-01-27T17:25:48.714Z</time>
      </trkpt>
      <trkpt lat="41.94168980643" lon="2.8306788386">
        <ele>107.66</ele>
        <time>2022-01-27T17:25:50.302Z</time>
      </trkpt>
      <trkpt lat="41.94168980643" lon="2.8306788386">
        <ele>107.66</ele>
        <time>2022-01-27T17:25:51.890Z</time>
      </trkpt>
      <trkpt lat="41.9416799748" lon="2.83061984879">
        <ele>106.2</ele>
        <time>2022-01-27T17:25:53.478Z</time>
      </trkpt>
      <trkpt lat="41.9416799748" lon="2.83061984879">
        <ele>106.2</ele>
        <time>2022-01-27T17:25:55.066Z</time>
      </trkpt>
      <trkpt lat="41.94167" lon="2.83056">
        <ele>105.04</ele>
        <time>2022-01-27T17:25:56.655Z</time>
      </trkpt>
      <trkpt lat="41.94167" lon="2.83056">
        <ele>105.04</ele>
        <time>2022-01-27T17:25:58.244Z</time>
      </trkpt>
      <trkpt lat="41.94167363489" lon="2.83050184181">
        <ele>104.21</ele>
        <time>2022-01-27T17:25:59.834Z</time>
      </trkpt>
      <trkpt lat="41.94167363489" lon="2.83050184181">
        <ele>104.21</ele>
        <time>2022-01-27T17:26:01.424Z</time>
      </trkpt>
      <trkpt lat="41.9416773999" lon="2.83044160162">
        <ele>103.71</ele>
        <time>2022-01-27T17:26:03.014Z</time>
      </trkpt>
      <trkpt lat="41.9416773999" lon="2.83044160162">
        <ele>103.71</ele>
        <time>2022-01-27T17:26:04.604Z</time>
      </trkpt>
      <trkpt lat="41.94168" lon="2.8304">
        <ele>103.53735105403</ele>
        <time>2022-01-27T17:26:06.195Z</time>
      </trkpt>
      <trkpt lat="41.94168" lon="2.8304">
        <ele>103.53735105403</ele>
        <time>2022-01-27T17:26:07.786Z</time>
      </trkpt>
      <trkpt lat="41.94168602192" lon="2.83038313862">
        <ele>103.46</ele>
        <time>2022-01-27T17:26:09.377Z</time>
      </trkpt>
      <trkpt lat="41.94168602192" lon="2.83038313862">
        <ele>103.46</ele>
        <time>2022-01-27T17:26:10.968Z</time>
      </trkpt>
      <trkpt lat="41.94170509562" lon="2.83032973227">
        <ele>103.37</ele>
        <time>2022-01-27T17:26:12.560Z</time>
      </trkpt>
      <trkpt lat="41.94170509562" lon="2.83032973227">
        <ele>103.37</ele>
        <time>2022-01-27T17:26:14.152Z</time>
      </trkpt>
      <trkpt lat="41.94173" lon="2.83026">
        <ele>103.3124189571</ele>
        <time>2022-01-27T17:26:15.745Z</time>
      </trkpt>
      <trkpt lat="41.94173" lon="2.83026">
        <ele>103.3124189571</ele>
        <time>2022-01-27T17:26:17.338Z</time>
      </trkpt>
      <trkpt lat="41.94175443463" lon="2.83023140628">
        <ele>103.28</ele>
        <time>2022-01-27T17:26:18.931Z</time>
      </trkpt>
      <trkpt lat="41.94175443463" lon="2.83023140628">
        <ele>103.28</ele>
        <time>2022-01-27T17:26:20.524Z</time>
      </trkpt>
      <trkpt lat="41.94178767343" lon="2.83019250982">
        <ele>103.19</ele>
        <time>2022-01-27T17:26:22.118Z</time>
      </trkpt>
      <trkpt lat="41.94178767343" lon="2.83019250982">
        <ele>103.19</ele>
        <time>2022-01-27T17:26:23.712Z</time>
      </trkpt>
      <trkpt lat="41.94185550771" lon="2.83011312927">
        <ele>102.91</ele>
        <time>2022-01-27T17:26:25.307Z</time>
      </trkpt>
      <trkpt lat="41.94185550771" lon="2.83011312927">
        <ele>102.91</ele>
        <time>2022-01-27T17:26:26.902Z</time>
      </trkpt>
      <trkpt lat="41.94192266365" lon="2.83003454254">
        <ele>102.55</ele>
        <time>2022-01-27T17:26:28.499Z</time>
      </trkpt>
      <trkpt lat="41.94192266365" lon="2.83003454254">
        <ele>102.55</ele>
        <time>2022-01-27T17:26:30.096Z</time>
      </trkpt>
      <trkpt lat="41.94195658079" lon="2.82999485226">
        <ele>102.29</ele>
        <time>2022-01-27T17:26:31.694Z</time>
      </trkpt>
      <trkpt lat="41.94195658079" lon="2.82999485226">
        <ele>102.29</ele>
        <time>2022-01-27T17:26:33.292Z</time>
      </trkpt>
      <trkpt lat="41.94199049793" lon="2.82995516199">
        <ele>101.94</ele>
        <time>2022-01-27T17:26:34.890Z</time>
      </trkpt>
      <trkpt lat="41.94199049793" lon="2.82995516199">
        <ele>101.94</ele>
        <time>2022-01-27T17:26:36.488Z</time>
      </trkpt>
      <trkpt lat="41.94202373673" lon="2.82991626553">
        <ele>101.51</ele>
        <time>2022-01-27T17:26:38.087Z</time>
      </trkpt>
      <trkpt lat="41.94202373673" lon="2.82991626553">
        <ele>101.51</ele>
        <time>2022-01-27T17:26:39.686Z</time>
      </trkpt>
      <trkpt lat="41.94205765387" lon="2.82987657525">
        <ele>101.03</ele>
        <time>2022-01-27T17:26:41.286Z</time>
      </trkpt>
      <trkpt lat="41.94205765387" lon="2.82987657525">
        <ele>101.03</ele>
        <time>2022-01-27T17:26:42.886Z</time>
      </trkpt>
      <trkpt lat="41.9422" lon="2.82971">
        <ele>101.42887689279</ele>
        <time>2022-01-27T17:26:44.489Z</time>
      </trkpt>
      <trkpt lat="41.9422" lon="2.82971">
        <ele>101.42887689279</ele>
        <time>2022-01-27T17:26:46.092Z</time>
      </trkpt>
      <trkpt lat="41.94218289883" lon="2.82967864785">
        <ele>101.49</ele>
        <time>2022-01-27T17:26:47.695Z</time>
      </trkpt>
      <trkpt lat="41.94218289883" lon="2.82967864785">
        <ele>101.49</ele>
        <time>2022-01-27T17:26:49.298Z</time>
      </trkpt>
      <trkpt lat="41.94214" lon="2.8296">
        <ele>101.59083062061</ele>
        <time>2022-01-27T17:26:50.902Z</time>
      </trkpt>
      <trkpt lat="41.94214" lon="2.8296">
        <ele>101.59083062061</ele>
        <time>2022-01-27T17:26:52.506Z</time>
      </trkpt>
      <trkpt lat="41.94212893402" lon="2.82958893402">
        <ele>101.61</ele>
        <time>2022-01-27T17:26:54.111Z</time>
      </trkpt>
      <trkpt lat="41.94212893402" lon="2.82958893402">
        <ele>101.61</ele>
        <time>2022-01-27T17:26:55.716Z</time>
      </trkpt>
      <trkpt lat="41.94209357599" lon="2.82955357599">
        <ele>101.64</ele>
        <time>2022-01-27T17:26:57.321Z</time>
      </trkpt>
      <trkpt lat="41.94209357599" lon="2.82955357599">
        <ele>101.64</ele>
        <time>2022-01-27T17:26:58.926Z</time>
      </trkpt>
      <trkpt lat="41.94206" lon="2.82952">
        <ele>101.63</ele>
        <time>2022-01-27T17:27:00.532Z</time>
      </trkpt>
      <trkpt lat="41.94206" lon="2.82952">
        <ele>101.63</ele>
        <time>2022-01-27T17:27:02.138Z</time>
      </trkpt>
      <trkpt lat="41.94205983966" lon="2.8295182363">
        <ele>101.63</ele>
        <time>2022-01-27T17:27:03.744Z</time>
      </trkpt>
      <trkpt lat="41.94205983966" lon="2.8295182363">
        <ele>101.63</ele>
        <time>2022-01-27T17:27:05.350Z</time>
      </trkpt>
      <trkpt lat="41.94204" lon="2.8293">
        <ele>101.53626574724</ele>
        <time>2022-01-27T17:27:06.959Z</time>
      </trkpt>
      <trkpt lat="41.94204" lon="2.8293">
        <ele>101.53626574724</ele>
        <time>2022-01-27T17:27:08.568Z</time>
      </trkpt>
      <trkpt lat="41.94204832901" lon="2.82929048114">
        <ele>101.53</ele>
        <time>2022-01-27T17:27:10.177Z</time>
      </trkpt>
      <trkpt lat="41.94204832901" lon="2.82929048114">
        <ele>101.53</ele>
        <time>2022-01-27T17:27:11.786Z</time>
      </trkpt>
      <trkpt lat="41.94214768329" lon="2.82917693338">
        <ele>101.51</ele>
        <time>2022-01-27T17:27:13.397Z</time>
      </trkpt>
      <trkpt lat="41.94214768329" lon="2.82917693338">
        <ele>101.51</ele>
        <time>2022-01-27T17:27:15.008Z</time>
      </trkpt>
      <trkpt lat="41.94221414788" lon="2.82910097385">
        <ele>101.54</ele>
        <time>2022-01-27T17:27:16.620Z</time>
      </trkpt>
      <trkpt lat="41.94221414788" lon="2.82910097385">
        <ele>101.54</ele>
        <time>2022-01-27T17:27:18.232Z</time>
      </trkpt>
      <trkpt lat="41.94228061248" lon="2.82902501431">
        <ele>101.66</ele>
        <time>2022-01-27T17:27:19.846Z</time>
      </trkpt>
      <trkpt lat="41.94228061248" lon="2.82902501431">
        <ele>101.66</ele>
        <time>2022-01-27T17:27:21.460Z</time>
      </trkpt>
      <trkpt lat="41.94232" lon="2.82898">
        <ele>101.78</ele>
        <time>2022-01-27T17:27:23.074Z</time>
      </trkpt>
      <trkpt lat="41.94232" lon="2.82898">
        <ele>101.78</ele>
        <time>2022-01-27T17:27:24.688Z</time>
      </trkpt>
      <trkpt lat="41.9423541754" lon="2.82898759453">
        <ele>101.93</ele>
        <time>2022-01-27T17:27:26.303Z</time>
      </trkpt>
      <trkpt lat="41.9423541754" lon="2.82898759453">
        <ele>101.93</ele>
        <time>2022-01-27T17:27:27.918Z</time>
      </trkpt>
      <trkpt lat="41.94239765227" lon="2.82899725606">
        <ele>102.14</ele>
        <time>2022-01-27T17:27:29.534Z</time>
      </trkpt>
      <trkpt lat="41.94239765227" lon="2.82899725606">
        <ele>102.14</ele>
        <time>2022-01-27T17:27:31.150Z</time>
      </trkpt>
      <trkpt lat="41.94241" lon="2.829">
        <ele>102.21248093016</ele>
        <time>2022-01-27T17:27:32.766Z</time>
      </trkpt>
      <trkpt lat="41.94241" lon="2.829">
        <ele>102.21248093016</ele>
        <time>2022-01-27T17:27:34.382Z</time>
      </trkpt>
      <trkpt lat="41.94243975137" lon="2.82899008288">
        <ele>102.39</ele>
        <time>2022-01-27T17:27:35.998Z</time>
      </trkpt>
      <trkpt lat="41.94243975137" lon="2.82899008288">
        <ele>102.39</ele>
        <time>2022-01-27T17:27:37.614Z</time>
      </trkpt>
      <trkpt lat="41.94248252311" lon="2.82897582563">
        <ele>102.71</ele>
        <time>2022-01-27T17:27:39.231Z</time>
      </trkpt>
      <trkpt lat="41.94248252311" lon="2.82897582563">
        <ele>102.71</ele>
        <time>2022-01-27T17:27:40.848Z</time>
      </trkpt>
      <trkpt lat="41.94257068526" lon="2.82894643825">
        <ele>103.48</ele>
        <time>2022-01-27T17:27:42.467Z</time>
      </trkpt>
      <trkpt lat="41.94257068526" lon="2.82894643825">
        <ele>103.48</ele>
        <time>2022-01-27T17:27:44.086Z</time>
      </trkpt>
      <trkpt lat="41.94260821964" lon="2.82893392679">
        <ele>103.78</ele>
        <time>2022-01-27T17:27:45.705Z</time>
      </trkpt>
      <trkpt lat="41.94260821964" lon="2.82893392679">
        <ele>103.78</ele>
        <time>2022-01-27T17:27:47.324Z</time>
      </trkpt>
      <trkpt lat="41.94262" lon="2.82893">
        <ele>103.85591373248</ele>
        <time>2022-01-27T17:27:48.943Z</time>
      </trkpt>
      <trkpt lat="41.94262" lon="2.82893">
        <ele>103.85591373248</ele>
        <time>2022-01-27T17:27:50.562Z</time>
      </trkpt>
      <trkpt lat="41.94265103042" lon="2.82893">
        <ele>104.05</ele>
        <time>2022-01-27T17:27:52.182Z</time>
      </trkpt>
      <trkpt lat="41.94265103042" lon="2.82893">
        <ele>104.05</ele>
        <time>2022-01-27T17:27:53.802Z</time>
      </trkpt>
      <trkpt lat="41.94269" lon="2.82893">
        <ele>104.24</ele>
        <time>2022-01-27T17:27:55.423Z</time>
      </trkpt>
      <trkpt lat="41.94269" lon="2.82893">
        <ele>104.24</ele>
        <time>2022-01-27T17:27:57.044Z</time>
      </trkpt>
      <trkpt lat="41.94269429801" lon="2.82893368401">
        <ele>104.24</ele>
        <time>2022-01-27T17:27:58.665Z</time>
      </trkpt>
      <trkpt lat="41.94269429801" lon="2.82893368401">
        <ele>104.24</ele>
        <time>2022-01-27T17:28:00.286Z</time>
      </trkpt>
      <trkpt lat="41.94273069709" lon="2.82896488322">
        <ele>104.4</ele>
        <time>2022-01-27T17:28:01.907Z</time>
      </trkpt>
      <trkpt lat="41.94273069709" lon="2.82896488322">
        <ele>104.4</ele>
        <time>2022-01-27T17:28:03.528Z</time>
      </trkpt>
      <trkpt lat="41.94276" lon="2.82899">
        <ele>105.16885962145</ele>
        <time>2022-01-27T17:28:05.150Z</time>
      </trkpt>
      <trkpt lat="41.94276" lon="2.82899">
        <ele>105.16885962145</ele>
        <time>2022-01-27T17:28:06.772Z</time>
      </trkpt>
      <trkpt lat="41.94279197329" lon="2.82904595326">
        <ele>106.33</ele>
        <time>2022-01-27T17:28:08.395Z</time>
      </trkpt>
      <trkpt lat="41.94279197329" lon="2.82904595326">
        <ele>106.33</ele>
        <time>2022-01-27T17:28:10.018Z</time>
      </trkpt>
      <trkpt lat="41.9428" lon="2.82906">
        <ele>106.60506862964</ele>
        <time>2022-01-27T17:28:11.641Z</time>
      </trkpt>
      <trkpt lat="41.9428" lon="2.82906">
        <ele>106.60506862964</ele>
        <time>2022-01-27T17:28:13.264Z</time>
      </trkpt>
      <trkpt lat="41.94281169849" lon="2.8290984379">
        <ele>107.25</ele>
        <time>2022-01-27T17:28:14.887Z</time>
      </trkpt>
      <trkpt lat="41.94281169849" lon="2.8290984379">
        <ele>107.25</ele>
        <time>2022-01-27T17:28:16.510Z</time>
      </trkpt>
      <trkpt lat="41.94282838649" lon="2.82915326989">
        <ele>108.1</ele>
        <time>2022-01-27T17:28:18.134Z</time>
      </trkpt>
      <trkpt lat="41.94282838649" lon="2.82915326989">
        <ele>108.1</ele>
        <time>2022-01-27T17:28:19.758Z</time>
      </trkpt>
      <trkpt lat="41.94284507449" lon="2.82920810188">
        <ele>108.89</ele>
        <time>2022-01-27T17:28:21.383Z</time>
      </trkpt>
      <trkpt lat="41.94284507449" lon="2.82920810188">
        <ele>108.89</ele>
        <time>2022-01-27T17:28:23.008Z</time>
      </trkpt>
      <trkpt lat="41.94286176248" lon="2.82926293387">
        <ele>109.62</ele>
        <time>2022-01-27T17:28:24.634Z</time>
      </trkpt>
      <trkpt lat="41.94286176248" lon="2.82926293387">
        <ele>109.62</ele>
        <time>2022-01-27T17:28:26.260Z</time>
      </trkpt>
      <trkpt lat="41.94287" lon="2.82929">
        <ele>109.95072489142</ele>
        <time>2022-01-27T17:28:27.886Z</time>
      </trkpt>
      <trkpt lat="41.94287" lon="2.82929">
        <ele>109.95072489142</ele>
        <time>2022-01-27T17:28:29.512Z</time>
      </trkpt>
      <trkpt lat="41.94288144585" lon="2.82931575317">
        <ele>110.29</ele>
        <time>2022-01-27T17:28:31.138Z</time>
      </trkpt>
      <trkpt lat="41.94288144585" lon="2.82931575317">
        <ele>110.29</ele>
        <time>2022-01-27T17:28:32.764Z</time>
      </trkpt>
      <trkpt lat="41.94292619106" lon="2.82941642989">
        <ele>111.47</ele>
        <time>2022-01-27T17:28:34.392Z</time>
      </trkpt>
      <trkpt lat="41.94292619106" lon="2.82941642989">
        <ele>111.47</ele>
        <time>2022-01-27T17:28:36.020Z</time>
      </trkpt>
      <trkpt lat="41.94294879431" lon="2.82946728721">
        <ele>112.0</ele>
        <time>2022-01-27T17:28:37.648Z</time>
      </trkpt>
      <trkpt lat="41.94294879431" lon="2.82946728721">
        <ele>112.0</ele>
        <time>2022-01-27T17:28:39.276Z</time>
      </trkpt>
      <trkpt lat="41.94297139757" lon="2.82951814452">
        <ele>112.51</ele>
        <time>2022-01-27T17:28:40.905Z</time>
      </trkpt>
      <trkpt lat="41.94297139757" lon="2.82951814452">
        <ele>112.51</ele>
        <time>2022-01-27T17:28:42.534Z</time>
      </trkpt>
      <trkpt lat="41.94303" lon="2.82965">
        <ele>113.7700303671</ele>
        <time>2022-01-27T17:28:44.165Z</time>
      </trkpt>
      <trkpt lat="41.94303" lon="2.82965">
        <ele>113.7700303671</ele>
        <time>2022-01-27T17:28:45.796Z</time>
      </trkpt>
      <trkpt lat="41.943087374" lon="2.82976996382">
        <ele>114.94</ele>
        <time>2022-01-27T17:28:47.429Z</time>
      </trkpt>
      <trkpt lat="41.943087374" lon="2.82976996382">
        <ele>114.94</ele>
        <time>2022-01-27T17:28:49.062Z</time>
      </trkpt>
      <trkpt lat="41.94314" lon="2.82988">
        <ele>116.1495993027</ele>
        <time>2022-01-27T17:28:50.696Z</time>
      </trkpt>
      <trkpt lat="41.94314" lon="2.82988">
        <ele>116.1495993027</ele>
        <time>2022-01-27T17:28:52.330Z</time>
      </trkpt>
      <trkpt lat="41.94319407008" lon="2.82995569812">
        <ele>117.12</ele>
        <time>2022-01-27T17:28:53.965Z</time>
      </trkpt>
      <trkpt lat="41.94319407008" lon="2.82995569812">
        <ele>117.12</ele>
        <time>2022-01-27T17:28:55.600Z</time>
      </trkpt>
      <trkpt lat="41.94322459285" lon="2.82999842999">
        <ele>117.64</ele>
        <time>2022-01-27T17:28:57.236Z</time>
      </trkpt>
      <trkpt lat="41.94322459285" lon="2.82999842999">
        <ele>117.64</ele>
        <time>2022-01-27T17:28:58.872Z</time>
      </trkpt>
      <trkpt lat="41.94324" lon="2.83002">
        <ele>117.87219681504</ele>
        <time>2022-01-27T17:29:00.508Z</time>
      </trkpt>
      <trkpt lat="41.94324" lon="2.83002">
        <ele>117.87219681504</ele>
        <time>2022-01-27T17:29:02.144Z</time>
      </trkpt>
      <trkpt lat="41.94325119372" lon="2.83004518587">
        <ele>118.1</ele>
        <time>2022-01-27T17:29:03.781Z</time>
      </trkpt>
      <trkpt lat="41.94325119372" lon="2.83004518587">
        <ele>118.1</ele>
        <time>2022-01-27T17:29:05.418Z</time>
      </trkpt>
      <trkpt lat="41.94327379705" lon="2.83009604337">
        <ele>118.52</ele>
        <time>2022-01-27T17:29:07.056Z</time>
      </trkpt>
      <trkpt lat="41.94327379705" lon="2.83009604337">
        <ele>118.52</ele>
        <time>2022-01-27T17:29:08.694Z</time>
      </trkpt>
      <trkpt lat="41.94328" lon="2.83011">
        <ele>118.61879345456</ele>
        <time>2022-01-27T17:29:10.332Z</time>
      </trkpt>
      <trkpt lat="41.94328" lon="2.83011">
        <ele>118.61879345456</ele>
        <time>2022-01-27T17:29:11.970Z</time>
      </trkpt>
      <trkpt lat="41.94328126332" lon="2.83015295299">
        <ele>118.88</ele>
        <time>2022-01-27T17:29:13.608Z</time>
      </trkpt>
      <trkpt lat="41.94328126332" lon="2.83015295299">
        <ele>118.88</ele>
        <time>2022-01-27T17:29:15.246Z</time>
      </trkpt>
      <trkpt lat="41.94328296893" lon="2.8302109435">
        <ele>119.2</ele>
        <time>2022-01-27T17:29:16.885Z</time>
      </trkpt>
      <trkpt lat="41.94328296893" lon="2.8302109435">
        <ele>119.2</ele>
        <time>2022-01-27T17:29:18.524Z</time>
      </trkpt>
      <trkpt lat="41.9432864512" lon="2.83032934081">
        <ele>119.77</ele>
        <time>2022-01-27T17:29:20.164Z</time>
      </trkpt>
      <trkpt lat="41.9432864512" lon="2.83032934081">
        <ele>119.77</ele>
        <time>2022-01-27T17:29:21.804Z</time>
      </trkpt>
      <trkpt lat="41.94329" lon="2.83045">
        <ele>120.3</ele>
        <time>2022-01-27T17:29:23.446Z</time>
      </trkpt>
      <trkpt lat="41.94329" lon="2.83045">
        <ele>120.3</ele>
        <time>2022-01-27T17:29:25.088Z</time>
      </trkpt>
      <trkpt lat="41.94332579406" lon="2.83061874341">
        <ele>121.01</ele>
        <time>2022-01-27T17:29:26.732Z</time>
      </trkpt>
      <trkpt lat="41.94332579406" lon="2.83061874341">
        <ele>121.01</ele>
        <time>2022-01-27T17:29:28.376Z</time>
      </trkpt>
      <trkpt lat="41.94334947133" lon="2.83073036482">
        <ele>120.58</ele>
        <time>2022-01-27T17:29:30.021Z</time>
      </trkpt>
      <trkpt lat="41.94334947133" lon="2.83073036482">
        <ele>120.58</ele>
        <time>2022-01-27T17:29:31.666Z</time>
      </trkpt>
      <trkpt lat="41.94336" lon="2.83078">
        <ele>120.41614422451</ele>
        <time>2022-01-27T17:29:33.312Z</time>
      </trkpt>
      <trkpt lat="41.94336" lon="2.83078">
        <ele>120.41614422451</ele>
        <time>2022-01-27T17:29:34.958Z</time>
      </trkpt>
      <trkpt lat="41.94335" lon="2.83086">
        <ele>120.15861255454</ele>
        <time>2022-01-27T17:29:36.605Z</time>
      </trkpt>
      <trkpt lat="41.94335" lon="2.83086">
        <ele>120.15861255454</ele>
        <time>2022-01-27T17:29:38.252Z</time>
      </trkpt>
      <trkpt lat="41.94342750304" lon="2.83083720499">
        <ele>119.82</ele>
        <time>2022-01-27T17:29:39.900Z</time>
      </trkpt>
      <trkpt lat="41.94342750304" lon="2.83083720499">
        <ele>119.82</ele>
        <time>2022-01-27T17:29:41.548Z</time>
      </trkpt>
      <trkpt lat="41.94355752771" lon="2.83079896244">
        <ele>119.16</ele>
        <time>2022-01-27T17:29:43.198Z</time>
      </trkpt>
      <trkpt lat="41.94355752771" lon="2.83079896244">
        <ele>119.16</ele>
        <time>2022-01-27T17:29:44.848Z</time>
      </trkpt>
      <trkpt lat="41.94369" lon="2.83076">
        <ele>118.55</ele>
        <time>2022-01-27T17:29:46.500Z</time>
      </trkpt>
      <trkpt lat="41.94369" lon="2.83076">
        <ele>118.55</ele>
        <time>2022-01-27T17:29:48.152Z</time>
      </trkpt>
      <trkpt lat="41.94372946101" lon="2.83074246177">
        <ele>118.29</ele>
        <time>2022-01-27T17:29:49.805Z</time>
      </trkpt>
      <trkpt lat="41.94372946101" lon="2.83074246177">
        <ele>118.29</ele>
        <time>2022-01-27T17:29:51.458Z</time>
      </trkpt>
      <trkpt lat="41.9438549807" lon="2.83068667525">
        <ele>117.42</ele>
        <time>2022-01-27T17:29:53.113Z</time>
      </trkpt>
      <trkpt lat="41.9438549807" lon="2.83068667525">
        <ele>117.42</ele>
        <time>2022-01-27T17:29:54.768Z</time>
      </trkpt>
      <trkpt lat="41.94389767447" lon="2.83066770024">
        <ele>117.18</ele>
        <time>2022-01-27T17:29:56.424Z</time>
      </trkpt>
      <trkpt lat="41.94389767447" lon="2.83066770024">
        <ele>117.18</ele>
        <time>2022-01-27T17:29:58.080Z</time>
      </trkpt>
      <trkpt lat="41.94393951436" lon="2.83064910473">
        <ele>117.02</ele>
        <time>2022-01-27T17:29:59.737Z</time>
      </trkpt>
      <trkpt lat="41.94393951436" lon="2.83064910473">
        <ele>117.02</ele>
        <time>2022-01-27T17:30:01.394Z</time>
      </trkpt>
      <trkpt lat="41.94398135426" lon="2.83063050922">
        <ele>116.93</ele>
        <time>2022-01-27T17:30:03.051Z</time>
      </trkpt>
      <trkpt lat="41.94398135426" lon="2.83063050922">
        <ele>116.93</ele>
        <time>2022-01-27T17:30:04.708Z</time>
      </trkpt>
      <trkpt lat="41.94406588793" lon="2.8305929387">
        <ele>116.87</ele>
        <time>2022-01-27T17:30:06.367Z</time>
      </trkpt>
      <trkpt lat="41.94406588793" lon="2.8305929387">
        <ele>116.87</ele>
        <time>2022-01-27T17:30:08.026Z</time>
      </trkpt>
      <trkpt lat="41.94410772782" lon="2.83057434319">
        <ele>116.78</ele>
        <time>2022-01-27T17:30:09.685Z</time>
      </trkpt>
      <trkpt lat="41.94410772782" lon="2.83057434319">
        <ele>116.78</ele>
        <time>2022-01-27T17:30:11.344Z</time>
      </trkpt>
      <trkpt lat="41.94414956772" lon="2.83055574768">
        <ele>116.56</ele>
        <time>2022-01-27T17:30:13.004Z</time>
      </trkpt>
      <trkpt lat="41.94414956772" lon="2.83055574768">
        <ele>116.56</ele>
        <time>2022-01-27T17:30:14.664Z</time>
      </trkpt>
      <trkpt lat="41.94419140761" lon="2.83053715217">
        <ele>116.17</ele>
        <time>2022-01-27T17:30:16.325Z</time>
      </trkpt>
      <trkpt lat="41.94419140761" lon="2.83053715217">
        <ele>116.17</ele>
        <time>2022-01-27T17:30:17.986Z</time>
      </trkpt>
      <trkpt lat="41.94423" lon="2.83052">
        <ele>115.62</ele>
        <time>2022-01-27T17:30:19.647Z</time>
      </trkpt>
      <trkpt lat="41.94423" lon="2.83052">
        <ele>115.62</ele>
        <time>2022-01-27T17:30:21.308Z</time>
      </trkpt>
      <trkpt lat="41.94423431968" lon="2.83052">
        <ele>115.62</ele>
        <time>2022-01-27T17:30:22.970Z</time>
      </trkpt>
      <trkpt lat="41.94423431968" lon="2.83052">
        <ele>115.62</ele>
        <time>2022-01-27T17:30:24.632Z</time>
      </trkpt>
      <trkpt lat="41.94427838647" lon="2.83052">
        <ele>115.01</ele>
        <time>2022-01-27T17:30:26.294Z</time>
      </trkpt>
      <trkpt lat="41.94427838647" lon="2.83052">
        <ele>115.01</ele>
        <time>2022-01-27T17:30:27.956Z</time>
      </trkpt>
      <trkpt lat="41.94432245327" lon="2.83052">
        <ele>114.45</ele>
        <time>2022-01-27T17:30:29.619Z</time>
      </trkpt>
      <trkpt lat="41.94432245327" lon="2.83052">
        <ele>114.45</ele>
        <time>2022-01-27T17:30:31.282Z</time>
      </trkpt>
      <trkpt lat="41.94436652007" lon="2.83052">
        <ele>114.07</ele>
        <time>2022-01-27T17:30:32.946Z</time>
      </trkpt>
      <trkpt lat="41.94436652007" lon="2.83052">
        <ele>114.07</ele>
        <time>2022-01-27T17:30:34.610Z</time>
      </trkpt>
      <trkpt lat="41.94441148618" lon="2.83052">
        <ele>113.92</ele>
        <time>2022-01-27T17:30:36.274Z</time>
      </trkpt>
      <trkpt lat="41.94441148618" lon="2.83052">
        <ele>113.92</ele>
        <time>2022-01-27T17:30:37.938Z</time>
      </trkpt>
      <trkpt lat="41.94445555298" lon="2.83052">
        <ele>113.99</ele>
        <time>2022-01-27T17:30:39.603Z</time>
      </trkpt>
      <trkpt lat="41.94445555298" lon="2.83052">
        <ele>113.99</ele>
        <time>2022-01-27T17:30:41.268Z</time>
      </trkpt>
      <trkpt lat="41.94449961978" lon="2.83052">
        <ele>114.23</ele>
        <time>2022-01-27T17:30:42.934Z</time>
      </trkpt>
      <trkpt lat="41.94449961978" lon="2.83052">
        <ele>114.23</ele>
        <time>2022-01-27T17:30:44.600Z</time>
      </trkpt>
      <trkpt lat="41.94454368657" lon="2.83052">
        <ele>114.57</ele>
        <time>2022-01-27T17:30:46.267Z</time>
      </trkpt>
      <trkpt lat="41.94454368657" lon="2.83052">
        <ele>114.57</ele>
        <time>2022-01-27T17:30:47.934Z</time>
      </trkpt>
      <trkpt lat="41.94456" lon="2.83052">
        <ele>114.72178107454</ele>
        <time>2022-01-27T17:30:49.601Z</time>
      </trkpt>
      <trkpt lat="41.94456" lon="2.83052">
        <ele>114.72178107454</ele>
        <time>2022-01-27T17:30:51.268Z</time>
      </trkpt>
      <trkpt lat="41.94458707419" lon="2.8305117957">
        <ele>114.98</ele>
        <time>2022-01-27T17:30:52.935Z</time>
      </trkpt>
      <trkpt lat="41.94458707419" lon="2.8305117957">
        <ele>114.98</ele>
        <time>2022-01-27T17:30:54.602Z</time>
      </trkpt>
      <trkpt lat="41.9447169167" lon="2.83047244948">
        <ele>116.28</ele>
        <time>2022-01-27T17:30:56.271Z</time>
      </trkpt>
      <trkpt lat="41.9447169167" lon="2.83047244948">
        <ele>116.28</ele>
        <time>2022-01-27T17:30:57.940Z</time>
      </trkpt>
      <trkpt lat="41.94488974761" lon="2.83042007648">
        <ele>117.83</ele>
        <time>2022-01-27T17:30:59.612Z</time>
      </trkpt>
      <trkpt lat="41.94488974761" lon="2.83042007648">
        <ele>117.83</ele>
        <time>2022-01-27T17:31:01.284Z</time>
      </trkpt>
      <trkpt lat="41.94493273601" lon="2.8304070497">
        <ele>118.18</ele>
        <time>2022-01-27T17:31:02.957Z</time>
      </trkpt>
      <trkpt lat="41.94493273601" lon="2.8304070497">
        <ele>118.18</ele>
        <time>2022-01-27T17:31:04.630Z</time>
      </trkpt>
      <trkpt lat="41.94497660172" lon="2.83039375705">
        <ele>118.46</ele>
        <time>2022-01-27T17:31:06.304Z</time>
      </trkpt>
      <trkpt lat="41.94497660172" lon="2.83039375705">
        <ele>118.46</ele>
        <time>2022-01-27T17:31:07.978Z</time>
      </trkpt>
      <trkpt lat="41.94501959012" lon="2.83038073027">
        <ele>118.68</ele>
        <time>2022-01-27T17:31:09.652Z</time>
      </trkpt>
      <trkpt lat="41.94501959012" lon="2.83038073027">
        <ele>118.68</ele>
        <time>2022-01-27T17:31:11.326Z</time>
      </trkpt>
      <trkpt lat="41.94506257852" lon="2.83036770348">
        <ele>118.87</ele>
        <time>2022-01-27T17:31:13.001Z</time>
      </trkpt>
      <trkpt lat="41.94506257852" lon="2.83036770348">
        <ele>118.87</ele>
        <time>2022-01-27T17:31:14.676Z</time>
      </trkpt>
      <trkpt lat="41.94522" lon="2.83032">
        <ele>119.43149942455</ele>
        <time>2022-01-27T17:31:16.354Z</time>
      </trkpt>
      <trkpt lat="41.94522" lon="2.83032">
        <ele>119.43149942455</ele>
        <time>2022-01-27T17:31:18.032Z</time>
      </trkpt>
      <trkpt lat="41.94541" lon="2.8301">
        <ele>120.30400059875</ele>
        <time>2022-01-27T17:31:19.714Z</time>
      </trkpt>
      <trkpt lat="41.94541" lon="2.8301">
        <ele>120.30400059875</ele>
        <time>2022-01-27T17:31:21.396Z</time>
      </trkpt>
      <trkpt lat="41.94552304469" lon="2.83013885911">
        <ele>120.71</ele>
        <time>2022-01-27T17:31:23.079Z</time>
      </trkpt>
      <trkpt lat="41.94552304469" lon="2.83013885911">
        <ele>120.71</ele>
        <time>2022-01-27T17:31:24.762Z</time>
      </trkpt>
      <trkpt lat="41.94559449089" lon="2.83016341874">
        <ele>120.35</ele>
        <time>2022-01-27T17:31:26.447Z</time>
      </trkpt>
      <trkpt lat="41.94559449089" lon="2.83016341874">
        <ele>120.35</ele>
        <time>2022-01-27T17:31:28.132Z</time>
      </trkpt>
      <trkpt lat="41.94566855097" lon="2.8301888769">
        <ele>120.71</ele>
        <time>2022-01-27T17:31:29.818Z</time>
      </trkpt>
      <trkpt lat="41.94566855097" lon="2.8301888769">
        <ele>120.71</ele>
        <time>2022-01-27T17:31:31.504Z</time>
      </trkpt>
      <trkpt lat="41.94573" lon="2.83021">
        <ele>120.48491675371</ele>
        <time>2022-01-27T17:31:33.191Z</time>
      </trkpt>
      <trkpt lat="41.94573" lon="2.83021">
        <ele>120.48491675371</ele>
        <time>2022-01-27T17:31:34.878Z</time>
      </trkpt>
      <trkpt lat="41.94583560372" lon="2.83020593832">
        <ele>120.11</ele>
        <time>2022-01-27T17:31:36.567Z</time>
      </trkpt>
      <trkpt lat="41.94583560372" lon="2.83020593832">
        <ele>120.11</ele>
        <time>2022-01-27T17:31:38.256Z</time>
      </trkpt>
      <trkpt lat="41.94593448873" lon="2.83020213505">
        <ele>119.42</ele>
        <time>2022-01-27T17:31:39.946Z</time>
      </trkpt>
      <trkpt lat="41.94593448873" lon="2.83020213505">
        <ele>119.42</ele>
        <time>2022-01-27T17:31:41.636Z</time>
      </trkpt>
      <trkpt lat="41.94599" lon="2.8302">
        <ele>118.92930072597</ele>
        <time>2022-01-27T17:31:43.327Z</time>
      </trkpt>
      <trkpt lat="41.94599" lon="2.8302">
        <ele>118.92930072597</ele>
        <time>2022-01-27T17:31:45.018Z</time>
      </trkpt>
      <trkpt lat="41.94603507162" lon="2.83020439723">
        <ele>118.53</ele>
        <time>2022-01-27T17:31:46.710Z</time>
      </trkpt>
      <trkpt lat="41.94603507162" lon="2.83020439723">
        <ele>118.53</ele>
        <time>2022-01-27T17:31:48.402Z</time>
      </trkpt>
      <trkpt lat="41.94613194373" lon="2.83021384817">
        <ele>117.95</ele>
        <time>2022-01-27T17:31:50.095Z</time>
      </trkpt>
      <trkpt lat="41.94613194373" lon="2.83021384817">
        <ele>117.95</ele>
        <time>2022-01-27T17:31:51.788Z</time>
      </trkpt>
      <trkpt lat="41.94622433102" lon="2.83022286156">
        <ele>117.77</ele>
        <time>2022-01-27T17:31:53.483Z</time>
      </trkpt>
      <trkpt lat="41.94622433102" lon="2.83022286156">
        <ele>117.77</ele>
        <time>2022-01-27T17:31:55.178Z</time>
      </trkpt>
      <trkpt lat="41.94632568796" lon="2.83023275004">
        <ele>117.7</ele>
        <time>2022-01-27T17:31:56.874Z</time>
      </trkpt>
      <trkpt lat="41.94632568796" lon="2.83023275004">
        <ele>117.7</ele>
        <time>2022-01-27T17:31:58.570Z</time>
      </trkpt>
      <trkpt lat="41.9464" lon="2.83024">
        <ele>117.45947236192</ele>
        <time>2022-01-27T17:32:00.268Z</time>
      </trkpt>
      <trkpt lat="41.9464" lon="2.83024">
        <ele>117.45947236192</ele>
        <time>2022-01-27T17:32:01.966Z</time>
      </trkpt>
      <trkpt lat="41.94640846816" lon="2.83024458692">
        <ele>117.43</ele>
        <time>2022-01-27T17:32:03.664Z</time>
      </trkpt>
      <trkpt lat="41.94640846816" lon="2.83024458692">
        <ele>117.43</ele>
        <time>2022-01-27T17:32:05.362Z</time>
      </trkpt>
      <trkpt lat="41.94656112132" lon="2.83032727405">
        <ele>112.21</ele>
        <time>2022-01-27T17:32:07.062Z</time>
      </trkpt>
      <trkpt lat="41.94656112132" lon="2.83032727405">
        <ele>112.21</ele>
        <time>2022-01-27T17:32:08.762Z</time>
      </trkpt>
      <trkpt lat="41.94660199566" lon="2.83034941432">
        <ele>111.34</ele>
        <time>2022-01-27T17:32:10.463Z</time>
      </trkpt>
      <trkpt lat="41.94660199566" lon="2.83034941432">
        <ele>111.34</ele>
        <time>2022-01-27T17:32:12.164Z</time>
      </trkpt>
      <trkpt lat="41.94664" lon="2.83037">
        <ele>110.53</ele>
        <time>2022-01-27T17:32:13.866Z</time>
      </trkpt>
      <trkpt lat="41.94664" lon="2.83037">
        <ele>110.53</ele>
        <time>2022-01-27T17:32:15.568Z</time>
      </trkpt>
      <trkpt lat="41.94664111281" lon="2.83037254356">
        <ele>110.53</ele>
        <time>2022-01-27T17:32:17.270Z</time>
      </trkpt>
      <trkpt lat="41.94664111281" lon="2.83037254356">
        <ele>110.53</ele>
        <time>2022-01-27T17:32:18.972Z</time>
      </trkpt>
      <trkpt lat="41.94666345517" lon="2.83042361181">
        <ele>109.8</ele>
        <time>2022-01-27T17:32:20.675Z</time>
      </trkpt>
      <trkpt lat="41.94666345517" lon="2.83042361181">
        <ele>109.8</ele>
        <time>2022-01-27T17:32:22.378Z</time>
      </trkpt>
      <trkpt lat="41.94668579752" lon="2.83047468006">
        <ele>109.12</ele>
        <time>2022-01-27T17:32:24.081Z</time>
      </trkpt>
      <trkpt lat="41.94668579752" lon="2.83047468006">
        <ele>109.12</ele>
        <time>2022-01-27T17:32:25.784Z</time>
      </trkpt>
      <trkpt lat="41.94671" lon="2.83053">
        <ele>108.54</ele>
        <time>2022-01-27T17:32:27.488Z</time>
      </trkpt>
      <trkpt lat="41.94671" lon="2.83053">
        <ele>108.54</ele>
        <time>2022-01-27T17:32:29.192Z</time>
      </trkpt>
      <trkpt lat="41.94674241513" lon="2.83049758487">
        <ele>108.01</ele>
        <time>2022-01-27T17:32:30.897Z</time>
      </trkpt>
      <trkpt lat="41.94674241513" lon="2.83049758487">
        <ele>108.01</ele>
        <time>2022-01-27T17:32:32.602Z</time>
      </trkpt>
      <trkpt lat="41.94677777408" lon="2.83046222592">
        <ele>107.53</ele>
        <time>2022-01-27T17:32:34.307Z</time>
      </trkpt>
      <trkpt lat="41.94677777408" lon="2.83046222592">
        <ele>107.53</ele>
        <time>2022-01-27T17:32:36.012Z</time>
      </trkpt>
      <trkpt lat="41.94682" lon="2.83042">
        <ele>107.08</ele>
        <time>2022-01-27T17:32:37.718Z</time>
      </trkpt>
      <trkpt lat="41.94682" lon="2.83042">
        <ele>107.08</ele>
        <time>2022-01-27T17:32:39.424Z</time>
      </trkpt>
      <trkpt lat="41.94685227929" lon="2.83040321477">
        <ele>106.68</ele>
        <time>2022-01-27T17:32:41.131Z</time>
      </trkpt>
      <trkpt lat="41.94685227929" lon="2.83040321477">
        <ele>106.68</ele>
        <time>2022-01-27T17:32:42.838Z</time>
      </trkpt>
      <trkpt lat="41.94689337926" lon="2.83038184278">
        <ele>106.32</ele>
        <time>2022-01-27T17:32:44.545Z</time>
      </trkpt>
      <trkpt lat="41.94689337926" lon="2.83038184278">
        <ele>106.32</ele>
        <time>2022-01-27T17:32:46.252Z</time>
      </trkpt>
      <trkpt lat="41.94697557922" lon="2.8303390988">
        <ele>105.69</ele>
        <time>2022-01-27T17:32:47.961Z</time>
      </trkpt>
      <trkpt lat="41.94697557922" lon="2.8303390988">
        <ele>105.69</ele>
        <time>2022-01-27T17:32:49.670Z</time>
      </trkpt>
      <trkpt lat="41.94707" lon="2.83029">
        <ele>105.02533851077</ele>
        <time>2022-01-27T17:32:51.380Z</time>
      </trkpt>
      <trkpt lat="41.94707" lon="2.83029">
        <ele>105.02533851077</ele>
        <time>2022-01-27T17:32:53.090Z</time>
      </trkpt>
      <trkpt lat="41.94716" lon="2.83017">
        <ele>104.19316346688</ele>
        <time>2022-01-27T17:32:54.803Z</time>
      </trkpt>
      <trkpt lat="41.94716" lon="2.83017">
        <ele>104.19316346688</ele>
        <time>2022-01-27T17:32:56.516Z</time>
      </trkpt>
      <trkpt lat="41.94717598857" lon="2.83012736382">
        <ele>103.96</ele>
        <time>2022-01-27T17:32:58.229Z</time>
      </trkpt>
      <trkpt lat="41.94717598857" lon="2.83012736382">
        <ele>103.96</ele>
        <time>2022-01-27T17:32:59.942Z</time>
      </trkpt>
      <trkpt lat="41.94719582774" lon="2.83007445936">
        <ele>103.64</ele>
        <time>2022-01-27T17:33:01.656Z</time>
      </trkpt>
      <trkpt lat="41.94719582774" lon="2.83007445936">
        <ele>103.64</ele>
        <time>2022-01-27T17:33:03.370Z</time>
      </trkpt>
      <trkpt lat="41.94722" lon="2.83001">
        <ele>103.18918808434</ele>
        <time>2022-01-27T17:33:05.085Z</time>
      </trkpt>
      <trkpt lat="41.94722" lon="2.83001">
        <ele>103.18918808434</ele>
        <time>2022-01-27T17:33:06.800Z</time>
      </trkpt>
      <trkpt lat="41.94727004793" lon="2.82992867212">
        <ele>102.53</ele>
        <time>2022-01-27T17:33:08.516Z</time>
      </trkpt>
      <trkpt lat="41.94727004793" lon="2.82992867212">
        <ele>102.53</ele>
        <time>2022-01-27T17:33:10.232Z</time>
      </trkpt>
      <trkpt lat="41.9473" lon="2.82988">
        <ele>102.19</ele>
        <time>2022-01-27T17:33:11.949Z</time>
      </trkpt>
      <trkpt lat="41.9473" lon="2.82988">
        <ele>102.19</ele>
        <time>2022-01-27T17:33:13.666Z</time>
      </trkpt>
      <trkpt lat="41.94731" lon="2.82987">
        <ele>102.09023364287</ele>
        <time>2022-01-27T17:33:15.383Z</time>
      </trkpt>
      <trkpt lat="41.94731" lon="2.82987">
        <ele>102.09023364287</ele>
        <time>2022-01-27T17:33:17.100Z</time>
      </trkpt>
      <trkpt lat="41.94731370264" lon="2.82983297363">
        <ele>101.91</ele>
        <time>2022-01-27T17:33:18.817Z</time>
      </trkpt>
      <trkpt lat="41.94731370264" lon="2.82983297363">
        <ele>101.91</ele>
        <time>2022-01-27T17:33:20.534Z</time>
      </trkpt>
      <trkpt lat="41.94732" lon="2.82977">
        <ele>101.71</ele>
        <time>2022-01-27T17:33:22.252Z</time>
      </trkpt>
      <trkpt lat="41.94732" lon="2.82977">
        <ele>101.71</ele>
        <time>2022-01-27T17:33:23.970Z</time>
      </trkpt>
      <trkpt lat="41.94729394307" lon="2.82972765749">
        <ele>101.6</ele>
        <time>2022-01-27T17:33:25.689Z</time>
      </trkpt>
      <trkpt lat="41.94729394307" lon="2.82972765749">
        <ele>101.6</ele>
        <time>2022-01-27T17:33:27.408Z</time>
      </trkpt>
      <trkpt lat="41.94726585135" lon="2.82968200844">
        <ele>101.56</ele>
        <time>2022-01-27T17:33:29.127Z</time>
      </trkpt>
      <trkpt lat="41.94726585135" lon="2.82968200844">
        <ele>101.56</ele>
        <time>2022-01-27T17:33:30.846Z</time>
      </trkpt>
      <trkpt lat="41.94723775962" lon="2.82963635939">
        <ele>101.56</ele>
        <time>2022-01-27T17:33:32.566Z</time>
      </trkpt>
      <trkpt lat="41.94723775962" lon="2.82963635939">
        <ele>101.56</ele>
        <time>2022-01-27T17:33:34.286Z</time>
      </trkpt>
      <trkpt lat="41.94718673588" lon="2.8295534458">
        <ele>102.64</ele>
        <time>2022-01-27T17:33:36.007Z</time>
      </trkpt>
      <trkpt lat="41.94718673588" lon="2.8295534458">
        <ele>102.64</ele>
        <time>2022-01-27T17:33:37.728Z</time>
      </trkpt>
      <trkpt lat="41.94716" lon="2.82951">
        <ele>103.24798244136</ele>
        <time>2022-01-27T17:33:39.450Z</time>
      </trkpt>
      <trkpt lat="41.94716" lon="2.82951">
        <ele>103.24798244136</ele>
        <time>2022-01-27T17:33:41.172Z</time>
      </trkpt>
      <trkpt lat="41.94712560076" lon="2.82941368212">
        <ele>104.4</ele>
        <time>2022-01-27T17:33:42.895Z</time>
      </trkpt>
      <trkpt lat="41.94712560076" lon="2.82941368212">
        <ele>104.4</ele>
        <time>2022-01-27T17:33:44.618Z</time>
      </trkpt>
      <trkpt lat="41.94710691503" lon="2.82936136209">
        <ele>104.24</ele>
        <time>2022-01-27T17:33:46.342Z</time>
      </trkpt>
      <trkpt lat="41.94710691503" lon="2.82936136209">
        <ele>104.24</ele>
        <time>2022-01-27T17:33:48.066Z</time>
      </trkpt>
      <trkpt lat="41.94708784002" lon="2.82930795206">
        <ele>104.05</ele>
        <time>2022-01-27T17:33:49.791Z</time>
      </trkpt>
      <trkpt lat="41.94708784002" lon="2.82930795206">
        <ele>104.05</ele>
        <time>2022-01-27T17:33:51.516Z</time>
      </trkpt>
      <trkpt lat="41.9470691543" lon="2.82925563203">
        <ele>103.78</ele>
        <time>2022-01-27T17:33:53.241Z</time>
      </trkpt>
      <trkpt lat="41.9470691543" lon="2.82925563203">
        <ele>103.78</ele>
        <time>2022-01-27T17:33:54.966Z</time>
      </trkpt>
      <trkpt lat="41.94706" lon="2.82923">
        <ele>103.62111071451</ele>
        <time>2022-01-27T17:33:56.692Z</time>
      </trkpt>
      <trkpt lat="41.94706" lon="2.82923">
        <ele>103.62111071451</ele>
        <time>2022-01-27T17:33:58.418Z</time>
      </trkpt>
      <trkpt lat="41.94706" lon="2.82921369533">
        <ele>103.53</ele>
        <time>2022-01-27T17:34:00.144Z</time>
      </trkpt>
      <trkpt lat="41.94706" lon="2.82921369533">
        <ele>103.53</ele>
        <time>2022-01-27T17:34:01.870Z</time>
      </trkpt>
      <trkpt lat="41.94706" lon="2.82912">
        <ele>101.85385759846</ele>
        <time>2022-01-27T17:34:03.597Z</time>
      </trkpt>
      <trkpt lat="41.94706" lon="2.82912">
        <ele>101.85385759846</ele>
        <time>2022-01-27T17:34:05.324Z</time>
      </trkpt>
      <trkpt lat="41.94716" lon="2.82896">
        <ele>100.10033913943</ele>
        <time>2022-01-27T17:34:07.054Z</time>
      </trkpt>
      <trkpt lat="41.94716" lon="2.82896">
        <ele>100.10033913943</ele>
        <time>2022-01-27T17:34:08.784Z</time>
      </trkpt>
      <trkpt lat="41.94716" lon="2.82883">
        <ele>99.00958737347</ele>
        <time>2022-01-27T17:34:10.515Z</time>
      </trkpt>
      <trkpt lat="41.94716" lon="2.82883">
        <ele>99.00958737347</ele>
        <time>2022-01-27T17:34:12.246Z</time>
      </trkpt>
      <trkpt lat="41.94713798187" lon="2.8287702365">
        <ele>98.45</ele>
        <time>2022-01-27T17:34:13.978Z</time>
      </trkpt>
      <trkpt lat="41.94713798187" lon="2.8287702365">
        <ele>98.45</ele>
        <time>2022-01-27T17:34:15.710Z</time>
      </trkpt>
      <trkpt lat="41.94709886153" lon="2.82866405273">
        <ele>93.14</ele>
        <time>2022-01-27T17:34:17.443Z</time>
      </trkpt>
      <trkpt lat="41.94709886153" lon="2.82866405273">
        <ele>93.14</ele>
        <time>2022-01-27T17:34:19.176Z</time>
      </trkpt>
      <trkpt lat="41.94709" lon="2.82864">
        <ele>93.18530397361</ele>
        <time>2022-01-27T17:34:20.910Z</time>
      </trkpt>
      <trkpt lat="41.94709" lon="2.82864">
        <ele>93.18530397361</ele>
        <time>2022-01-27T17:34:22.644Z</time>
      </trkpt>
      <trkpt lat="41.94707557603" lon="2.82861403685">
        <ele>93.24</ele>
        <time>2022-01-27T17:34:24.378Z</time>
      </trkpt>
      <trkpt lat="41.94707557603" lon="2.82861403685">
        <ele>93.24</ele>
        <time>2022-01-27T17:34:26.112Z</time>
      </trkpt>
      <trkpt lat="41.94704866669" lon="2.82856560005">
        <ele>93.38</ele>
        <time>2022-01-27T17:34:27.847Z</time>
      </trkpt>
      <trkpt lat="41.94704866669" lon="2.82856560005">
        <ele>93.38</ele>
        <time>2022-01-27T17:34:29.582Z</time>
      </trkpt>
      <trkpt lat="41.94702229554" lon="2.82851813198">
        <ele>93.54</ele>
        <time>2022-01-27T17:34:31.317Z</time>
      </trkpt>
      <trkpt lat="41.94702229554" lon="2.82851813198">
        <ele>93.54</ele>
        <time>2022-01-27T17:34:33.052Z</time>
      </trkpt>
      <trkpt lat="41.94696847687" lon="2.82842125837">
        <ele>93.98</ele>
        <time>2022-01-27T17:34:34.789Z</time>
      </trkpt>
      <trkpt lat="41.94696847687" lon="2.82842125837">
        <ele>93.98</ele>
        <time>2022-01-27T17:34:36.526Z</time>
      </trkpt>
      <trkpt lat="41.94694" lon="2.82837">
        <ele>94.26861428898</ele>
        <time>2022-01-27T17:34:38.264Z</time>
      </trkpt>
      <trkpt lat="41.94694" lon="2.82837">
        <ele>94.26861428898</ele>
        <time>2022-01-27T17:34:40.002Z</time>
      </trkpt>
      <trkpt lat="41.94692617498" lon="2.82831746493">
        <ele>94.52</ele>
        <time>2022-01-27T17:34:41.740Z</time>
      </trkpt>
      <trkpt lat="41.94692617498" lon="2.82831746493">
        <ele>94.52</ele>
        <time>2022-01-27T17:34:43.478Z</time>
      </trkpt>
      <trkpt lat="41.94689647755" lon="2.82820461471">
        <ele>95.17</ele>
        <time>2022-01-27T17:34:45.218Z</time>
      </trkpt>
      <trkpt lat="41.94689647755" lon="2.82820461471">
        <ele>95.17</ele>
        <time>2022-01-27T17:34:46.958Z</time>
      </trkpt>
      <trkpt lat="41.94689" lon="2.82818">
        <ele>95.3341122434</ele>
        <time>2022-01-27T17:34:48.698Z</time>
      </trkpt>
      <trkpt lat="41.94689" lon="2.82818">
        <ele>95.3341122434</ele>
        <time>2022-01-27T17:34:50.438Z</time>
      </trkpt>
      <trkpt lat="41.94687681289" lon="2.82815058261">
        <ele>95.55</ele>
        <time>2022-01-27T17:34:52.179Z</time>
      </trkpt>
      <trkpt lat="41.94687681289" lon="2.82815058261">
        <ele>95.55</ele>
        <time>2022-01-27T17:34:53.920Z</time>
      </trkpt>
      <trkpt lat="41.94683085393" lon="2.82804805877">
        <ele>96.4</ele>
        <time>2022-01-27T17:34:55.662Z</time>
      </trkpt>
      <trkpt lat="41.94683085393" lon="2.82804805877">
        <ele>96.4</ele>
        <time>2022-01-27T17:34:57.404Z</time>
      </trkpt>
      <trkpt lat="41.94678489496" lon="2.82794553492">
        <ele>97.34</ele>
        <time>2022-01-27T17:34:59.147Z</time>
      </trkpt>
      <trkpt lat="41.94678489496" lon="2.82794553492">
        <ele>97.34</ele>
        <time>2022-01-27T17:35:00.890Z</time>
      </trkpt>
      <trkpt lat="41.94676" lon="2.82789">
        <ele>97.8816780809</ele>
        <time>2022-01-27T17:35:02.634Z</time>
      </trkpt>
      <trkpt lat="41.94676" lon="2.82789">
        <ele>97.8816780809</ele>
        <time>2022-01-27T17:35:04.378Z</time>
      </trkpt>
      <trkpt lat="41.94679129539" lon="2.82785479269">
        <ele>98.34</ele>
        <time>2022-01-27T17:35:06.123Z</time>
      </trkpt>
      <trkpt lat="41.94679129539" lon="2.82785479269">
        <ele>98.34</ele>
        <time>2022-01-27T17:35:07.868Z</time>
      </trkpt>
      <trkpt lat="41.94684" lon="2.8278">
        <ele>99.09740049393</ele>
        <time>2022-01-27T17:35:09.614Z</time>
      </trkpt>
      <trkpt lat="41.94684" lon="2.8278">
        <ele>99.09740049393</ele>
        <time>2022-01-27T17:35:11.360Z</time>
      </trkpt>
      <trkpt lat="41.94692" lon="2.82774">
        <ele>100.18993119186</ele>
        <time>2022-01-27T17:35:13.107Z</time>
      </trkpt>
      <trkpt lat="41.94692" lon="2.82774">
        <ele>100.18993119186</ele>
        <time>2022-01-27T17:35:14.854Z</time>
      </trkpt>
      <trkpt lat="41.94698277371" lon="2.82777487429">
        <ele>101.0</ele>
        <time>2022-01-27T17:35:16.602Z</time>
      </trkpt>
      <trkpt lat="41.94698277371" lon="2.82777487429">
        <ele>101.0</ele>
        <time>2022-01-27T17:35:18.350Z</time>
      </trkpt>
      <trkpt lat="41.94701" lon="2.82779">
        <ele>101.37058289146</ele>
        <time>2022-01-27T17:35:20.099Z</time>
      </trkpt>
      <trkpt lat="41.94701" lon="2.82779">
        <ele>101.37058289146</ele>
        <time>2022-01-27T17:35:21.848Z</time>
      </trkpt>
      <trkpt lat="41.94704106598" lon="2.82785834516">
        <ele>102.12</ele>
        <time>2022-01-27T17:35:23.598Z</time>
      </trkpt>
      <trkpt lat="41.94704106598" lon="2.82785834516">
        <ele>102.12</ele>
        <time>2022-01-27T17:35:25.348Z</time>
      </trkpt>
      <trkpt lat="41.94706" lon="2.8279">
        <ele>102.60286127037</ele>
        <time>2022-01-27T17:35:27.098Z</time>
      </trkpt>
      <trkpt lat="41.94706" lon="2.8279">
        <ele>102.60286127037</ele>
        <time>2022-01-27T17:35:28.848Z</time>
      </trkpt>
      <trkpt lat="41.94707" lon="2.82803">
        <ele>103.89555866774</ele>
        <time>2022-01-27T17:35:30.600Z</time>
      </trkpt>
      <trkpt lat="41.94707" lon="2.82803">
        <ele>103.89555866774</ele>
        <time>2022-01-27T17:35:32.352Z</time>
      </trkpt>
      <trkpt lat="41.94705741688" lon="2.82808872124">
        <ele>104.5</ele>
        <time>2022-01-27T17:35:34.105Z</time>
      </trkpt>
      <trkpt lat="41.94705741688" lon="2.82808872124">
        <ele>104.5</ele>
        <time>2022-01-27T17:35:35.858Z</time>
      </trkpt>
      <trkpt lat="41.94704" lon="2.82817">
        <ele>105.3655915058</ele>
        <time>2022-01-27T17:35:37.612Z</time>
      </trkpt>
      <trkpt lat="41.94704" lon="2.82817">
        <ele>105.3655915058</ele>
        <time>2022-01-27T17:35:39.366Z</time>
      </trkpt>
      <trkpt lat="41.94714" lon="2.82814">
        <ele>106.77532165651</ele>
        <time>2022-01-27T17:35:41.121Z</time>
      </trkpt>
      <trkpt lat="41.94714" lon="2.82814">
        <ele>106.77532165651</ele>
        <time>2022-01-27T17:35:42.876Z</time>
      </trkpt>
      <trkpt lat="41.94715269561" lon="2.82814">
        <ele>106.95</ele>
        <time>2022-01-27T17:35:44.632Z</time>
      </trkpt>
      <trkpt lat="41.94715269561" lon="2.82814">
        <ele>106.95</ele>
        <time>2022-01-27T17:35:46.388Z</time>
      </trkpt>
      <trkpt lat="41.94719766173" lon="2.82814">
        <ele>107.51</ele>
        <time>2022-01-27T17:35:48.144Z</time>
      </trkpt>
      <trkpt lat="41.94719766173" lon="2.82814">
        <ele>107.51</ele>
        <time>2022-01-27T17:35:49.900Z</time>
      </trkpt>
      <trkpt lat="41.94723" lon="2.82814">
        <ele>107.87692334087</ele>
        <time>2022-01-27T17:35:51.657Z</time>
      </trkpt>
      <trkpt lat="41.94723" lon="2.82814">
        <ele>107.87692334087</ele>
        <time>2022-01-27T17:35:53.414Z</time>
      </trkpt>
      <trkpt lat="41.94723723808" lon="2.82815240813">
        <ele>108.01</ele>
        <time>2022-01-27T17:35:55.171Z</time>
      </trkpt>
      <trkpt lat="41.94723723808" lon="2.82815240813">
        <ele>108.01</ele>
        <time>2022-01-27T17:35:56.928Z</time>
      </trkpt>
      <trkpt lat="41.94726498821" lon="2.82819997979">
        <ele>108.42</ele>
        <time>2022-01-27T17:35:58.686Z</time>
      </trkpt>
      <trkpt lat="41.94726498821" lon="2.82819997979">
        <ele>108.42</ele>
        <time>2022-01-27T17:36:00.444Z</time>
      </trkpt>
      <trkpt lat="41.94729273835" lon="2.82824755146">
        <ele>108.76</ele>
        <time>2022-01-27T17:36:02.202Z</time>
      </trkpt>
      <trkpt lat="41.94729273835" lon="2.82824755146">
        <ele>108.76</ele>
        <time>2022-01-27T17:36:03.960Z</time>
      </trkpt>
      <trkpt lat="41.9473" lon="2.82826">
        <ele>108.83209543405</ele>
        <time>2022-01-27T17:36:05.719Z</time>
      </trkpt>
      <trkpt lat="41.9473" lon="2.82826">
        <ele>108.83209543405</ele>
        <time>2022-01-27T17:36:07.478Z</time>
      </trkpt>
      <trkpt lat="41.94731407233" lon="2.82829908981">
        <ele>109.03</ele>
        <time>2022-01-27T17:36:09.237Z</time>
      </trkpt>
      <trkpt lat="41.94731407233" lon="2.82829908981">
        <ele>109.03</ele>
        <time>2022-01-27T17:36:10.996Z</time>
      </trkpt>
      <trkpt lat="41.94733366294" lon="2.82835350816">
        <ele>109.26</ele>
        <time>2022-01-27T17:36:12.756Z</time>
      </trkpt>
      <trkpt lat="41.94733366294" lon="2.82835350816">
        <ele>109.26</ele>
        <time>2022-01-27T17:36:14.516Z</time>
      </trkpt>
      <trkpt lat="41.94735286173" lon="2.82840683815">
        <ele>109.46</ele>
        <time>2022-01-27T17:36:16.277Z</time>
      </trkpt>
      <trkpt lat="41.94735286173" lon="2.82840683815">
        <ele>109.46</ele>
        <time>2022-01-27T17:36:18.038Z</time>
      </trkpt>
      <trkpt lat="41.94737245234" lon="2.8284612565">
        <ele>109.63</ele>
        <time>2022-01-27T17:36:19.799Z</time>
      </trkpt>
      <trkpt lat="41.94737245234" lon="2.8284612565">
        <ele>109.63</ele>
        <time>2022-01-27T17:36:21.560Z</time>
      </trkpt>
      <trkpt lat="41.94739" lon="2.82851">
        <ele>109.76</ele>
        <time>2022-01-27T17:36:23.322Z</time>
      </trkpt>
      <trkpt lat="41.94739" lon="2.82851">
        <ele>109.76</ele>
        <time>2022-01-27T17:36:25.084Z</time>
      </trkpt>
      <trkpt lat="41.94739" lon="2.82850369533">
        <ele>109.76</ele>
        <time>2022-01-27T17:36:26.846Z</time>
      </trkpt>
      <trkpt lat="41.94739" lon="2.82850369533">
        <ele>109.76</ele>
        <time>2022-01-27T17:36:28.608Z</time>
      </trkpt>
      <trkpt lat="41.94739" lon="2.8284444466">
        <ele>109.85</ele>
        <time>2022-01-27T17:36:30.371Z</time>
      </trkpt>
      <trkpt lat="41.94739" lon="2.8284444466">
        <ele>109.85</ele>
        <time>2022-01-27T17:36:32.134Z</time>
      </trkpt>
      <trkpt lat="41.94739" lon="2.82838398871">
        <ele>109.89</ele>
        <time>2022-01-27T17:36:33.897Z</time>
      </trkpt>
      <trkpt lat="41.94739" lon="2.82838398871">
        <ele>109.89</ele>
        <time>2022-01-27T17:36:35.660Z</time>
      </trkpt>
      <trkpt lat="41.94739" lon="2.82832473998">
        <ele>109.9</ele>
        <time>2022-01-27T17:36:37.424Z</time>
      </trkpt>
      <trkpt lat="41.94739" lon="2.82832473998">
        <ele>109.9</ele>
        <time>2022-01-27T17:36:39.188Z</time>
      </trkpt>
      <trkpt lat="41.94739" lon="2.82824">
        <ele>109.69164864035</ele>
        <time>2022-01-27T17:36:40.953Z</time>
      </trkpt>
      <trkpt lat="41.94739" lon="2.82824">
        <ele>109.69164864035</ele>
        <time>2022-01-27T17:36:42.718Z</time>
      </trkpt>
      <trkpt lat="41.94738456295" lon="2.82819106651">
        <ele>109.57</ele>
        <time>2022-01-27T17:36:44.484Z</time>
      </trkpt>
      <trkpt lat="41.94738456295" lon="2.82819106651">
        <ele>109.57</ele>
        <time>2022-01-27T17:36:46.250Z</time>
      </trkpt>
      <trkpt lat="41.94736503013" lon="2.82801527121">
        <ele>108.65</ele>
        <time>2022-01-27T17:36:48.018Z</time>
      </trkpt>
      <trkpt lat="41.94736503013" lon="2.82801527121">
        <ele>108.65</ele>
        <time>2022-01-27T17:36:49.786Z</time>
      </trkpt>
      <trkpt lat="41.94736" lon="2.82797">
        <ele>108.4066414228</ele>
        <time>2022-01-27T17:36:51.554Z</time>
      </trkpt>
      <trkpt lat="41.94736" lon="2.82797">
        <ele>108.4066414228</ele>
        <time>2022-01-27T17:36:53.322Z</time>
      </trkpt>
      <trkpt lat="41.94736" lon="2.8278">
        <ele>107.50282415623</ele>
        <time>2022-01-27T17:36:55.092Z</time>
      </trkpt>
      <trkpt lat="41.94736" lon="2.8278">
        <ele>107.50282415623</ele>
        <time>2022-01-27T17:36:56.862Z</time>
      </trkpt>
      <trkpt lat="41.94742118981" lon="2.82755524078">
        <ele>106.13</ele>
        <time>2022-01-27T17:36:58.635Z</time>
      </trkpt>
      <trkpt lat="41.94742118981" lon="2.82755524078">
        <ele>106.13</ele>
        <time>2022-01-27T17:37:00.408Z</time>
      </trkpt>
      <trkpt lat="41.94743" lon="2.82752">
        <ele>105.91555735683</ele>
        <time>2022-01-27T17:37:02.182Z</time>
      </trkpt>
      <trkpt lat="41.94743" lon="2.82752">
        <ele>105.91555735683</ele>
        <time>2022-01-27T17:37:03.956Z</time>
      </trkpt>
      <trkpt lat="41.94729568419" lon="2.82743734412">
        <ele>104.77</ele>
        <time>2022-01-27T17:37:05.732Z</time>
      </trkpt>
      <trkpt lat="41.94729568419" lon="2.82743734412">
        <ele>104.77</ele>
        <time>2022-01-27T17:37:07.508Z</time>
      </trkpt>
      <trkpt lat="41.94721472805" lon="2.82738752495">
        <ele>104.13</ele>
        <time>2022-01-27T17:37:09.286Z</time>
      </trkpt>
      <trkpt lat="41.94721472805" lon="2.82738752495">
        <ele>104.13</ele>
        <time>2022-01-27T17:37:11.064Z</time>
      </trkpt>
      <trkpt lat="41.94717" lon="2.82736">
        <ele>103.79166658737</ele>
        <time>2022-01-27T17:37:12.842Z</time>
      </trkpt>
      <trkpt lat="41.94717" lon="2.82736">
        <ele>103.79166658737</ele>
        <time>2022-01-27T17:37:14.620Z</time>
      </trkpt>
      <trkpt lat="41.94713375309" lon="2.82734446561">
        <ele>103.53</ele>
        <time>2022-01-27T17:37:16.399Z</time>
      </trkpt>
      <trkpt lat="41.94713375309" lon="2.82734446561">
        <ele>103.53</ele>
        <time>2022-01-27T17:37:18.178Z</time>
      </trkpt>
      <trkpt lat="41.94704978229" lon="2.82730847812">
        <ele>102.96</ele>
        <time>2022-01-27T17:37:19.959Z</time>
      </trkpt>
      <trkpt lat="41.94704978229" lon="2.82730847812">
        <ele>102.96</ele>
        <time>2022-01-27T17:37:21.740Z</time>
      </trkpt>
      <trkpt lat="41.94688184069" lon="2.82723650315">
        <ele>101.88</ele>
        <time>2022-01-27T17:37:23.523Z</time>
      </trkpt>
      <trkpt lat="41.94688184069" lon="2.82723650315">
        <ele>101.88</ele>
        <time>2022-01-27T17:37:25.306Z</time>
      </trkpt>
      <trkpt lat="41.94679786989" lon="2.82720051567">
        <ele>101.37</ele>
        <time>2022-01-27T17:37:27.091Z</time>
      </trkpt>
      <trkpt lat="41.94679786989" lon="2.82720051567">
        <ele>101.37</ele>
        <time>2022-01-27T17:37:28.876Z</time>
      </trkpt>
      <trkpt lat="41.94671389909" lon="2.82716452818">
        <ele>100.91</ele>
        <time>2022-01-27T17:37:30.662Z</time>
      </trkpt>
      <trkpt lat="41.94671389909" lon="2.82716452818">
        <ele>100.91</ele>
        <time>2022-01-27T17:37:32.448Z</time>
      </trkpt>
      <trkpt lat="41.94654681433" lon="2.82709292043">
        <ele>100.06</ele>
        <time>2022-01-27T17:37:34.237Z</time>
      </trkpt>
      <trkpt lat="41.94654681433" lon="2.82709292043">
        <ele>100.06</ele>
        <time>2022-01-27T17:37:36.026Z</time>
      </trkpt>
      <trkpt lat="41.94642085813" lon="2.8270389392">
        <ele>99.47</ele>
        <time>2022-01-27T17:37:37.817Z</time>
      </trkpt>
      <trkpt lat="41.94642085813" lon="2.8270389392">
        <ele>99.47</ele>
        <time>2022-01-27T17:37:39.608Z</time>
      </trkpt>
      <trkpt lat="41.94633" lon="2.827">
        <ele>99.08588270393</ele>
        <time>2022-01-27T17:37:41.401Z</time>
      </trkpt>
      <trkpt lat="41.94633" lon="2.827">
        <ele>99.08588270393</ele>
        <time>2022-01-27T17:37:43.194Z</time>
      </trkpt>
      <trkpt lat="41.94625045856" lon="2.82698011464">
        <ele>98.76</ele>
        <time>2022-01-27T17:37:44.988Z</time>
      </trkpt>
      <trkpt lat="41.94625045856" lon="2.82698011464">
        <ele>98.76</ele>
        <time>2022-01-27T17:37:46.782Z</time>
      </trkpt>
      <trkpt lat="41.94617" lon="2.82696">
        <ele>98.38</ele>
        <time>2022-01-27T17:37:48.577Z</time>
      </trkpt>
      <trkpt lat="41.94617" lon="2.82696">
        <ele>98.38</ele>
        <time>2022-01-27T17:37:50.372Z</time>
      </trkpt>
      <trkpt lat="41.94616370549" lon="2.82695982016">
        <ele>98.38</ele>
        <time>2022-01-27T17:37:52.167Z</time>
      </trkpt>
      <trkpt lat="41.94616370549" lon="2.82695982016">
        <ele>98.38</ele>
        <time>2022-01-27T17:37:53.962Z</time>
      </trkpt>
      <trkpt lat="41.94607559179" lon="2.82695730262">
        <ele>97.98</ele>
        <time>2022-01-27T17:37:55.759Z</time>
      </trkpt>
      <trkpt lat="41.94607559179" lon="2.82695730262">
        <ele>97.98</ele>
        <time>2022-01-27T17:37:57.556Z</time>
      </trkpt>
      <trkpt lat="41.94594432036" lon="2.82695355201">
        <ele>97.35</ele>
        <time>2022-01-27T17:37:59.355Z</time>
      </trkpt>
      <trkpt lat="41.94594432036" lon="2.82695355201">
        <ele>97.35</ele>
        <time>2022-01-27T17:38:01.154Z</time>
      </trkpt>
      <trkpt lat="41.94571954052" lon="2.82694712973">
        <ele>95.92</ele>
        <time>2022-01-27T17:38:02.956Z</time>
      </trkpt>
      <trkpt lat="41.94571954052" lon="2.82694712973">
        <ele>95.92</ele>
        <time>2022-01-27T17:38:04.758Z</time>
      </trkpt>
      <trkpt lat="41.94562962858" lon="2.82694456082">
        <ele>95.41</ele>
        <time>2022-01-27T17:38:06.562Z</time>
      </trkpt>
      <trkpt lat="41.94562962858" lon="2.82694456082">
        <ele>95.41</ele>
        <time>2022-01-27T17:38:08.366Z</time>
      </trkpt>
      <trkpt lat="41.94553971665" lon="2.8269419919">
        <ele>94.98</ele>
        <time>2022-01-27T17:38:10.171Z</time>
      </trkpt>
      <trkpt lat="41.94553971665" lon="2.8269419919">
        <ele>94.98</ele>
        <time>2022-01-27T17:38:11.976Z</time>
      </trkpt>
      <trkpt lat="41.94547" lon="2.82694">
        <ele>94.68535252146</ele>
        <time>2022-01-27T17:38:13.782Z</time>
      </trkpt>
      <trkpt lat="41.94547" lon="2.82694">
        <ele>94.68535252146</ele>
        <time>2022-01-27T17:38:15.588Z</time>
      </trkpt>
      <trkpt lat="41.9454050727" lon="2.82693250839">
        <ele>94.41</ele>
        <time>2022-01-27T17:38:17.395Z</time>
      </trkpt>
      <trkpt lat="41.9454050727" lon="2.82693250839">
        <ele>94.41</ele>
        <time>2022-01-27T17:38:19.202Z</time>
      </trkpt>
      <trkpt lat="41.94531546983" lon="2.8269221696">
        <ele>94.08</ele>
        <time>2022-01-27T17:38:21.011Z</time>
      </trkpt>
      <trkpt lat="41.94531546983" lon="2.8269221696">
        <ele>94.08</ele>
        <time>2022-01-27T17:38:22.820Z</time>
      </trkpt>
      <trkpt lat="41.9452706684" lon="2.8269170002">
        <ele>93.95</ele>
        <time>2022-01-27T17:38:24.630Z</time>
      </trkpt>
      <trkpt lat="41.9452706684" lon="2.8269170002">
        <ele>93.95</ele>
        <time>2022-01-27T17:38:26.440Z</time>
      </trkpt>
      <trkpt lat="41.94521" lon="2.82691">
        <ele>93.80104218928</ele>
        <time>2022-01-27T17:38:28.251Z</time>
      </trkpt>
      <trkpt lat="41.94521" lon="2.82691">
        <ele>93.80104218928</ele>
        <time>2022-01-27T17:38:30.062Z</time>
      </trkpt>
      <trkpt lat="41.94518101044" lon="2.82691231916">
        <ele>93.73</ele>
        <time>2022-01-27T17:38:31.873Z</time>
      </trkpt>
      <trkpt lat="41.94518101044" lon="2.82691231916">
        <ele>93.73</ele>
        <time>2022-01-27T17:38:33.684Z</time>
      </trkpt>
      <trkpt lat="41.94504635027" lon="2.82692309198">
        <ele>93.57</ele>
        <time>2022-01-27T17:38:35.497Z</time>
      </trkpt>
      <trkpt lat="41.94504635027" lon="2.82692309198">
        <ele>93.57</ele>
        <time>2022-01-27T17:38:37.310Z</time>
      </trkpt>
      <trkpt lat="41.94496" lon="2.82693">
        <ele>93.51</ele>
        <time>2022-01-27T17:38:39.125Z</time>
      </trkpt>
      <trkpt lat="41.94496" lon="2.82693">
        <ele>93.51</ele>
        <time>2022-01-27T17:38:40.940Z</time>
      </trkpt>
      <trkpt lat="41.9449566441" lon="2.82693094841">
        <ele>93.51</ele>
        <time>2022-01-27T17:38:42.755Z</time>
      </trkpt>
      <trkpt lat="41.9449566441" lon="2.82693094841">
        <ele>93.51</ele>
        <time>2022-01-27T17:38:44.570Z</time>
      </trkpt>
      <trkpt lat="41.94482463071" lon="2.82696825654">
        <ele>93.46</ele>
        <time>2022-01-27T17:38:46.387Z</time>
      </trkpt>
      <trkpt lat="41.94482463071" lon="2.82696825654">
        <ele>93.46</ele>
        <time>2022-01-27T17:38:48.204Z</time>
      </trkpt>
      <trkpt lat="41.94456148402" lon="2.82704262408">
        <ele>93.42</ele>
        <time>2022-01-27T17:38:50.025Z</time>
      </trkpt>
      <trkpt lat="41.94456148402" lon="2.82704262408">
        <ele>93.42</ele>
        <time>2022-01-27T17:38:51.846Z</time>
      </trkpt>
      <trkpt lat="41.9445" lon="2.82706">
        <ele>93.09082390857</ele>
        <time>2022-01-27T17:38:53.668Z</time>
      </trkpt>
      <trkpt lat="41.9445" lon="2.82706">
        <ele>93.09082390857</ele>
        <time>2022-01-27T17:38:55.490Z</time>
      </trkpt>
      <trkpt lat="41.94429790486" lon="2.82707661056">
        <ele>92.03</ele>
        <time>2022-01-27T17:38:57.315Z</time>
      </trkpt>
      <trkpt lat="41.94429790486" lon="2.82707661056">
        <ele>92.03</ele>
        <time>2022-01-27T17:38:59.140Z</time>
      </trkpt>
      <trkpt lat="41.94425392018" lon="2.82708022574">
        <ele>91.74</ele>
        <time>2022-01-27T17:39:00.966Z</time>
      </trkpt>
      <trkpt lat="41.94425392018" lon="2.82708022574">
        <ele>91.74</ele>
        <time>2022-01-27T17:39:02.792Z</time>
      </trkpt>
      <trkpt lat="41.94420903786" lon="2.8270839147">
        <ele>91.34</ele>
        <time>2022-01-27T17:39:04.619Z</time>
      </trkpt>
      <trkpt lat="41.94420903786" lon="2.8270839147">
        <ele>91.34</ele>
        <time>2022-01-27T17:39:06.446Z</time>
      </trkpt>
      <trkpt lat="41.94416505318" lon="2.82708752988">
        <ele>90.79</ele>
        <time>2022-01-27T17:39:08.273Z</time>
      </trkpt>
      <trkpt lat="41.94416505318" lon="2.82708752988">
        <ele>90.79</ele>
        <time>2022-01-27T17:39:10.100Z</time>
      </trkpt>
      <trkpt lat="41.9441210685" lon="2.82709114505">
        <ele>90.12</ele>
        <time>2022-01-27T17:39:11.928Z</time>
      </trkpt>
      <trkpt lat="41.9441210685" lon="2.82709114505">
        <ele>90.12</ele>
        <time>2022-01-27T17:39:13.756Z</time>
      </trkpt>
      <trkpt lat="41.9440322015" lon="2.82709844919">
        <ele>88.62</ele>
        <time>2022-01-27T17:39:15.586Z</time>
      </trkpt>
      <trkpt lat="41.9440322015" lon="2.82709844919">
        <ele>88.62</ele>
        <time>2022-01-27T17:39:17.416Z</time>
      </trkpt>
      <trkpt lat="41.94398821682" lon="2.82710206437">
        <ele>87.94</ele>
        <time>2022-01-27T17:39:19.246Z</time>
      </trkpt>
      <trkpt lat="41.94398821682" lon="2.82710206437">
        <ele>87.94</ele>
        <time>2022-01-27T17:39:21.076Z</time>
      </trkpt>
      <trkpt lat="41.94394423214" lon="2.82710567955">
        <ele>87.35</ele>
        <time>2022-01-27T17:39:22.907Z</time>
      </trkpt>
      <trkpt lat="41.94394423214" lon="2.82710567955">
        <ele>87.35</ele>
        <time>2022-01-27T17:39:24.738Z</time>
      </trkpt>
      <trkpt lat="41.94389934981" lon="2.82710936851">
        <ele>86.88</ele>
        <time>2022-01-27T17:39:26.570Z</time>
      </trkpt>
      <trkpt lat="41.94389934981" lon="2.82710936851">
        <ele>86.88</ele>
        <time>2022-01-27T17:39:28.402Z</time>
      </trkpt>
      <trkpt lat="41.94385536513" lon="2.82711298369">
        <ele>86.51</ele>
        <time>2022-01-27T17:39:30.234Z</time>
      </trkpt>
      <trkpt lat="41.94385536513" lon="2.82711298369">
        <ele>86.51</ele>
        <time>2022-01-27T17:39:32.066Z</time>
      </trkpt>
      <trkpt lat="41.94381138045" lon="2.82711659887">
        <ele>86.23</ele>
        <time>2022-01-27T17:39:33.899Z</time>
      </trkpt>
      <trkpt lat="41.94381138045" lon="2.82711659887">
        <ele>86.23</ele>
        <time>2022-01-27T17:39:35.732Z</time>
      </trkpt>
      <trkpt lat="41.94377" lon="2.82712">
        <ele>86.0</ele>
        <time>2022-01-27T17:39:37.566Z</time>
      </trkpt>
      <trkpt lat="41.94377" lon="2.82712">
        <ele>86.0</ele>
        <time>2022-01-27T17:39:39.400Z</time>
      </trkpt>
      <trkpt lat="41.94376470135" lon="2.82711959859">
        <ele>86.0</ele>
        <time>2022-01-27T17:39:41.234Z</time>
      </trkpt>
      <trkpt lat="41.94376470135" lon="2.82711959859">
        <ele>86.0</ele>
        <time>2022-01-27T17:39:43.068Z</time>
      </trkpt>
      <trkpt lat="41.94372250015" lon="2.82711640153">
        <ele>85.87</ele>
        <time>2022-01-27T17:39:44.903Z</time>
      </trkpt>
      <trkpt lat="41.94372250015" lon="2.82711640153">
        <ele>85.87</ele>
        <time>2022-01-27T17:39:46.738Z</time>
      </trkpt>
      <trkpt lat="41.94367850314" lon="2.82711306842">
        <ele>85.79</ele>
        <time>2022-01-27T17:39:48.573Z</time>
      </trkpt>
      <trkpt lat="41.94367850314" lon="2.82711306842">
        <ele>85.79</ele>
        <time>2022-01-27T17:39:50.408Z</time>
      </trkpt>
      <trkpt lat="41.94363450614" lon="2.82710973531">
        <ele>85.77</ele>
        <time>2022-01-27T17:39:52.244Z</time>
      </trkpt>
      <trkpt lat="41.94363450614" lon="2.82710973531">
        <ele>85.77</ele>
        <time>2022-01-27T17:39:54.080Z</time>
      </trkpt>
      <trkpt lat="41.94358961124" lon="2.82710633419">
        <ele>85.8</ele>
        <time>2022-01-27T17:39:55.917Z</time>
      </trkpt>
      <trkpt lat="41.94358961124" lon="2.82710633419">
        <ele>85.8</ele>
        <time>2022-01-27T17:39:57.754Z</time>
      </trkpt>
      <trkpt lat="41.94354561424" lon="2.82710300108">
        <ele>85.89</ele>
        <time>2022-01-27T17:39:59.591Z</time>
      </trkpt>
      <trkpt lat="41.94354561424" lon="2.82710300108">
        <ele>85.89</ele>
        <time>2022-01-27T17:40:01.428Z</time>
      </trkpt>
      <trkpt lat="41.94350161724" lon="2.82709966797">
        <ele>86.04</ele>
        <time>2022-01-27T17:40:03.266Z</time>
      </trkpt>
      <trkpt lat="41.94350161724" lon="2.82709966797">
        <ele>86.04</ele>
        <time>2022-01-27T17:40:05.104Z</time>
      </trkpt>
      <trkpt lat="41.94345672234" lon="2.82709626684">
        <ele>86.23</ele>
        <time>2022-01-27T17:40:06.943Z</time>
      </trkpt>
      <trkpt lat="41.94345672234" lon="2.82709626684">
        <ele>86.23</ele>
        <time>2022-01-27T17:40:08.782Z</time>
      </trkpt>
      <trkpt lat="41.94341272534" lon="2.82709293374">
        <ele>86.46</ele>
        <time>2022-01-27T17:40:10.622Z</time>
      </trkpt>
      <trkpt lat="41.94341272534" lon="2.82709293374">
        <ele>86.46</ele>
        <time>2022-01-27T17:40:12.462Z</time>
      </trkpt>
      <trkpt lat="41.94327983643" lon="2.8270828664">
        <ele>87.27</ele>
        <time>2022-01-27T17:40:14.304Z</time>
      </trkpt>
      <trkpt lat="41.94327983643" lon="2.8270828664">
        <ele>87.27</ele>
        <time>2022-01-27T17:40:16.146Z</time>
      </trkpt>
      <trkpt lat="41.94323583943" lon="2.82707953329">
        <ele>87.5</ele>
        <time>2022-01-27T17:40:17.988Z</time>
      </trkpt>
      <trkpt lat="41.94323583943" lon="2.82707953329">
        <ele>87.5</ele>
        <time>2022-01-27T17:40:19.830Z</time>
      </trkpt>
      <trkpt lat="41.94319274033" lon="2.82707626821">
        <ele>87.62</ele>
        <time>2022-01-27T17:40:21.673Z</time>
      </trkpt>
      <trkpt lat="41.94319274033" lon="2.82707626821">
        <ele>87.62</ele>
        <time>2022-01-27T17:40:23.516Z</time>
      </trkpt>
      <trkpt lat="41.94314784543" lon="2.82707286708">
        <ele>87.61</ele>
        <time>2022-01-27T17:40:25.360Z</time>
      </trkpt>
      <trkpt lat="41.94314784543" lon="2.82707286708">
        <ele>87.61</ele>
        <time>2022-01-27T17:40:27.204Z</time>
      </trkpt>
      <trkpt lat="41.94311" lon="2.82707">
        <ele>87.48</ele>
        <time>2022-01-27T17:40:29.048Z</time>
      </trkpt>
      <trkpt lat="41.94311" lon="2.82707">
        <ele>87.48</ele>
        <time>2022-01-27T17:40:30.892Z</time>
      </trkpt>
      <trkpt lat="41.9431031173" lon="2.82706788225">
        <ele>87.48</ele>
        <time>2022-01-27T17:40:32.736Z</time>
      </trkpt>
      <trkpt lat="41.9431031173" lon="2.82706788225">
        <ele>87.48</ele>
        <time>2022-01-27T17:40:34.580Z</time>
      </trkpt>
      <trkpt lat="41.94301720501" lon="2.8270414477">
        <ele>87.09</ele>
        <time>2022-01-27T17:40:36.426Z</time>
      </trkpt>
      <trkpt lat="41.94301720501" lon="2.8270414477">
        <ele>87.09</ele>
        <time>2022-01-27T17:40:38.272Z</time>
      </trkpt>
      <trkpt lat="41.94297337221" lon="2.82702796068">
        <ele>86.94</ele>
        <time>2022-01-27T17:40:40.119Z</time>
      </trkpt>
      <trkpt lat="41.94297337221" lon="2.82702796068">
        <ele>86.94</ele>
        <time>2022-01-27T17:40:41.966Z</time>
      </trkpt>
      <trkpt lat="41.94293041607" lon="2.82701474341">
        <ele>86.84</ele>
        <time>2022-01-27T17:40:43.813Z</time>
      </trkpt>
      <trkpt lat="41.94293041607" lon="2.82701474341">
        <ele>86.84</ele>
        <time>2022-01-27T17:40:45.660Z</time>
      </trkpt>
      <trkpt lat="41.94288745992" lon="2.82700152613">
        <ele>86.81</ele>
        <time>2022-01-27T17:40:47.508Z</time>
      </trkpt>
      <trkpt lat="41.94288745992" lon="2.82700152613">
        <ele>86.81</ele>
        <time>2022-01-27T17:40:49.356Z</time>
      </trkpt>
      <trkpt lat="41.94284450378" lon="2.82698830885">
        <ele>86.85</ele>
        <time>2022-01-27T17:40:51.205Z</time>
      </trkpt>
      <trkpt lat="41.94284450378" lon="2.82698830885">
        <ele>86.85</ele>
        <time>2022-01-27T17:40:53.054Z</time>
      </trkpt>
      <trkpt lat="41.94280067098" lon="2.82697482184">
        <ele>86.93</ele>
        <time>2022-01-27T17:40:54.903Z</time>
      </trkpt>
      <trkpt lat="41.94280067098" lon="2.82697482184">
        <ele>86.93</ele>
        <time>2022-01-27T17:40:56.752Z</time>
      </trkpt>
      <trkpt lat="41.94275771483" lon="2.82696160456">
        <ele>87.04</ele>
        <time>2022-01-27T17:40:58.602Z</time>
      </trkpt>
      <trkpt lat="41.94275771483" lon="2.82696160456">
        <ele>87.04</ele>
        <time>2022-01-27T17:41:00.452Z</time>
      </trkpt>
      <trkpt lat="41.94271475869" lon="2.82694838729">
        <ele>87.18</ele>
        <time>2022-01-27T17:41:02.303Z</time>
      </trkpt>
      <trkpt lat="41.94271475869" lon="2.82694838729">
        <ele>87.18</ele>
        <time>2022-01-27T17:41:04.154Z</time>
      </trkpt>
      <trkpt lat="41.94254205745" lon="2.82689524845">
        <ele>87.84</ele>
        <time>2022-01-27T17:41:06.008Z</time>
      </trkpt>
      <trkpt lat="41.94254205745" lon="2.82689524845">
        <ele>87.84</ele>
        <time>2022-01-27T17:41:07.862Z</time>
      </trkpt>
      <trkpt lat="41.94249822465" lon="2.82688176143">
        <ele>87.99</ele>
        <time>2022-01-27T17:41:09.716Z</time>
      </trkpt>
      <trkpt lat="41.94249822465" lon="2.82688176143">
        <ele>87.99</ele>
        <time>2022-01-27T17:41:11.570Z</time>
      </trkpt>
      <trkpt lat="41.94246" lon="2.82687">
        <ele>88.1</ele>
        <time>2022-01-27T17:41:13.425Z</time>
      </trkpt>
      <trkpt lat="41.94246" lon="2.82687">
        <ele>88.1</ele>
        <time>2022-01-27T17:41:15.280Z</time>
      </trkpt>
      <trkpt lat="41.94245561872" lon="2.82686719149">
        <ele>88.1</ele>
        <time>2022-01-27T17:41:17.135Z</time>
      </trkpt>
      <trkpt lat="41.94245561872" lon="2.82686719149">
        <ele>88.1</ele>
        <time>2022-01-27T17:41:18.990Z</time>
      </trkpt>
      <trkpt lat="41.94241584208" lon="2.82684169364">
        <ele>88.16</ele>
        <time>2022-01-27T17:41:20.846Z</time>
      </trkpt>
      <trkpt lat="41.94241584208" lon="2.82684169364">
        <ele>88.16</ele>
        <time>2022-01-27T17:41:22.702Z</time>
      </trkpt>
      <trkpt lat="41.94237525366" lon="2.82681567543">
        <ele>88.15</ele>
        <time>2022-01-27T17:41:24.559Z</time>
      </trkpt>
      <trkpt lat="41.94237525366" lon="2.82681567543">
        <ele>88.15</ele>
        <time>2022-01-27T17:41:26.416Z</time>
      </trkpt>
      <trkpt lat="41.94233547702" lon="2.82679017758">
        <ele>88.09</ele>
        <time>2022-01-27T17:41:28.273Z</time>
      </trkpt>
      <trkpt lat="41.94233547702" lon="2.82679017758">
        <ele>88.09</ele>
        <time>2022-01-27T17:41:30.130Z</time>
      </trkpt>
      <trkpt lat="41.94229570038" lon="2.82676467973">
        <ele>87.98</ele>
        <time>2022-01-27T17:41:31.988Z</time>
      </trkpt>
      <trkpt lat="41.94229570038" lon="2.82676467973">
        <ele>87.98</ele>
        <time>2022-01-27T17:41:33.846Z</time>
      </trkpt>
      <trkpt lat="41.94210980545" lon="2.82664551631">
        <ele>87.24</ele>
        <time>2022-01-27T17:41:35.707Z</time>
      </trkpt>
      <trkpt lat="41.94210980545" lon="2.82664551631">
        <ele>87.24</ele>
        <time>2022-01-27T17:41:37.568Z</time>
      </trkpt>
      <trkpt lat="41.94207" lon="2.82662">
        <ele>83.72921370778</ele>
        <time>2022-01-27T17:41:39.430Z</time>
      </trkpt>
      <trkpt lat="41.94207" lon="2.82662">
        <ele>83.72921370778</ele>
        <time>2022-01-27T17:41:41.292Z</time>
      </trkpt>
      <trkpt lat="41.94201645294" lon="2.82657331795">
        <ele>82.99</ele>
        <time>2022-01-27T17:41:43.155Z</time>
      </trkpt>
      <trkpt lat="41.94201645294" lon="2.82657331795">
        <ele>82.99</ele>
        <time>2022-01-27T17:41:45.018Z</time>
      </trkpt>
      <trkpt lat="41.94193722403" lon="2.82650424659">
        <ele>81.76</ele>
        <time>2022-01-27T17:41:46.882Z</time>
      </trkpt>
      <trkpt lat="41.94193722403" lon="2.82650424659">
        <ele>81.76</ele>
        <time>2022-01-27T17:41:48.746Z</time>
      </trkpt>
      <trkpt lat="41.94185422231" lon="2.82643188612">
        <ele>81.09</ele>
        <time>2022-01-27T17:41:50.612Z</time>
      </trkpt>
      <trkpt lat="41.94185422231" lon="2.82643188612">
        <ele>81.09</ele>
        <time>2022-01-27T17:41:52.478Z</time>
      </trkpt>
      <trkpt lat="41.94177574796" lon="2.82636347258">
        <ele>81.5</ele>
        <time>2022-01-27T17:41:54.346Z</time>
      </trkpt>
      <trkpt lat="41.94177574796" lon="2.82636347258">
        <ele>81.5</ele>
        <time>2022-01-27T17:41:56.214Z</time>
      </trkpt>
      <trkpt lat="41.94169123712" lon="2.82628979647">
        <ele>82.8</ele>
        <time>2022-01-27T17:41:58.083Z</time>
      </trkpt>
      <trkpt lat="41.94169123712" lon="2.82628979647">
        <ele>82.8</ele>
        <time>2022-01-27T17:41:59.952Z</time>
      </trkpt>
      <trkpt lat="41.94168" lon="2.82628">
        <ele>83.02791639897</ele>
        <time>2022-01-27T17:42:01.821Z</time>
      </trkpt>
      <trkpt lat="41.94168" lon="2.82628">
        <ele>83.02791639897</ele>
        <time>2022-01-27T17:42:03.690Z</time>
      </trkpt>
      <trkpt lat="41.94161753453" lon="2.82619283888">
        <ele>84.56</ele>
        <time>2022-01-27T17:42:05.561Z</time>
      </trkpt>
      <trkpt lat="41.94161753453" lon="2.82619283888">
        <ele>84.56</ele>
        <time>2022-01-27T17:42:07.432Z</time>
      </trkpt>
      <trkpt lat="41.94154889645" lon="2.82609706482">
        <ele>83.06</ele>
        <time>2022-01-27T17:42:09.304Z</time>
      </trkpt>
      <trkpt lat="41.94154889645" lon="2.82609706482">
        <ele>83.06</ele>
        <time>2022-01-27T17:42:11.176Z</time>
      </trkpt>
      <trkpt lat="41.94148337829" lon="2.82600564413">
        <ele>81.87</ele>
        <time>2022-01-27T17:42:13.050Z</time>
      </trkpt>
      <trkpt lat="41.94148337829" lon="2.82600564413">
        <ele>81.87</ele>
        <time>2022-01-27T17:42:14.924Z</time>
      </trkpt>
      <trkpt lat="41.94140538048" lon="2.82589680998">
        <ele>82.65</ele>
        <time>2022-01-27T17:42:16.800Z</time>
      </trkpt>
      <trkpt lat="41.94140538048" lon="2.82589680998">
        <ele>82.65</ele>
        <time>2022-01-27T17:42:18.676Z</time>
      </trkpt>
      <trkpt lat="41.94133799038" lon="2.82580277727">
        <ele>83.72</ele>
        <time>2022-01-27T17:42:20.553Z</time>
      </trkpt>
      <trkpt lat="41.94133799038" lon="2.82580277727">
        <ele>83.72</ele>
        <time>2022-01-27T17:42:22.430Z</time>
      </trkpt>
      <trkpt lat="41.94126061655" lon="2.82569481379">
        <ele>84.6</ele>
        <time>2022-01-27T17:42:24.309Z</time>
      </trkpt>
      <trkpt lat="41.94126061655" lon="2.82569481379">
        <ele>84.6</ele>
        <time>2022-01-27T17:42:26.188Z</time>
      </trkpt>
      <trkpt lat="41.94125" lon="2.82568">
        <ele>84.34554015012</ele>
        <time>2022-01-27T17:42:28.067Z</time>
      </trkpt>
      <trkpt lat="41.94125" lon="2.82568">
        <ele>84.34554015012</ele>
        <time>2022-01-27T17:42:29.946Z</time>
      </trkpt>
      <trkpt lat="41.94119580362" lon="2.82558967269">
        <ele>82.91</ele>
        <time>2022-01-27T17:42:31.827Z</time>
      </trkpt>
      <trkpt lat="41.94119580362" lon="2.82558967269">
        <ele>82.91</ele>
        <time>2022-01-27T17:42:33.708Z</time>
      </trkpt>
      <trkpt lat="41.94113482368" lon="2.82548803946">
        <ele>81.17</ele>
        <time>2022-01-27T17:42:35.590Z</time>
      </trkpt>
      <trkpt lat="41.94113482368" lon="2.82548803946">
        <ele>81.17</ele>
        <time>2022-01-27T17:42:37.472Z</time>
      </trkpt>
      <trkpt lat="41.94107723151" lon="2.82539205252">
        <ele>80.53</ele>
        <time>2022-01-27T17:42:39.356Z</time>
      </trkpt>
      <trkpt lat="41.94107723151" lon="2.82539205252">
        <ele>80.53</ele>
        <time>2022-01-27T17:42:41.240Z</time>
      </trkpt>
      <trkpt lat="41.94107" lon="2.82538">
        <ele>80.37426024867</ele>
        <time>2022-01-27T17:42:43.124Z</time>
      </trkpt>
      <trkpt lat="41.94107" lon="2.82538">
        <ele>80.37426024867</ele>
        <time>2022-01-27T17:42:45.008Z</time>
      </trkpt>
      <trkpt lat="41.94099916392" lon="2.82528340535">
        <ele>79.01</ele>
        <time>2022-01-27T17:42:46.894Z</time>
      </trkpt>
      <trkpt lat="41.94099916392" lon="2.82528340535">
        <ele>79.01</ele>
        <time>2022-01-27T17:42:48.780Z</time>
      </trkpt>
      <trkpt lat="41.94090698243" lon="2.82515770332">
        <ele>78.36</ele>
        <time>2022-01-27T17:42:50.668Z</time>
      </trkpt>
      <trkpt lat="41.94090698243" lon="2.82515770332">
        <ele>78.36</ele>
        <time>2022-01-27T17:42:52.556Z</time>
      </trkpt>
      <trkpt lat="41.94082048337" lon="2.82503975005">
        <ele>78.44</ele>
        <time>2022-01-27T17:42:54.446Z</time>
      </trkpt>
      <trkpt lat="41.94082048337" lon="2.82503975005">
        <ele>78.44</ele>
        <time>2022-01-27T17:42:56.336Z</time>
      </trkpt>
      <trkpt lat="41.94075545122" lon="2.82495106985">
        <ele>78.69</ele>
        <time>2022-01-27T17:42:58.227Z</time>
      </trkpt>
      <trkpt lat="41.94075545122" lon="2.82495106985">
        <ele>78.69</ele>
        <time>2022-01-27T17:43:00.118Z</time>
      </trkpt>
      <trkpt lat="41.94074" lon="2.82493">
        <ele>83.74184107365</ele>
        <time>2022-01-27T17:43:02.009Z</time>
      </trkpt>
      <trkpt lat="41.94074" lon="2.82493">
        <ele>83.74184107365</ele>
        <time>2022-01-27T17:43:03.900Z</time>
      </trkpt>
      <trkpt lat="41.94063" lon="2.8247">
        <ele>84.03610653583</ele>
        <time>2022-01-27T17:43:05.795Z</time>
      </trkpt>
      <trkpt lat="41.94063" lon="2.8247">
        <ele>84.03610653583</ele>
        <time>2022-01-27T17:43:07.690Z</time>
      </trkpt>
      <trkpt lat="41.94062541315" lon="2.82467867113">
        <ele>84.06</ele>
        <time>2022-01-27T17:43:09.585Z</time>
      </trkpt>
      <trkpt lat="41.94062541315" lon="2.82467867113">
        <ele>84.06</ele>
        <time>2022-01-27T17:43:11.480Z</time>
      </trkpt>
      <trkpt lat="41.94057595741" lon="2.82444870194">
        <ele>84.21</ele>
        <time>2022-01-27T17:43:13.378Z</time>
      </trkpt>
      <trkpt lat="41.94057595741" lon="2.82444870194">
        <ele>84.21</ele>
        <time>2022-01-27T17:43:15.276Z</time>
      </trkpt>
      <trkpt lat="41.94051376307" lon="2.82415949827">
        <ele>84.46</ele>
        <time>2022-01-27T17:43:17.177Z</time>
      </trkpt>
      <trkpt lat="41.94051376307" lon="2.82415949827">
        <ele>84.46</ele>
        <time>2022-01-27T17:43:19.078Z</time>
      </trkpt>
      <trkpt lat="41.94050127425" lon="2.82410142524">
        <ele>84.49</ele>
        <time>2022-01-27T17:43:20.980Z</time>
      </trkpt>
      <trkpt lat="41.94050127425" lon="2.82410142524">
        <ele>84.49</ele>
        <time>2022-01-27T17:43:22.882Z</time>
      </trkpt>
      <trkpt lat="41.94047654638" lon="2.82398644065">
        <ele>84.51</ele>
        <time>2022-01-27T17:43:24.786Z</time>
      </trkpt>
      <trkpt lat="41.94047654638" lon="2.82398644065">
        <ele>84.51</ele>
        <time>2022-01-27T17:43:26.690Z</time>
      </trkpt>
      <trkpt lat="41.94043" lon="2.82377">
        <ele>84.47254228474</ele>
        <time>2022-01-27T17:43:28.596Z</time>
      </trkpt>
      <trkpt lat="41.94043" lon="2.82377">
        <ele>84.47254228474</ele>
        <time>2022-01-27T17:43:30.502Z</time>
      </trkpt>
      <trkpt lat="41.94043031196" lon="2.82375471415">
        <ele>84.47</ele>
        <time>2022-01-27T17:43:32.408Z</time>
      </trkpt>
      <trkpt lat="41.94043031196" lon="2.82375471415">
        <ele>84.47</ele>
        <time>2022-01-27T17:43:34.314Z</time>
      </trkpt>
      <trkpt lat="41.94043517091" lon="2.82351662563">
        <ele>84.11</ele>
        <time>2022-01-27T17:43:36.223Z</time>
      </trkpt>
      <trkpt lat="41.94043517091" lon="2.82351662563">
        <ele>84.11</ele>
        <time>2022-01-27T17:43:38.132Z</time>
      </trkpt>
      <trkpt lat="41.94043884595" lon="2.82333654853">
        <ele>83.86</ele>
        <time>2022-01-27T17:43:40.043Z</time>
      </trkpt>
      <trkpt lat="41.94043884595" lon="2.82333654853">
        <ele>83.86</ele>
        <time>2022-01-27T17:43:41.954Z</time>
      </trkpt>
      <trkpt lat="41.94044372956" lon="2.82309725144">
        <ele>83.6</ele>
        <time>2022-01-27T17:43:43.868Z</time>
      </trkpt>
      <trkpt lat="41.94044372956" lon="2.82309725144">
        <ele>83.6</ele>
        <time>2022-01-27T17:43:45.782Z</time>
      </trkpt>
      <trkpt lat="41.94044737994" lon="2.8229183829">
        <ele>83.45</ele>
        <time>2022-01-27T17:43:47.698Z</time>
      </trkpt>
      <trkpt lat="41.94044737994" lon="2.8229183829">
        <ele>83.45</ele>
        <time>2022-01-27T17:43:49.614Z</time>
      </trkpt>
      <trkpt lat="41.94045" lon="2.82279">
        <ele>83.37</ele>
        <time>2022-01-27T17:43:51.532Z</time>
      </trkpt>
      <trkpt lat="41.94045" lon="2.82279">
        <ele>83.37</ele>
        <time>2022-01-27T17:43:53.450Z</time>
      </trkpt>
      <trkpt lat="41.94042" lon="2.82259">
        <ele>83.27223366898</ele>
        <time>2022-01-27T17:43:55.370Z</time>
      </trkpt>
      <trkpt lat="41.94042" lon="2.82259">
        <ele>83.27223366898</ele>
        <time>2022-01-27T17:43:57.290Z</time>
      </trkpt>
      <trkpt lat="41.9403526573" lon="2.82233986996">
        <ele>83.15</ele>
        <time>2022-01-27T17:43:59.214Z</time>
      </trkpt>
      <trkpt lat="41.9403526573" lon="2.82233986996">
        <ele>83.15</ele>
        <time>2022-01-27T17:44:01.138Z</time>
      </trkpt>
      <trkpt lat="41.94026175316" lon="2.82200222603">
        <ele>82.94</ele>
        <time>2022-01-27T17:44:03.066Z</time>
      </trkpt>
      <trkpt lat="41.94026175316" lon="2.82200222603">
        <ele>82.94</ele>
        <time>2022-01-27T17:44:04.994Z</time>
      </trkpt>
      <trkpt lat="41.94023145178" lon="2.82188967806">
        <ele>82.91</ele>
        <time>2022-01-27T17:44:06.923Z</time>
      </trkpt>
      <trkpt lat="41.94023145178" lon="2.82188967806">
        <ele>82.91</ele>
        <time>2022-01-27T17:44:08.852Z</time>
      </trkpt>
      <trkpt lat="41.94021" lon="2.82181">
        <ele>82.90292052517</ele>
        <time>2022-01-27T17:44:10.782Z</time>
      </trkpt>
      <trkpt lat="41.94021" lon="2.82181">
        <ele>82.90292052517</ele>
        <time>2022-01-27T17:44:12.712Z</time>
      </trkpt>
      <trkpt lat="41.94017796378" lon="2.82166146842">
        <ele>82.89</ele>
        <time>2022-01-27T17:44:14.644Z</time>
      </trkpt>
      <trkpt lat="41.94017796378" lon="2.82166146842">
        <ele>82.89</ele>
        <time>2022-01-27T17:44:16.576Z</time>
      </trkpt>
      <trkpt lat="41.94012837411" lon="2.82143155271">
        <ele>82.81</ele>
        <time>2022-01-27T17:44:18.511Z</time>
      </trkpt>
      <trkpt lat="41.94012837411" lon="2.82143155271">
        <ele>82.81</ele>
        <time>2022-01-27T17:44:20.446Z</time>
      </trkpt>
      <trkpt lat="41.9401" lon="2.8213">
        <ele>82.77958624267</ele>
        <time>2022-01-27T17:44:22.383Z</time>
      </trkpt>
      <trkpt lat="41.9401" lon="2.8213">
        <ele>82.77958624267</ele>
        <time>2022-01-27T17:44:24.320Z</time>
      </trkpt>
      <trkpt lat="41.94008325503" lon="2.82126316107">
        <ele>82.77</ele>
        <time>2022-01-27T17:44:26.257Z</time>
      </trkpt>
      <trkpt lat="41.94008325503" lon="2.82126316107">
        <ele>82.77</ele>
        <time>2022-01-27T17:44:28.194Z</time>
      </trkpt>
      <trkpt lat="41.94" lon="2.82108">
        <ele>82.76551661912</ele>
        <time>2022-01-27T17:44:30.134Z</time>
      </trkpt>
      <trkpt lat="41.94" lon="2.82108">
        <ele>82.76551661912</ele>
        <time>2022-01-27T17:44:32.074Z</time>
      </trkpt>
      <trkpt lat="41.93984556448" lon="2.8209167396">
        <ele>82.76</ele>
        <time>2022-01-27T17:44:34.017Z</time>
      </trkpt>
      <trkpt lat="41.93984556448" lon="2.8209167396">
        <ele>82.76</ele>
        <time>2022-01-27T17:44:35.960Z</time>
      </trkpt>
      <trkpt lat="41.93965" lon="2.82071">
        <ele>82.83995302414</ele>
        <time>2022-01-27T17:44:37.907Z</time>
      </trkpt>
      <trkpt lat="41.93965" lon="2.82071">
        <ele>82.83995302414</ele>
        <time>2022-01-27T17:44:39.854Z</time>
      </trkpt>
      <trkpt lat="41.93960570998" lon="2.82065094664">
        <ele>82.86</ele>
        <time>2022-01-27T17:44:41.802Z</time>
      </trkpt>
      <trkpt lat="41.93960570998" lon="2.82065094664">
        <ele>82.86</ele>
        <time>2022-01-27T17:44:43.750Z</time>
      </trkpt>
      <trkpt lat="41.93953" lon="2.82055">
        <ele>82.86898252269</ele>
        <time>2022-01-27T17:44:45.700Z</time>
      </trkpt>
      <trkpt lat="41.93953" lon="2.82055">
        <ele>82.86898252269</ele>
        <time>2022-01-27T17:44:47.650Z</time>
      </trkpt>
      <trkpt lat="41.93911052449" lon="2.82113726571">
        <ele>82.92</ele>
        <time>2022-01-27T17:44:49.609Z</time>
      </trkpt>
      <trkpt lat="41.93911052449" lon="2.82113726571">
        <ele>82.92</ele>
        <time>2022-01-27T17:44:51.568Z</time>
      </trkpt>
      <trkpt lat="41.93901833628" lon="2.82126632921">
        <ele>82.96</ele>
        <time>2022-01-27T17:44:53.529Z</time>
      </trkpt>
      <trkpt lat="41.93901833628" lon="2.82126632921">
        <ele>82.96</ele>
        <time>2022-01-27T17:44:55.490Z</time>
      </trkpt>
      <trkpt lat="41.93888" lon="2.82146">
        <ele>83.09039948033</ele>
        <time>2022-01-27T17:44:57.455Z</time>
      </trkpt>
      <trkpt lat="41.93888" lon="2.82146">
        <ele>83.09039948033</ele>
        <time>2022-01-27T17:44:59.420Z</time>
      </trkpt>
      <trkpt lat="41.93877" lon="2.82166">
        <ele>83.21119781955</ele>
        <time>2022-01-27T17:45:01.388Z</time>
      </trkpt>
      <trkpt lat="41.93877" lon="2.82166">
        <ele>83.21119781955</ele>
        <time>2022-01-27T17:45:03.356Z</time>
      </trkpt>
      <trkpt lat="41.93871342624" lon="2.82177952203">
        <ele>83.28</ele>
        <time>2022-01-27T17:45:05.325Z</time>
      </trkpt>
      <trkpt lat="41.93871342624" lon="2.82177952203">
        <ele>83.28</ele>
        <time>2022-01-27T17:45:07.294Z</time>
      </trkpt>
      <trkpt lat="41.93861783205" lon="2.82198148159">
        <ele>83.49</ele>
        <time>2022-01-27T17:45:09.266Z</time>
      </trkpt>
      <trkpt lat="41.93861783205" lon="2.82198148159">
        <ele>83.49</ele>
        <time>2022-01-27T17:45:11.238Z</time>
      </trkpt>
      <trkpt lat="41.9385463778" lon="2.82213244127">
        <ele>83.72</ele>
        <time>2022-01-27T17:45:13.212Z</time>
      </trkpt>
      <trkpt lat="41.9385463778" lon="2.82213244127">
        <ele>83.72</ele>
        <time>2022-01-27T17:45:15.186Z</time>
      </trkpt>
      <trkpt lat="41.93847444076" lon="2.82228442094">
        <ele>83.28</ele>
        <time>2022-01-27T17:45:17.162Z</time>
      </trkpt>
      <trkpt lat="41.93847444076" lon="2.82228442094">
        <ele>83.28</ele>
        <time>2022-01-27T17:45:19.138Z</time>
      </trkpt>
      <trkpt lat="41.93842616086" lon="2.82238642072">
        <ele>83.03</ele>
        <time>2022-01-27T17:45:21.116Z</time>
      </trkpt>
      <trkpt lat="41.93842616086" lon="2.82238642072">
        <ele>83.03</ele>
        <time>2022-01-27T17:45:23.094Z</time>
      </trkpt>
      <trkpt lat="41.93840202091" lon="2.8224374206">
        <ele>82.94</ele>
        <time>2022-01-27T17:45:25.073Z</time>
      </trkpt>
      <trkpt lat="41.93840202091" lon="2.8224374206">
        <ele>82.94</ele>
        <time>2022-01-27T17:45:27.052Z</time>
      </trkpt>
      <trkpt lat="41.93835374102" lon="2.82253942038">
        <ele>82.85</ele>
        <time>2022-01-27T17:45:29.032Z</time>
      </trkpt>
      <trkpt lat="41.93835374102" lon="2.82253942038">
        <ele>82.85</ele>
        <time>2022-01-27T17:45:31.012Z</time>
      </trkpt>
      <trkpt lat="41.93830546112" lon="2.82264142016">
        <ele>82.84</ele>
        <time>2022-01-27T17:45:32.993Z</time>
      </trkpt>
      <trkpt lat="41.93830546112" lon="2.82264142016">
        <ele>82.84</ele>
        <time>2022-01-27T17:45:34.974Z</time>
      </trkpt>
      <trkpt lat="41.93825718123" lon="2.82274341994">
        <ele>82.86</ele>
        <time>2022-01-27T17:45:36.957Z</time>
      </trkpt>
      <trkpt lat="41.93825718123" lon="2.82274341994">
        <ele>82.86</ele>
        <time>2022-01-27T17:45:38.940Z</time>
      </trkpt>
      <trkpt lat="41.93811910073" lon="2.82303513931">
        <ele>83.01</ele>
        <time>2022-01-27T17:45:40.927Z</time>
      </trkpt>
      <trkpt lat="41.93811910073" lon="2.82303513931">
        <ele>83.01</ele>
        <time>2022-01-27T17:45:42.914Z</time>
      </trkpt>
      <trkpt lat="41.93806" lon="2.82316">
        <ele>83.08436285839</ele>
        <time>2022-01-27T17:45:44.903Z</time>
      </trkpt>
      <trkpt lat="41.93806" lon="2.82316">
        <ele>83.08436285839</ele>
        <time>2022-01-27T17:45:46.892Z</time>
      </trkpt>
      <trkpt lat="41.93801899748" lon="2.82325603222">
        <ele>83.14</ele>
        <time>2022-01-27T17:45:48.882Z</time>
      </trkpt>
      <trkpt lat="41.93801899748" lon="2.82325603222">
        <ele>83.14</ele>
        <time>2022-01-27T17:45:50.872Z</time>
      </trkpt>
      <trkpt lat="41.93797422869" lon="2.82336088543">
        <ele>83.15</ele>
        <time>2022-01-27T17:45:52.864Z</time>
      </trkpt>
      <trkpt lat="41.93797422869" lon="2.82336088543">
        <ele>83.15</ele>
        <time>2022-01-27T17:45:54.856Z</time>
      </trkpt>
      <trkpt lat="41.93786230673" lon="2.82362301845">
        <ele>83.12</ele>
        <time>2022-01-27T17:45:56.851Z</time>
      </trkpt>
      <trkpt lat="41.93786230673" lon="2.82362301845">
        <ele>83.12</ele>
        <time>2022-01-27T17:45:58.846Z</time>
      </trkpt>
      <trkpt lat="41.93779515355" lon="2.82378029827">
        <ele>83.15</ele>
        <time>2022-01-27T17:46:00.843Z</time>
      </trkpt>
      <trkpt lat="41.93779515355" lon="2.82378029827">
        <ele>83.15</ele>
        <time>2022-01-27T17:46:02.840Z</time>
      </trkpt>
      <trkpt lat="41.93772800037" lon="2.82393757809">
        <ele>83.23</ele>
        <time>2022-01-27T17:46:04.839Z</time>
      </trkpt>
      <trkpt lat="41.93772800037" lon="2.82393757809">
        <ele>83.23</ele>
        <time>2022-01-27T17:46:06.838Z</time>
      </trkpt>
      <trkpt lat="41.93768" lon="2.82405">
        <ele>83.31271132283</ele>
        <time>2022-01-27T17:46:08.839Z</time>
      </trkpt>
      <trkpt lat="41.93768" lon="2.82405">
        <ele>83.31271132283</ele>
        <time>2022-01-27T17:46:10.840Z</time>
      </trkpt>
      <trkpt lat="41.93759635557" lon="2.82432112334">
        <ele>83.5</ele>
        <time>2022-01-27T17:46:12.845Z</time>
      </trkpt>
      <trkpt lat="41.93759635557" lon="2.82432112334">
        <ele>83.5</ele>
        <time>2022-01-27T17:46:14.850Z</time>
      </trkpt>
      <trkpt lat="41.93749299795" lon="2.82465614459">
        <ele>83.78</ele>
        <time>2022-01-27T17:46:16.859Z</time>
      </trkpt>
      <trkpt lat="41.93749299795" lon="2.82465614459">
        <ele>83.78</ele>
        <time>2022-01-27T17:46:18.868Z</time>
      </trkpt>
      <trkpt lat="41.93745854541" lon="2.82476781834">
        <ele>83.85</ele>
        <time>2022-01-27T17:46:20.878Z</time>
      </trkpt>
      <trkpt lat="41.93745854541" lon="2.82476781834">
        <ele>83.85</ele>
        <time>2022-01-27T17:46:22.888Z</time>
      </trkpt>
      <trkpt lat="41.93742409287" lon="2.82487949209">
        <ele>83.89</ele>
        <time>2022-01-27T17:46:24.900Z</time>
      </trkpt>
      <trkpt lat="41.93742409287" lon="2.82487949209">
        <ele>83.89</ele>
        <time>2022-01-27T17:46:26.912Z</time>
      </trkpt>
      <trkpt lat="41.9374068666" lon="2.82493532897">
        <ele>83.89</ele>
        <time>2022-01-27T17:46:28.924Z</time>
      </trkpt>
      <trkpt lat="41.9374068666" lon="2.82493532897">
        <ele>83.89</ele>
        <time>2022-01-27T17:46:30.936Z</time>
      </trkpt>
      <trkpt lat="41.93739" lon="2.82499">
        <ele>83.875313191</ele>
        <time>2022-01-27T17:46:32.949Z</time>
      </trkpt>
      <trkpt lat="41.93739" lon="2.82499">
        <ele>83.875313191</ele>
        <time>2022-01-27T17:46:34.962Z</time>
      </trkpt>
      <trkpt lat="41.93734934483" lon="2.82516423645">
        <ele>83.83</ele>
        <time>2022-01-27T17:46:36.977Z</time>
      </trkpt>
      <trkpt lat="41.93734934483" lon="2.82516423645">
        <ele>83.83</ele>
        <time>2022-01-27T17:46:38.992Z</time>
      </trkpt>
      <trkpt lat="41.93732242871" lon="2.82527959124">
        <ele>83.82</ele>
        <time>2022-01-27T17:46:41.009Z</time>
      </trkpt>
      <trkpt lat="41.93732242871" lon="2.82527959124">
        <ele>83.82</ele>
        <time>2022-01-27T17:46:43.026Z</time>
      </trkpt>
      <trkpt lat="41.93728205453" lon="2.82545262343">
        <ele>83.87</ele>
        <time>2022-01-27T17:46:45.045Z</time>
      </trkpt>
      <trkpt lat="41.93728205453" lon="2.82545262343">
        <ele>83.87</ele>
        <time>2022-01-27T17:46:47.064Z</time>
      </trkpt>
      <trkpt lat="41.9372282223" lon="2.82568333301">
        <ele>83.98</ele>
        <time>2022-01-27T17:46:49.086Z</time>
      </trkpt>
      <trkpt lat="41.9372282223" lon="2.82568333301">
        <ele>83.98</ele>
        <time>2022-01-27T17:46:51.108Z</time>
      </trkpt>
      <trkpt lat="41.93718784812" lon="2.82585636519">
        <ele>84.11</ele>
        <time>2022-01-27T17:46:53.132Z</time>
      </trkpt>
      <trkpt lat="41.93718784812" lon="2.82585636519">
        <ele>84.11</ele>
        <time>2022-01-27T17:46:55.156Z</time>
      </trkpt>
      <trkpt lat="41.937160932" lon="2.82597171998">
        <ele>84.22</ele>
        <time>2022-01-27T17:46:57.181Z</time>
      </trkpt>
      <trkpt lat="41.937160932" lon="2.82597171998">
        <ele>84.22</ele>
        <time>2022-01-27T17:46:59.206Z</time>
      </trkpt>
      <trkpt lat="41.93712055783" lon="2.82614475217">
        <ele>84.42</ele>
        <time>2022-01-27T17:47:01.234Z</time>
      </trkpt>
      <trkpt lat="41.93712055783" lon="2.82614475217">
        <ele>84.42</ele>
        <time>2022-01-27T17:47:03.262Z</time>
      </trkpt>
      <trkpt lat="41.93711" lon="2.82619">
        <ele>84.4807986361</ele>
        <time>2022-01-27T17:47:05.290Z</time>
      </trkpt>
      <trkpt lat="41.93711" lon="2.82619">
        <ele>84.4807986361</ele>
        <time>2022-01-27T17:47:07.318Z</time>
      </trkpt>
      <trkpt lat="41.93708" lon="2.82624">
        <ele>84.56315676952</ele>
        <time>2022-01-27T17:47:09.347Z</time>
      </trkpt>
      <trkpt lat="41.93708" lon="2.82624">
        <ele>84.56315676952</ele>
        <time>2022-01-27T17:47:11.376Z</time>
      </trkpt>
      <trkpt lat="41.93709" lon="2.82633">
        <ele>84.67982506313</ele>
        <time>2022-01-27T17:47:13.406Z</time>
      </trkpt>
      <trkpt lat="41.93709" lon="2.82633">
        <ele>84.67982506313</ele>
        <time>2022-01-27T17:47:15.436Z</time>
      </trkpt>
      <trkpt lat="41.93706933062" lon="2.82635755917">
        <ele>84.73</ele>
        <time>2022-01-27T17:47:17.467Z</time>
      </trkpt>
      <trkpt lat="41.93706933062" lon="2.82635755917">
        <ele>84.73</ele>
        <time>2022-01-27T17:47:19.498Z</time>
      </trkpt>
      <trkpt lat="41.937" lon="2.82645">
        <ele>84.8</ele>
        <time>2022-01-27T17:47:21.530Z</time>
      </trkpt>
      <trkpt lat="41.937" lon="2.82645">
        <ele>84.8</ele>
        <time>2022-01-27T17:47:23.562Z</time>
      </trkpt>
      <trkpt lat="41.93698" lon="2.8265">
        <ele>84.81110772446</ele>
        <time>2022-01-27T17:47:25.595Z</time>
      </trkpt>
      <trkpt lat="41.93698" lon="2.8265">
        <ele>84.81110772446</ele>
        <time>2022-01-27T17:47:27.628Z</time>
      </trkpt>
      <trkpt lat="41.93699" lon="2.82659">
        <ele>84.82616172092</ele>
        <time>2022-01-27T17:47:29.662Z</time>
      </trkpt>
      <trkpt lat="41.93699" lon="2.82659">
        <ele>84.82616172092</ele>
        <time>2022-01-27T17:47:31.696Z</time>
      </trkpt>
      <trkpt lat="41.93697902167" lon="2.82667233748">
        <ele>84.84</ele>
        <time>2022-01-27T17:47:33.731Z</time>
      </trkpt>
      <trkpt lat="41.93697902167" lon="2.82667233748">
        <ele>84.84</ele>
        <time>2022-01-27T17:47:35.766Z</time>
      </trkpt>
      <trkpt lat="41.93697" lon="2.82674">
        <ele>84.86274378158</ele>
        <time>2022-01-27T17:47:37.802Z</time>
      </trkpt>
      <trkpt lat="41.93697" lon="2.82674">
        <ele>84.86274378158</ele>
        <time>2022-01-27T17:47:39.838Z</time>
      </trkpt>
      <trkpt lat="41.93695278106" lon="2.82678673712">
        <ele>84.88</ele>
        <time>2022-01-27T17:47:41.874Z</time>
      </trkpt>
      <trkpt lat="41.93695278106" lon="2.82678673712">
        <ele>84.88</ele>
        <time>2022-01-27T17:47:43.910Z</time>
      </trkpt>
      <trkpt lat="41.9369" lon="2.82693">
        <ele>84.95934299465</ele>
        <time>2022-01-27T17:47:45.948Z</time>
      </trkpt>
      <trkpt lat="41.9369" lon="2.82693">
        <ele>84.95934299465</ele>
        <time>2022-01-27T17:47:47.986Z</time>
      </trkpt>
      <trkpt lat="41.93672" lon="2.82726">
        <ele>85.16243111416</ele>
        <time>2022-01-27T17:47:50.029Z</time>
      </trkpt>
      <trkpt lat="41.93672" lon="2.82726">
        <ele>85.16243111416</ele>
        <time>2022-01-27T17:47:52.072Z</time>
      </trkpt>
      <trkpt lat="41.93666" lon="2.8273">
        <ele>85.20711341878</ele>
        <time>2022-01-27T17:47:54.116Z</time>
      </trkpt>
      <trkpt lat="41.93666" lon="2.8273">
        <ele>85.20711341878</ele>
        <time>2022-01-27T17:47:56.160Z</time>
      </trkpt>
      <trkpt lat="41.93666" lon="2.82731">
        <ele>85.21207638555</ele>
        <time>2022-01-27T17:47:58.204Z</time>
      </trkpt>
      <trkpt lat="41.93666" lon="2.82731">
        <ele>85.21207638555</ele>
        <time>2022-01-27T17:48:00.248Z</time>
      </trkpt>
      <trkpt lat="41.93661" lon="2.82733">
        <ele>85.24688027051</ele>
        <time>2022-01-27T17:48:02.293Z</time>
      </trkpt>
      <trkpt lat="41.93661" lon="2.82733">
        <ele>85.24688027051</ele>
        <time>2022-01-27T17:48:04.338Z</time>
      </trkpt>
      <trkpt lat="41.9365775204" lon="2.8273137602">
        <ele>85.27</ele>
        <time>2022-01-27T17:48:06.384Z</time>
      </trkpt>
      <trkpt lat="41.9365775204" lon="2.8273137602">
        <ele>85.27</ele>
        <time>2022-01-27T17:48:08.430Z</time>
      </trkpt>
      <trkpt lat="41.93655" lon="2.8273">
        <ele>85.27326494343</ele>
        <time>2022-01-27T17:48:10.476Z</time>
      </trkpt>
      <trkpt lat="41.93655" lon="2.8273">
        <ele>85.27326494343</ele>
        <time>2022-01-27T17:48:12.522Z</time>
      </trkpt>
      <trkpt lat="41.93644254054" lon="2.82715834889">
        <ele>85.29</ele>
        <time>2022-01-27T17:48:14.571Z</time>
      </trkpt>
      <trkpt lat="41.93644254054" lon="2.82715834889">
        <ele>85.29</ele>
        <time>2022-01-27T17:48:16.620Z</time>
      </trkpt>
      <trkpt lat="41.93633" lon="2.82701">
        <ele>85.27831576561</ele>
        <time>2022-01-27T17:48:18.671Z</time>
      </trkpt>
      <trkpt lat="41.93633" lon="2.82701">
        <ele>85.27831576561</ele>
        <time>2022-01-27T17:48:20.722Z</time>
      </trkpt>
      <trkpt lat="41.93623068158" lon="2.82693989288">
        <ele>85.27</ele>
        <time>2022-01-27T17:48:22.775Z</time>
      </trkpt>
      <trkpt lat="41.93623068158" lon="2.82693989288">
        <ele>85.27</ele>
        <time>2022-01-27T17:48:24.828Z</time>
      </trkpt>
      <trkpt lat="41.93616" lon="2.82689">
        <ele>85.29367220331</ele>
        <time>2022-01-27T17:48:26.882Z</time>
      </trkpt>
      <trkpt lat="41.93616" lon="2.82689">
        <ele>85.29367220331</ele>
        <time>2022-01-27T17:48:28.936Z</time>
      </trkpt>
      <trkpt lat="41.93613128895" lon="2.82682683569">
        <ele>85.31</ele>
        <time>2022-01-27T17:48:30.991Z</time>
      </trkpt>
      <trkpt lat="41.93613128895" lon="2.82682683569">
        <ele>85.31</ele>
        <time>2022-01-27T17:48:33.046Z</time>
      </trkpt>
      <trkpt lat="41.93611" lon="2.82678">
        <ele>85.33270042353</ele>
        <time>2022-01-27T17:48:35.102Z</time>
      </trkpt>
      <trkpt lat="41.93611" lon="2.82678">
        <ele>85.33270042353</ele>
        <time>2022-01-27T17:48:37.158Z</time>
      </trkpt>
      <trkpt lat="41.93609282312" lon="2.82671816323">
        <ele>85.36</ele>
        <time>2022-01-27T17:48:39.214Z</time>
      </trkpt>
      <trkpt lat="41.93609282312" lon="2.82671816323">
        <ele>85.36</ele>
        <time>2022-01-27T17:48:41.270Z</time>
      </trkpt>
      <trkpt lat="41.93607709313" lon="2.82666153526">
        <ele>85.4</ele>
        <time>2022-01-27T17:48:43.327Z</time>
      </trkpt>
      <trkpt lat="41.93607709313" lon="2.82666153526">
        <ele>85.4</ele>
        <time>2022-01-27T17:48:45.384Z</time>
      </trkpt>
      <trkpt lat="41.93606" lon="2.8266">
        <ele>85.47063281184</ele>
        <time>2022-01-27T17:48:47.442Z</time>
      </trkpt>
      <trkpt lat="41.93606" lon="2.8266">
        <ele>85.47063281184</ele>
        <time>2022-01-27T17:48:49.500Z</time>
      </trkpt>
      <trkpt lat="41.93602470741" lon="2.82657176593">
        <ele>85.53</ele>
        <time>2022-01-27T17:48:51.559Z</time>
      </trkpt>
      <trkpt lat="41.93602470741" lon="2.82657176593">
        <ele>85.53</ele>
        <time>2022-01-27T17:48:53.618Z</time>
      </trkpt>
      <trkpt lat="41.93601" lon="2.82656">
        <ele>85.56140072965</ele>
        <time>2022-01-27T17:48:55.677Z</time>
      </trkpt>
      <trkpt lat="41.93601" lon="2.82656">
        <ele>85.56140072965</ele>
        <time>2022-01-27T17:48:57.736Z</time>
      </trkpt>
      <trkpt lat="41.93594" lon="2.82655">
        <ele>85.69055393055</ele>
        <time>2022-01-27T17:48:59.796Z</time>
      </trkpt>
      <trkpt lat="41.93594" lon="2.82655">
        <ele>85.69055393055</ele>
        <time>2022-01-27T17:49:01.856Z</time>
      </trkpt>
      <trkpt lat="41.93584801444" lon="2.82656110171">
        <ele>85.86</ele>
        <time>2022-01-27T17:49:03.918Z</time>
      </trkpt>
      <trkpt lat="41.93584801444" lon="2.82656110171">
        <ele>85.86</ele>
        <time>2022-01-27T17:49:05.980Z</time>
      </trkpt>
      <trkpt lat="41.93566976624" lon="2.82658261442">
        <ele>86.22</ele>
        <time>2022-01-27T17:49:08.044Z</time>
      </trkpt>
      <trkpt lat="41.93566976624" lon="2.82658261442">
        <ele>86.22</ele>
        <time>2022-01-27T17:49:10.108Z</time>
      </trkpt>
      <trkpt lat="41.93550226667" lon="2.82660282988">
        <ele>86.25</ele>
        <time>2022-01-27T17:49:12.175Z</time>
      </trkpt>
      <trkpt lat="41.93550226667" lon="2.82660282988">
        <ele>86.25</ele>
        <time>2022-01-27T17:49:14.242Z</time>
      </trkpt>
      <trkpt lat="41.93536" lon="2.82662">
        <ele>86.25</ele>
        <time>2022-01-27T17:49:16.311Z</time>
      </trkpt>
      <trkpt lat="41.93536" lon="2.82662">
        <ele>86.25</ele>
        <time>2022-01-27T17:49:18.380Z</time>
      </trkpt>
      <trkpt lat="41.93533467598" lon="2.826619026">
        <ele>86.25</ele>
        <time>2022-01-27T17:49:20.450Z</time>
      </trkpt>
      <trkpt lat="41.93533467598" lon="2.826619026">
        <ele>86.25</ele>
        <time>2022-01-27T17:49:22.520Z</time>
      </trkpt>
      <trkpt lat="41.93524567948" lon="2.82661560306">
        <ele>86.14</ele>
        <time>2022-01-27T17:49:24.591Z</time>
      </trkpt>
      <trkpt lat="41.93524567948" lon="2.82661560306">
        <ele>86.14</ele>
        <time>2022-01-27T17:49:26.662Z</time>
      </trkpt>
      <trkpt lat="41.93515578403" lon="2.82661214554">
        <ele>86.06</ele>
        <time>2022-01-27T17:49:28.735Z</time>
      </trkpt>
      <trkpt lat="41.93515578403" lon="2.82661214554">
        <ele>86.06</ele>
        <time>2022-01-27T17:49:30.808Z</time>
      </trkpt>
      <trkpt lat="41.9351" lon="2.82661">
        <ele>86.05379456526</ele>
        <time>2022-01-27T17:49:32.881Z</time>
      </trkpt>
      <trkpt lat="41.9351" lon="2.82661">
        <ele>86.05379456526</ele>
        <time>2022-01-27T17:49:34.954Z</time>
      </trkpt>
      <trkpt lat="41.93506859435" lon="2.82659205392">
        <ele>86.05</ele>
        <time>2022-01-27T17:49:37.028Z</time>
      </trkpt>
      <trkpt lat="41.93506859435" lon="2.82659205392">
        <ele>86.05</ele>
        <time>2022-01-27T17:49:39.102Z</time>
      </trkpt>
      <trkpt lat="41.93503" lon="2.82657">
        <ele>86.06865254176</ele>
        <time>2022-01-27T17:49:41.177Z</time>
      </trkpt>
      <trkpt lat="41.93503" lon="2.82657">
        <ele>86.06865254176</ele>
        <time>2022-01-27T17:49:43.252Z</time>
      </trkpt>
      <trkpt lat="41.93500727012" lon="2.8265131753">
        <ele>86.09</ele>
        <time>2022-01-27T17:49:45.327Z</time>
      </trkpt>
      <trkpt lat="41.93500727012" lon="2.8265131753">
        <ele>86.09</ele>
        <time>2022-01-27T17:49:47.402Z</time>
      </trkpt>
      <trkpt lat="41.93497" lon="2.82642">
        <ele>86.15125588893</ele>
        <time>2022-01-27T17:49:49.479Z</time>
      </trkpt>
      <trkpt lat="41.93497" lon="2.82642">
        <ele>86.15125588893</ele>
        <time>2022-01-27T17:49:51.556Z</time>
      </trkpt>
      <trkpt lat="41.93496887311" lon="2.82640497481">
        <ele>86.16</ele>
        <time>2022-01-27T17:49:53.633Z</time>
      </trkpt>
      <trkpt lat="41.93496887311" lon="2.82640497481">
        <ele>86.16</ele>
        <time>2022-01-27T17:49:55.710Z</time>
      </trkpt>
      <trkpt lat="41.93495985193" lon="2.82628469238">
        <ele>86.27</ele>
        <time>2022-01-27T17:49:57.788Z</time>
      </trkpt>
      <trkpt lat="41.93495985193" lon="2.82628469238">
        <ele>86.27</ele>
        <time>2022-01-27T17:49:59.866Z</time>
      </trkpt>
      <trkpt lat="41.93494" lon="2.82602">
        <ele>86.65730392354</ele>
        <time>2022-01-27T17:50:01.948Z</time>
      </trkpt>
      <trkpt lat="41.93494" lon="2.82602">
        <ele>86.65730392354</ele>
        <time>2022-01-27T17:50:04.030Z</time>
      </trkpt>
      <trkpt lat="41.93492776864" lon="2.82598775368">
        <ele>86.71</ele>
        <time>2022-01-27T17:50:06.112Z</time>
      </trkpt>
      <trkpt lat="41.93492776864" lon="2.82598775368">
        <ele>86.71</ele>
        <time>2022-01-27T17:50:08.194Z</time>
      </trkpt>
      <trkpt lat="41.93488691703" lon="2.82588005398">
        <ele>86.77</ele>
        <time>2022-01-27T17:50:10.277Z</time>
      </trkpt>
      <trkpt lat="41.93488691703" lon="2.82588005398">
        <ele>86.77</ele>
        <time>2022-01-27T17:50:12.360Z</time>
      </trkpt>
      <trkpt lat="41.93483" lon="2.82573">
        <ele>86.70498107228</ele>
        <time>2022-01-27T17:50:14.445Z</time>
      </trkpt>
      <trkpt lat="41.93483" lon="2.82573">
        <ele>86.70498107228</ele>
        <time>2022-01-27T17:50:16.530Z</time>
      </trkpt>
      <trkpt lat="41.93482127198" lon="2.82573537109">
        <ele>86.7</ele>
        <time>2022-01-27T17:50:18.616Z</time>
      </trkpt>
      <trkpt lat="41.93482127198" lon="2.82573537109">
        <ele>86.7</ele>
        <time>2022-01-27T17:50:20.702Z</time>
      </trkpt>
      <trkpt lat="41.93478038643" lon="2.82576053143">
        <ele>86.69</ele>
        <time>2022-01-27T17:50:22.788Z</time>
      </trkpt>
      <trkpt lat="41.93478038643" lon="2.82576053143">
        <ele>86.69</ele>
        <time>2022-01-27T17:50:24.874Z</time>
      </trkpt>
      <trkpt lat="41.93473950088" lon="2.82578569176">
        <ele>86.7</ele>
        <time>2022-01-27T17:50:26.961Z</time>
      </trkpt>
      <trkpt lat="41.93473950088" lon="2.82578569176">
        <ele>86.7</ele>
        <time>2022-01-27T17:50:29.048Z</time>
      </trkpt>
      <trkpt lat="41.9347" lon="2.82581">
        <ele>86.74830665965</ele>
        <time>2022-01-27T17:50:31.136Z</time>
      </trkpt>
      <trkpt lat="41.9347" lon="2.82581">
        <ele>86.74830665965</ele>
        <time>2022-01-27T17:50:33.224Z</time>
      </trkpt>
      <trkpt lat="41.93469058493" lon="2.82587119795">
        <ele>86.8</ele>
        <time>2022-01-27T17:50:35.312Z</time>
      </trkpt>
      <trkpt lat="41.93469058493" lon="2.82587119795">
        <ele>86.8</ele>
        <time>2022-01-27T17:50:37.400Z</time>
      </trkpt>
      <trkpt lat="41.93468" lon="2.82594">
        <ele>86.90073518332</ele>
        <time>2022-01-27T17:50:39.489Z</time>
      </trkpt>
      <trkpt lat="41.93468" lon="2.82594">
        <ele>86.90073518332</ele>
        <time>2022-01-27T17:50:41.578Z</time>
      </trkpt>
      <trkpt lat="41.93471249586" lon="2.82604212985">
        <ele>87.06</ele>
        <time>2022-01-27T17:50:43.669Z</time>
      </trkpt>
      <trkpt lat="41.93471249586" lon="2.82604212985">
        <ele>87.06</ele>
        <time>2022-01-27T17:50:45.760Z</time>
      </trkpt>
      <trkpt lat="41.93473017904" lon="2.82609770555">
        <ele>87.08</ele>
        <time>2022-01-27T17:50:47.851Z</time>
      </trkpt>
      <trkpt lat="41.93473017904" lon="2.82609770555">
        <ele>87.08</ele>
        <time>2022-01-27T17:50:49.942Z</time>
      </trkpt>
      <trkpt lat="41.93475" lon="2.82616">
        <ele>87.05</ele>
        <time>2022-01-27T17:50:52.034Z</time>
      </trkpt>
      <trkpt lat="41.93475" lon="2.82616">
        <ele>87.05</ele>
        <time>2022-01-27T17:50:54.126Z</time>
      </trkpt>
      <trkpt lat="41.93476131449" lon="2.82621091521">
        <ele>86.97</ele>
        <time>2022-01-27T17:50:56.219Z</time>
      </trkpt>
      <trkpt lat="41.93476131449" lon="2.82621091521">
        <ele>86.97</ele>
        <time>2022-01-27T17:50:58.312Z</time>
      </trkpt>
      <trkpt lat="41.93479966842" lon="2.82638350791">
        <ele>86.62</ele>
        <time>2022-01-27T17:51:00.407Z</time>
      </trkpt>
      <trkpt lat="41.93479966842" lon="2.82638350791">
        <ele>86.62</ele>
        <time>2022-01-27T17:51:02.502Z</time>
      </trkpt>
      <trkpt lat="41.93481" lon="2.82643">
        <ele>86.55704029232</ele>
        <time>2022-01-27T17:51:04.598Z</time>
      </trkpt>
      <trkpt lat="41.93481" lon="2.82643">
        <ele>86.55704029232</ele>
        <time>2022-01-27T17:51:06.694Z</time>
      </trkpt>
      <trkpt lat="41.93480912798" lon="2.82644308029">
        <ele>86.54</ele>
        <time>2022-01-27T17:51:08.790Z</time>
      </trkpt>
      <trkpt lat="41.93480912798" lon="2.82644308029">
        <ele>86.54</ele>
        <time>2022-01-27T17:51:10.886Z</time>
      </trkpt>
      <trkpt lat="41.93480118096" lon="2.82656228556">
        <ele>86.46</ele>
        <time>2022-01-27T17:51:12.983Z</time>
      </trkpt>
      <trkpt lat="41.93480118096" lon="2.82656228556">
        <ele>86.46</ele>
        <time>2022-01-27T17:51:15.080Z</time>
      </trkpt>
      <trkpt lat="41.9348" lon="2.82658">
        <ele>86.46291323622</ele>
        <time>2022-01-27T17:51:17.177Z</time>
      </trkpt>
      <trkpt lat="41.9348" lon="2.82658">
        <ele>86.46291323622</ele>
        <time>2022-01-27T17:51:19.274Z</time>
      </trkpt>
      <trkpt lat="41.93472632171" lon="2.82661274591">
        <ele>86.48</ele>
        <time>2022-01-27T17:51:21.373Z</time>
      </trkpt>
      <trkpt lat="41.93472632171" lon="2.82661274591">
        <ele>86.48</ele>
        <time>2022-01-27T17:51:23.472Z</time>
      </trkpt>
      <trkpt lat="41.93471" lon="2.82662">
        <ele>86.49720362081</ele>
        <time>2022-01-27T17:51:25.571Z</time>
      </trkpt>
      <trkpt lat="41.93471" lon="2.82662">
        <ele>86.49720362081</ele>
        <time>2022-01-27T17:51:27.670Z</time>
      </trkpt>
      <trkpt lat="41.93463748043" lon="2.82662763364">
        <ele>86.57</ele>
        <time>2022-01-27T17:51:29.770Z</time>
      </trkpt>
      <trkpt lat="41.93463748043" lon="2.82662763364">
        <ele>86.57</ele>
        <time>2022-01-27T17:51:31.870Z</time>
      </trkpt>
      <trkpt lat="41.93452" lon="2.82664">
        <ele>86.76218036232</ele>
        <time>2022-01-27T17:51:33.972Z</time>
      </trkpt>
      <trkpt lat="41.93452" lon="2.82664">
        <ele>86.76218036232</ele>
        <time>2022-01-27T17:51:36.074Z</time>
      </trkpt>
      <trkpt lat="41.93450298872" lon="2.82663829887">
        <ele>86.79</ele>
        <time>2022-01-27T17:51:38.176Z</time>
      </trkpt>
      <trkpt lat="41.93450298872" lon="2.82663829887">
        <ele>86.79</ele>
        <time>2022-01-27T17:51:40.278Z</time>
      </trkpt>
      <trkpt lat="41.9344133043" lon="2.82662933043">
        <ele>86.97</ele>
        <time>2022-01-27T17:51:42.382Z</time>
      </trkpt>
      <trkpt lat="41.9344133043" lon="2.82662933043">
        <ele>86.97</ele>
        <time>2022-01-27T17:51:44.486Z</time>
      </trkpt>
      <trkpt lat="41.93432" lon="2.82662">
        <ele>87.18957396801</ele>
        <time>2022-01-27T17:51:46.591Z</time>
      </trkpt>
      <trkpt lat="41.93432" lon="2.82662">
        <ele>87.18957396801</ele>
        <time>2022-01-27T17:51:48.696Z</time>
      </trkpt>
      <trkpt lat="41.93432395447" lon="2.82650532049">
        <ele>87.39</ele>
        <time>2022-01-27T17:51:50.802Z</time>
      </trkpt>
      <trkpt lat="41.93432395447" lon="2.82650532049">
        <ele>87.39</ele>
        <time>2022-01-27T17:51:52.908Z</time>
      </trkpt>
      <trkpt lat="41.93432811865" lon="2.82638455915">
        <ele>87.55</ele>
        <time>2022-01-27T17:51:55.016Z</time>
      </trkpt>
      <trkpt lat="41.93432811865" lon="2.82638455915">
        <ele>87.55</ele>
        <time>2022-01-27T17:51:57.124Z</time>
      </trkpt>
      <trkpt lat="41.93433" lon="2.82633">
        <ele>87.5951793209</ele>
        <time>2022-01-27T17:51:59.233Z</time>
      </trkpt>
      <trkpt lat="41.93433" lon="2.82633">
        <ele>87.5951793209</ele>
        <time>2022-01-27T17:52:01.342Z</time>
      </trkpt>
      <trkpt lat="41.93437502041" lon="2.82630298776">
        <ele>87.65</ele>
        <time>2022-01-27T17:52:03.451Z</time>
      </trkpt>
      <trkpt lat="41.93437502041" lon="2.82630298776">
        <ele>87.65</ele>
        <time>2022-01-27T17:52:05.560Z</time>
      </trkpt>
      <trkpt lat="41.93443" lon="2.82627">
        <ele>87.69552452732</ele>
        <time>2022-01-27T17:52:07.670Z</time>
      </trkpt>
      <trkpt lat="41.93443" lon="2.82627">
        <ele>87.69552452732</ele>
        <time>2022-01-27T17:52:09.780Z</time>
      </trkpt>
      <trkpt lat="41.93459451971" lon="2.82627783427">
        <ele>87.82</ele>
        <time>2022-01-27T17:52:11.893Z</time>
      </trkpt>
      <trkpt lat="41.93459451971" lon="2.82627783427">
        <ele>87.82</ele>
        <time>2022-01-27T17:52:14.006Z</time>
      </trkpt>
      <trkpt lat="41.93464" lon="2.82628">
        <ele>87.87060344977</ele>
        <time>2022-01-27T17:52:16.120Z</time>
      </trkpt>
      <trkpt lat="41.93464" lon="2.82628">
        <ele>87.87060344977</ele>
        <time>2022-01-27T17:52:18.234Z</time>
      </trkpt>
      <trkpt lat="41.93464" lon="2.82622028372">
        <ele>87.92</ele>
        <time>2022-01-27T17:52:20.348Z</time>
      </trkpt>
      <trkpt lat="41.93464" lon="2.82622028372">
        <ele>87.92</ele>
        <time>2022-01-27T17:52:22.462Z</time>
      </trkpt>
      <trkpt lat="41.93464" lon="2.82615">
        <ele>88.00139292322</ele>
        <time>2022-01-27T17:52:24.577Z</time>
      </trkpt>
      <trkpt lat="41.93464" lon="2.82615">
        <ele>88.00139292322</ele>
        <time>2022-01-27T17:52:26.692Z</time>
      </trkpt>
      <trkpt lat="41.93459243702" lon="2.82605919795">
        <ele>88.13</ele>
        <time>2022-01-27T17:52:28.809Z</time>
      </trkpt>
      <trkpt lat="41.93459243702" lon="2.82605919795">
        <ele>88.13</ele>
        <time>2022-01-27T17:52:30.926Z</time>
      </trkpt>
      <trkpt lat="41.93453" lon="2.82594">
        <ele>88.37117925622</ele>
        <time>2022-01-27T17:52:33.044Z</time>
      </trkpt>
      <trkpt lat="41.93453" lon="2.82594">
        <ele>88.37117925622</ele>
        <time>2022-01-27T17:52:35.162Z</time>
      </trkpt>
      <trkpt lat="41.93452747201" lon="2.82590460817">
        <ele>88.43</ele>
        <time>2022-01-27T17:52:37.281Z</time>
      </trkpt>
      <trkpt lat="41.93452747201" lon="2.82590460817">
        <ele>88.43</ele>
        <time>2022-01-27T17:52:39.400Z</time>
      </trkpt>
      <trkpt lat="41.93452" lon="2.8258">
        <ele>88.63862881354</ele>
        <time>2022-01-27T17:52:41.520Z</time>
      </trkpt>
      <trkpt lat="41.93452" lon="2.8258">
        <ele>88.63862881354</ele>
        <time>2022-01-27T17:52:43.640Z</time>
      </trkpt>
      <trkpt lat="41.93452655751" lon="2.82578688498">
        <ele>88.67</ele>
        <time>2022-01-27T17:52:45.760Z</time>
      </trkpt>
      <trkpt lat="41.93452655751" lon="2.82578688498">
        <ele>88.67</ele>
        <time>2022-01-27T17:52:47.880Z</time>
      </trkpt>
      <trkpt lat="41.93458" lon="2.82568">
        <ele>88.96</ele>
        <time>2022-01-27T17:52:50.002Z</time>
      </trkpt>
      <trkpt lat="41.93458" lon="2.82568">
        <ele>88.96</ele>
        <time>2022-01-27T17:52:52.124Z</time>
      </trkpt>
      <trkpt lat="41.93462" lon="2.82555">
        <ele>89.35774496073</ele>
        <time>2022-01-27T17:52:54.247Z</time>
      </trkpt>
      <trkpt lat="41.93462" lon="2.82555">
        <ele>89.35774496073</ele>
        <time>2022-01-27T17:52:56.370Z</time>
      </trkpt>
      <trkpt lat="41.93453" lon="2.82545">
        <ele>89.77794260846</ele>
        <time>2022-01-27T17:52:58.495Z</time>
      </trkpt>
      <trkpt lat="41.93453" lon="2.82545">
        <ele>89.77794260846</ele>
        <time>2022-01-27T17:53:00.620Z</time>
      </trkpt>
      <trkpt lat="41.93449" lon="2.82534">
        <ele>90.10572107434</ele>
        <time>2022-01-27T17:53:02.747Z</time>
      </trkpt>
      <trkpt lat="41.93449" lon="2.82534">
        <ele>90.10572107434</ele>
        <time>2022-01-27T17:53:04.874Z</time>
      </trkpt>
      <trkpt lat="41.93446" lon="2.8252">
        <ele>90.4957524084</ele>
        <time>2022-01-27T17:53:07.002Z</time>
      </trkpt>
      <trkpt lat="41.93446" lon="2.8252">
        <ele>90.4957524084</ele>
        <time>2022-01-27T17:53:09.130Z</time>
      </trkpt>
      <trkpt lat="41.93439375795" lon="2.82518012738">
        <ele>90.74</ele>
        <time>2022-01-27T17:53:11.260Z</time>
      </trkpt>
      <trkpt lat="41.93439375795" lon="2.82518012738">
        <ele>90.74</ele>
        <time>2022-01-27T17:53:13.390Z</time>
      </trkpt>
      <trkpt lat="41.93436" lon="2.82517">
        <ele>90.88614999635</ele>
        <time>2022-01-27T17:53:15.520Z</time>
      </trkpt>
      <trkpt lat="41.93436" lon="2.82517">
        <ele>90.88614999635</ele>
        <time>2022-01-27T17:53:17.650Z</time>
      </trkpt>
      <trkpt lat="41.9343510175" lon="2.82517698639">
        <ele>90.93</ele>
        <time>2022-01-27T17:53:19.780Z</time>
      </trkpt>
      <trkpt lat="41.9343510175" lon="2.82517698639">
        <ele>90.93</ele>
        <time>2022-01-27T17:53:21.910Z</time>
      </trkpt>
      <trkpt lat="41.93427" lon="2.82524">
        <ele>91.35</ele>
        <time>2022-01-27T17:53:24.042Z</time>
      </trkpt>
      <trkpt lat="41.93427" lon="2.82524">
        <ele>91.35</ele>
        <time>2022-01-27T17:53:26.174Z</time>
      </trkpt>
      <trkpt lat="41.93425" lon="2.82536">
        <ele>91.82</ele>
        <time>2022-01-27T17:53:28.307Z</time>
      </trkpt>
      <trkpt lat="41.93425" lon="2.82536">
        <ele>91.82</ele>
        <time>2022-01-27T17:53:30.440Z</time>
      </trkpt>
      <trkpt lat="41.93416548037" lon="2.8253676836">
        <ele>92.32</ele>
        <time>2022-01-27T17:53:32.575Z</time>
      </trkpt>
      <trkpt lat="41.93416548037" lon="2.8253676836">
        <ele>92.32</ele>
        <time>2022-01-27T17:53:34.710Z</time>
      </trkpt>
      <trkpt lat="41.93414" lon="2.82537">
        <ele>92.47145369452</ele>
        <time>2022-01-27T17:53:36.845Z</time>
      </trkpt>
      <trkpt lat="41.93414" lon="2.82537">
        <ele>92.47145369452</ele>
        <time>2022-01-27T17:53:38.980Z</time>
      </trkpt>
      <trkpt lat="41.93405" lon="2.82531">
        <ele>93.12</ele>
        <time>2022-01-27T17:53:41.117Z</time>
      </trkpt>
      <trkpt lat="41.93405" lon="2.82531">
        <ele>93.12</ele>
        <time>2022-01-27T17:53:43.254Z</time>
      </trkpt>
      <trkpt lat="41.93404360272" lon="2.82530168354">
        <ele>93.12</ele>
        <time>2022-01-27T17:53:45.391Z</time>
      </trkpt>
      <trkpt lat="41.93404360272" lon="2.82530168354">
        <ele>93.12</ele>
        <time>2022-01-27T17:53:47.528Z</time>
      </trkpt>
      <trkpt lat="41.93395" lon="2.82518">
        <ele>93.99</ele>
        <time>2022-01-27T17:53:49.667Z</time>
      </trkpt>
      <trkpt lat="41.93395" lon="2.82518">
        <ele>93.99</ele>
        <time>2022-01-27T17:53:51.806Z</time>
      </trkpt>
      <trkpt lat="41.93394778172" lon="2.8251744543">
        <ele>93.99</ele>
        <time>2022-01-27T17:53:53.945Z</time>
      </trkpt>
      <trkpt lat="41.93394778172" lon="2.8251744543">
        <ele>93.99</ele>
        <time>2022-01-27T17:53:56.084Z</time>
      </trkpt>
      <trkpt lat="41.93390519195" lon="2.82506797989">
        <ele>94.67</ele>
        <time>2022-01-27T17:53:58.224Z</time>
      </trkpt>
      <trkpt lat="41.93390519195" lon="2.82506797989">
        <ele>94.67</ele>
        <time>2022-01-27T17:54:00.364Z</time>
      </trkpt>
      <trkpt lat="41.93389" lon="2.82503">
        <ele>94.92929109482</ele>
        <time>2022-01-27T17:54:02.505Z</time>
      </trkpt>
      <trkpt lat="41.93389" lon="2.82503">
        <ele>94.92929109482</ele>
        <time>2022-01-27T17:54:04.646Z</time>
      </trkpt>
      <trkpt lat="41.93381" lon="2.82499">
        <ele>95.61920094011</ele>
        <time>2022-01-27T17:54:06.788Z</time>
      </trkpt>
      <trkpt lat="41.93381" lon="2.82499">
        <ele>95.61920094011</ele>
        <time>2022-01-27T17:54:08.930Z</time>
      </trkpt>
      <trkpt lat="41.9337155427" lon="2.82505612011">
        <ele>96.48</ele>
        <time>2022-01-27T17:54:11.074Z</time>
      </trkpt>
      <trkpt lat="41.9337155427" lon="2.82505612011">
        <ele>96.48</ele>
        <time>2022-01-27T17:54:13.218Z</time>
      </trkpt>
      <trkpt lat="41.93363577759" lon="2.82511195569">
        <ele>97.23</ele>
        <time>2022-01-27T17:54:15.363Z</time>
      </trkpt>
      <trkpt lat="41.93363577759" lon="2.82511195569">
        <ele>97.23</ele>
        <time>2022-01-27T17:54:17.508Z</time>
      </trkpt>
      <trkpt lat="41.93361" lon="2.82513">
        <ele>97.49176665136</ele>
        <time>2022-01-27T17:54:19.654Z</time>
      </trkpt>
      <trkpt lat="41.93361" lon="2.82513">
        <ele>97.49176665136</ele>
        <time>2022-01-27T17:54:21.800Z</time>
      </trkpt>
      <trkpt lat="41.93356828764" lon="2.82518958909">
        <ele>98.04</ele>
        <time>2022-01-27T17:54:23.947Z</time>
      </trkpt>
      <trkpt lat="41.93356828764" lon="2.82518958909">
        <ele>98.04</ele>
        <time>2022-01-27T17:54:26.094Z</time>
      </trkpt>
      <trkpt lat="41.93354" lon="2.82523">
        <ele>98.44850970447</ele>
        <time>2022-01-27T17:54:28.241Z</time>
      </trkpt>
      <trkpt lat="41.93354" lon="2.82523">
        <ele>98.44850970447</ele>
        <time>2022-01-27T17:54:30.388Z</time>
      </trkpt>
      <trkpt lat="41.93350280294" lon="2.82527215667">
        <ele>98.93</ele>
        <time>2022-01-27T17:54:32.536Z</time>
      </trkpt>
      <trkpt lat="41.93350280294" lon="2.82527215667">
        <ele>98.93</ele>
        <time>2022-01-27T17:54:34.684Z</time>
      </trkpt>
      <trkpt lat="41.93341273247" lon="2.82537423653">
        <ele>99.42</ele>
        <time>2022-01-27T17:54:36.834Z</time>
      </trkpt>
      <trkpt lat="41.93341273247" lon="2.82537423653">
        <ele>99.42</ele>
        <time>2022-01-27T17:54:38.984Z</time>
      </trkpt>
      <trkpt lat="41.93339" lon="2.8254">
        <ele>99.87243407013</ele>
        <time>2022-01-27T17:54:41.135Z</time>
      </trkpt>
      <trkpt lat="41.93339" lon="2.8254">
        <ele>99.87243407013</ele>
        <time>2022-01-27T17:54:43.286Z</time>
      </trkpt>
      <trkpt lat="41.93333453749" lon="2.82539306719">
        <ele>100.72</ele>
        <time>2022-01-27T17:54:45.438Z</time>
      </trkpt>
      <trkpt lat="41.93333453749" lon="2.82539306719">
        <ele>100.72</ele>
        <time>2022-01-27T17:54:47.590Z</time>
      </trkpt>
      <trkpt lat="41.93329245092" lon="2.82538780636">
        <ele>101.4</ele>
        <time>2022-01-27T17:54:49.742Z</time>
      </trkpt>
      <trkpt lat="41.93329245092" lon="2.82538780636">
        <ele>101.4</ele>
        <time>2022-01-27T17:54:51.894Z</time>
      </trkpt>
      <trkpt lat="41.93323" lon="2.82538">
        <ele>102.46692699588</ele>
        <time>2022-01-27T17:54:54.047Z</time>
      </trkpt>
      <trkpt lat="41.93323" lon="2.82538">
        <ele>102.46692699588</ele>
        <time>2022-01-27T17:54:56.200Z</time>
      </trkpt>
      <trkpt lat="41.93324571904" lon="2.8251206359">
        <ele>105.76</ele>
        <time>2022-01-27T17:54:58.356Z</time>
      </trkpt>
      <trkpt lat="41.93324571904" lon="2.8251206359">
        <ele>105.76</ele>
        <time>2022-01-27T17:55:00.512Z</time>
      </trkpt>
      <trkpt lat="41.93325" lon="2.82505">
        <ele>106.6664548429</ele>
        <time>2022-01-27T17:55:02.669Z</time>
      </trkpt>
      <trkpt lat="41.93325" lon="2.82505">
        <ele>106.6664548429</ele>
        <time>2022-01-27T17:55:04.826Z</time>
      </trkpt>
      <trkpt lat="41.93329" lon="2.82498">
        <ele>107.79542741784</ele>
        <time>2022-01-27T17:55:06.984Z</time>
      </trkpt>
      <trkpt lat="41.93329" lon="2.82498">
        <ele>107.79542741784</ele>
        <time>2022-01-27T17:55:09.142Z</time>
      </trkpt>
      <trkpt lat="41.93338418672" lon="2.82495757459">
        <ele>109.44</ele>
        <time>2022-01-27T17:55:11.302Z</time>
      </trkpt>
      <trkpt lat="41.93338418672" lon="2.82495757459">
        <ele>109.44</ele>
        <time>2022-01-27T17:55:13.462Z</time>
      </trkpt>
      <trkpt lat="41.9335" lon="2.82493">
        <ele>111.29122225212</ele>
        <time>2022-01-27T17:55:15.624Z</time>
      </trkpt>
      <trkpt lat="41.9335" lon="2.82493">
        <ele>111.29122225212</ele>
        <time>2022-01-27T17:55:17.786Z</time>
      </trkpt>
      <trkpt lat="41.93350742779" lon="2.8249208245">
        <ele>111.45</ele>
        <time>2022-01-27T17:55:19.948Z</time>
      </trkpt>
      <trkpt lat="41.93350742779" lon="2.8249208245">
        <ele>111.45</ele>
        <time>2022-01-27T17:55:22.110Z</time>
      </trkpt>
      <trkpt lat="41.93357099727" lon="2.82484229749">
        <ele>112.69</ele>
        <time>2022-01-27T17:55:24.273Z</time>
      </trkpt>
      <trkpt lat="41.93357099727" lon="2.82484229749">
        <ele>112.69</ele>
        <time>2022-01-27T17:55:26.436Z</time>
      </trkpt>
      <trkpt lat="41.93360211983" lon="2.82480385198">
        <ele>112.9</ele>
        <time>2022-01-27T17:55:28.600Z</time>
      </trkpt>
      <trkpt lat="41.93360211983" lon="2.82480385198">
        <ele>112.9</ele>
        <time>2022-01-27T17:55:30.764Z</time>
      </trkpt>
      <trkpt lat="41.93362330965" lon="2.82477767631">
        <ele>113.0</ele>
        <time>2022-01-27T17:55:32.928Z</time>
      </trkpt>
      <trkpt lat="41.93362330965" lon="2.82477767631">
        <ele>113.0</ele>
        <time>2022-01-27T17:55:35.092Z</time>
      </trkpt>
      <trkpt lat="41.93363324239" lon="2.82476540647">
        <ele>113.06</ele>
        <time>2022-01-27T17:55:37.256Z</time>
      </trkpt>
      <trkpt lat="41.93363324239" lon="2.82476540647">
        <ele>113.06</ele>
        <time>2022-01-27T17:55:39.420Z</time>
      </trkpt>
      <trkpt lat="41.93367" lon="2.82472">
        <ele>113.16</ele>
        <time>2022-01-27T17:55:41.585Z</time>
      </trkpt>
      <trkpt lat="41.93367" lon="2.82472">
        <ele>113.16</ele>
        <time>2022-01-27T17:55:43.750Z</time>
      </trkpt>
      <trkpt lat="41.93369284489" lon="2.82468344817">
        <ele>113.17</ele>
        <time>2022-01-27T17:55:45.916Z</time>
      </trkpt>
      <trkpt lat="41.93369284489" lon="2.82468344817">
        <ele>113.17</ele>
        <time>2022-01-27T17:55:48.082Z</time>
      </trkpt>
      <trkpt lat="41.93372" lon="2.82464">
        <ele>113.09</ele>
        <time>2022-01-27T17:55:50.249Z</time>
      </trkpt>
      <trkpt lat="41.93372" lon="2.82464">
        <ele>113.09</ele>
        <time>2022-01-27T17:55:52.416Z</time>
      </trkpt>
      <trkpt lat="41.93372001603" lon="2.82463993189">
        <ele>113.09</ele>
        <time>2022-01-27T17:55:54.583Z</time>
      </trkpt>
      <trkpt lat="41.93372001603" lon="2.82463993189">
        <ele>113.09</ele>
        <time>2022-01-27T17:55:56.750Z</time>
      </trkpt>
      <trkpt lat="41.93373303384" lon="2.82458460616">
        <ele>112.97</ele>
        <time>2022-01-27T17:55:58.917Z</time>
      </trkpt>
      <trkpt lat="41.93373303384" lon="2.82458460616">
        <ele>112.97</ele>
        <time>2022-01-27T17:56:01.084Z</time>
      </trkpt>
      <trkpt lat="41.93376" lon="2.82447">
        <ele>112.69</ele>
        <time>2022-01-27T17:56:03.253Z</time>
      </trkpt>
      <trkpt lat="41.93376" lon="2.82447">
        <ele>112.69</ele>
        <time>2022-01-27T17:56:05.422Z</time>
      </trkpt>
      <trkpt lat="41.93376475287" lon="2.82441771847">
        <ele>112.58</ele>
        <time>2022-01-27T17:56:07.591Z</time>
      </trkpt>
      <trkpt lat="41.93376475287" lon="2.82441771847">
        <ele>112.58</ele>
        <time>2022-01-27T17:56:09.760Z</time>
      </trkpt>
      <trkpt lat="41.93376988002" lon="2.82436131975">
        <ele>112.5</ele>
        <time>2022-01-27T17:56:11.930Z</time>
      </trkpt>
      <trkpt lat="41.93376988002" lon="2.82436131975">
        <ele>112.5</ele>
        <time>2022-01-27T17:56:14.100Z</time>
      </trkpt>
      <trkpt lat="41.93377511627" lon="2.82430372106">
        <ele>112.48</ele>
        <time>2022-01-27T17:56:16.271Z</time>
      </trkpt>
      <trkpt lat="41.93377511627" lon="2.82430372106">
        <ele>112.48</ele>
        <time>2022-01-27T17:56:18.442Z</time>
      </trkpt>
      <trkpt lat="41.93378" lon="2.82425">
        <ele>112.53</ele>
        <time>2022-01-27T17:56:20.613Z</time>
      </trkpt>
      <trkpt lat="41.93378" lon="2.82425">
        <ele>112.53</ele>
        <time>2022-01-27T17:56:22.784Z</time>
      </trkpt>
      <trkpt lat="41.93378082058" lon="2.82424753825">
        <ele>112.53</ele>
        <time>2022-01-27T17:56:24.955Z</time>
      </trkpt>
      <trkpt lat="41.93378082058" lon="2.82424753825">
        <ele>112.53</ele>
        <time>2022-01-27T17:56:27.126Z</time>
      </trkpt>
      <trkpt lat="41.93379847201" lon="2.82419458398">
        <ele>112.63</ele>
        <time>2022-01-27T17:56:29.298Z</time>
      </trkpt>
      <trkpt lat="41.93379847201" lon="2.82419458398">
        <ele>112.63</ele>
        <time>2022-01-27T17:56:31.470Z</time>
      </trkpt>
      <trkpt lat="41.93381" lon="2.82416">
        <ele>112.73671791548</ele>
        <time>2022-01-27T17:56:33.642Z</time>
      </trkpt>
      <trkpt lat="41.93381" lon="2.82416">
        <ele>112.73671791548</ele>
        <time>2022-01-27T17:56:35.814Z</time>
      </trkpt>
      <trkpt lat="41.93379754481" lon="2.82416881444">
        <ele>112.79</ele>
        <time>2022-01-27T17:56:37.987Z</time>
      </trkpt>
      <trkpt lat="41.93379754481" lon="2.82416881444">
        <ele>112.79</ele>
        <time>2022-01-27T17:56:40.160Z</time>
      </trkpt>
      <trkpt lat="41.933721946" lon="2.82422231514">
        <ele>113.23</ele>
        <time>2022-01-27T17:56:42.334Z</time>
      </trkpt>
      <trkpt lat="41.933721946" lon="2.82422231514">
        <ele>113.23</ele>
        <time>2022-01-27T17:56:44.508Z</time>
      </trkpt>
      <trkpt lat="41.93364395985" lon="2.82427750534">
        <ele>112.97</ele>
        <time>2022-01-27T17:56:46.683Z</time>
      </trkpt>
      <trkpt lat="41.93364395985" lon="2.82427750534">
        <ele>112.97</ele>
        <time>2022-01-27T17:56:48.858Z</time>
      </trkpt>
      <trkpt lat="41.93344899449" lon="2.82441548082">
        <ele>112.24</ele>
        <time>2022-01-27T17:56:51.037Z</time>
      </trkpt>
      <trkpt lat="41.93344899449" lon="2.82441548082">
        <ele>112.24</ele>
        <time>2022-01-27T17:56:53.216Z</time>
      </trkpt>
      <trkpt lat="41.93325323336" lon="2.82455401947">
        <ele>111.68</ele>
        <time>2022-01-27T17:56:55.399Z</time>
      </trkpt>
      <trkpt lat="41.93325323336" lon="2.82455401947">
        <ele>111.68</ele>
        <time>2022-01-27T17:56:57.582Z</time>
      </trkpt>
      <trkpt lat="41.93316" lon="2.82462">
        <ele>111.36624905395</ele>
        <time>2022-01-27T17:56:59.766Z</time>
      </trkpt>
      <trkpt lat="41.93316" lon="2.82462">
        <ele>111.36624905395</ele>
        <time>2022-01-27T17:57:01.950Z</time>
      </trkpt>
      <trkpt lat="41.93301395311" lon="2.82470762814">
        <ele>110.89</ele>
        <time>2022-01-27T17:57:04.137Z</time>
      </trkpt>
      <trkpt lat="41.93301395311" lon="2.82470762814">
        <ele>110.89</ele>
        <time>2022-01-27T17:57:06.324Z</time>
      </trkpt>
      <trkpt lat="41.93285217137" lon="2.82480469718">
        <ele>110.47</ele>
        <time>2022-01-27T17:57:08.514Z</time>
      </trkpt>
      <trkpt lat="41.93285217137" lon="2.82480469718">
        <ele>110.47</ele>
        <time>2022-01-27T17:57:10.704Z</time>
      </trkpt>
      <trkpt lat="41.93277169111" lon="2.82485298533">
        <ele>110.23</ele>
        <time>2022-01-27T17:57:12.895Z</time>
      </trkpt>
      <trkpt lat="41.93277169111" lon="2.82485298533">
        <ele>110.23</ele>
        <time>2022-01-27T17:57:15.086Z</time>
      </trkpt>
      <trkpt lat="41.93269121085" lon="2.82490127349">
        <ele>109.95</ele>
        <time>2022-01-27T17:57:17.278Z</time>
      </trkpt>
      <trkpt lat="41.93269121085" lon="2.82490127349">
        <ele>109.95</ele>
        <time>2022-01-27T17:57:19.470Z</time>
      </trkpt>
      <trkpt lat="41.93265097072" lon="2.82492541757">
        <ele>109.79</ele>
        <time>2022-01-27T17:57:21.663Z</time>
      </trkpt>
      <trkpt lat="41.93265097072" lon="2.82492541757">
        <ele>109.79</ele>
        <time>2022-01-27T17:57:23.856Z</time>
      </trkpt>
      <trkpt lat="41.93256966924" lon="2.82497419846">
        <ele>109.41</ele>
        <time>2022-01-27T17:57:26.051Z</time>
      </trkpt>
      <trkpt lat="41.93256966924" lon="2.82497419846">
        <ele>109.41</ele>
        <time>2022-01-27T17:57:28.246Z</time>
      </trkpt>
      <trkpt lat="41.93256" lon="2.82498">
        <ele>109.34809474708</ele>
        <time>2022-01-27T17:57:30.441Z</time>
      </trkpt>
      <trkpt lat="41.93256" lon="2.82498">
        <ele>109.34809474708</ele>
        <time>2022-01-27T17:57:32.636Z</time>
      </trkpt>
      <trkpt lat="41.93240093786" lon="2.82503302071">
        <ele>108.39</ele>
        <time>2022-01-27T17:57:34.833Z</time>
      </trkpt>
      <trkpt lat="41.93240093786" lon="2.82503302071">
        <ele>108.39</ele>
        <time>2022-01-27T17:57:37.030Z</time>
      </trkpt>
      <trkpt lat="41.93227436961" lon="2.82507521013">
        <ele>107.65</ele>
        <time>2022-01-27T17:57:39.229Z</time>
      </trkpt>
      <trkpt lat="41.93227436961" lon="2.82507521013">
        <ele>107.65</ele>
        <time>2022-01-27T17:57:41.428Z</time>
      </trkpt>
      <trkpt lat="41.9322" lon="2.8251">
        <ele>107.23717611463</ele>
        <time>2022-01-27T17:57:43.629Z</time>
      </trkpt>
      <trkpt lat="41.9322" lon="2.8251">
        <ele>107.23717611463</ele>
        <time>2022-01-27T17:57:45.830Z</time>
      </trkpt>
      <trkpt lat="41.93219058762" lon="2.82509341134">
        <ele>107.18</ele>
        <time>2022-01-27T17:57:48.031Z</time>
      </trkpt>
      <trkpt lat="41.93219058762" lon="2.82509341134">
        <ele>107.18</ele>
        <time>2022-01-27T17:57:50.232Z</time>
      </trkpt>
      <trkpt lat="41.9321" lon="2.82503">
        <ele>106.6600919286</ele>
        <time>2022-01-27T17:57:52.435Z</time>
      </trkpt>
      <trkpt lat="41.9321" lon="2.82503">
        <ele>106.6600919286</ele>
        <time>2022-01-27T17:57:54.638Z</time>
      </trkpt>
      <trkpt lat="41.93192763054" lon="2.82506950134">
        <ele>105.77</ele>
        <time>2022-01-27T17:57:56.843Z</time>
      </trkpt>
      <trkpt lat="41.93192763054" lon="2.82506950134">
        <ele>105.77</ele>
        <time>2022-01-27T17:57:59.048Z</time>
      </trkpt>
      <trkpt lat="41.9317857856" lon="2.82510200747">
        <ele>105.16</ele>
        <time>2022-01-27T17:58:01.256Z</time>
      </trkpt>
      <trkpt lat="41.9317857856" lon="2.82510200747">
        <ele>105.16</ele>
        <time>2022-01-27T17:58:03.464Z</time>
      </trkpt>
      <trkpt lat="41.93169269986" lon="2.82512333962">
        <ele>106.51</ele>
        <time>2022-01-27T17:58:05.673Z</time>
      </trkpt>
      <trkpt lat="41.93169269986" lon="2.82512333962">
        <ele>106.51</ele>
        <time>2022-01-27T17:58:07.882Z</time>
      </trkpt>
      <trkpt lat="41.93162" lon="2.82514">
        <ele>107.26573121885</ele>
        <time>2022-01-27T17:58:10.092Z</time>
      </trkpt>
      <trkpt lat="41.93162" lon="2.82514">
        <ele>107.26573121885</ele>
        <time>2022-01-27T17:58:12.302Z</time>
      </trkpt>
      <trkpt lat="41.93160201872" lon="2.82514022477">
        <ele>107.45</ele>
        <time>2022-01-27T17:58:14.513Z</time>
      </trkpt>
      <trkpt lat="41.93160201872" lon="2.82514022477">
        <ele>107.45</ele>
        <time>2022-01-27T17:58:16.724Z</time>
      </trkpt>
      <trkpt lat="41.93151119108" lon="2.82514136011">
        <ele>108.89</ele>
        <time>2022-01-27T17:58:18.936Z</time>
      </trkpt>
      <trkpt lat="41.93151119108" lon="2.82514136011">
        <ele>108.89</ele>
        <time>2022-01-27T17:58:21.148Z</time>
      </trkpt>
      <trkpt lat="41.93130075875" lon="2.82514399052">
        <ele>112.08</ele>
        <time>2022-01-27T17:58:23.363Z</time>
      </trkpt>
      <trkpt lat="41.93130075875" lon="2.82514399052">
        <ele>112.08</ele>
        <time>2022-01-27T17:58:25.578Z</time>
      </trkpt>
      <trkpt lat="41.93118744903" lon="2.82514540689">
        <ele>114.02</ele>
        <time>2022-01-27T17:58:27.795Z</time>
      </trkpt>
      <trkpt lat="41.93118744903" lon="2.82514540689">
        <ele>114.02</ele>
        <time>2022-01-27T17:58:30.012Z</time>
      </trkpt>
      <trkpt lat="41.93109302427" lon="2.8251465872">
        <ele>114.08</ele>
        <time>2022-01-27T17:58:32.231Z</time>
      </trkpt>
      <trkpt lat="41.93109302427" lon="2.8251465872">
        <ele>114.08</ele>
        <time>2022-01-27T17:58:34.450Z</time>
      </trkpt>
      <trkpt lat="41.9309932038" lon="2.82514783495">
        <ele>113.78</ele>
        <time>2022-01-27T17:58:36.670Z</time>
      </trkpt>
      <trkpt lat="41.9309932038" lon="2.82514783495">
        <ele>113.78</ele>
        <time>2022-01-27T17:58:38.890Z</time>
      </trkpt>
      <trkpt lat="41.93089877903" lon="2.82514901526">
        <ele>113.67</ele>
        <time>2022-01-27T17:58:41.112Z</time>
      </trkpt>
      <trkpt lat="41.93089877903" lon="2.82514901526">
        <ele>113.67</ele>
        <time>2022-01-27T17:58:43.334Z</time>
      </trkpt>
      <trkpt lat="41.93082" lon="2.82515">
        <ele>113.68668609552</ele>
        <time>2022-01-27T17:58:45.557Z</time>
      </trkpt>
      <trkpt lat="41.93082" lon="2.82515">
        <ele>113.68668609552</ele>
        <time>2022-01-27T17:58:47.780Z</time>
      </trkpt>
      <trkpt lat="41.93080456829" lon="2.82514652787">
        <ele>113.69</ele>
        <time>2022-01-27T17:58:50.003Z</time>
      </trkpt>
      <trkpt lat="41.93080456829" lon="2.82514652787">
        <ele>113.69</ele>
        <time>2022-01-27T17:58:52.226Z</time>
      </trkpt>
      <trkpt lat="41.93070433934" lon="2.82512397635">
        <ele>113.74</ele>
        <time>2022-01-27T17:58:54.451Z</time>
      </trkpt>
      <trkpt lat="41.93070433934" lon="2.82512397635">
        <ele>113.74</ele>
        <time>2022-01-27T17:58:56.676Z</time>
      </trkpt>
      <trkpt lat="41.93061475417" lon="2.82510381969">
        <ele>112.51</ele>
        <time>2022-01-27T17:58:58.902Z</time>
      </trkpt>
      <trkpt lat="41.93061475417" lon="2.82510381969">
        <ele>112.51</ele>
        <time>2022-01-27T17:59:01.128Z</time>
      </trkpt>
      <trkpt lat="41.93049235067" lon="2.8250762789">
        <ele>110.56</ele>
        <time>2022-01-27T17:59:03.356Z</time>
      </trkpt>
      <trkpt lat="41.93049235067" lon="2.8250762789">
        <ele>110.56</ele>
        <time>2022-01-27T17:59:05.584Z</time>
      </trkpt>
      <trkpt lat="41.93042" lon="2.82506">
        <ele>110.17655362212</ele>
        <time>2022-01-27T17:59:07.814Z</time>
      </trkpt>
      <trkpt lat="41.93042" lon="2.82506">
        <ele>110.17655362212</ele>
        <time>2022-01-27T17:59:10.044Z</time>
      </trkpt>
      <trkpt lat="41.93038814207" lon="2.82505920355">
        <ele>110.01</ele>
        <time>2022-01-27T17:59:12.274Z</time>
      </trkpt>
      <trkpt lat="41.93038814207" lon="2.82505920355">
        <ele>110.01</ele>
        <time>2022-01-27T17:59:14.504Z</time>
      </trkpt>
      <trkpt lat="41.93029103205" lon="2.8250567758">
        <ele>109.57</ele>
        <time>2022-01-27T17:59:16.736Z</time>
      </trkpt>
      <trkpt lat="41.93029103205" lon="2.8250567758">
        <ele>109.57</ele>
        <time>2022-01-27T17:59:18.968Z</time>
      </trkpt>
      <trkpt lat="41.93017863619" lon="2.8250539659">
        <ele>110.08</ele>
        <time>2022-01-27T17:59:21.201Z</time>
      </trkpt>
      <trkpt lat="41.93017863619" lon="2.8250539659">
        <ele>110.08</ele>
        <time>2022-01-27T17:59:23.434Z</time>
      </trkpt>
      <trkpt lat="41.93008512284" lon="2.82505162807">
        <ele>108.78</ele>
        <time>2022-01-27T17:59:25.669Z</time>
      </trkpt>
      <trkpt lat="41.93008512284" lon="2.82505162807">
        <ele>108.78</ele>
        <time>2022-01-27T17:59:27.904Z</time>
      </trkpt>
      <trkpt lat="41.93002" lon="2.82505">
        <ele>107.85267957251</ele>
        <time>2022-01-27T17:59:30.140Z</time>
      </trkpt>
      <trkpt lat="41.93002" lon="2.82505">
        <ele>107.85267957251</ele>
        <time>2022-01-27T17:59:32.376Z</time>
      </trkpt>
      <trkpt lat="41.92999160691" lon="2.82506703586">
        <ele>107.41</ele>
        <time>2022-01-27T17:59:34.612Z</time>
      </trkpt>
      <trkpt lat="41.92999160691" lon="2.82506703586">
        <ele>107.41</ele>
        <time>2022-01-27T17:59:36.848Z</time>
      </trkpt>
      <trkpt lat="41.92997" lon="2.82508">
        <ele>107.18830792249</ele>
        <time>2022-01-27T17:59:39.085Z</time>
      </trkpt>
      <trkpt lat="41.92997" lon="2.82508">
        <ele>107.18830792249</ele>
        <time>2022-01-27T17:59:41.322Z</time>
      </trkpt>
      <trkpt lat="41.92992604346" lon="2.82515912177">
        <ele>106.5</ele>
        <time>2022-01-27T17:59:43.560Z</time>
      </trkpt>
      <trkpt lat="41.92992604346" lon="2.82515912177">
        <ele>106.5</ele>
        <time>2022-01-27T17:59:45.798Z</time>
      </trkpt>
      <trkpt lat="41.92992" lon="2.82517">
        <ele>106.33901902411</ele>
        <time>2022-01-27T17:59:48.036Z</time>
      </trkpt>
      <trkpt lat="41.92992" lon="2.82517">
        <ele>106.33901902411</ele>
        <time>2022-01-27T17:59:50.274Z</time>
      </trkpt>
      <trkpt lat="41.9298262451" lon="2.82520750196">
        <ele>104.78</ele>
        <time>2022-01-27T17:59:52.514Z</time>
      </trkpt>
      <trkpt lat="41.9298262451" lon="2.82520750196">
        <ele>104.78</ele>
        <time>2022-01-27T17:59:54.754Z</time>
      </trkpt>
      <trkpt lat="41.92977" lon="2.82523">
        <ele>104.36373620414</ele>
        <time>2022-01-27T17:59:56.995Z</time>
      </trkpt>
      <trkpt lat="41.92977" lon="2.82523">
        <ele>104.36373620414</ele>
        <time>2022-01-27T17:59:59.236Z</time>
      </trkpt>
      <trkpt lat="41.92973954267" lon="2.825275686">
        <ele>104.04</ele>
        <time>2022-01-27T18:00:01.477Z</time>
      </trkpt>
      <trkpt lat="41.92973954267" lon="2.825275686">
        <ele>104.04</ele>
        <time>2022-01-27T18:00:03.718Z</time>
      </trkpt>
      <trkpt lat="41.92969" lon="2.82535">
        <ele>103.13757164526</ele>
        <time>2022-01-27T18:00:05.961Z</time>
      </trkpt>
      <trkpt lat="41.92969" lon="2.82535">
        <ele>103.13757164526</ele>
        <time>2022-01-27T18:00:08.204Z</time>
      </trkpt>
      <trkpt lat="41.92968271524" lon="2.82530827822">
        <ele>102.75</ele>
        <time>2022-01-27T18:00:10.447Z</time>
      </trkpt>
      <trkpt lat="41.92968271524" lon="2.82530827822">
        <ele>102.75</ele>
        <time>2022-01-27T18:00:12.690Z</time>
      </trkpt>
      <trkpt lat="41.92965559181" lon="2.82515293493">
        <ele>101.41</ele>
        <time>2022-01-27T18:00:14.935Z</time>
      </trkpt>
      <trkpt lat="41.92965559181" lon="2.82515293493">
        <ele>101.41</ele>
        <time>2022-01-27T18:00:17.180Z</time>
      </trkpt>
      <trkpt lat="41.92963483828" lon="2.82503407379">
        <ele>100.64</ele>
        <time>2022-01-27T18:00:19.426Z</time>
      </trkpt>
      <trkpt lat="41.92963483828" lon="2.82503407379">
        <ele>100.64</ele>
        <time>2022-01-27T18:00:21.672Z</time>
      </trkpt>
      <trkpt lat="41.92960976965" lon="2.82489049893">
        <ele>99.5</ele>
        <time>2022-01-27T18:00:23.920Z</time>
      </trkpt>
      <trkpt lat="41.92960976965" lon="2.82489049893">
        <ele>99.5</ele>
        <time>2022-01-27T18:00:26.168Z</time>
      </trkpt>
      <trkpt lat="41.92958778324" lon="2.82476457673">
        <ele>99.19</ele>
        <time>2022-01-27T18:00:28.418Z</time>
      </trkpt>
      <trkpt lat="41.92958778324" lon="2.82476457673">
        <ele>99.19</ele>
        <time>2022-01-27T18:00:30.668Z</time>
      </trkpt>
      <trkpt lat="41.92956374202" lon="2.82462688609">
        <ele>99.73</ele>
        <time>2022-01-27T18:00:32.919Z</time>
      </trkpt>
      <trkpt lat="41.92956374202" lon="2.82462688609">
        <ele>99.73</ele>
        <time>2022-01-27T18:00:35.170Z</time>
      </trkpt>
      <trkpt lat="41.929542783" lon="2.8245068481">
        <ele>100.88</ele>
        <time>2022-01-27T18:00:37.423Z</time>
      </trkpt>
      <trkpt lat="41.929542783" lon="2.8245068481">
        <ele>100.88</ele>
        <time>2022-01-27T18:00:39.676Z</time>
      </trkpt>
      <trkpt lat="41.92951935822" lon="2.82437268799">
        <ele>100.98</ele>
        <time>2022-01-27T18:00:41.931Z</time>
      </trkpt>
      <trkpt lat="41.92951935822" lon="2.82437268799">
        <ele>100.98</ele>
        <time>2022-01-27T18:00:44.186Z</time>
      </trkpt>
      <trkpt lat="41.92949511152" lon="2.82423382051">
        <ele>100.74</ele>
        <time>2022-01-27T18:00:46.442Z</time>
      </trkpt>
      <trkpt lat="41.92949511152" lon="2.82423382051">
        <ele>100.74</ele>
        <time>2022-01-27T18:00:48.698Z</time>
      </trkpt>
      <trkpt lat="41.92946449492" lon="2.82405847089">
        <ele>99.69</ele>
        <time>2022-01-27T18:00:50.956Z</time>
      </trkpt>
      <trkpt lat="41.92946449492" lon="2.82405847089">
        <ele>99.69</ele>
        <time>2022-01-27T18:00:53.214Z</time>
      </trkpt>
      <trkpt lat="41.92943593312" lon="2.82389488971">
        <ele>98.43</ele>
        <time>2022-01-27T18:00:55.474Z</time>
      </trkpt>
      <trkpt lat="41.92943593312" lon="2.82389488971">
        <ele>98.43</ele>
        <time>2022-01-27T18:00:57.734Z</time>
      </trkpt>
      <trkpt lat="41.92941497411" lon="2.82377485171">
        <ele>97.89</ele>
        <time>2022-01-27T18:00:59.996Z</time>
      </trkpt>
      <trkpt lat="41.92941497411" lon="2.82377485171">
        <ele>97.89</ele>
        <time>2022-01-27T18:01:02.258Z</time>
      </trkpt>
      <trkpt lat="41.92938785068" lon="2.82361950843">
        <ele>98.19</ele>
        <time>2022-01-27T18:01:04.522Z</time>
      </trkpt>
      <trkpt lat="41.92938785068" lon="2.82361950843">
        <ele>98.19</ele>
        <time>2022-01-27T18:01:06.786Z</time>
      </trkpt>
      <trkpt lat="41.92936" lon="2.82346">
        <ele>98.7959401956</ele>
        <time>2022-01-27T18:01:09.052Z</time>
      </trkpt>
      <trkpt lat="41.92936" lon="2.82346">
        <ele>98.7959401956</ele>
        <time>2022-01-27T18:01:11.318Z</time>
      </trkpt>
      <trkpt lat="41.92932857808" lon="2.82321648014">
        <ele>99.71</ele>
        <time>2022-01-27T18:01:13.587Z</time>
      </trkpt>
      <trkpt lat="41.92932857808" lon="2.82321648014">
        <ele>99.71</ele>
        <time>2022-01-27T18:01:15.856Z</time>
      </trkpt>
      <trkpt lat="41.92932" lon="2.82315">
        <ele>100.10179328921</ele>
        <time>2022-01-27T18:01:18.126Z</time>
      </trkpt>
      <trkpt lat="41.92932" lon="2.82315">
        <ele>100.10179328921</ele>
        <time>2022-01-27T18:01:20.396Z</time>
      </trkpt>
      <trkpt lat="41.92931702019" lon="2.82309189371">
        <ele>100.44</ele>
        <time>2022-01-27T18:01:22.666Z</time>
      </trkpt>
      <trkpt lat="41.92931702019" lon="2.82309189371">
        <ele>100.44</ele>
        <time>2022-01-27T18:01:24.936Z</time>
      </trkpt>
      <trkpt lat="41.92930576463" lon="2.82287241022">
        <ele>100.2</ele>
        <time>2022-01-27T18:01:27.209Z</time>
      </trkpt>
      <trkpt lat="41.92930576463" lon="2.82287241022">
        <ele>100.2</ele>
        <time>2022-01-27T18:01:29.482Z</time>
      </trkpt>
      <trkpt lat="41.92930267244" lon="2.82281211256">
        <ele>96.78</ele>
        <time>2022-01-27T18:01:31.756Z</time>
      </trkpt>
      <trkpt lat="41.92930267244" lon="2.82281211256">
        <ele>96.78</ele>
        <time>2022-01-27T18:01:34.030Z</time>
      </trkpt>
      <trkpt lat="41.92929964209" lon="2.82275302085">
        <ele>96.81</ele>
        <time>2022-01-27T18:01:36.304Z</time>
      </trkpt>
      <trkpt lat="41.92929964209" lon="2.82275302085">
        <ele>96.81</ele>
        <time>2022-01-27T18:01:38.578Z</time>
      </trkpt>
      <trkpt lat="41.92929345772" lon="2.82263242553">
        <ele>96.91</ele>
        <time>2022-01-27T18:01:40.854Z</time>
      </trkpt>
      <trkpt lat="41.92929345772" lon="2.82263242553">
        <ele>96.91</ele>
        <time>2022-01-27T18:01:43.130Z</time>
      </trkpt>
      <trkpt lat="41.92929036553" lon="2.82257212787">
        <ele>96.91</ele>
        <time>2022-01-27T18:01:45.406Z</time>
      </trkpt>
      <trkpt lat="41.92929036553" lon="2.82257212787">
        <ele>96.91</ele>
        <time>2022-01-27T18:01:47.682Z</time>
      </trkpt>
      <trkpt lat="41.92928727334" lon="2.8225118302">
        <ele>96.82</ele>
        <time>2022-01-27T18:01:49.959Z</time>
      </trkpt>
      <trkpt lat="41.92928727334" lon="2.8225118302">
        <ele>96.82</ele>
        <time>2022-01-27T18:01:52.236Z</time>
      </trkpt>
      <trkpt lat="41.92928418116" lon="2.82245153254">
        <ele>96.62</ele>
        <time>2022-01-27T18:01:54.514Z</time>
      </trkpt>
      <trkpt lat="41.92928418116" lon="2.82245153254">
        <ele>96.62</ele>
        <time>2022-01-27T18:01:56.792Z</time>
      </trkpt>
      <trkpt lat="41.92928115081" lon="2.82239244084">
        <ele>96.3</ele>
        <time>2022-01-27T18:01:59.071Z</time>
      </trkpt>
      <trkpt lat="41.92928115081" lon="2.82239244084">
        <ele>96.3</ele>
        <time>2022-01-27T18:02:01.350Z</time>
      </trkpt>
      <trkpt lat="41.92928" lon="2.82237">
        <ele>96.15485464027</ele>
        <time>2022-01-27T18:02:03.629Z</time>
      </trkpt>
      <trkpt lat="41.92928" lon="2.82237">
        <ele>96.15485464027</ele>
        <time>2022-01-27T18:02:05.908Z</time>
      </trkpt>
      <trkpt lat="41.92928077413" lon="2.82233206762">
        <ele>95.91</ele>
        <time>2022-01-27T18:02:08.187Z</time>
      </trkpt>
      <trkpt lat="41.92928077413" lon="2.82233206762">
        <ele>95.91</ele>
        <time>2022-01-27T18:02:10.466Z</time>
      </trkpt>
      <trkpt lat="41.92928324017" lon="2.82221123163">
        <ele>95.03</ele>
        <time>2022-01-27T18:02:12.747Z</time>
      </trkpt>
      <trkpt lat="41.92928324017" lon="2.82221123163">
        <ele>95.03</ele>
        <time>2022-01-27T18:02:15.028Z</time>
      </trkpt>
      <trkpt lat="41.92928814759" lon="2.82197076799">
        <ele>93.16</ele>
        <time>2022-01-27T18:02:17.312Z</time>
      </trkpt>
      <trkpt lat="41.92928814759" lon="2.82197076799">
        <ele>93.16</ele>
        <time>2022-01-27T18:02:19.596Z</time>
      </trkpt>
      <trkpt lat="41.92929" lon="2.82188">
        <ele>92.51399653442</ele>
        <time>2022-01-27T18:02:21.881Z</time>
      </trkpt>
      <trkpt lat="41.92929" lon="2.82188">
        <ele>92.51399653442</ele>
        <time>2022-01-27T18:02:24.166Z</time>
      </trkpt>
      <trkpt lat="41.92928849942" lon="2.82184998839">
        <ele>92.3</ele>
        <time>2022-01-27T18:02:26.451Z</time>
      </trkpt>
      <trkpt lat="41.92928849942" lon="2.82184998839">
        <ele>92.3</ele>
        <time>2022-01-27T18:02:28.736Z</time>
      </trkpt>
      <trkpt lat="41.92928252926" lon="2.82173058511">
        <ele>91.51</ele>
        <time>2022-01-27T18:02:31.023Z</time>
      </trkpt>
      <trkpt lat="41.92928252926" lon="2.82173058511">
        <ele>91.51</ele>
        <time>2022-01-27T18:02:33.310Z</time>
      </trkpt>
      <trkpt lat="41.92927951402" lon="2.82167028043">
        <ele>91.15</ele>
        <time>2022-01-27T18:02:35.597Z</time>
      </trkpt>
      <trkpt lat="41.92927951402" lon="2.82167028043">
        <ele>91.15</ele>
        <time>2022-01-27T18:02:37.884Z</time>
      </trkpt>
      <trkpt lat="41.92927348355" lon="2.82154967107">
        <ele>90.51</ele>
        <time>2022-01-27T18:02:40.173Z</time>
      </trkpt>
      <trkpt lat="41.92927348355" lon="2.82154967107">
        <ele>90.51</ele>
        <time>2022-01-27T18:02:42.462Z</time>
      </trkpt>
      <trkpt lat="41.92927" lon="2.82148">
        <ele>90.17270927588</ele>
        <time>2022-01-27T18:02:44.752Z</time>
      </trkpt>
      <trkpt lat="41.92927" lon="2.82148">
        <ele>90.17270927588</ele>
        <time>2022-01-27T18:02:47.042Z</time>
      </trkpt>
      <trkpt lat="41.92924964971" lon="2.82137316098">
        <ele>89.64</ele>
        <time>2022-01-27T18:02:49.333Z</time>
      </trkpt>
      <trkpt lat="41.92924964971" lon="2.82137316098">
        <ele>89.64</ele>
        <time>2022-01-27T18:02:51.624Z</time>
      </trkpt>
      <trkpt lat="41.92923" lon="2.82127">
        <ele>89.1505928032</ele>
        <time>2022-01-27T18:02:53.916Z</time>
      </trkpt>
      <trkpt lat="41.92923" lon="2.82127">
        <ele>89.1505928032</ele>
        <time>2022-01-27T18:02:56.208Z</time>
      </trkpt>
      <trkpt lat="41.9292248292" lon="2.82125879661">
        <ele>89.09</ele>
        <time>2022-01-27T18:02:58.500Z</time>
      </trkpt>
      <trkpt lat="41.9292248292" lon="2.82125879661">
        <ele>89.09</ele>
        <time>2022-01-27T18:03:00.792Z</time>
      </trkpt>
      <trkpt lat="41.92917884213" lon="2.82115915796">
        <ele>88.92</ele>
        <time>2022-01-27T18:03:03.086Z</time>
      </trkpt>
      <trkpt lat="41.92917884213" lon="2.82115915796">
        <ele>88.92</ele>
        <time>2022-01-27T18:03:05.380Z</time>
      </trkpt>
      <trkpt lat="41.92917" lon="2.82114">
        <ele>88.89906564013</ele>
        <time>2022-01-27T18:03:07.674Z</time>
      </trkpt>
      <trkpt lat="41.92917" lon="2.82114">
        <ele>88.89906564013</ele>
        <time>2022-01-27T18:03:09.968Z</time>
      </trkpt>
      <trkpt lat="41.92911610824" lon="2.82107712628">
        <ele>88.81</ele>
        <time>2022-01-27T18:03:12.263Z</time>
      </trkpt>
      <trkpt lat="41.92911610824" lon="2.82107712628">
        <ele>88.81</ele>
        <time>2022-01-27T18:03:14.558Z</time>
      </trkpt>
      <trkpt lat="41.92908282888" lon="2.82103830036">
        <ele>88.79</ele>
        <time>2022-01-27T18:03:16.854Z</time>
      </trkpt>
      <trkpt lat="41.92908282888" lon="2.82103830036">
        <ele>88.79</ele>
        <time>2022-01-27T18:03:19.150Z</time>
      </trkpt>
      <trkpt lat="41.92905" lon="2.821">
        <ele>88.79996633716</ele>
        <time>2022-01-27T18:03:21.447Z</time>
      </trkpt>
      <trkpt lat="41.92905" lon="2.821">
        <ele>88.79996633716</ele>
        <time>2022-01-27T18:03:23.744Z</time>
      </trkpt>
      <trkpt lat="41.9290766582" lon="2.82095334814">
        <ele>88.81</ele>
        <time>2022-01-27T18:03:26.041Z</time>
      </trkpt>
      <trkpt lat="41.9290766582" lon="2.82095334814">
        <ele>88.81</ele>
        <time>2022-01-27T18:03:28.338Z</time>
      </trkpt>
      <trkpt lat="41.92913034355" lon="2.82085939879">
        <ele>88.87</ele>
        <time>2022-01-27T18:03:30.637Z</time>
      </trkpt>
      <trkpt lat="41.92913034355" lon="2.82085939879">
        <ele>88.87</ele>
        <time>2022-01-27T18:03:32.936Z</time>
      </trkpt>
      <trkpt lat="41.92917" lon="2.82079">
        <ele>88.9438683086</ele>
        <time>2022-01-27T18:03:35.236Z</time>
      </trkpt>
      <trkpt lat="41.92917" lon="2.82079">
        <ele>88.9438683086</ele>
        <time>2022-01-27T18:03:37.536Z</time>
      </trkpt>
      <trkpt lat="41.92917941686" lon="2.82076174943">
        <ele>88.97</ele>
        <time>2022-01-27T18:03:39.836Z</time>
      </trkpt>
      <trkpt lat="41.92917941686" lon="2.82076174943">
        <ele>88.97</ele>
        <time>2022-01-27T18:03:42.136Z</time>
      </trkpt>
      <trkpt lat="41.92921545301" lon="2.82065364096">
        <ele>89.1</ele>
        <time>2022-01-27T18:03:44.437Z</time>
      </trkpt>
      <trkpt lat="41.92921545301" lon="2.82065364096">
        <ele>89.1</ele>
        <time>2022-01-27T18:03:46.738Z</time>
      </trkpt>
      <trkpt lat="41.92922" lon="2.82064">
        <ele>89.11925772133</ele>
        <time>2022-01-27T18:03:49.040Z</time>
      </trkpt>
      <trkpt lat="41.92922" lon="2.82064">
        <ele>89.11925772133</ele>
        <time>2022-01-27T18:03:51.342Z</time>
      </trkpt>
      <trkpt lat="41.92922" lon="2.82044">
        <ele>89.37692812688</ele>
        <time>2022-01-27T18:03:53.646Z</time>
      </trkpt>
      <trkpt lat="41.92922" lon="2.82044">
        <ele>89.37692812688</ele>
        <time>2022-01-27T18:03:55.950Z</time>
      </trkpt>
      <trkpt lat="41.92920732419" lon="2.82036183249">
        <ele>89.48</ele>
        <time>2022-01-27T18:03:58.255Z</time>
      </trkpt>
      <trkpt lat="41.92920732419" lon="2.82036183249">
        <ele>89.48</ele>
        <time>2022-01-27T18:04:00.560Z</time>
      </trkpt>
      <trkpt lat="41.92918855457" lon="2.82024608649">
        <ele>89.58</ele>
        <time>2022-01-27T18:04:02.866Z</time>
      </trkpt>
      <trkpt lat="41.92918855457" lon="2.82024608649">
        <ele>89.58</ele>
        <time>2022-01-27T18:04:05.172Z</time>
      </trkpt>
      <trkpt lat="41.92916997647" lon="2.82013152157">
        <ele>89.61</ele>
        <time>2022-01-27T18:04:07.480Z</time>
      </trkpt>
      <trkpt lat="41.92916997647" lon="2.82013152157">
        <ele>89.61</ele>
        <time>2022-01-27T18:04:09.788Z</time>
      </trkpt>
      <trkpt lat="41.92916" lon="2.82007">
        <ele>89.61</ele>
        <time>2022-01-27T18:04:12.097Z</time>
      </trkpt>
      <trkpt lat="41.92916" lon="2.82007">
        <ele>89.61</ele>
        <time>2022-01-27T18:04:14.406Z</time>
      </trkpt>
      <trkpt lat="41.92915540395" lon="2.82001484736">
        <ele>89.61</ele>
        <time>2022-01-27T18:04:16.715Z</time>
      </trkpt>
      <trkpt lat="41.92915540395" lon="2.82001484736">
        <ele>89.61</ele>
        <time>2022-01-27T18:04:19.024Z</time>
      </trkpt>
      <trkpt lat="41.92914" lon="2.81983">
        <ele>89.570545422</ele>
        <time>2022-01-27T18:04:21.335Z</time>
      </trkpt>
      <trkpt lat="41.92914" lon="2.81983">
        <ele>89.570545422</ele>
        <time>2022-01-27T18:04:23.646Z</time>
      </trkpt>
      <trkpt lat="41.92914483224" lon="2.81978071112">
        <ele>89.56</ele>
        <time>2022-01-27T18:04:25.958Z</time>
      </trkpt>
      <trkpt lat="41.92914483224" lon="2.81978071112">
        <ele>89.56</ele>
        <time>2022-01-27T18:04:28.270Z</time>
      </trkpt>
      <trkpt lat="41.92916786131" lon="2.81954581469">
        <ele>89.48</ele>
        <time>2022-01-27T18:04:30.585Z</time>
      </trkpt>
      <trkpt lat="41.92916786131" lon="2.81954581469">
        <ele>89.48</ele>
        <time>2022-01-27T18:04:32.900Z</time>
      </trkpt>
      <trkpt lat="41.92917937584" lon="2.81942836647">
        <ele>89.48</ele>
        <time>2022-01-27T18:04:35.216Z</time>
      </trkpt>
      <trkpt lat="41.92917937584" lon="2.81942836647">
        <ele>89.48</ele>
        <time>2022-01-27T18:04:37.532Z</time>
      </trkpt>
      <trkpt lat="41.92919" lon="2.81932">
        <ele>89.53</ele>
        <time>2022-01-27T18:04:39.850Z</time>
      </trkpt>
      <trkpt lat="41.92919" lon="2.81932">
        <ele>89.53</ele>
        <time>2022-01-27T18:04:42.168Z</time>
      </trkpt>
      <trkpt lat="41.92919140439" lon="2.81931227586">
        <ele>89.53</ele>
        <time>2022-01-27T18:04:44.486Z</time>
      </trkpt>
      <trkpt lat="41.92919140439" lon="2.81931227586">
        <ele>89.53</ele>
        <time>2022-01-27T18:04:46.804Z</time>
      </trkpt>
      <trkpt lat="41.92923325057" lon="2.81908212186">
        <ele>89.77</ele>
        <time>2022-01-27T18:04:49.124Z</time>
      </trkpt>
      <trkpt lat="41.92923325057" lon="2.81908212186">
        <ele>89.77</ele>
        <time>2022-01-27T18:04:51.444Z</time>
      </trkpt>
      <trkpt lat="41.92925" lon="2.81899">
        <ele>89.64575583273</ele>
        <time>2022-01-27T18:04:53.766Z</time>
      </trkpt>
      <trkpt lat="41.92925" lon="2.81899">
        <ele>89.64575583273</ele>
        <time>2022-01-27T18:04:56.088Z</time>
      </trkpt>
      <trkpt lat="41.9293668911" lon="2.81857958237">
        <ele>89.07</ele>
        <time>2022-01-27T18:04:58.415Z</time>
      </trkpt>
      <trkpt lat="41.9293668911" lon="2.81857958237">
        <ele>89.07</ele>
        <time>2022-01-27T18:05:00.742Z</time>
      </trkpt>
      <trkpt lat="41.9293829675" lon="2.81852313634">
        <ele>89.02</ele>
        <time>2022-01-27T18:05:03.070Z</time>
      </trkpt>
      <trkpt lat="41.9293829675" lon="2.81852313634">
        <ele>89.02</ele>
        <time>2022-01-27T18:05:05.398Z</time>
      </trkpt>
      <trkpt lat="41.92939872237" lon="2.81846781923">
        <ele>89.0</ele>
        <time>2022-01-27T18:05:07.726Z</time>
      </trkpt>
      <trkpt lat="41.92939872237" lon="2.81846781923">
        <ele>89.0</ele>
        <time>2022-01-27T18:05:10.054Z</time>
      </trkpt>
      <trkpt lat="41.92941447725" lon="2.81841250211">
        <ele>89.01</ele>
        <time>2022-01-27T18:05:12.383Z</time>
      </trkpt>
      <trkpt lat="41.92941447725" lon="2.81841250211">
        <ele>89.01</ele>
        <time>2022-01-27T18:05:14.712Z</time>
      </trkpt>
      <trkpt lat="41.92944598699" lon="2.81830186789">
        <ele>89.15</ele>
        <time>2022-01-27T18:05:17.042Z</time>
      </trkpt>
      <trkpt lat="41.92944598699" lon="2.81830186789">
        <ele>89.15</ele>
        <time>2022-01-27T18:05:19.372Z</time>
      </trkpt>
      <trkpt lat="41.9294620634" lon="2.81824542185">
        <ele>89.26</ele>
        <time>2022-01-27T18:05:21.703Z</time>
      </trkpt>
      <trkpt lat="41.9294620634" lon="2.81824542185">
        <ele>89.26</ele>
        <time>2022-01-27T18:05:24.034Z</time>
      </trkpt>
      <trkpt lat="41.92949357314" lon="2.81813478763">
        <ele>89.53</ele>
        <time>2022-01-27T18:05:26.367Z</time>
      </trkpt>
      <trkpt lat="41.92949357314" lon="2.81813478763">
        <ele>89.53</ele>
        <time>2022-01-27T18:05:28.700Z</time>
      </trkpt>
      <trkpt lat="41.92952508289" lon="2.8180241534">
        <ele>89.86</ele>
        <time>2022-01-27T18:05:31.034Z</time>
      </trkpt>
      <trkpt lat="41.92952508289" lon="2.8180241534">
        <ele>89.86</ele>
        <time>2022-01-27T18:05:33.368Z</time>
      </trkpt>
      <trkpt lat="41.92957266904" lon="2.81785707314">
        <ele>90.39</ele>
        <time>2022-01-27T18:05:35.704Z</time>
      </trkpt>
      <trkpt lat="41.92957266904" lon="2.81785707314">
        <ele>90.39</ele>
        <time>2022-01-27T18:05:38.040Z</time>
      </trkpt>
      <trkpt lat="41.92958842392" lon="2.81780175603">
        <ele>90.54</ele>
        <time>2022-01-27T18:05:40.377Z</time>
      </trkpt>
      <trkpt lat="41.92958842392" lon="2.81780175603">
        <ele>90.54</ele>
        <time>2022-01-27T18:05:42.714Z</time>
      </trkpt>
      <trkpt lat="41.92960417879" lon="2.81774643891">
        <ele>90.66</ele>
        <time>2022-01-27T18:05:45.052Z</time>
      </trkpt>
      <trkpt lat="41.92960417879" lon="2.81774643891">
        <ele>90.66</ele>
        <time>2022-01-27T18:05:47.390Z</time>
      </trkpt>
      <trkpt lat="41.9297" lon="2.81741">
        <ele>91.11049263216</ele>
        <time>2022-01-27T18:05:49.732Z</time>
      </trkpt>
      <trkpt lat="41.9297" lon="2.81741">
        <ele>91.11049263216</ele>
        <time>2022-01-27T18:05:52.074Z</time>
      </trkpt>
      <trkpt lat="41.92970550884" lon="2.81735491159">
        <ele>91.18</ele>
        <time>2022-01-27T18:05:54.416Z</time>
      </trkpt>
      <trkpt lat="41.92970550884" lon="2.81735491159">
        <ele>91.18</ele>
        <time>2022-01-27T18:05:56.758Z</time>
      </trkpt>
      <trkpt lat="41.92971" lon="2.81731">
        <ele>91.24079021937</ele>
        <time>2022-01-27T18:05:59.101Z</time>
      </trkpt>
      <trkpt lat="41.92971" lon="2.81731">
        <ele>91.24079021937</ele>
        <time>2022-01-27T18:06:01.444Z</time>
      </trkpt>
      <trkpt lat="41.92947801305" lon="2.81733046944">
        <ele>91.66</ele>
        <time>2022-01-27T18:06:03.791Z</time>
      </trkpt>
      <trkpt lat="41.92947801305" lon="2.81733046944">
        <ele>91.66</ele>
        <time>2022-01-27T18:06:06.138Z</time>
      </trkpt>
      <trkpt lat="41.92937" lon="2.81734">
        <ele>91.78281981977</ele>
        <time>2022-01-27T18:06:08.486Z</time>
      </trkpt>
      <trkpt lat="41.92937" lon="2.81734">
        <ele>91.78281981977</ele>
        <time>2022-01-27T18:06:10.834Z</time>
      </trkpt>
      <trkpt lat="41.92925826096" lon="2.81732811287">
        <ele>91.91</ele>
        <time>2022-01-27T18:06:13.184Z</time>
      </trkpt>
      <trkpt lat="41.92925826096" lon="2.81732811287">
        <ele>91.91</ele>
        <time>2022-01-27T18:06:15.534Z</time>
      </trkpt>
      <trkpt lat="41.9291695056" lon="2.81731867081">
        <ele>92.05</ele>
        <time>2022-01-27T18:06:17.886Z</time>
      </trkpt>
      <trkpt lat="41.9291695056" lon="2.81731867081">
        <ele>92.05</ele>
        <time>2022-01-27T18:06:20.238Z</time>
      </trkpt>
      <trkpt lat="41.92912557618" lon="2.81731399747">
        <ele>92.14</ele>
        <time>2022-01-27T18:06:22.590Z</time>
      </trkpt>
      <trkpt lat="41.92912557618" lon="2.81731399747">
        <ele>92.14</ele>
        <time>2022-01-27T18:06:24.942Z</time>
      </trkpt>
      <trkpt lat="41.92903771734" lon="2.81730465078">
        <ele>92.36</ele>
        <time>2022-01-27T18:06:27.296Z</time>
      </trkpt>
      <trkpt lat="41.92903771734" lon="2.81730465078">
        <ele>92.36</ele>
        <time>2022-01-27T18:06:29.650Z</time>
      </trkpt>
      <trkpt lat="41.92894896197" lon="2.81729520872">
        <ele>92.63</ele>
        <time>2022-01-27T18:06:32.005Z</time>
      </trkpt>
      <trkpt lat="41.92894896197" lon="2.81729520872">
        <ele>92.63</ele>
        <time>2022-01-27T18:06:34.360Z</time>
      </trkpt>
      <trkpt lat="41.9289" lon="2.81729">
        <ele>92.79718399081</ele>
        <time>2022-01-27T18:06:36.716Z</time>
      </trkpt>
      <trkpt lat="41.9289" lon="2.81729">
        <ele>92.79718399081</ele>
        <time>2022-01-27T18:06:39.072Z</time>
      </trkpt>
      <trkpt lat="41.92886134284" lon="2.81728287894">
        <ele>92.93</ele>
        <time>2022-01-27T18:06:41.429Z</time>
      </trkpt>
      <trkpt lat="41.92886134284" lon="2.81728287894">
        <ele>92.93</ele>
        <time>2022-01-27T18:06:43.786Z</time>
      </trkpt>
      <trkpt lat="41.92877402545" lon="2.81726679416">
        <ele>93.28</ele>
        <time>2022-01-27T18:06:46.144Z</time>
      </trkpt>
      <trkpt lat="41.92877402545" lon="2.81726679416">
        <ele>93.28</ele>
        <time>2022-01-27T18:06:48.502Z</time>
      </trkpt>
      <trkpt lat="41.928695618" lon="2.81725235068">
        <ele>93.34</ele>
        <time>2022-01-27T18:06:50.861Z</time>
      </trkpt>
      <trkpt lat="41.928695618" lon="2.81725235068">
        <ele>93.34</ele>
        <time>2022-01-27T18:06:53.220Z</time>
      </trkpt>
      <trkpt lat="41.92865641427" lon="2.81724512894">
        <ele>93.33</ele>
        <time>2022-01-27T18:06:55.580Z</time>
      </trkpt>
      <trkpt lat="41.92865641427" lon="2.81724512894">
        <ele>93.33</ele>
        <time>2022-01-27T18:06:57.940Z</time>
      </trkpt>
      <trkpt lat="41.92857800681" lon="2.81723068547">
        <ele>93.28</ele>
        <time>2022-01-27T18:07:00.301Z</time>
      </trkpt>
      <trkpt lat="41.92857800681" lon="2.81723068547">
        <ele>93.28</ele>
        <time>2022-01-27T18:07:02.662Z</time>
      </trkpt>
      <trkpt lat="41.92849959936" lon="2.81721624199">
        <ele>93.2</ele>
        <time>2022-01-27T18:07:05.024Z</time>
      </trkpt>
      <trkpt lat="41.92849959936" lon="2.81721624199">
        <ele>93.2</ele>
        <time>2022-01-27T18:07:07.386Z</time>
      </trkpt>
      <trkpt lat="41.92822517327" lon="2.81716568981">
        <ele>93.2</ele>
        <time>2022-01-27T18:07:09.753Z</time>
      </trkpt>
      <trkpt lat="41.92822517327" lon="2.81716568981">
        <ele>93.2</ele>
        <time>2022-01-27T18:07:12.120Z</time>
      </trkpt>
      <trkpt lat="41.92814" lon="2.81715">
        <ele>92.56110835454</ele>
        <time>2022-01-27T18:07:14.488Z</time>
      </trkpt>
      <trkpt lat="41.92814" lon="2.81715">
        <ele>92.56110835454</ele>
        <time>2022-01-27T18:07:16.856Z</time>
      </trkpt>
      <trkpt lat="41.92804704655" lon="2.81714623162">
        <ele>91.87</ele>
        <time>2022-01-27T18:07:19.226Z</time>
      </trkpt>
      <trkpt lat="41.92804704655" lon="2.81714623162">
        <ele>91.87</ele>
        <time>2022-01-27T18:07:21.596Z</time>
      </trkpt>
      <trkpt lat="41.92791310843" lon="2.81714080169">
        <ele>91.01</ele>
        <time>2022-01-27T18:07:23.968Z</time>
      </trkpt>
      <trkpt lat="41.92791310843" lon="2.81714080169">
        <ele>91.01</ele>
        <time>2022-01-27T18:07:26.340Z</time>
      </trkpt>
      <trkpt lat="41.92782321707" lon="2.81713715745">
        <ele>90.52</ele>
        <time>2022-01-27T18:07:28.713Z</time>
      </trkpt>
      <trkpt lat="41.92782321707" lon="2.81713715745">
        <ele>90.52</ele>
        <time>2022-01-27T18:07:31.086Z</time>
      </trkpt>
      <trkpt lat="41.92755444191" lon="2.81712626116">
        <ele>89.2</ele>
        <time>2022-01-27T18:07:33.464Z</time>
      </trkpt>
      <trkpt lat="41.92755444191" lon="2.81712626116">
        <ele>89.2</ele>
        <time>2022-01-27T18:07:35.842Z</time>
      </trkpt>
      <trkpt lat="41.92751039514" lon="2.81712447548">
        <ele>89.01</ele>
        <time>2022-01-27T18:07:38.220Z</time>
      </trkpt>
      <trkpt lat="41.92751039514" lon="2.81712447548">
        <ele>89.01</ele>
        <time>2022-01-27T18:07:40.598Z</time>
      </trkpt>
      <trkpt lat="41.92742050379" lon="2.81712083123">
        <ele>88.7</ele>
        <time>2022-01-27T18:07:42.978Z</time>
      </trkpt>
      <trkpt lat="41.92742050379" lon="2.81712083123">
        <ele>88.7</ele>
        <time>2022-01-27T18:07:45.358Z</time>
      </trkpt>
      <trkpt lat="41.9274" lon="2.81712">
        <ele>88.64297620052</ele>
        <time>2022-01-27T18:07:47.738Z</time>
      </trkpt>
      <trkpt lat="41.9274" lon="2.81712">
        <ele>88.64297620052</ele>
        <time>2022-01-27T18:07:50.118Z</time>
      </trkpt>
      <trkpt lat="41.92733067869" lon="2.81712495152">
        <ele>88.45</ele>
        <time>2022-01-27T18:07:52.499Z</time>
      </trkpt>
      <trkpt lat="41.92733067869" lon="2.81712495152">
        <ele>88.45</ele>
        <time>2022-01-27T18:07:54.880Z</time>
      </trkpt>
      <trkpt lat="41.92719686847" lon="2.81713450939">
        <ele>88.14</ele>
        <time>2022-01-27T18:07:57.263Z</time>
      </trkpt>
      <trkpt lat="41.92719686847" lon="2.81713450939">
        <ele>88.14</ele>
        <time>2022-01-27T18:07:59.646Z</time>
      </trkpt>
      <trkpt lat="41.9270181555" lon="2.81714727461">
        <ele>87.82</ele>
        <time>2022-01-27T18:08:02.032Z</time>
      </trkpt>
      <trkpt lat="41.9270181555" lon="2.81714727461">
        <ele>87.82</ele>
        <time>2022-01-27T18:08:04.418Z</time>
      </trkpt>
      <trkpt lat="41.92698" lon="2.81715">
        <ele>87.77392996365</ele>
        <time>2022-01-27T18:08:06.805Z</time>
      </trkpt>
      <trkpt lat="41.92698" lon="2.81715">
        <ele>87.77392996365</ele>
        <time>2022-01-27T18:08:09.192Z</time>
      </trkpt>
      <trkpt lat="41.92674" lon="2.81712">
        <ele>87.48330675739</ele>
        <time>2022-01-27T18:08:11.583Z</time>
      </trkpt>
      <trkpt lat="41.92674" lon="2.81712">
        <ele>87.48330675739</ele>
        <time>2022-01-27T18:08:13.974Z</time>
      </trkpt>
      <trkpt lat="41.9266" lon="2.81708">
        <ele>87.31073329866</ele>
        <time>2022-01-27T18:08:16.367Z</time>
      </trkpt>
      <trkpt lat="41.9266" lon="2.81708">
        <ele>87.31073329866</ele>
        <time>2022-01-27T18:08:18.760Z</time>
      </trkpt>
      <trkpt lat="41.92657954973" lon="2.81705954973">
        <ele>87.28</ele>
        <time>2022-01-27T18:08:21.153Z</time>
      </trkpt>
      <trkpt lat="41.92657954973" lon="2.81705954973">
        <ele>87.28</ele>
        <time>2022-01-27T18:08:23.546Z</time>
      </trkpt>
      <trkpt lat="41.92654" lon="2.81702">
        <ele>87.24711177024</ele>
        <time>2022-01-27T18:08:25.940Z</time>
      </trkpt>
      <trkpt lat="41.92654" lon="2.81702">
        <ele>87.24711177024</ele>
        <time>2022-01-27T18:08:28.334Z</time>
      </trkpt>
      <trkpt lat="41.92651568638" lon="2.81697623549">
        <ele>87.22</ele>
        <time>2022-01-27T18:08:30.729Z</time>
      </trkpt>
      <trkpt lat="41.92651568638" lon="2.81697623549">
        <ele>87.22</ele>
        <time>2022-01-27T18:08:33.124Z</time>
      </trkpt>
      <trkpt lat="41.92646187887" lon="2.81687938196">
        <ele>87.2</ele>
        <time>2022-01-27T18:08:35.520Z</time>
      </trkpt>
      <trkpt lat="41.92646187887" lon="2.81687938196">
        <ele>87.2</ele>
        <time>2022-01-27T18:08:37.916Z</time>
      </trkpt>
      <trkpt lat="41.92640860943" lon="2.81678349697">
        <ele>87.23</ele>
        <time>2022-01-27T18:08:40.314Z</time>
      </trkpt>
      <trkpt lat="41.92640860943" lon="2.81678349697">
        <ele>87.23</ele>
        <time>2022-01-27T18:08:42.712Z</time>
      </trkpt>
      <trkpt lat="41.92629" lon="2.81657">
        <ele>87.37164358908</ele>
        <time>2022-01-27T18:08:45.113Z</time>
      </trkpt>
      <trkpt lat="41.92629" lon="2.81657">
        <ele>87.37164358908</ele>
        <time>2022-01-27T18:08:47.514Z</time>
      </trkpt>
      <trkpt lat="41.92628022449" lon="2.81653806666">
        <ele>87.39</ele>
        <time>2022-01-27T18:08:49.915Z</time>
      </trkpt>
      <trkpt lat="41.92628022449" lon="2.81653806666">
        <ele>87.39</ele>
        <time>2022-01-27T18:08:52.316Z</time>
      </trkpt>
      <trkpt lat="41.92622889539" lon="2.81637039159">
        <ele>87.45</ele>
        <time>2022-01-27T18:08:54.719Z</time>
      </trkpt>
      <trkpt lat="41.92622889539" lon="2.81637039159">
        <ele>87.45</ele>
        <time>2022-01-27T18:08:57.122Z</time>
      </trkpt>
      <trkpt lat="41.92614" lon="2.81608">
        <ele>87.46737663238</ele>
        <time>2022-01-27T18:08:59.529Z</time>
      </trkpt>
      <trkpt lat="41.92614" lon="2.81608">
        <ele>87.46737663238</ele>
        <time>2022-01-27T18:09:01.936Z</time>
      </trkpt>
      <trkpt lat="41.92613334913" lon="2.81603344392">
        <ele>87.47</ele>
        <time>2022-01-27T18:09:04.344Z</time>
      </trkpt>
      <trkpt lat="41.92613334913" lon="2.81603344392">
        <ele>87.47</ele>
        <time>2022-01-27T18:09:06.752Z</time>
      </trkpt>
      <trkpt lat="41.9260828139" lon="2.81567969728">
        <ele>87.54</ele>
        <time>2022-01-27T18:09:09.164Z</time>
      </trkpt>
      <trkpt lat="41.9260828139" lon="2.81567969728">
        <ele>87.54</ele>
        <time>2022-01-27T18:09:11.576Z</time>
      </trkpt>
      <trkpt lat="41.92606585576" lon="2.81556099035">
        <ele>87.62</ele>
        <time>2022-01-27T18:09:13.990Z</time>
      </trkpt>
      <trkpt lat="41.92606585576" lon="2.81556099035">
        <ele>87.62</ele>
        <time>2022-01-27T18:09:16.404Z</time>
      </trkpt>
      <trkpt lat="41.92603210908" lon="2.81532476357">
        <ele>87.86</ele>
        <time>2022-01-27T18:09:18.820Z</time>
      </trkpt>
      <trkpt lat="41.92603210908" lon="2.81532476357">
        <ele>87.86</ele>
        <time>2022-01-27T18:09:21.236Z</time>
      </trkpt>
      <trkpt lat="41.92601515095" lon="2.81520605664">
        <ele>87.94</ele>
        <time>2022-01-27T18:09:23.654Z</time>
      </trkpt>
      <trkpt lat="41.92601515095" lon="2.81520605664">
        <ele>87.94</ele>
        <time>2022-01-27T18:09:26.072Z</time>
      </trkpt>
      <trkpt lat="41.926" lon="2.8151">
        <ele>87.96680297886</ele>
        <time>2022-01-27T18:09:28.491Z</time>
      </trkpt>
      <trkpt lat="41.926" lon="2.8151">
        <ele>87.96680297886</ele>
        <time>2022-01-27T18:09:30.910Z</time>
      </trkpt>
      <trkpt lat="41.92599916312" lon="2.81508716785">
        <ele>87.97</ele>
        <time>2022-01-27T18:09:33.329Z</time>
      </trkpt>
      <trkpt lat="41.92599916312" lon="2.81508716785">
        <ele>87.97</ele>
        <time>2022-01-27T18:09:35.748Z</time>
      </trkpt>
      <trkpt lat="41.9259913886" lon="2.81496795851">
        <ele>87.94</ele>
        <time>2022-01-27T18:09:38.169Z</time>
      </trkpt>
      <trkpt lat="41.9259913886" lon="2.81496795851">
        <ele>87.94</ele>
        <time>2022-01-27T18:09:40.590Z</time>
      </trkpt>
      <trkpt lat="41.92597199156" lon="2.81467053723">
        <ele>87.47</ele>
        <time>2022-01-27T18:09:43.014Z</time>
      </trkpt>
      <trkpt lat="41.92597199156" lon="2.81467053723">
        <ele>87.47</ele>
        <time>2022-01-27T18:09:45.438Z</time>
      </trkpt>
      <trkpt lat="41.92597" lon="2.81464">
        <ele>87.42645198829</ele>
        <time>2022-01-27T18:09:47.863Z</time>
      </trkpt>
      <trkpt lat="41.92597" lon="2.81464">
        <ele>87.42645198829</ele>
        <time>2022-01-27T18:09:50.288Z</time>
      </trkpt>
      <trkpt lat="41.92597578296" lon="2.81472867211">
        <ele>87.3</ele>
        <time>2022-01-27T18:09:52.714Z</time>
      </trkpt>
      <trkpt lat="41.92597578296" lon="2.81472867211">
        <ele>87.3</ele>
        <time>2022-01-27T18:09:55.140Z</time>
      </trkpt>
      <trkpt lat="41.92598740548" lon="2.81490688405">
        <ele>87.1</ele>
        <time>2022-01-27T18:09:57.568Z</time>
      </trkpt>
      <trkpt lat="41.92598740548" lon="2.81490688405">
        <ele>87.1</ele>
        <time>2022-01-27T18:09:59.996Z</time>
      </trkpt>
      <trkpt lat="41.92599518" lon="2.81502609339">
        <ele>87.0</ele>
        <time>2022-01-27T18:10:02.425Z</time>
      </trkpt>
      <trkpt lat="41.92599518" lon="2.81502609339">
        <ele>87.0</ele>
        <time>2022-01-27T18:10:04.854Z</time>
      </trkpt>
      <trkpt lat="41.926" lon="2.8151">
        <ele>86.96024138459</ele>
        <time>2022-01-27T18:10:07.284Z</time>
      </trkpt>
      <trkpt lat="41.926" lon="2.8151">
        <ele>86.96024138459</ele>
        <time>2022-01-27T18:10:09.714Z</time>
      </trkpt>
      <trkpt lat="41.92603147813" lon="2.81532034693">
        <ele>86.84</ele>
        <time>2022-01-27T18:10:12.147Z</time>
      </trkpt>
      <trkpt lat="41.92603147813" lon="2.81532034693">
        <ele>86.84</ele>
        <time>2022-01-27T18:10:14.580Z</time>
      </trkpt>
      <trkpt lat="41.92606505523" lon="2.81555538664">
        <ele>86.76</ele>
        <time>2022-01-27T18:10:17.016Z</time>
      </trkpt>
      <trkpt lat="41.92606505523" lon="2.81555538664">
        <ele>86.76</ele>
        <time>2022-01-27T18:10:19.452Z</time>
      </trkpt>
      <trkpt lat="41.9260816742" lon="2.81567171943">
        <ele>86.76</ele>
        <time>2022-01-27T18:10:21.889Z</time>
      </trkpt>
      <trkpt lat="41.9260816742" lon="2.81567171943">
        <ele>86.76</ele>
        <time>2022-01-27T18:10:24.326Z</time>
      </trkpt>
      <trkpt lat="41.92613203986" lon="2.816024279">
        <ele>86.81</ele>
        <time>2022-01-27T18:10:26.767Z</time>
      </trkpt>
      <trkpt lat="41.92613203986" lon="2.816024279">
        <ele>86.81</ele>
        <time>2022-01-27T18:10:29.208Z</time>
      </trkpt>
      <trkpt lat="41.92614" lon="2.81608">
        <ele>86.82896564495</ele>
        <time>2022-01-27T18:10:31.650Z</time>
      </trkpt>
      <trkpt lat="41.92614" lon="2.81608">
        <ele>86.82896564495</ele>
        <time>2022-01-27T18:10:34.092Z</time>
      </trkpt>
      <trkpt lat="41.92615781463" lon="2.81613819446">
        <ele>86.85</ele>
        <time>2022-01-27T18:10:36.535Z</time>
      </trkpt>
      <trkpt lat="41.92615781463" lon="2.81613819446">
        <ele>86.85</ele>
        <time>2022-01-27T18:10:38.978Z</time>
      </trkpt>
      <trkpt lat="41.92620845934" lon="2.81630363386">
        <ele>86.97</ele>
        <time>2022-01-27T18:10:41.423Z</time>
      </trkpt>
      <trkpt lat="41.92620845934" lon="2.81630363386">
        <ele>86.97</ele>
        <time>2022-01-27T18:10:43.868Z</time>
      </trkpt>
      <trkpt lat="41.92625910406" lon="2.81646907326">
        <ele>87.15</ele>
        <time>2022-01-27T18:10:46.315Z</time>
      </trkpt>
      <trkpt lat="41.92625910406" lon="2.81646907326">
        <ele>87.15</ele>
        <time>2022-01-27T18:10:48.762Z</time>
      </trkpt>
      <trkpt lat="41.92629" lon="2.81657">
        <ele>87.28331083073</ele>
        <time>2022-01-27T18:10:51.210Z</time>
      </trkpt>
      <trkpt lat="41.92629" lon="2.81657">
        <ele>87.28331083073</ele>
        <time>2022-01-27T18:10:53.658Z</time>
      </trkpt>
      <trkpt lat="41.92632159158" lon="2.81662686485">
        <ele>87.37</ele>
        <time>2022-01-27T18:10:56.107Z</time>
      </trkpt>
      <trkpt lat="41.92632159158" lon="2.81662686485">
        <ele>87.37</ele>
        <time>2022-01-27T18:10:58.556Z</time>
      </trkpt>
      <trkpt lat="41.92637486102" lon="2.81672274984">
        <ele>87.56</ele>
        <time>2022-01-27T18:11:01.007Z</time>
      </trkpt>
      <trkpt lat="41.92637486102" lon="2.81672274984">
        <ele>87.56</ele>
        <time>2022-01-27T18:11:03.458Z</time>
      </trkpt>
      <trkpt lat="41.92653413126" lon="2.81700943627">
        <ele>88.29</ele>
        <time>2022-01-27T18:11:05.913Z</time>
      </trkpt>
      <trkpt lat="41.92653413126" lon="2.81700943627">
        <ele>88.29</ele>
        <time>2022-01-27T18:11:08.368Z</time>
      </trkpt>
      <trkpt lat="41.92654" lon="2.81702">
        <ele>88.31269965862</ele>
        <time>2022-01-27T18:11:10.823Z</time>
      </trkpt>
      <trkpt lat="41.92654" lon="2.81702">
        <ele>88.31269965862</ele>
        <time>2022-01-27T18:11:13.278Z</time>
      </trkpt>
      <trkpt lat="41.9266" lon="2.81708">
        <ele>88.4857667925</ele>
        <time>2022-01-27T18:11:15.734Z</time>
      </trkpt>
      <trkpt lat="41.9266" lon="2.81708">
        <ele>88.4857667925</ele>
        <time>2022-01-27T18:11:18.190Z</time>
      </trkpt>
      <trkpt lat="41.92669054982" lon="2.81710587138">
        <ele>88.7</ele>
        <time>2022-01-27T18:11:20.648Z</time>
      </trkpt>
      <trkpt lat="41.92669054982" lon="2.81710587138">
        <ele>88.7</ele>
        <time>2022-01-27T18:11:23.106Z</time>
      </trkpt>
      <trkpt lat="41.92671957884" lon="2.81711416538">
        <ele>88.72</ele>
        <time>2022-01-27T18:11:25.564Z</time>
      </trkpt>
      <trkpt lat="41.92671957884" lon="2.81711416538">
        <ele>88.72</ele>
        <time>2022-01-27T18:11:28.022Z</time>
      </trkpt>
      <trkpt lat="41.92674" lon="2.81712">
        <ele>88.72409670029</ele>
        <time>2022-01-27T18:11:30.481Z</time>
      </trkpt>
      <trkpt lat="41.92674" lon="2.81712">
        <ele>88.72409670029</ele>
        <time>2022-01-27T18:11:32.940Z</time>
      </trkpt>
      <trkpt lat="41.92698" lon="2.81715">
        <ele>88.77139420249</ele>
        <time>2022-01-27T18:11:35.402Z</time>
      </trkpt>
      <trkpt lat="41.92698" lon="2.81715">
        <ele>88.77139420249</ele>
        <time>2022-01-27T18:11:37.864Z</time>
      </trkpt>
      <trkpt lat="41.9270238002" lon="2.81714701362">
        <ele>88.78</ele>
        <time>2022-01-27T18:11:40.327Z</time>
      </trkpt>
      <trkpt lat="41.9270238002" lon="2.81714701362">
        <ele>88.78</ele>
        <time>2022-01-27T18:11:42.790Z</time>
      </trkpt>
      <trkpt lat="41.92719894287" lon="2.81713507208">
        <ele>88.85</ele>
        <time>2022-01-27T18:11:45.256Z</time>
      </trkpt>
      <trkpt lat="41.92719894287" lon="2.81713507208">
        <ele>88.85</ele>
        <time>2022-01-27T18:11:47.722Z</time>
      </trkpt>
      <trkpt lat="41.92727349077" lon="2.81712998927">
        <ele>88.84</ele>
        <time>2022-01-27T18:11:50.189Z</time>
      </trkpt>
      <trkpt lat="41.92727349077" lon="2.81712998927">
        <ele>88.84</ele>
        <time>2022-01-27T18:11:52.656Z</time>
      </trkpt>
      <trkpt lat="41.92734803868" lon="2.81712490645">
        <ele>88.84</ele>
        <time>2022-01-27T18:11:55.124Z</time>
      </trkpt>
      <trkpt lat="41.92734803868" lon="2.81712490645">
        <ele>88.84</ele>
        <time>2022-01-27T18:11:57.592Z</time>
      </trkpt>
      <trkpt lat="41.92742" lon="2.81712">
        <ele>88.48845237207</ele>
        <time>2022-01-27T18:12:00.061Z</time>
      </trkpt>
      <trkpt lat="41.92742" lon="2.81712">
        <ele>88.48845237207</ele>
        <time>2022-01-27T18:12:02.530Z</time>
      </trkpt>
      <trkpt lat="41.92742063517" lon="2.81709840408">
        <ele>88.41</ele>
        <time>2022-01-27T18:12:05.000Z</time>
      </trkpt>
      <trkpt lat="41.92742063517" lon="2.81709840408">
        <ele>88.41</ele>
        <time>2022-01-27T18:12:07.470Z</time>
      </trkpt>
      <trkpt lat="41.92742770457" lon="2.81685804475">
        <ele>87.44</ele>
        <time>2022-01-27T18:12:09.943Z</time>
      </trkpt>
      <trkpt lat="41.92742770457" lon="2.81685804475">
        <ele>87.44</ele>
        <time>2022-01-27T18:12:12.416Z</time>
      </trkpt>
      <trkpt lat="41.9274294808" lon="2.81679765296">
        <ele>87.23</ele>
        <time>2022-01-27T18:12:14.889Z</time>
      </trkpt>
      <trkpt lat="41.9274294808" lon="2.81679765296">
        <ele>87.23</ele>
        <time>2022-01-27T18:12:17.362Z</time>
      </trkpt>
      <trkpt lat="41.92743" lon="2.81678">
        <ele>87.1832308311</ele>
        <time>2022-01-27T18:12:19.836Z</time>
      </trkpt>
      <trkpt lat="41.92743" lon="2.81678">
        <ele>87.1832308311</ele>
        <time>2022-01-27T18:12:22.310Z</time>
      </trkpt>
      <trkpt lat="41.92743768626" lon="2.81673849419">
        <ele>87.07</ele>
        <time>2022-01-27T18:12:24.784Z</time>
      </trkpt>
      <trkpt lat="41.92743768626" lon="2.81673849419">
        <ele>87.07</ele>
        <time>2022-01-27T18:12:27.258Z</time>
      </trkpt>
      <trkpt lat="41.92744854728" lon="2.81667984471">
        <ele>86.94</ele>
        <time>2022-01-27T18:12:29.733Z</time>
      </trkpt>
      <trkpt lat="41.92744854728" lon="2.81667984471">
        <ele>86.94</ele>
        <time>2022-01-27T18:12:32.208Z</time>
      </trkpt>
      <trkpt lat="41.92745919107" lon="2.81662236822">
        <ele>86.84</ele>
        <time>2022-01-27T18:12:34.683Z</time>
      </trkpt>
      <trkpt lat="41.92745919107" lon="2.81662236822">
        <ele>86.84</ele>
        <time>2022-01-27T18:12:37.158Z</time>
      </trkpt>
      <trkpt lat="41.92748" lon="2.81651">
        <ele>86.71</ele>
        <time>2022-01-27T18:12:39.635Z</time>
      </trkpt>
      <trkpt lat="41.92748" lon="2.81651">
        <ele>86.71</ele>
        <time>2022-01-27T18:12:42.112Z</time>
      </trkpt>
      <trkpt lat="41.92747963872" lon="2.81650494207">
        <ele>86.71</ele>
        <time>2022-01-27T18:12:44.589Z</time>
      </trkpt>
      <trkpt lat="41.92747963872" lon="2.81650494207">
        <ele>86.71</ele>
        <time>2022-01-27T18:12:47.066Z</time>
      </trkpt>
      <trkpt lat="41.92747113004" lon="2.81638582058">
        <ele>86.67</ele>
        <time>2022-01-27T18:12:49.544Z</time>
      </trkpt>
      <trkpt lat="41.92747113004" lon="2.81638582058">
        <ele>86.67</ele>
        <time>2022-01-27T18:12:52.022Z</time>
      </trkpt>
      <trkpt lat="41.92745832405" lon="2.81620653673">
        <ele>86.67</ele>
        <time>2022-01-27T18:12:54.503Z</time>
      </trkpt>
      <trkpt lat="41.92745832405" lon="2.81620653673">
        <ele>86.67</ele>
        <time>2022-01-27T18:12:56.984Z</time>
      </trkpt>
      <trkpt lat="41.92745" lon="2.81609">
        <ele>86.65539921917</ele>
        <time>2022-01-27T18:12:59.466Z</time>
      </trkpt>
      <trkpt lat="41.92745" lon="2.81609">
        <ele>86.65539921917</ele>
        <time>2022-01-27T18:13:01.948Z</time>
      </trkpt>
      <trkpt lat="41.92745" lon="2.81596652538">
        <ele>86.64</ele>
        <time>2022-01-27T18:13:04.431Z</time>
      </trkpt>
      <trkpt lat="41.92745" lon="2.81596652538">
        <ele>86.64</ele>
        <time>2022-01-27T18:13:06.914Z</time>
      </trkpt>
      <trkpt lat="41.92745" lon="2.81584685619">
        <ele>86.66</ele>
        <time>2022-01-27T18:13:09.399Z</time>
      </trkpt>
      <trkpt lat="41.92745" lon="2.81584685619">
        <ele>86.66</ele>
        <time>2022-01-27T18:13:11.884Z</time>
      </trkpt>
      <trkpt lat="41.92745" lon="2.81579">
        <ele>86.6845569569</ele>
        <time>2022-01-27T18:13:14.370Z</time>
      </trkpt>
      <trkpt lat="41.92745" lon="2.81579">
        <ele>86.6845569569</ele>
        <time>2022-01-27T18:13:16.856Z</time>
      </trkpt>
      <trkpt lat="41.92733" lon="2.8156">
        <ele>86.79</ele>
        <time>2022-01-27T18:13:19.344Z</time>
      </trkpt>
      <trkpt lat="41.92733" lon="2.8156">
        <ele>86.79</ele>
        <time>2022-01-27T18:13:21.832Z</time>
      </trkpt>
      <trkpt lat="41.9273" lon="2.8156">
        <ele>86.82787999367</ele>
        <time>2022-01-27T18:13:24.321Z</time>
      </trkpt>
    </trkseg>
  </trk>
</gpx>
